<?xml version='1.0' encoding='UTF-8'?>
<gpx version="1.1" creator="https://www.komoot.de" xmlns="http://www.topografix.com/GPX/1/1" xmlns:xsi="http://www.w3.org/2001/XMLSchema-instance" xsi:schemaLocation="http://www.topografix.com/GPX/1/1 http://www.topografix.com/GPX/1/1/gpx.xsd">
  <metadata>
    <name>Wanderung</name>
    <author>
      <link href="https://www.komoot.de">
        <text>komoot</text>
        <type>text/html</type>
      </link>
    </author>
  </metadata>
  <trk>
    <name>Wanderung</name>
    <trkseg>
      <trkpt lat="50.907521" lon="8.722467">
        <ele>210.461580</ele>
        <time>2021-01-01T06:54:21.443Z</time>
      </trkpt>
      <trkpt lat="50.907610" lon="8.722447">
        <ele>210.461580</ele>
        <time>2021-01-01T06:54:31.983Z</time>
      </trkpt>
      <trkpt lat="50.907702" lon="8.722371">
        <ele>210.461580</ele>
        <time>2021-01-01T06:54:38.983Z</time>
      </trkpt>
      <trkpt lat="50.907801" lon="8.722358">
        <ele>210.461580</ele>
        <time>2021-01-01T06:54:44.983Z</time>
      </trkpt>
      <trkpt lat="50.907902" lon="8.722298">
        <ele>210.461580</ele>
        <time>2021-01-01T06:54:49.983Z</time>
      </trkpt>
      <trkpt lat="50.907981" lon="8.722194">
        <ele>210.461580</ele>
        <time>2021-01-01T06:54:54.983Z</time>
      </trkpt>
      <trkpt lat="50.908040" lon="8.722065">
        <ele>210.461580</ele>
        <time>2021-01-01T06:55:03.983Z</time>
      </trkpt>
      <trkpt lat="50.908128" lon="8.721991">
        <ele>210.461580</ele>
        <time>2021-01-01T06:55:13.983Z</time>
      </trkpt>
      <trkpt lat="50.908221" lon="8.721885">
        <ele>210.461580</ele>
        <time>2021-01-01T06:55:20.983Z</time>
      </trkpt>
      <trkpt lat="50.908244" lon="8.721734">
        <ele>210.471242</ele>
        <time>2021-01-01T06:55:27.983Z</time>
      </trkpt>
      <trkpt lat="50.908240" lon="8.721582">
        <ele>210.526608</ele>
        <time>2021-01-01T06:55:34.983Z</time>
      </trkpt>
      <trkpt lat="50.908239" lon="8.721435">
        <ele>210.580109</ele>
        <time>2021-01-01T06:55:40.983Z</time>
      </trkpt>
      <trkpt lat="50.908228" lon="8.721279">
        <ele>210.637236</ele>
        <time>2021-01-01T06:55:47.983Z</time>
      </trkpt>
      <trkpt lat="50.908209" lon="8.721118">
        <ele>210.696847</ele>
        <time>2021-01-01T06:55:53.983Z</time>
      </trkpt>
      <trkpt lat="50.908195" lon="8.720975">
        <ele>210.749512</ele>
        <time>2021-01-01T06:55:59.982Z</time>
      </trkpt>
      <trkpt lat="50.908177" lon="8.720829">
        <ele>210.803653</ele>
        <time>2021-01-01T06:56:05.982Z</time>
      </trkpt>
      <trkpt lat="50.908194" lon="8.720664">
        <ele>210.864498</ele>
        <time>2021-01-01T06:56:12.982Z</time>
      </trkpt>
      <trkpt lat="50.908192" lon="8.720517">
        <ele>210.918008</ele>
        <time>2021-01-01T06:56:19.982Z</time>
      </trkpt>
      <trkpt lat="50.908253" lon="8.720404">
        <ele>210.972144</ele>
        <time>2021-01-01T06:56:26.982Z</time>
      </trkpt>
      <trkpt lat="50.908317" lon="8.720303">
        <ele>211.024254</ele>
        <time>2021-01-01T06:56:32.982Z</time>
      </trkpt>
      <trkpt lat="50.908345" lon="8.720161">
        <ele>211.078400</ele>
        <time>2021-01-01T06:56:38.982Z</time>
      </trkpt>
      <trkpt lat="50.908369" lon="8.720011">
        <ele>211.134720</ele>
        <time>2021-01-01T06:56:44.982Z</time>
      </trkpt>
      <trkpt lat="50.908414" lon="8.719868">
        <ele>211.192883</ele>
        <time>2021-01-01T06:56:51.982Z</time>
      </trkpt>
      <trkpt lat="50.908448" lon="8.719721">
        <ele>211.249866</ele>
        <time>2021-01-01T06:56:58.982Z</time>
      </trkpt>
      <trkpt lat="50.908497" lon="8.719577">
        <ele>211.309416</ele>
        <time>2021-01-01T06:57:05.982Z</time>
      </trkpt>
      <trkpt lat="50.908567" lon="8.719479">
        <ele>211.363306</ele>
        <time>2021-01-01T06:57:11.982Z</time>
      </trkpt>
      <trkpt lat="50.908631" lon="8.719373">
        <ele>211.416715</ele>
        <time>2021-01-01T06:57:17.982Z</time>
      </trkpt>
      <trkpt lat="50.908700" lon="8.719260">
        <ele>211.473961</ele>
        <time>2021-01-01T06:57:23.982Z</time>
      </trkpt>
      <trkpt lat="50.908765" lon="8.719150">
        <ele>211.515154</ele>
        <time>2021-01-01T06:57:29.982Z</time>
      </trkpt>
      <trkpt lat="50.908822" lon="8.719000">
        <ele>211.549003</ele>
        <time>2021-01-01T06:57:35.981Z</time>
      </trkpt>
      <trkpt lat="50.908843" lon="8.718840">
        <ele>211.580590</ele>
        <time>2021-01-01T06:57:42.981Z</time>
      </trkpt>
      <trkpt lat="50.908893" lon="8.718708">
        <ele>211.610352</ele>
        <time>2021-01-01T06:57:48.981Z</time>
      </trkpt>
      <trkpt lat="50.908939" lon="8.718572">
        <ele>211.640181</ele>
        <time>2021-01-01T06:57:54.981Z</time>
      </trkpt>
      <trkpt lat="50.909010" lon="8.718459">
        <ele>211.671012</ele>
        <time>2021-01-01T06:58:02.981Z</time>
      </trkpt>
      <trkpt lat="50.909098" lon="8.718371">
        <ele>211.702901</ele>
        <time>2021-01-01T06:58:10.981Z</time>
      </trkpt>
      <trkpt lat="50.909180" lon="8.718300">
        <ele>211.731537</ele>
        <time>2021-01-01T06:58:16.981Z</time>
      </trkpt>
      <trkpt lat="50.909273" lon="8.718199">
        <ele>211.766086</ele>
        <time>2021-01-01T06:58:22.981Z</time>
      </trkpt>
      <trkpt lat="50.909354" lon="8.718112">
        <ele>211.796072</ele>
        <time>2021-01-01T06:58:28.981Z</time>
      </trkpt>
      <trkpt lat="50.909426" lon="8.718013">
        <ele>211.825281</ele>
        <time>2021-01-01T06:58:35.981Z</time>
      </trkpt>
      <trkpt lat="50.909525" lon="8.717950">
        <ele>211.857978</ele>
        <time>2021-01-01T06:58:41.981Z</time>
      </trkpt>
      <trkpt lat="50.909616" lon="8.717878">
        <ele>211.889150</ele>
        <time>2021-01-01T06:58:46.981Z</time>
      </trkpt>
      <trkpt lat="50.909689" lon="8.717776">
        <ele>211.918971</ele>
        <time>2021-01-01T06:58:53.981Z</time>
      </trkpt>
      <trkpt lat="50.909765" lon="8.717676">
        <ele>211.949240</ele>
        <time>2021-01-01T06:59:00.981Z</time>
      </trkpt>
      <trkpt lat="50.909847" lon="8.717577">
        <ele>211.980829</ele>
        <time>2021-01-01T06:59:07.980Z</time>
      </trkpt>
      <trkpt lat="50.909920" lon="8.717481">
        <ele>212.009897</ele>
        <time>2021-01-01T06:59:13.980Z</time>
      </trkpt>
      <trkpt lat="50.909996" lon="8.717394">
        <ele>212.038626</ele>
        <time>2021-01-01T06:59:19.980Z</time>
      </trkpt>
      <trkpt lat="50.910052" lon="8.717272">
        <ele>212.091090</ele>
        <time>2021-01-01T06:59:25.980Z</time>
      </trkpt>
      <trkpt lat="50.910107" lon="8.717154">
        <ele>212.158769</ele>
        <time>2021-01-01T06:59:31.980Z</time>
      </trkpt>
      <trkpt lat="50.910157" lon="8.717020">
        <ele>212.230584</ele>
        <time>2021-01-01T06:59:37.980Z</time>
      </trkpt>
      <trkpt lat="50.910199" lon="8.716877">
        <ele>212.303343</ele>
        <time>2021-01-01T06:59:43.980Z</time>
      </trkpt>
      <trkpt lat="50.910259" lon="8.716745">
        <ele>212.378394</ele>
        <time>2021-01-01T06:59:50.980Z</time>
      </trkpt>
      <trkpt lat="50.910337" lon="8.716644">
        <ele>212.452050</ele>
        <time>2021-01-01T06:59:56.980Z</time>
      </trkpt>
      <trkpt lat="50.910403" lon="8.716514">
        <ele>212.529028</ele>
        <time>2021-01-01T07:00:03.980Z</time>
      </trkpt>
      <trkpt lat="50.910459" lon="8.716374">
        <ele>212.605496</ele>
        <time>2021-01-01T07:00:09.980Z</time>
      </trkpt>
      <trkpt lat="50.910512" lon="8.716240">
        <ele>212.678452</ele>
        <time>2021-01-01T07:00:15.980Z</time>
      </trkpt>
      <trkpt lat="50.910588" lon="8.716151">
        <ele>212.747556</ele>
        <time>2021-01-01T07:00:22.980Z</time>
      </trkpt>
      <trkpt lat="50.910644" lon="8.716037">
        <ele>212.814208</ele>
        <time>2021-01-01T07:00:28.980Z</time>
      </trkpt>
      <trkpt lat="50.910715" lon="8.715931">
        <ele>212.885533</ele>
        <time>2021-01-01T07:00:34.980Z</time>
      </trkpt>
      <trkpt lat="50.910783" lon="8.715834">
        <ele>212.952433</ele>
        <time>2021-01-01T07:00:40.980Z</time>
      </trkpt>
      <trkpt lat="50.910844" lon="8.715719">
        <ele>213.021744</ele>
        <time>2021-01-01T07:00:46.979Z</time>
      </trkpt>
      <trkpt lat="50.910908" lon="8.715589">
        <ele>213.097813</ele>
        <time>2021-01-01T07:00:53.979Z</time>
      </trkpt>
      <trkpt lat="50.910968" lon="8.715472">
        <ele>213.167370</ele>
        <time>2021-01-01T07:00:59.979Z</time>
      </trkpt>
      <trkpt lat="50.911009" lon="8.715318">
        <ele>213.244468</ele>
        <time>2021-01-01T07:01:05.979Z</time>
      </trkpt>
      <trkpt lat="50.911062" lon="8.715182">
        <ele>213.318207</ele>
        <time>2021-01-01T07:01:12.979Z</time>
      </trkpt>
      <trkpt lat="50.911131" lon="8.715082">
        <ele>213.374317</ele>
        <time>2021-01-01T07:01:18.979Z</time>
      </trkpt>
      <trkpt lat="50.911200" lon="8.714983">
        <ele>213.400518</ele>
        <time>2021-01-01T07:01:24.980Z</time>
      </trkpt>
      <trkpt lat="50.911239" lon="8.714854">
        <ele>213.425919</ele>
        <time>2021-01-01T07:01:29.986Z</time>
      </trkpt>
      <trkpt lat="50.911293" lon="8.714738">
        <ele>213.451521</ele>
        <time>2021-01-01T07:01:34.990Z</time>
      </trkpt>
      <trkpt lat="50.911363" lon="8.714637">
        <ele>213.478169</ele>
        <time>2021-01-01T07:01:40.993Z</time>
      </trkpt>
      <trkpt lat="50.911431" lon="8.714507">
        <ele>213.508160</ele>
        <time>2021-01-01T07:01:47.995Z</time>
      </trkpt>
      <trkpt lat="50.911486" lon="8.714367">
        <ele>213.537447</ele>
        <time>2021-01-01T07:01:53.997Z</time>
      </trkpt>
      <trkpt lat="50.911532" lon="8.714237">
        <ele>213.563915</ele>
        <time>2021-01-01T07:02:00.998Z</time>
      </trkpt>
      <trkpt lat="50.911603" lon="8.714139">
        <ele>213.590420</ele>
        <time>2021-01-01T07:02:06.998Z</time>
      </trkpt>
      <trkpt lat="50.911657" lon="8.714009">
        <ele>213.618060</ele>
        <time>2021-01-01T07:02:12.998Z</time>
      </trkpt>
      <trkpt lat="50.911713" lon="8.713893">
        <ele>213.644000</ele>
        <time>2021-01-01T07:02:18.999Z</time>
      </trkpt>
      <trkpt lat="50.911749" lon="8.713727">
        <ele>213.675168</ele>
        <time>2021-01-01T07:02:24.999Z</time>
      </trkpt>
      <trkpt lat="50.911771" lon="8.713582">
        <ele>213.701648</ele>
        <time>2021-01-01T07:02:31.999Z</time>
      </trkpt>
      <trkpt lat="50.911792" lon="8.713430">
        <ele>213.729276</ele>
        <time>2021-01-01T07:02:37.999Z</time>
      </trkpt>
      <trkpt lat="50.911835" lon="8.713290">
        <ele>213.756926</ele>
        <time>2021-01-01T07:02:44.999Z</time>
      </trkpt>
      <trkpt lat="50.911864" lon="8.713128">
        <ele>213.786826</ele>
        <time>2021-01-01T07:02:52.999Z</time>
      </trkpt>
      <trkpt lat="50.911881" lon="8.712965">
        <ele>213.816160</ele>
        <time>2021-01-01T07:02:58.999Z</time>
      </trkpt>
      <trkpt lat="50.911908" lon="8.712809">
        <ele>213.844882</ele>
        <time>2021-01-01T07:03:04.999Z</time>
      </trkpt>
      <trkpt lat="50.911926" lon="8.712651">
        <ele>213.873624</ele>
        <time>2021-01-01T07:03:10.999Z</time>
      </trkpt>
      <trkpt lat="50.911945" lon="8.712506">
        <ele>213.924042</ele>
        <time>2021-01-01T07:03:16.999Z</time>
      </trkpt>
      <trkpt lat="50.911963" lon="8.712342">
        <ele>213.980713</ele>
        <time>2021-01-01T07:03:23.999Z</time>
      </trkpt>
      <trkpt lat="50.911993" lon="8.712180">
        <ele>214.038193</ele>
        <time>2021-01-01T07:03:29.999Z</time>
      </trkpt>
      <trkpt lat="50.912010" lon="8.712028">
        <ele>214.090747</ele>
        <time>2021-01-01T07:03:35.999Z</time>
      </trkpt>
      <trkpt lat="50.912020" lon="8.711885">
        <ele>214.139728</ele>
        <time>2021-01-01T07:03:41.999Z</time>
      </trkpt>
      <trkpt lat="50.912034" lon="8.711722">
        <ele>214.195731</ele>
        <time>2021-01-01T07:03:48.999Z</time>
      </trkpt>
      <trkpt lat="50.912044" lon="8.711560">
        <ele>214.251146</ele>
        <time>2021-01-01T07:03:54.999Z</time>
      </trkpt>
      <trkpt lat="50.912048" lon="8.711391">
        <ele>214.308720</ele>
        <time>2021-01-01T07:04:00.999Z</time>
      </trkpt>
      <trkpt lat="50.912052" lon="8.711237">
        <ele>214.361191</ele>
        <time>2021-01-01T07:04:06.998Z</time>
      </trkpt>
      <trkpt lat="50.912036" lon="8.711082">
        <ele>214.414661</ele>
        <time>2021-01-01T07:04:13.998Z</time>
      </trkpt>
      <trkpt lat="50.912032" lon="8.710933">
        <ele>214.465432</ele>
        <time>2021-01-01T07:04:19.998Z</time>
      </trkpt>
      <trkpt lat="50.912033" lon="8.710782">
        <ele>214.516841</ele>
        <time>2021-01-01T07:04:25.998Z</time>
      </trkpt>
      <trkpt lat="50.912018" lon="8.710624">
        <ele>214.571236</ele>
        <time>2021-01-01T07:04:32.998Z</time>
      </trkpt>
      <trkpt lat="50.912006" lon="8.710467">
        <ele>214.625076</ele>
        <time>2021-01-01T07:04:39.998Z</time>
      </trkpt>
      <trkpt lat="50.912006" lon="8.710310">
        <ele>214.678524</ele>
        <time>2021-01-01T07:04:45.998Z</time>
      </trkpt>
      <trkpt lat="50.912006" lon="8.710150">
        <ele>214.732994</ele>
        <time>2021-01-01T07:04:51.998Z</time>
      </trkpt>
      <trkpt lat="50.912038" lon="8.710007">
        <ele>214.784651</ele>
        <time>2021-01-01T07:04:57.998Z</time>
      </trkpt>
      <trkpt lat="50.912134" lon="8.709937">
        <ele>214.841700</ele>
        <time>2021-01-01T07:05:03.998Z</time>
      </trkpt>
      <trkpt lat="50.912219" lon="8.709884">
        <ele>214.801094</ele>
        <time>2021-01-01T07:05:08.998Z</time>
      </trkpt>
      <trkpt lat="50.912305" lon="8.709821">
        <ele>214.753824</ele>
        <time>2021-01-01T07:05:14.998Z</time>
      </trkpt>
      <trkpt lat="50.912397" lon="8.709777">
        <ele>214.705874</ele>
        <time>2021-01-01T07:05:20.998Z</time>
      </trkpt>
      <trkpt lat="50.912488" lon="8.709698">
        <ele>214.654107</ele>
        <time>2021-01-01T07:05:27.998Z</time>
      </trkpt>
      <trkpt lat="50.912566" lon="8.709625">
        <ele>214.608914</ele>
        <time>2021-01-01T07:05:34.998Z</time>
      </trkpt>
      <trkpt lat="50.912660" lon="8.709549">
        <ele>214.556264</ele>
        <time>2021-01-01T07:05:40.998Z</time>
      </trkpt>
      <trkpt lat="50.912744" lon="8.709491">
        <ele>214.510548</ele>
        <time>2021-01-01T07:05:46.998Z</time>
      </trkpt>
      <trkpt lat="50.912820" lon="8.709407">
        <ele>214.464324</ele>
        <time>2021-01-01T07:05:52.998Z</time>
      </trkpt>
      <trkpt lat="50.912910" lon="8.709356">
        <ele>214.416633</ele>
        <time>2021-01-01T07:05:57.998Z</time>
      </trkpt>
      <trkpt lat="50.913002" lon="8.709321">
        <ele>214.369423</ele>
        <time>2021-01-01T07:06:02.998Z</time>
      </trkpt>
      <trkpt lat="50.913085" lon="8.709235">
        <ele>214.319951</ele>
        <time>2021-01-01T07:06:08.998Z</time>
      </trkpt>
      <trkpt lat="50.913172" lon="8.709167">
        <ele>214.271552</ele>
        <time>2021-01-01T07:06:14.998Z</time>
      </trkpt>
      <trkpt lat="50.913262" lon="8.709106">
        <ele>214.222713</ele>
        <time>2021-01-01T07:06:20.998Z</time>
      </trkpt>
      <trkpt lat="50.913355" lon="8.709033">
        <ele>214.170934</ele>
        <time>2021-01-01T07:06:27.997Z</time>
      </trkpt>
      <trkpt lat="50.913438" lon="8.708960">
        <ele>214.123575</ele>
        <time>2021-01-01T07:06:33.997Z</time>
      </trkpt>
      <trkpt lat="50.913530" lon="8.708866">
        <ele>214.068965</ele>
        <time>2021-01-01T07:06:41.997Z</time>
      </trkpt>
      <trkpt lat="50.913621" lon="8.708813">
        <ele>214.020591</ele>
        <time>2021-01-01T07:06:47.997Z</time>
      </trkpt>
      <trkpt lat="50.913709" lon="8.708762">
        <ele>213.973839</ele>
        <time>2021-01-01T07:06:53.997Z</time>
      </trkpt>
      <trkpt lat="50.913794" lon="8.708688">
        <ele>213.963468</ele>
        <time>2021-01-01T07:07:00.997Z</time>
      </trkpt>
      <trkpt lat="50.913892" lon="8.708645">
        <ele>214.003277</ele>
        <time>2021-01-01T07:07:06.997Z</time>
      </trkpt>
      <trkpt lat="50.913969" lon="8.708570">
        <ele>214.038654</ele>
        <time>2021-01-01T07:07:12.997Z</time>
      </trkpt>
      <trkpt lat="50.914051" lon="8.708493">
        <ele>214.075962</ele>
        <time>2021-01-01T07:07:18.997Z</time>
      </trkpt>
      <trkpt lat="50.914140" lon="8.708419">
        <ele>214.115303</ele>
        <time>2021-01-01T07:07:24.997Z</time>
      </trkpt>
      <trkpt lat="50.914221" lon="8.708337">
        <ele>214.152924</ele>
        <time>2021-01-01T07:07:30.997Z</time>
      </trkpt>
      <trkpt lat="50.914277" lon="8.708215">
        <ele>214.190174</ele>
        <time>2021-01-01T07:07:39.997Z</time>
      </trkpt>
      <trkpt lat="50.914298" lon="8.708064">
        <ele>214.228343</ele>
        <time>2021-01-01T07:07:46.997Z</time>
      </trkpt>
      <trkpt lat="50.914285" lon="8.707906">
        <ele>214.267674</ele>
        <time>2021-01-01T07:07:52.997Z</time>
      </trkpt>
      <trkpt lat="50.914301" lon="8.707756">
        <ele>214.305226</ele>
        <time>2021-01-01T07:07:58.997Z</time>
      </trkpt>
      <trkpt lat="50.914301" lon="8.707586">
        <ele>214.347188</ele>
        <time>2021-01-01T07:08:04.997Z</time>
      </trkpt>
      <trkpt lat="50.914276" lon="8.707426">
        <ele>214.387877</ele>
        <time>2021-01-01T07:08:10.997Z</time>
      </trkpt>
      <trkpt lat="50.914256" lon="8.707266">
        <ele>214.428140</ele>
        <time>2021-01-01T07:08:17.997Z</time>
      </trkpt>
      <trkpt lat="50.914239" lon="8.707113">
        <ele>214.466488</ele>
        <time>2021-01-01T07:08:24.997Z</time>
      </trkpt>
      <trkpt lat="50.914229" lon="8.706955">
        <ele>214.505685</ele>
        <time>2021-01-01T07:08:30.997Z</time>
      </trkpt>
      <trkpt lat="50.914224" lon="8.706792">
        <ele>214.545967</ele>
        <time>2021-01-01T07:08:36.998Z</time>
      </trkpt>
      <trkpt lat="50.914215" lon="8.706645">
        <ele>214.582423</ele>
        <time>2021-01-01T07:08:42.998Z</time>
      </trkpt>
      <trkpt lat="50.914189" lon="8.706494">
        <ele>214.621060</ele>
        <time>2021-01-01T07:08:48.999Z</time>
      </trkpt>
      <trkpt lat="50.914159" lon="8.706341">
        <ele>214.706670</ele>
        <time>2021-01-01T07:08:56.999Z</time>
      </trkpt>
      <trkpt lat="50.914174" lon="8.706194">
        <ele>214.918434</ele>
        <time>2021-01-01T07:09:02.999Z</time>
      </trkpt>
      <trkpt lat="50.914167" lon="8.706030">
        <ele>215.152187</ele>
        <time>2021-01-01T07:09:08.999Z</time>
      </trkpt>
      <trkpt lat="50.914138" lon="8.705862">
        <ele>215.399887</ele>
        <time>2021-01-01T07:09:15.999Z</time>
      </trkpt>
      <trkpt lat="50.914138" lon="8.705695">
        <ele>215.637372</ele>
        <time>2021-01-01T07:09:21.999Z</time>
      </trkpt>
      <trkpt lat="50.914130" lon="8.705509">
        <ele>215.902491</ele>
        <time>2021-01-01T07:09:28.999Z</time>
      </trkpt>
      <trkpt lat="50.914101" lon="8.705349">
        <ele>216.139238</ele>
        <time>2021-01-01T07:09:34.999Z</time>
      </trkpt>
      <trkpt lat="50.914104" lon="8.705206">
        <ele>216.342706</ele>
        <time>2021-01-01T07:09:40.999Z</time>
      </trkpt>
      <trkpt lat="50.914101" lon="8.705032">
        <ele>216.590238</ele>
        <time>2021-01-01T07:09:48.999Z</time>
      </trkpt>
      <trkpt lat="50.914062" lon="8.704898">
        <ele>216.800119</ele>
        <time>2021-01-01T07:09:55.999Z</time>
      </trkpt>
      <trkpt lat="50.914044" lon="8.704741">
        <ele>217.027045</ele>
        <time>2021-01-01T07:10:01.999Z</time>
      </trkpt>
      <trkpt lat="50.914025" lon="8.704588">
        <ele>217.248803</ele>
        <time>2021-01-01T07:10:07.999Z</time>
      </trkpt>
      <trkpt lat="50.914026" lon="8.704428">
        <ele>217.476345</ele>
        <time>2021-01-01T07:10:14.999Z</time>
      </trkpt>
      <trkpt lat="50.914030" lon="8.704276">
        <ele>217.692688</ele>
        <time>2021-01-01T07:10:20.998Z</time>
      </trkpt>
      <trkpt lat="50.914035" lon="8.704112">
        <ele>217.926180</ele>
        <time>2021-01-01T07:10:26.998Z</time>
      </trkpt>
      <trkpt lat="50.914047" lon="8.703965">
        <ele>218.136969</ele>
        <time>2021-01-01T07:10:32.998Z</time>
      </trkpt>
      <trkpt lat="50.914074" lon="8.703814">
        <ele>218.360171</ele>
        <time>2021-01-01T07:10:38.998Z</time>
      </trkpt>
      <trkpt lat="50.914097" lon="8.703675">
        <ele>218.564532</ele>
        <time>2021-01-01T07:10:44.998Z</time>
      </trkpt>
      <trkpt lat="50.914150" lon="8.703537">
        <ele>218.944221</ele>
        <time>2021-01-01T07:10:51.998Z</time>
      </trkpt>
      <trkpt lat="50.914205" lon="8.703398">
        <ele>219.581943</ele>
        <time>2021-01-01T07:10:59.998Z</time>
      </trkpt>
      <trkpt lat="50.914270" lon="8.703285">
        <ele>220.176361</ele>
        <time>2021-01-01T07:11:05.998Z</time>
      </trkpt>
      <trkpt lat="50.914335" lon="8.703164">
        <ele>220.794100</ele>
        <time>2021-01-01T07:11:13.998Z</time>
      </trkpt>
      <trkpt lat="50.914407" lon="8.703070">
        <ele>221.368879</ele>
        <time>2021-01-01T07:11:20.998Z</time>
      </trkpt>
      <trkpt lat="50.914459" lon="8.702954">
        <ele>221.921982</ele>
        <time>2021-01-01T07:11:27.998Z</time>
      </trkpt>
      <trkpt lat="50.914510" lon="8.702836">
        <ele>222.477929</ele>
        <time>2021-01-01T07:11:34.998Z</time>
      </trkpt>
      <trkpt lat="50.914536" lon="8.702693">
        <ele>223.056272</ele>
        <time>2021-01-01T07:11:41.998Z</time>
      </trkpt>
      <trkpt lat="50.914537" lon="8.702543">
        <ele>223.639205</ele>
        <time>2021-01-01T07:11:48.998Z</time>
      </trkpt>
      <trkpt lat="50.914554" lon="8.702396">
        <ele>224.219976</ele>
        <time>2021-01-01T07:11:58.997Z</time>
      </trkpt>
      <trkpt lat="50.914559" lon="8.702238">
        <ele>224.834737</ele>
        <time>2021-01-01T07:12:05.997Z</time>
      </trkpt>
      <trkpt lat="50.914526" lon="8.702098">
        <ele>225.415555</ele>
        <time>2021-01-01T07:12:12.997Z</time>
      </trkpt>
      <trkpt lat="50.914513" lon="8.701934">
        <ele>226.057876</ele>
        <time>2021-01-01T07:12:21.997Z</time>
      </trkpt>
      <trkpt lat="50.914496" lon="8.701782">
        <ele>226.657769</ele>
        <time>2021-01-01T07:12:30.997Z</time>
      </trkpt>
      <trkpt lat="50.914502" lon="8.701628">
        <ele>227.257355</ele>
        <time>2021-01-01T07:12:37.997Z</time>
      </trkpt>
      <trkpt lat="50.914586" lon="8.701566">
        <ele>227.828409</ele>
        <time>2021-01-01T07:12:43.997Z</time>
      </trkpt>
      <trkpt lat="50.914681" lon="8.701621">
        <ele>228.451735</ele>
        <time>2021-01-01T07:12:49.997Z</time>
      </trkpt>
      <trkpt lat="50.914775" lon="8.701625">
        <ele>229.031318</ele>
        <time>2021-01-01T07:12:55.997Z</time>
      </trkpt>
      <trkpt lat="50.914870" lon="8.701614">
        <ele>229.618415</ele>
        <time>2021-01-01T07:13:03.997Z</time>
      </trkpt>
      <trkpt lat="50.914967" lon="8.701574">
        <ele>230.303304</ele>
        <time>2021-01-01T07:13:10.997Z</time>
      </trkpt>
      <trkpt lat="50.915056" lon="8.701538">
        <ele>230.955362</ele>
        <time>2021-01-01T07:13:19.997Z</time>
      </trkpt>
      <trkpt lat="50.915149" lon="8.701507">
        <ele>231.630017</ele>
        <time>2021-01-01T07:13:28.996Z</time>
      </trkpt>
      <trkpt lat="50.915244" lon="8.701473">
        <ele>232.321404</ele>
        <time>2021-01-01T07:13:36.996Z</time>
      </trkpt>
      <trkpt lat="50.915338" lon="8.701456">
        <ele>232.993060</ele>
        <time>2021-01-01T07:13:43.996Z</time>
      </trkpt>
      <trkpt lat="50.915427" lon="8.701409">
        <ele>233.658995</ele>
        <time>2021-01-01T07:13:50.996Z</time>
      </trkpt>
      <trkpt lat="50.915522" lon="8.701374">
        <ele>234.351381</ele>
        <time>2021-01-01T07:13:57.996Z</time>
      </trkpt>
      <trkpt lat="50.915615" lon="8.701322">
        <ele>235.051436</ele>
        <time>2021-01-01T07:14:03.996Z</time>
      </trkpt>
      <trkpt lat="50.915705" lon="8.701240">
        <ele>235.788281</ele>
        <time>2021-01-01T07:14:10.996Z</time>
      </trkpt>
      <trkpt lat="50.915786" lon="8.701150">
        <ele>236.490378</ele>
        <time>2021-01-01T07:14:18.996Z</time>
      </trkpt>
      <trkpt lat="50.915870" lon="8.701055">
        <ele>237.222784</ele>
        <time>2021-01-01T07:14:24.996Z</time>
      </trkpt>
      <trkpt lat="50.915948" lon="8.700965">
        <ele>237.907545</ele>
        <time>2021-01-01T07:14:31.996Z</time>
      </trkpt>
      <trkpt lat="50.916031" lon="8.700854">
        <ele>238.678278</ele>
        <time>2021-01-01T07:14:39.996Z</time>
      </trkpt>
      <trkpt lat="50.916105" lon="8.700754">
        <ele>239.368435</ele>
        <time>2021-01-01T07:14:45.996Z</time>
      </trkpt>
      <trkpt lat="50.916184" lon="8.700647">
        <ele>240.105930</ele>
        <time>2021-01-01T07:14:52.996Z</time>
      </trkpt>
      <trkpt lat="50.916248" lon="8.700529">
        <ele>240.802616</ele>
        <time>2021-01-01T07:15:00.995Z</time>
      </trkpt>
      <trkpt lat="50.916307" lon="8.700401">
        <ele>241.512302</ele>
        <time>2021-01-01T07:15:08.995Z</time>
      </trkpt>
      <trkpt lat="50.916372" lon="8.700267">
        <ele>242.269034</ele>
        <time>2021-01-01T07:15:14.995Z</time>
      </trkpt>
      <trkpt lat="50.916441" lon="8.700159">
        <ele>242.727916</ele>
        <time>2021-01-01T07:15:21.995Z</time>
      </trkpt>
      <trkpt lat="50.916470" lon="8.700015">
        <ele>243.011029</ele>
        <time>2021-01-01T07:15:28.995Z</time>
      </trkpt>
      <trkpt lat="50.916458" lon="8.699860">
        <ele>243.303497</ele>
        <time>2021-01-01T07:15:38.996Z</time>
      </trkpt>
      <trkpt lat="50.916413" lon="8.699729">
        <ele>243.582892</ele>
        <time>2021-01-01T07:15:45.997Z</time>
      </trkpt>
      <trkpt lat="50.916357" lon="8.699396">
        <ele>244.228349</ele>
        <time>2021-01-01T07:16:31.998Z</time>
      </trkpt>
      <trkpt lat="50.916347" lon="8.699244">
        <ele>244.514565</ele>
        <time>2021-01-01T07:16:38.998Z</time>
      </trkpt>
      <trkpt lat="50.916322" lon="8.699085">
        <ele>244.821466</ele>
        <time>2021-01-01T07:16:45.998Z</time>
      </trkpt>
      <trkpt lat="50.916296" lon="8.698935">
        <ele>245.112815</ele>
        <time>2021-01-01T07:16:53.998Z</time>
      </trkpt>
      <trkpt lat="50.916264" lon="8.698789">
        <ele>245.402301</ele>
        <time>2021-01-01T07:17:00.998Z</time>
      </trkpt>
      <trkpt lat="50.916225" lon="8.698643">
        <ele>245.699266</ele>
        <time>2021-01-01T07:17:06.998Z</time>
      </trkpt>
      <trkpt lat="50.916184" lon="8.698492">
        <ele>246.007177</ele>
        <time>2021-01-01T07:17:15.998Z</time>
      </trkpt>
      <trkpt lat="50.916166" lon="8.698338">
        <ele>246.300508</ele>
        <time>2021-01-01T07:17:22.998Z</time>
      </trkpt>
      <trkpt lat="50.916135" lon="8.698185">
        <ele>246.601487</ele>
        <time>2021-01-01T07:17:29.998Z</time>
      </trkpt>
      <trkpt lat="50.916115" lon="8.698035">
        <ele>246.888626</ele>
        <time>2021-01-01T07:17:35.998Z</time>
      </trkpt>
      <trkpt lat="50.916088" lon="8.697894">
        <ele>247.164609</ele>
        <time>2021-01-01T07:17:41.998Z</time>
      </trkpt>
      <trkpt lat="50.916072" lon="8.697754">
        <ele>247.431079</ele>
        <time>2021-01-01T07:17:47.998Z</time>
      </trkpt>
      <trkpt lat="50.916033" lon="8.697604">
        <ele>247.734957</ele>
        <time>2021-01-01T07:17:55.997Z</time>
      </trkpt>
      <trkpt lat="50.916080" lon="8.697481">
        <ele>247.829273</ele>
        <time>2021-01-01T07:18:03.997Z</time>
      </trkpt>
      <trkpt lat="50.916155" lon="8.697374">
        <ele>247.595536</ele>
        <time>2021-01-01T07:18:10.997Z</time>
      </trkpt>
      <trkpt lat="50.916207" lon="8.697247">
        <ele>247.374318</ele>
        <time>2021-01-01T07:18:17.997Z</time>
      </trkpt>
      <trkpt lat="50.916260" lon="8.697105">
        <ele>247.133254</ele>
        <time>2021-01-01T07:18:24.997Z</time>
      </trkpt>
      <trkpt lat="50.916311" lon="8.696979">
        <ele>246.914520</ele>
        <time>2021-01-01T07:18:32.997Z</time>
      </trkpt>
      <trkpt lat="50.916384" lon="8.696838">
        <ele>246.647991</ele>
        <time>2021-01-01T07:19:26.996Z</time>
      </trkpt>
      <trkpt lat="50.916445" lon="8.696708">
        <ele>246.411258</ele>
        <time>2021-01-01T07:19:33.996Z</time>
      </trkpt>
      <trkpt lat="50.916488" lon="8.696557">
        <ele>246.169215</ele>
        <time>2021-01-01T07:19:39.996Z</time>
      </trkpt>
      <trkpt lat="50.916532" lon="8.696425">
        <ele>245.951093</ele>
        <time>2021-01-01T07:19:47.996Z</time>
      </trkpt>
      <trkpt lat="50.916571" lon="8.696273">
        <ele>245.711364</ele>
        <time>2021-01-01T07:19:54.995Z</time>
      </trkpt>
      <trkpt lat="50.916630" lon="8.696146">
        <ele>245.480911</ele>
        <time>2021-01-01T07:20:00.995Z</time>
      </trkpt>
      <trkpt lat="50.916690" lon="8.696017">
        <ele>245.246731</ele>
        <time>2021-01-01T07:20:08.995Z</time>
      </trkpt>
      <trkpt lat="50.916717" lon="8.695874">
        <ele>245.028667</ele>
        <time>2021-01-01T07:20:15.995Z</time>
      </trkpt>
      <trkpt lat="50.916778" lon="8.695755">
        <ele>244.804620</ele>
        <time>2021-01-01T07:20:22.995Z</time>
      </trkpt>
      <trkpt lat="50.916824" lon="8.695611">
        <ele>244.568800</ele>
        <time>2021-01-01T07:20:30.995Z</time>
      </trkpt>
      <trkpt lat="50.916862" lon="8.695469">
        <ele>244.343451</ele>
        <time>2021-01-01T07:20:37.995Z</time>
      </trkpt>
      <trkpt lat="50.916919" lon="8.695334">
        <ele>244.106100</ele>
        <time>2021-01-01T07:20:45.995Z</time>
      </trkpt>
      <trkpt lat="50.916988" lon="8.695228">
        <ele>243.883527</ele>
        <time>2021-01-01T07:20:52.995Z</time>
      </trkpt>
      <trkpt lat="50.917015" lon="8.695083">
        <ele>243.499838</ele>
        <time>2021-01-01T07:21:01.994Z</time>
      </trkpt>
      <trkpt lat="50.917076" lon="8.694966">
        <ele>242.800844</ele>
        <time>2021-01-01T07:21:09.994Z</time>
      </trkpt>
      <trkpt lat="50.917138" lon="8.694859">
        <ele>242.131761</ele>
        <time>2021-01-01T07:21:18.994Z</time>
      </trkpt>
      <trkpt lat="50.917190" lon="8.694731">
        <ele>241.430705</ele>
        <time>2021-01-01T07:21:27.994Z</time>
      </trkpt>
      <trkpt lat="50.917247" lon="8.694606">
        <ele>240.720455</ele>
        <time>2021-01-01T07:21:36.994Z</time>
      </trkpt>
      <trkpt lat="50.917295" lon="8.694482">
        <ele>240.050545</ele>
        <time>2021-01-01T07:21:44.994Z</time>
      </trkpt>
      <trkpt lat="50.917355" lon="8.694353">
        <ele>239.312502</ele>
        <time>2021-01-01T07:21:52.994Z</time>
      </trkpt>
      <trkpt lat="50.917396" lon="8.694220">
        <ele>238.630900</ele>
        <time>2021-01-01T07:22:00.994Z</time>
      </trkpt>
      <trkpt lat="50.917425" lon="8.694072">
        <ele>237.917370</ele>
        <time>2021-01-01T07:22:07.994Z</time>
      </trkpt>
      <trkpt lat="50.917460" lon="8.693926">
        <ele>237.198246</ele>
        <time>2021-01-01T07:22:16.994Z</time>
      </trkpt>
      <trkpt lat="50.917382" lon="8.693849">
        <ele>236.527333</ele>
        <time>2021-01-01T07:22:22.994Z</time>
      </trkpt>
      <trkpt lat="50.917299" lon="8.693754">
        <ele>235.779885</ele>
        <time>2021-01-01T07:22:28.993Z</time>
      </trkpt>
      <trkpt lat="50.917280" lon="8.693613">
        <ele>235.116071</ele>
        <time>2021-01-01T07:22:45.994Z</time>
      </trkpt>
      <trkpt lat="50.917364" lon="8.693548">
        <ele>234.433544</ele>
        <time>2021-01-01T07:22:50.995Z</time>
      </trkpt>
      <trkpt lat="50.917448" lon="8.693497">
        <ele>233.776718</ele>
        <time>2021-01-01T07:22:56.997Z</time>
      </trkpt>
      <trkpt lat="50.917540" lon="8.693425">
        <ele>233.027547</ele>
        <time>2021-01-01T07:23:03.997Z</time>
      </trkpt>
      <trkpt lat="50.917635" lon="8.693381">
        <ele>232.304823</ele>
        <time>2021-01-01T07:23:10.998Z</time>
      </trkpt>
      <trkpt lat="50.917721" lon="8.693322">
        <ele>231.620568</ele>
        <time>2021-01-01T07:23:16.998Z</time>
      </trkpt>
      <trkpt lat="50.917815" lon="8.693261">
        <ele>230.878891</ele>
        <time>2021-01-01T07:23:22.998Z</time>
      </trkpt>
      <trkpt lat="50.917900" lon="8.693212">
        <ele>230.573291</ele>
        <time>2021-01-01T07:23:29.998Z</time>
      </trkpt>
      <trkpt lat="50.917994" lon="8.693166">
        <ele>230.517059</ele>
        <time>2021-01-01T07:23:35.998Z</time>
      </trkpt>
      <trkpt lat="50.918080" lon="8.693093">
        <ele>230.461303</ele>
        <time>2021-01-01T07:23:41.998Z</time>
      </trkpt>
      <trkpt lat="50.918177" lon="8.693022">
        <ele>230.400236</ele>
        <time>2021-01-01T07:23:49.998Z</time>
      </trkpt>
      <trkpt lat="50.918262" lon="8.692976">
        <ele>230.348897</ele>
        <time>2021-01-01T07:23:55.998Z</time>
      </trkpt>
      <trkpt lat="50.918350" lon="8.692938">
        <ele>230.296763</ele>
        <time>2021-01-01T07:24:01.998Z</time>
      </trkpt>
      <trkpt lat="50.918448" lon="8.692846">
        <ele>230.231668</ele>
        <time>2021-01-01T07:24:08.998Z</time>
      </trkpt>
      <trkpt lat="50.918523" lon="8.692741">
        <ele>230.174486</ele>
        <time>2021-01-01T07:24:16.998Z</time>
      </trkpt>
      <trkpt lat="50.918602" lon="8.692661">
        <ele>230.120909</ele>
        <time>2021-01-01T07:24:24.998Z</time>
      </trkpt>
      <trkpt lat="50.918703" lon="8.692623">
        <ele>230.061573</ele>
        <time>2021-01-01T07:24:30.998Z</time>
      </trkpt>
      <trkpt lat="50.918806" lon="8.692588">
        <ele>230.001359</ele>
        <time>2021-01-01T07:24:37.998Z</time>
      </trkpt>
      <trkpt lat="50.918893" lon="8.692511">
        <ele>229.944410</ele>
        <time>2021-01-01T07:24:43.998Z</time>
      </trkpt>
      <trkpt lat="50.918976" lon="8.692445">
        <ele>229.891337</ele>
        <time>2021-01-01T07:24:50.998Z</time>
      </trkpt>
      <trkpt lat="50.919076" lon="8.692377">
        <ele>229.829143</ele>
        <time>2021-01-01T07:24:56.998Z</time>
      </trkpt>
      <trkpt lat="50.919172" lon="8.692325">
        <ele>229.771155</ele>
        <time>2021-01-01T07:25:03.998Z</time>
      </trkpt>
      <trkpt lat="50.919265" lon="8.692279">
        <ele>229.715469</ele>
        <time>2021-01-01T07:25:08.998Z</time>
      </trkpt>
      <trkpt lat="50.919359" lon="8.692236">
        <ele>229.659546</ele>
        <time>2021-01-01T07:25:15.997Z</time>
      </trkpt>
      <trkpt lat="50.919451" lon="8.692151">
        <ele>229.598686</ele>
        <time>2021-01-01T07:25:21.997Z</time>
      </trkpt>
      <trkpt lat="50.919548" lon="8.692118">
        <ele>229.605504</ele>
        <time>2021-01-01T07:25:28.997Z</time>
      </trkpt>
      <trkpt lat="50.919640" lon="8.692069">
        <ele>229.655887</ele>
        <time>2021-01-01T07:25:34.997Z</time>
      </trkpt>
      <trkpt lat="50.919727" lon="8.692009">
        <ele>229.705137</ele>
        <time>2021-01-01T07:25:40.997Z</time>
      </trkpt>
      <trkpt lat="50.919819" lon="8.691941">
        <ele>229.757829</ele>
        <time>2021-01-01T07:25:47.997Z</time>
      </trkpt>
      <trkpt lat="50.919914" lon="8.691873">
        <ele>229.811936</ele>
        <time>2021-01-01T07:25:54.997Z</time>
      </trkpt>
      <trkpt lat="50.920013" lon="8.691818">
        <ele>229.866393</ele>
        <time>2021-01-01T07:26:01.997Z</time>
      </trkpt>
      <trkpt lat="50.920096" lon="8.691762">
        <ele>229.913218</ele>
        <time>2021-01-01T07:26:07.997Z</time>
      </trkpt>
      <trkpt lat="50.920186" lon="8.691693">
        <ele>229.965112</ele>
        <time>2021-01-01T07:26:13.997Z</time>
      </trkpt>
      <trkpt lat="50.920272" lon="8.691631">
        <ele>230.014154</ele>
        <time>2021-01-01T07:26:19.997Z</time>
      </trkpt>
      <trkpt lat="50.920352" lon="8.691538">
        <ele>230.065644</ele>
        <time>2021-01-01T07:26:27.997Z</time>
      </trkpt>
      <trkpt lat="50.920442" lon="8.691458">
        <ele>230.119203</ele>
        <time>2021-01-01T07:26:33.997Z</time>
      </trkpt>
      <trkpt lat="50.920522" lon="8.691360">
        <ele>230.171678</ele>
        <time>2021-01-01T07:26:39.996Z</time>
      </trkpt>
      <trkpt lat="50.920573" lon="8.691223">
        <ele>230.223747</ele>
        <time>2021-01-01T07:26:46.996Z</time>
      </trkpt>
      <trkpt lat="50.920632" lon="8.691100">
        <ele>230.274330</ele>
        <time>2021-01-01T07:26:52.996Z</time>
      </trkpt>
      <trkpt lat="50.920700" lon="8.690990">
        <ele>230.324750</ele>
        <time>2021-01-01T07:26:59.996Z</time>
      </trkpt>
      <trkpt lat="50.920771" lon="8.690877">
        <ele>230.376964</ele>
        <time>2021-01-01T07:27:07.996Z</time>
      </trkpt>
      <trkpt lat="50.920847" lon="8.690785">
        <ele>230.426595</ele>
        <time>2021-01-01T07:27:12.996Z</time>
      </trkpt>
      <trkpt lat="50.920912" lon="8.690685">
        <ele>230.473603</ele>
        <time>2021-01-01T07:27:19.996Z</time>
      </trkpt>
      <trkpt lat="50.920972" lon="8.690564">
        <ele>230.579848</ele>
        <time>2021-01-01T07:27:25.996Z</time>
      </trkpt>
      <trkpt lat="50.921045" lon="8.690449">
        <ele>230.832806</ele>
        <time>2021-01-01T07:27:32.996Z</time>
      </trkpt>
      <trkpt lat="50.921107" lon="8.690327">
        <ele>231.075698</ele>
        <time>2021-01-01T07:27:39.996Z</time>
      </trkpt>
      <trkpt lat="50.921178" lon="8.690224">
        <ele>231.312261</ele>
        <time>2021-01-01T07:27:45.996Z</time>
      </trkpt>
      <trkpt lat="50.921261" lon="8.690124">
        <ele>231.568524</ele>
        <time>2021-01-01T07:27:52.996Z</time>
      </trkpt>
      <trkpt lat="50.921329" lon="8.690013">
        <ele>231.808428</ele>
        <time>2021-01-01T07:27:59.996Z</time>
      </trkpt>
      <trkpt lat="50.921401" lon="8.689902">
        <ele>232.055287</ele>
        <time>2021-01-01T07:28:06.996Z</time>
      </trkpt>
      <trkpt lat="50.921471" lon="8.689782">
        <ele>232.308698</ele>
        <time>2021-01-01T07:28:13.995Z</time>
      </trkpt>
      <trkpt lat="50.921541" lon="8.689673">
        <ele>232.549872</ele>
        <time>2021-01-01T07:28:20.995Z</time>
      </trkpt>
      <trkpt lat="50.921593" lon="8.689555">
        <ele>232.773025</ele>
        <time>2021-01-01T07:28:26.995Z</time>
      </trkpt>
      <trkpt lat="50.921648" lon="8.689433">
        <ele>233.005499</ele>
        <time>2021-01-01T07:28:32.995Z</time>
      </trkpt>
      <trkpt lat="50.921727" lon="8.689337">
        <ele>233.250182</ele>
        <time>2021-01-01T07:28:39.995Z</time>
      </trkpt>
      <trkpt lat="50.921793" lon="8.689226">
        <ele>233.486684</ele>
        <time>2021-01-01T07:28:47.995Z</time>
      </trkpt>
      <trkpt lat="50.921876" lon="8.689169">
        <ele>233.709062</ele>
        <time>2021-01-01T07:28:55.995Z</time>
      </trkpt>
      <trkpt lat="50.921967" lon="8.689150">
        <ele>233.934738</ele>
        <time>2021-01-01T07:29:01.995Z</time>
      </trkpt>
      <trkpt lat="50.922065" lon="8.689139">
        <ele>234.176298</ele>
        <time>2021-01-01T07:29:09.995Z</time>
      </trkpt>
      <trkpt lat="50.922165" lon="8.689124">
        <ele>234.423269</ele>
        <time>2021-01-01T07:29:17.995Z</time>
      </trkpt>
      <trkpt lat="50.922256" lon="8.689123">
        <ele>234.647021</ele>
        <time>2021-01-01T07:29:23.995Z</time>
      </trkpt>
      <trkpt lat="50.922348" lon="8.689130">
        <ele>234.873486</ele>
        <time>2021-01-01T07:29:30.995Z</time>
      </trkpt>
      <trkpt lat="50.922439" lon="8.689119">
        <ele>235.456322</ele>
        <time>2021-01-01T07:29:36.995Z</time>
      </trkpt>
      <trkpt lat="50.922534" lon="8.689089">
        <ele>236.207402</ele>
        <time>2021-01-01T07:29:43.994Z</time>
      </trkpt>
      <trkpt lat="50.922627" lon="8.689085">
        <ele>236.928786</ele>
        <time>2021-01-01T07:29:49.994Z</time>
      </trkpt>
      <trkpt lat="50.922712" lon="8.689022">
        <ele>237.656261</ele>
        <time>2021-01-01T07:29:56.995Z</time>
      </trkpt>
      <trkpt lat="50.922785" lon="8.688936">
        <ele>238.361313</ele>
        <time>2021-01-01T07:30:02.996Z</time>
      </trkpt>
      <trkpt lat="50.922859" lon="8.688830">
        <ele>239.134409</ele>
        <time>2021-01-01T07:30:10.997Z</time>
      </trkpt>
      <trkpt lat="50.922916" lon="8.688713">
        <ele>239.857171</ele>
        <time>2021-01-01T07:30:17.998Z</time>
      </trkpt>
      <trkpt lat="50.922980" lon="8.688598">
        <ele>240.606988</ele>
        <time>2021-01-01T07:30:24.998Z</time>
      </trkpt>
      <trkpt lat="50.923063" lon="8.688514">
        <ele>241.370380</ele>
        <time>2021-01-01T07:30:32.998Z</time>
      </trkpt>
      <trkpt lat="50.923137" lon="8.688397">
        <ele>242.180490</ele>
        <time>2021-01-01T07:30:39.999Z</time>
      </trkpt>
      <trkpt lat="50.923214" lon="8.688295">
        <ele>242.958328</ele>
        <time>2021-01-01T07:30:47.999Z</time>
      </trkpt>
      <trkpt lat="50.923271" lon="8.688170">
        <ele>243.712406</ele>
        <time>2021-01-01T07:30:55.999Z</time>
      </trkpt>
      <trkpt lat="50.923348" lon="8.688071">
        <ele>244.480927</ele>
        <time>2021-01-01T07:31:03.998Z</time>
      </trkpt>
      <trkpt lat="50.923407" lon="8.687960">
        <ele>245.190607</ele>
        <time>2021-01-01T07:31:09.998Z</time>
      </trkpt>
      <trkpt lat="50.923466" lon="8.687848">
        <ele>245.904030</ele>
        <time>2021-01-01T07:31:17.998Z</time>
      </trkpt>
      <trkpt lat="50.923550" lon="8.687774">
        <ele>246.649052</ele>
        <time>2021-01-01T07:31:24.998Z</time>
      </trkpt>
      <trkpt lat="50.923622" lon="8.687672">
        <ele>247.397541</ele>
        <time>2021-01-01T07:31:32.998Z</time>
      </trkpt>
      <trkpt lat="50.923691" lon="8.687573">
        <ele>248.118927</ele>
        <time>2021-01-01T07:31:39.998Z</time>
      </trkpt>
      <trkpt lat="50.923773" lon="8.687496">
        <ele>248.857789</ele>
        <time>2021-01-01T07:31:47.998Z</time>
      </trkpt>
      <trkpt lat="50.923859" lon="8.687412">
        <ele>249.487157</ele>
        <time>2021-01-01T07:31:55.998Z</time>
      </trkpt>
      <trkpt lat="50.923958" lon="8.687385">
        <ele>250.109090</ele>
        <time>2021-01-01T07:32:05.998Z</time>
      </trkpt>
      <trkpt lat="50.924141" lon="8.686314">
        <ele>254.439724</ele>
        <time>2021-01-01T07:34:58.998Z</time>
      </trkpt>
      <trkpt lat="50.924151" lon="8.686136">
        <ele>255.137158</ele>
        <time>2021-01-01T07:35:07.998Z</time>
      </trkpt>
      <trkpt lat="50.924145" lon="8.685988">
        <ele>255.715950</ele>
        <time>2021-01-01T07:35:13.997Z</time>
      </trkpt>
      <trkpt lat="50.924155" lon="8.685846">
        <ele>256.273580</ele>
        <time>2021-01-01T07:35:19.997Z</time>
      </trkpt>
      <trkpt lat="50.924208" lon="8.685711">
        <ele>256.894274</ele>
        <time>2021-01-01T07:35:26.997Z</time>
      </trkpt>
      <trkpt lat="50.924285" lon="8.685629">
        <ele>257.468457</ele>
        <time>2021-01-01T07:35:32.997Z</time>
      </trkpt>
      <trkpt lat="50.924364" lon="8.685554">
        <ele>258.038463</ele>
        <time>2021-01-01T07:35:39.997Z</time>
      </trkpt>
      <trkpt lat="50.924460" lon="8.685504">
        <ele>258.664043</ele>
        <time>2021-01-01T07:35:47.997Z</time>
      </trkpt>
      <trkpt lat="50.924550" lon="8.685447">
        <ele>259.264025</ele>
        <time>2021-01-01T07:35:54.997Z</time>
      </trkpt>
      <trkpt lat="50.924635" lon="8.685388">
        <ele>259.838455</ele>
        <time>2021-01-01T07:36:00.997Z</time>
      </trkpt>
      <trkpt lat="50.924732" lon="8.685359">
        <ele>259.880635</ele>
        <time>2021-01-01T07:36:06.996Z</time>
      </trkpt>
      <trkpt lat="50.924822" lon="8.685300">
        <ele>259.695957</ele>
        <time>2021-01-01T07:36:21.996Z</time>
      </trkpt>
      <trkpt lat="50.924914" lon="8.685243">
        <ele>259.508650</ele>
        <time>2021-01-01T07:36:28.996Z</time>
      </trkpt>
      <trkpt lat="50.925007" lon="8.685200">
        <ele>259.324943</ele>
        <time>2021-01-01T07:36:34.996Z</time>
      </trkpt>
      <trkpt lat="50.925090" lon="8.685141">
        <ele>259.152459</ele>
        <time>2021-01-01T07:36:41.996Z</time>
      </trkpt>
      <trkpt lat="50.925183" lon="8.685071">
        <ele>258.957246</ele>
        <time>2021-01-01T07:36:47.996Z</time>
      </trkpt>
      <trkpt lat="50.925289" lon="8.685020">
        <ele>258.747182</ele>
        <time>2021-01-01T07:36:54.996Z</time>
      </trkpt>
      <trkpt lat="50.925386" lon="8.684978">
        <ele>258.556498</ele>
        <time>2021-01-01T07:37:00.996Z</time>
      </trkpt>
      <trkpt lat="50.925477" lon="8.684945">
        <ele>258.379471</ele>
        <time>2021-01-01T07:37:05.996Z</time>
      </trkpt>
      <trkpt lat="50.925567" lon="8.684905">
        <ele>258.202219</ele>
        <time>2021-01-01T07:37:12.996Z</time>
      </trkpt>
      <trkpt lat="50.925658" lon="8.684841">
        <ele>258.013445</ele>
        <time>2021-01-01T07:37:19.996Z</time>
      </trkpt>
      <trkpt lat="50.925741" lon="8.684785">
        <ele>257.842397</ele>
        <time>2021-01-01T07:37:25.996Z</time>
      </trkpt>
      <trkpt lat="50.925837" lon="8.684734">
        <ele>257.650402</ele>
        <time>2021-01-01T07:37:32.996Z</time>
      </trkpt>
      <trkpt lat="50.925923" lon="8.684684">
        <ele>257.476701</ele>
        <time>2021-01-01T07:37:39.996Z</time>
      </trkpt>
      <trkpt lat="50.926008" lon="8.684630">
        <ele>257.303059</ele>
        <time>2021-01-01T07:37:45.996Z</time>
      </trkpt>
      <trkpt lat="50.926100" lon="8.684574">
        <ele>257.116185</ele>
        <time>2021-01-01T07:37:52.995Z</time>
      </trkpt>
      <trkpt lat="50.926194" lon="8.684516">
        <ele>256.924911</ele>
        <time>2021-01-01T07:37:58.995Z</time>
      </trkpt>
      <trkpt lat="50.926289" lon="8.684475">
        <ele>256.738202</ele>
        <time>2021-01-01T07:38:05.995Z</time>
      </trkpt>
      <trkpt lat="50.926381" lon="8.684420">
        <ele>256.531949</ele>
        <time>2021-01-01T07:38:11.995Z</time>
      </trkpt>
      <trkpt lat="50.926470" lon="8.684368">
        <ele>256.282597</ele>
        <time>2021-01-01T07:38:18.995Z</time>
      </trkpt>
      <trkpt lat="50.926573" lon="8.684347">
        <ele>256.009575</ele>
        <time>2021-01-01T07:38:24.995Z</time>
      </trkpt>
      <trkpt lat="50.926667" lon="8.684318">
        <ele>255.757812</ele>
        <time>2021-01-01T07:38:30.995Z</time>
      </trkpt>
      <trkpt lat="50.926766" lon="8.684290">
        <ele>255.493429</ele>
        <time>2021-01-01T07:38:37.995Z</time>
      </trkpt>
      <trkpt lat="50.926863" lon="8.684237">
        <ele>255.223707</ele>
        <time>2021-01-01T07:38:44.995Z</time>
      </trkpt>
      <trkpt lat="50.926963" lon="8.684180">
        <ele>254.944345</ele>
        <time>2021-01-01T07:38:51.995Z</time>
      </trkpt>
      <trkpt lat="50.927047" lon="8.684129">
        <ele>254.707883</ele>
        <time>2021-01-01T07:38:57.995Z</time>
      </trkpt>
      <trkpt lat="50.927143" lon="8.684081">
        <ele>254.443254</ele>
        <time>2021-01-01T07:39:04.995Z</time>
      </trkpt>
      <trkpt lat="50.927238" lon="8.684036">
        <ele>254.182596</ele>
        <time>2021-01-01T07:39:10.995Z</time>
      </trkpt>
      <trkpt lat="50.927319" lon="8.683946">
        <ele>253.922609</ele>
        <time>2021-01-01T07:39:15.995Z</time>
      </trkpt>
      <trkpt lat="50.927412" lon="8.683926">
        <ele>253.675868</ele>
        <time>2021-01-01T07:39:22.995Z</time>
      </trkpt>
      <trkpt lat="50.927500" lon="8.683888">
        <ele>253.436092</ele>
        <time>2021-01-01T07:39:29.995Z</time>
      </trkpt>
      <trkpt lat="50.927592" lon="8.683839">
        <ele>253.180951</ele>
        <time>2021-01-01T07:39:36.995Z</time>
      </trkpt>
      <trkpt lat="50.927687" lon="8.683780">
        <ele>252.912733</ele>
        <time>2021-01-01T07:39:43.994Z</time>
      </trkpt>
      <trkpt lat="50.927775" lon="8.683715">
        <ele>252.657529</ele>
        <time>2021-01-01T07:39:50.994Z</time>
      </trkpt>
      <trkpt lat="50.927867" lon="8.683678">
        <ele>252.408003</ele>
        <time>2021-01-01T07:39:56.994Z</time>
      </trkpt>
      <trkpt lat="50.927960" lon="8.683633">
        <ele>252.152380</ele>
        <time>2021-01-01T07:40:02.994Z</time>
      </trkpt>
      <trkpt lat="50.928046" lon="8.683590">
        <ele>251.915317</ele>
        <time>2021-01-01T07:40:08.994Z</time>
      </trkpt>
      <trkpt lat="50.928144" lon="8.683563">
        <ele>251.767561</ele>
        <time>2021-01-01T07:40:14.994Z</time>
      </trkpt>
      <trkpt lat="50.928245" lon="8.683522">
        <ele>251.634918</ele>
        <time>2021-01-01T07:40:21.994Z</time>
      </trkpt>
      <trkpt lat="50.928331" lon="8.683478">
        <ele>251.519952</ele>
        <time>2021-01-01T07:40:27.994Z</time>
      </trkpt>
      <trkpt lat="50.928431" lon="8.683428">
        <ele>251.386552</ele>
        <time>2021-01-01T07:40:33.994Z</time>
      </trkpt>
      <trkpt lat="50.928523" lon="8.683363">
        <ele>251.258419</ele>
        <time>2021-01-01T07:40:40.994Z</time>
      </trkpt>
      <trkpt lat="50.928611" lon="8.683311">
        <ele>251.138942</ele>
        <time>2021-01-01T07:40:46.994Z</time>
      </trkpt>
      <trkpt lat="50.928701" lon="8.683252">
        <ele>251.015045</ele>
        <time>2021-01-01T07:40:52.994Z</time>
      </trkpt>
      <trkpt lat="50.928794" lon="8.683207">
        <ele>250.891340</ele>
        <time>2021-01-01T07:40:58.994Z</time>
      </trkpt>
      <trkpt lat="50.928885" lon="8.683154">
        <ele>250.768006</ele>
        <time>2021-01-01T07:41:05.994Z</time>
      </trkpt>
      <trkpt lat="50.928878" lon="8.682997">
        <ele>250.641791</ele>
        <time>2021-01-01T07:41:15.994Z</time>
      </trkpt>
      <trkpt lat="50.928818" lon="8.682874">
        <ele>250.517065</ele>
        <time>2021-01-01T07:41:21.994Z</time>
      </trkpt>
      <trkpt lat="50.928772" lon="8.682748">
        <ele>250.400297</ele>
        <time>2021-01-01T07:41:27.994Z</time>
      </trkpt>
      <trkpt lat="50.928724" lon="8.682622">
        <ele>250.282233</ele>
        <time>2021-01-01T07:41:33.993Z</time>
      </trkpt>
      <trkpt lat="50.928672" lon="8.682496">
        <ele>250.161459</ele>
        <time>2021-01-01T07:41:39.993Z</time>
      </trkpt>
      <trkpt lat="50.928602" lon="8.682379">
        <ele>250.032095</ele>
        <time>2021-01-01T07:41:46.993Z</time>
      </trkpt>
      <trkpt lat="50.928555" lon="8.682249">
        <ele>249.911912</ele>
        <time>2021-01-01T07:41:52.993Z</time>
      </trkpt>
      <trkpt lat="50.928502" lon="8.682102">
        <ele>249.776106</ele>
        <time>2021-01-01T07:41:59.995Z</time>
      </trkpt>
      <trkpt lat="50.928462" lon="8.681960">
        <ele>249.651378</ele>
        <time>2021-01-01T07:42:06.995Z</time>
      </trkpt>
      <trkpt lat="50.928394" lon="8.681841">
        <ele>249.323729</ele>
        <time>2021-01-01T07:42:13.992Z</time>
      </trkpt>
      <trkpt lat="50.928330" lon="8.681582">
        <ele>248.399148</ele>
        <time>2021-01-01T07:42:41.984Z</time>
      </trkpt>
      <trkpt lat="50.928276" lon="8.681452">
        <ele>247.881700</ele>
        <time>2021-01-01T07:42:47.983Z</time>
      </trkpt>
      <trkpt lat="50.928228" lon="8.681307">
        <ele>247.337365</ele>
        <time>2021-01-01T07:42:54.983Z</time>
      </trkpt>
      <trkpt lat="50.928185" lon="8.681176">
        <ele>246.846480</ele>
        <time>2021-01-01T07:43:00.982Z</time>
      </trkpt>
      <trkpt lat="50.928140" lon="8.681033">
        <ele>246.315272</ele>
        <time>2021-01-01T07:43:07.982Z</time>
      </trkpt>
      <trkpt lat="50.928092" lon="8.680912">
        <ele>245.840104</ele>
        <time>2021-01-01T07:43:14.982Z</time>
      </trkpt>
      <trkpt lat="50.928031" lon="8.680794">
        <ele>245.332892</ele>
        <time>2021-01-01T07:43:21.982Z</time>
      </trkpt>
      <trkpt lat="50.927995" lon="8.680662">
        <ele>244.854876</ele>
        <time>2021-01-01T07:43:31.982Z</time>
      </trkpt>
      <trkpt lat="50.927952" lon="8.680466">
        <ele>244.165128</ele>
        <time>2021-01-01T07:44:02.982Z</time>
      </trkpt>
      <trkpt lat="50.927919" lon="8.680319">
        <ele>243.646503</ele>
        <time>2021-01-01T07:44:14.982Z</time>
      </trkpt>
      <trkpt lat="50.927862" lon="8.680198">
        <ele>243.144446</ele>
        <time>2021-01-01T07:44:25.982Z</time>
      </trkpt>
      <trkpt lat="50.927812" lon="8.680058">
        <ele>242.609643</ele>
        <time>2021-01-01T07:44:30.982Z</time>
      </trkpt>
      <trkpt lat="50.927814" lon="8.679904">
        <ele>242.097706</ele>
        <time>2021-01-01T07:44:36.981Z</time>
      </trkpt>
      <trkpt lat="50.927883" lon="8.679790">
        <ele>241.572415</ele>
        <time>2021-01-01T07:44:41.981Z</time>
      </trkpt>
      <trkpt lat="50.927961" lon="8.679701">
        <ele>241.065801</ele>
        <time>2021-01-01T07:44:47.981Z</time>
      </trkpt>
      <trkpt lat="50.928031" lon="8.679596">
        <ele>240.557841</ele>
        <time>2021-01-01T07:44:54.981Z</time>
      </trkpt>
      <trkpt lat="50.928101" lon="8.679504">
        <ele>240.100350</ele>
        <time>2021-01-01T07:45:01.981Z</time>
      </trkpt>
      <trkpt lat="50.928176" lon="8.679409">
        <ele>240.073442</ele>
        <time>2021-01-01T07:45:08.981Z</time>
      </trkpt>
      <trkpt lat="50.928259" lon="8.679342">
        <ele>240.047331</ele>
        <time>2021-01-01T07:45:15.981Z</time>
      </trkpt>
      <trkpt lat="50.928252" lon="8.679191">
        <ele>240.020574</ele>
        <time>2021-01-01T07:45:22.981Z</time>
      </trkpt>
      <trkpt lat="50.928193" lon="8.679063">
        <ele>239.992550</ele>
        <time>2021-01-01T07:45:27.981Z</time>
      </trkpt>
      <trkpt lat="50.928118" lon="8.678958">
        <ele>239.964506</ele>
        <time>2021-01-01T07:45:32.981Z</time>
      </trkpt>
      <trkpt lat="50.928061" lon="8.678837">
        <ele>239.937810</ele>
        <time>2021-01-01T07:45:37.981Z</time>
      </trkpt>
      <trkpt lat="50.928002" lon="8.678711">
        <ele>239.910071</ele>
        <time>2021-01-01T07:45:44.981Z</time>
      </trkpt>
      <trkpt lat="50.927947" lon="8.678592">
        <ele>239.883993</ele>
        <time>2021-01-01T07:45:50.981Z</time>
      </trkpt>
      <trkpt lat="50.927859" lon="8.678502">
        <ele>239.854637</ele>
        <time>2021-01-01T07:45:57.981Z</time>
      </trkpt>
      <trkpt lat="50.927793" lon="8.678386">
        <ele>239.827020</ele>
        <time>2021-01-01T07:46:04.981Z</time>
      </trkpt>
      <trkpt lat="50.927737" lon="8.678251">
        <ele>239.798460</ele>
        <time>2021-01-01T07:46:11.981Z</time>
      </trkpt>
      <trkpt lat="50.927673" lon="8.678117">
        <ele>239.768748</ele>
        <time>2021-01-01T07:46:18.981Z</time>
      </trkpt>
      <trkpt lat="50.927624" lon="8.677974">
        <ele>239.739984</ele>
        <time>2021-01-01T07:46:24.981Z</time>
      </trkpt>
      <trkpt lat="50.927626" lon="8.677812">
        <ele>239.711349</ele>
        <time>2021-01-01T07:46:31.981Z</time>
      </trkpt>
      <trkpt lat="50.927638" lon="8.677665">
        <ele>239.685154</ele>
        <time>2021-01-01T07:46:38.981Z</time>
      </trkpt>
      <trkpt lat="50.927653" lon="8.677503">
        <ele>239.656217</ele>
        <time>2021-01-01T07:46:45.981Z</time>
      </trkpt>
      <trkpt lat="50.927643" lon="8.677343">
        <ele>239.627803</ele>
        <time>2021-01-01T07:46:51.981Z</time>
      </trkpt>
      <trkpt lat="50.927625" lon="8.677188">
        <ele>239.599949</ele>
        <time>2021-01-01T07:46:59.981Z</time>
      </trkpt>
      <trkpt lat="50.927627" lon="8.677036">
        <ele>239.871568</ele>
        <time>2021-01-01T07:47:07.981Z</time>
      </trkpt>
      <trkpt lat="50.927596" lon="8.676885">
        <ele>240.189793</ele>
        <time>2021-01-01T07:47:23.980Z</time>
      </trkpt>
      <trkpt lat="50.927585" lon="8.676722">
        <ele>240.518285</ele>
        <time>2021-01-01T07:47:29.980Z</time>
      </trkpt>
      <trkpt lat="50.927580" lon="8.676574">
        <ele>240.815279</ele>
        <time>2021-01-01T07:47:35.980Z</time>
      </trkpt>
      <trkpt lat="50.927587" lon="8.676411">
        <ele>241.142662</ele>
        <time>2021-01-01T07:47:41.980Z</time>
      </trkpt>
      <trkpt lat="50.927589" lon="8.676246">
        <ele>241.473356</ele>
        <time>2021-01-01T07:47:47.980Z</time>
      </trkpt>
      <trkpt lat="50.927609" lon="8.676097">
        <ele>241.778623</ele>
        <time>2021-01-01T07:47:54.980Z</time>
      </trkpt>
      <trkpt lat="50.927607" lon="8.675951">
        <ele>242.071253</ele>
        <time>2021-01-01T07:48:08.980Z</time>
      </trkpt>
      <trkpt lat="50.927587" lon="8.675811">
        <ele>242.358905</ele>
        <time>2021-01-01T07:48:14.980Z</time>
      </trkpt>
      <trkpt lat="50.927581" lon="8.675656">
        <ele>242.670085</ele>
        <time>2021-01-01T07:48:21.980Z</time>
      </trkpt>
      <trkpt lat="50.927578" lon="8.675506">
        <ele>242.970812</ele>
        <time>2021-01-01T07:48:27.980Z</time>
      </trkpt>
      <trkpt lat="50.927607" lon="8.675362">
        <ele>243.273736</ele>
        <time>2021-01-01T07:48:33.980Z</time>
      </trkpt>
      <trkpt lat="50.927599" lon="8.675212">
        <ele>243.575386</ele>
        <time>2021-01-01T07:48:41.980Z</time>
      </trkpt>
      <trkpt lat="50.927567" lon="8.675064">
        <ele>243.888918</ele>
        <time>2021-01-01T07:48:49.980Z</time>
      </trkpt>
      <trkpt lat="50.927570" lon="8.674904">
        <ele>244.209674</ele>
        <time>2021-01-01T07:48:56.979Z</time>
      </trkpt>
      <trkpt lat="50.927576" lon="8.674749">
        <ele>244.520854</ele>
        <time>2021-01-01T07:49:03.987Z</time>
      </trkpt>
      <trkpt lat="50.927550" lon="8.674609">
        <ele>244.813315</ele>
        <time>2021-01-01T07:49:09.991Z</time>
      </trkpt>
      <trkpt lat="50.927533" lon="8.674452">
        <ele>245.132527</ele>
        <time>2021-01-01T07:49:17.995Z</time>
      </trkpt>
      <trkpt lat="50.927521" lon="8.674299">
        <ele>245.430879</ele>
        <time>2021-01-01T07:49:25.997Z</time>
      </trkpt>
      <trkpt lat="50.927518" lon="8.674152">
        <ele>245.700808</ele>
        <time>2021-01-01T07:49:32.998Z</time>
      </trkpt>
      <trkpt lat="50.927512" lon="8.674008">
        <ele>245.965667</ele>
        <time>2021-01-01T07:49:39.998Z</time>
      </trkpt>
      <trkpt lat="50.927510" lon="8.673864">
        <ele>246.230013</ele>
        <time>2021-01-01T07:49:46.999Z</time>
      </trkpt>
      <trkpt lat="50.927495" lon="8.673702">
        <ele>246.530521</ele>
        <time>2021-01-01T07:49:53.999Z</time>
      </trkpt>
      <trkpt lat="50.927495" lon="8.673546">
        <ele>246.816827</ele>
        <time>2021-01-01T07:50:01.999Z</time>
      </trkpt>
      <trkpt lat="50.927471" lon="8.673390">
        <ele>247.111537</ele>
        <time>2021-01-01T07:50:08.999Z</time>
      </trkpt>
      <trkpt lat="50.927463" lon="8.673239">
        <ele>247.389644</ele>
        <time>2021-01-01T07:50:15.999Z</time>
      </trkpt>
      <trkpt lat="50.927470" lon="8.673081">
        <ele>247.680335</ele>
        <time>2021-01-01T07:50:23.999Z</time>
      </trkpt>
      <trkpt lat="50.927465" lon="8.672925">
        <ele>247.967011</ele>
        <time>2021-01-01T07:50:30.999Z</time>
      </trkpt>
      <trkpt lat="50.927461" lon="8.672782">
        <ele>248.229716</ele>
        <time>2021-01-01T07:50:37.999Z</time>
      </trkpt>
      <trkpt lat="50.927438" lon="8.672638">
        <ele>248.502351</ele>
        <time>2021-01-01T07:50:44.999Z</time>
      </trkpt>
      <trkpt lat="50.927424" lon="8.672490">
        <ele>248.777017</ele>
        <time>2021-01-01T07:50:51.999Z</time>
      </trkpt>
      <trkpt lat="50.927420" lon="8.672339">
        <ele>249.054391</ele>
        <time>2021-01-01T07:50:59.999Z</time>
      </trkpt>
      <trkpt lat="50.927398" lon="8.672187">
        <ele>249.340616</ele>
        <time>2021-01-01T07:51:06.999Z</time>
      </trkpt>
      <trkpt lat="50.927374" lon="8.672036">
        <ele>249.626421</ele>
        <time>2021-01-01T07:51:13.999Z</time>
      </trkpt>
      <trkpt lat="50.927366" lon="8.671882">
        <ele>249.910014</ele>
        <time>2021-01-01T07:51:20.999Z</time>
      </trkpt>
      <trkpt lat="50.927373" lon="8.671733">
        <ele>250.184232</ele>
        <time>2021-01-01T07:51:27.999Z</time>
      </trkpt>
      <trkpt lat="50.927370" lon="8.671576">
        <ele>250.472506</ele>
        <time>2021-01-01T07:51:34.999Z</time>
      </trkpt>
      <trkpt lat="50.927346" lon="8.671437">
        <ele>250.765157</ele>
        <time>2021-01-01T07:51:41.999Z</time>
      </trkpt>
      <trkpt lat="50.927343" lon="8.671276">
        <ele>251.105908</ele>
        <time>2021-01-01T07:51:48.999Z</time>
      </trkpt>
      <trkpt lat="50.927339" lon="8.671127">
        <ele>251.421409</ele>
        <time>2021-01-01T07:51:55.999Z</time>
      </trkpt>
      <trkpt lat="50.927316" lon="8.670979">
        <ele>251.743886</ele>
        <time>2021-01-01T07:52:03.999Z</time>
      </trkpt>
      <trkpt lat="50.927305" lon="8.670826">
        <ele>252.069662</ele>
        <time>2021-01-01T07:52:10.998Z</time>
      </trkpt>
      <trkpt lat="50.927290" lon="8.670673">
        <ele>252.397232</ele>
        <time>2021-01-01T07:52:18.998Z</time>
      </trkpt>
      <trkpt lat="50.927277" lon="8.670517">
        <ele>252.730129</ele>
        <time>2021-01-01T07:52:26.998Z</time>
      </trkpt>
      <trkpt lat="50.927249" lon="8.670375">
        <ele>253.044893</ele>
        <time>2021-01-01T07:52:34.998Z</time>
      </trkpt>
      <trkpt lat="50.927223" lon="8.670235">
        <ele>253.353658</ele>
        <time>2021-01-01T07:52:41.998Z</time>
      </trkpt>
      <trkpt lat="50.927193" lon="8.670083">
        <ele>253.690617</ele>
        <time>2021-01-01T07:52:49.998Z</time>
      </trkpt>
      <trkpt lat="50.927167" lon="8.669929">
        <ele>254.027897</ele>
        <time>2021-01-01T07:52:57.998Z</time>
      </trkpt>
      <trkpt lat="50.927140" lon="8.669784">
        <ele>254.347757</ele>
        <time>2021-01-01T07:53:04.998Z</time>
      </trkpt>
      <trkpt lat="50.927119" lon="8.669622">
        <ele>254.697649</ele>
        <time>2021-01-01T07:53:12.998Z</time>
      </trkpt>
      <trkpt lat="50.927097" lon="8.669472">
        <ele>255.023460</ele>
        <time>2021-01-01T07:53:20.998Z</time>
      </trkpt>
      <trkpt lat="50.927098" lon="8.669311">
        <ele>255.364080</ele>
        <time>2021-01-01T07:53:31.998Z</time>
      </trkpt>
      <trkpt lat="50.927072" lon="8.669152">
        <ele>255.711588</ele>
        <time>2021-01-01T07:53:43.998Z</time>
      </trkpt>
      <trkpt lat="50.927045" lon="8.668991">
        <ele>256.064042</ele>
        <time>2021-01-01T07:53:48.998Z</time>
      </trkpt>
      <trkpt lat="50.927021" lon="8.668848">
        <ele>256.377107</ele>
        <time>2021-01-01T07:53:53.998Z</time>
      </trkpt>
      <trkpt lat="50.926994" lon="8.668694">
        <ele>256.801885</ele>
        <time>2021-01-01T07:53:59.998Z</time>
      </trkpt>
      <trkpt lat="50.926974" lon="8.668554">
        <ele>257.314881</ele>
        <time>2021-01-01T07:54:05.998Z</time>
      </trkpt>
      <trkpt lat="50.926947" lon="8.668406">
        <ele>257.865484</ele>
        <time>2021-01-01T07:54:12.998Z</time>
      </trkpt>
      <trkpt lat="50.926921" lon="8.668266">
        <ele>258.387056</ele>
        <time>2021-01-01T07:54:18.998Z</time>
      </trkpt>
      <trkpt lat="50.926886" lon="8.668129">
        <ele>258.915329</ele>
        <time>2021-01-01T07:54:24.997Z</time>
      </trkpt>
      <trkpt lat="50.926852" lon="8.667989">
        <ele>259.451489</ele>
        <time>2021-01-01T07:54:30.997Z</time>
      </trkpt>
      <trkpt lat="50.926833" lon="8.667832">
        <ele>260.022797</ele>
        <time>2021-01-01T07:54:38.997Z</time>
      </trkpt>
      <trkpt lat="50.926829" lon="8.667676">
        <ele>260.580745</ele>
        <time>2021-01-01T07:54:44.997Z</time>
      </trkpt>
      <trkpt lat="50.926808" lon="8.667534">
        <ele>261.101981</ele>
        <time>2021-01-01T07:54:50.997Z</time>
      </trkpt>
      <trkpt lat="50.926805" lon="8.667388">
        <ele>261.624009</ele>
        <time>2021-01-01T07:54:57.997Z</time>
      </trkpt>
      <trkpt lat="50.926880" lon="8.667289">
        <ele>262.177164</ele>
        <time>2021-01-01T07:55:07.997Z</time>
      </trkpt>
      <trkpt lat="50.926980" lon="8.667271">
        <ele>262.747763</ele>
        <time>2021-01-01T07:55:16.997Z</time>
      </trkpt>
      <trkpt lat="50.927070" lon="8.667214">
        <ele>263.297184</ele>
        <time>2021-01-01T07:55:25.997Z</time>
      </trkpt>
      <trkpt lat="50.927165" lon="8.667209">
        <ele>263.836095</ele>
        <time>2021-01-01T07:55:33.997Z</time>
      </trkpt>
      <trkpt lat="50.927252" lon="8.667172">
        <ele>264.346766</ele>
        <time>2021-01-01T07:55:40.997Z</time>
      </trkpt>
      <trkpt lat="50.927336" lon="8.667108">
        <ele>264.875085</ele>
        <time>2021-01-01T07:55:47.997Z</time>
      </trkpt>
      <trkpt lat="50.927432" lon="8.667050">
        <ele>265.457498</ele>
        <time>2021-01-01T07:55:55.997Z</time>
      </trkpt>
      <trkpt lat="50.927523" lon="8.667005">
        <ele>265.997914</ele>
        <time>2021-01-01T07:56:04.997Z</time>
      </trkpt>
      <trkpt lat="50.927621" lon="8.666994">
        <ele>266.554926</ele>
        <time>2021-01-01T07:56:11.998Z</time>
      </trkpt>
      <trkpt lat="50.927711" lon="8.666952">
        <ele>267.005248</ele>
        <time>2021-01-01T07:56:17.998Z</time>
      </trkpt>
      <trkpt lat="50.927803" lon="8.666929">
        <ele>267.389533</ele>
        <time>2021-01-01T07:56:24.999Z</time>
      </trkpt>
      <trkpt lat="50.927894" lon="8.666882">
        <ele>267.784403</ele>
        <time>2021-01-01T07:56:31.999Z</time>
      </trkpt>
      <trkpt lat="50.927992" lon="8.666851">
        <ele>268.196719</ele>
        <time>2021-01-01T07:56:39.999Z</time>
      </trkpt>
      <trkpt lat="50.927936" lon="8.666577">
        <ele>268.945828</ele>
        <time>2021-01-01T07:57:27.999Z</time>
      </trkpt>
      <trkpt lat="50.927936" lon="8.666417">
        <ele>269.361935</ele>
        <time>2021-01-01T07:57:34.999Z</time>
      </trkpt>
      <trkpt lat="50.927884" lon="8.666293">
        <ele>269.749272</ele>
        <time>2021-01-01T07:57:42.999Z</time>
      </trkpt>
      <trkpt lat="50.927872" lon="8.666142">
        <ele>270.145083</ele>
        <time>2021-01-01T07:57:50.999Z</time>
      </trkpt>
      <trkpt lat="50.927839" lon="8.665997">
        <ele>270.546010</ele>
        <time>2021-01-01T07:57:56.999Z</time>
      </trkpt>
      <trkpt lat="50.927820" lon="8.665849">
        <ele>270.938812</ele>
        <time>2021-01-01T07:58:01.999Z</time>
      </trkpt>
      <trkpt lat="50.927807" lon="8.665684">
        <ele>271.371263</ele>
        <time>2021-01-01T07:58:07.999Z</time>
      </trkpt>
      <trkpt lat="50.927787" lon="8.665522">
        <ele>271.800579</ele>
        <time>2021-01-01T07:58:14.999Z</time>
      </trkpt>
      <trkpt lat="50.927771" lon="8.665374">
        <ele>272.191099</ele>
        <time>2021-01-01T07:58:20.998Z</time>
      </trkpt>
      <trkpt lat="50.927755" lon="8.665221">
        <ele>272.594443</ele>
        <time>2021-01-01T07:58:28.998Z</time>
      </trkpt>
      <trkpt lat="50.927741" lon="8.665073">
        <ele>272.983654</ele>
        <time>2021-01-01T07:58:34.998Z</time>
      </trkpt>
      <trkpt lat="50.927744" lon="8.664920">
        <ele>273.381750</ele>
        <time>2021-01-01T07:58:40.998Z</time>
      </trkpt>
      <trkpt lat="50.927726" lon="8.664771">
        <ele>273.776305</ele>
        <time>2021-01-01T07:58:47.998Z</time>
      </trkpt>
      <trkpt lat="50.927704" lon="8.664618">
        <ele>274.184432</ele>
        <time>2021-01-01T07:58:54.998Z</time>
      </trkpt>
      <trkpt lat="50.927680" lon="8.664472">
        <ele>274.548103</ele>
        <time>2021-01-01T07:59:01.998Z</time>
      </trkpt>
      <trkpt lat="50.927669" lon="8.664315">
        <ele>274.926874</ele>
        <time>2021-01-01T07:59:09.998Z</time>
      </trkpt>
      <trkpt lat="50.927655" lon="8.664169">
        <ele>275.280978</ele>
        <time>2021-01-01T07:59:16.998Z</time>
      </trkpt>
      <trkpt lat="50.927627" lon="8.664007">
        <ele>275.683758</ele>
        <time>2021-01-01T07:59:23.998Z</time>
      </trkpt>
      <trkpt lat="50.927609" lon="8.663858">
        <ele>276.047531</ele>
        <time>2021-01-01T07:59:29.998Z</time>
      </trkpt>
      <trkpt lat="50.927569" lon="8.663715">
        <ele>276.422662</ele>
        <time>2021-01-01T07:59:37.998Z</time>
      </trkpt>
      <trkpt lat="50.927539" lon="8.663566">
        <ele>276.797718</ele>
        <time>2021-01-01T07:59:43.998Z</time>
      </trkpt>
      <trkpt lat="50.927505" lon="8.663434">
        <ele>277.139634</ele>
        <time>2021-01-01T07:59:50.997Z</time>
      </trkpt>
      <trkpt lat="50.927476" lon="8.663295">
        <ele>277.490711</ele>
        <time>2021-01-01T07:59:56.997Z</time>
      </trkpt>
      <trkpt lat="50.927466" lon="8.663143">
        <ele>277.857155</ele>
        <time>2021-01-01T08:00:03.997Z</time>
      </trkpt>
      <trkpt lat="50.927444" lon="8.662991">
        <ele>278.231105</ele>
        <time>2021-01-01T08:00:10.997Z</time>
      </trkpt>
      <trkpt lat="50.927404" lon="8.662850">
        <ele>278.601859</ele>
        <time>2021-01-01T08:00:17.997Z</time>
      </trkpt>
      <trkpt lat="50.927372" lon="8.662694">
        <ele>278.995226</ele>
        <time>2021-01-01T08:00:24.997Z</time>
      </trkpt>
      <trkpt lat="50.927335" lon="8.662545">
        <ele>279.379224</ele>
        <time>2021-01-01T08:00:31.997Z</time>
      </trkpt>
      <trkpt lat="50.927292" lon="8.662395">
        <ele>279.774345</ele>
        <time>2021-01-01T08:00:37.997Z</time>
      </trkpt>
      <trkpt lat="50.927265" lon="8.662252">
        <ele>280.132284</ele>
        <time>2021-01-01T08:00:44.997Z</time>
      </trkpt>
      <trkpt lat="50.927243" lon="8.662091">
        <ele>280.527298</ele>
        <time>2021-01-01T08:00:50.997Z</time>
      </trkpt>
      <trkpt lat="50.927211" lon="8.661946">
        <ele>280.895675</ele>
        <time>2021-01-01T08:00:56.997Z</time>
      </trkpt>
      <trkpt lat="50.927200" lon="8.661801">
        <ele>281.203260</ele>
        <time>2021-01-01T08:01:02.997Z</time>
      </trkpt>
      <trkpt lat="50.927175" lon="8.661640">
        <ele>281.513932</ele>
        <time>2021-01-01T08:01:09.997Z</time>
      </trkpt>
      <trkpt lat="50.927139" lon="8.661498">
        <ele>281.800701</ele>
        <time>2021-01-01T08:01:15.997Z</time>
      </trkpt>
      <trkpt lat="50.927127" lon="8.661348">
        <ele>282.083999</ele>
        <time>2021-01-01T08:01:22.997Z</time>
      </trkpt>
      <trkpt lat="50.927132" lon="8.661196">
        <ele>282.369177</ele>
        <time>2021-01-01T08:01:29.996Z</time>
      </trkpt>
      <trkpt lat="50.927078" lon="8.661064">
        <ele>282.664020</ele>
        <time>2021-01-01T08:01:42.996Z</time>
      </trkpt>
      <trkpt lat="50.927068" lon="8.660916">
        <ele>282.942905</ele>
        <time>2021-01-01T08:01:48.996Z</time>
      </trkpt>
      <trkpt lat="50.927050" lon="8.660766">
        <ele>283.228997</ele>
        <time>2021-01-01T08:01:55.996Z</time>
      </trkpt>
      <trkpt lat="50.927048" lon="8.660608">
        <ele>283.525090</ele>
        <time>2021-01-01T08:02:01.996Z</time>
      </trkpt>
      <trkpt lat="50.927030" lon="8.660441">
        <ele>283.842527</ele>
        <time>2021-01-01T08:02:08.996Z</time>
      </trkpt>
      <trkpt lat="50.927001" lon="8.660287">
        <ele>284.143668</ele>
        <time>2021-01-01T08:02:14.996Z</time>
      </trkpt>
      <trkpt lat="50.926983" lon="8.660137">
        <ele>284.429760</ele>
        <time>2021-01-01T08:02:21.996Z</time>
      </trkpt>
      <trkpt lat="50.926984" lon="8.659986">
        <ele>284.712693</ele>
        <time>2021-01-01T08:02:27.996Z</time>
      </trkpt>
      <trkpt lat="50.926991" lon="8.659831">
        <ele>285.003850</ele>
        <time>2021-01-01T08:02:33.996Z</time>
      </trkpt>
      <trkpt lat="50.926979" lon="8.659670">
        <ele>285.307606</ele>
        <time>2021-01-01T08:02:40.996Z</time>
      </trkpt>
      <trkpt lat="50.926958" lon="8.659513">
        <ele>285.608316</ele>
        <time>2021-01-01T08:02:47.996Z</time>
      </trkpt>
      <trkpt lat="50.926937" lon="8.659367">
        <ele>285.888898</ele>
        <time>2021-01-01T08:02:53.996Z</time>
      </trkpt>
      <trkpt lat="50.926920" lon="8.659208">
        <ele>286.191061</ele>
        <time>2021-01-01T08:02:59.994Z</time>
      </trkpt>
      <trkpt lat="50.926896" lon="8.659064">
        <ele>286.370746</ele>
        <time>2021-01-01T08:03:06.994Z</time>
      </trkpt>
      <trkpt lat="50.926883" lon="8.658922">
        <ele>286.271574</ele>
        <time>2021-01-01T08:03:12.996Z</time>
      </trkpt>
      <trkpt lat="50.926863" lon="8.658771">
        <ele>286.164932</ele>
        <time>2021-01-01T08:03:20.998Z</time>
      </trkpt>
      <trkpt lat="50.927000" lon="8.658693">
        <ele>286.005330</ele>
        <time>2021-01-01T08:04:10.998Z</time>
      </trkpt>
      <trkpt lat="50.927095" lon="8.658740">
        <ele>285.896215</ele>
        <time>2021-01-01T08:04:17.999Z</time>
      </trkpt>
      <trkpt lat="50.927190" lon="8.658755">
        <ele>285.791532</ele>
        <time>2021-01-01T08:04:23.999Z</time>
      </trkpt>
      <trkpt lat="50.927282" lon="8.658761">
        <ele>285.690568</ele>
        <time>2021-01-01T08:04:29.999Z</time>
      </trkpt>
      <trkpt lat="50.927383" lon="8.658792">
        <ele>285.577767</ele>
        <time>2021-01-01T08:04:36.999Z</time>
      </trkpt>
      <trkpt lat="50.927486" lon="8.658761">
        <ele>285.462812</ele>
        <time>2021-01-01T08:04:43.999Z</time>
      </trkpt>
      <trkpt lat="50.927564" lon="8.658653">
        <ele>285.349294</ele>
        <time>2021-01-01T08:04:51.999Z</time>
      </trkpt>
      <trkpt lat="50.927612" lon="8.658528">
        <ele>285.248132</ele>
        <time>2021-01-01T08:04:56.999Z</time>
      </trkpt>
      <trkpt lat="50.927653" lon="8.658401">
        <ele>285.149515</ele>
        <time>2021-01-01T08:05:03.999Z</time>
      </trkpt>
      <trkpt lat="50.927710" lon="8.658269">
        <ele>285.038930</ele>
        <time>2021-01-01T08:05:10.999Z</time>
      </trkpt>
      <trkpt lat="50.927673" lon="8.658117">
        <ele>284.926316</ele>
        <time>2021-01-01T08:05:18.999Z</time>
      </trkpt>
      <trkpt lat="50.927671" lon="8.657882">
        <ele>284.763885</ele>
        <time>2021-01-01T08:05:41.999Z</time>
      </trkpt>
      <trkpt lat="50.927683" lon="8.657739">
        <ele>284.664182</ele>
        <time>2021-01-01T08:05:48.998Z</time>
      </trkpt>
      <trkpt lat="50.927698" lon="8.657595">
        <ele>284.563309</ele>
        <time>2021-01-01T08:05:55.998Z</time>
      </trkpt>
      <trkpt lat="50.927713" lon="8.657451">
        <ele>284.462436</ele>
        <time>2021-01-01T08:06:02.997Z</time>
      </trkpt>
      <trkpt lat="50.927751" lon="8.657322">
        <ele>284.371271</ele>
        <time>2021-01-01T08:06:08.997Z</time>
      </trkpt>
      <trkpt lat="50.927723" lon="8.657167">
        <ele>284.273012</ele>
        <time>2021-01-01T08:06:15.997Z</time>
      </trkpt>
      <trkpt lat="50.927709" lon="8.657016">
        <ele>284.180003</ele>
        <time>2021-01-01T08:06:22.997Z</time>
      </trkpt>
      <trkpt lat="50.927684" lon="8.656873">
        <ele>284.089570</ele>
        <time>2021-01-01T08:06:28.997Z</time>
      </trkpt>
      <trkpt lat="50.927666" lon="8.656729">
        <ele>284.000107</ele>
        <time>2021-01-01T08:06:34.997Z</time>
      </trkpt>
      <trkpt lat="50.927655" lon="8.656580">
        <ele>283.908687</ele>
        <time>2021-01-01T08:06:41.997Z</time>
      </trkpt>
      <trkpt lat="50.927639" lon="8.656438">
        <ele>283.820781</ele>
        <time>2021-01-01T08:06:47.997Z</time>
      </trkpt>
      <trkpt lat="50.927636" lon="8.656290">
        <ele>283.730543</ele>
        <time>2021-01-01T08:06:53.997Z</time>
      </trkpt>
      <trkpt lat="50.927634" lon="8.656146">
        <ele>283.642769</ele>
        <time>2021-01-01T08:07:00.997Z</time>
      </trkpt>
      <trkpt lat="50.927637" lon="8.656002">
        <ele>283.554968</ele>
        <time>2021-01-01T08:07:06.997Z</time>
      </trkpt>
      <trkpt lat="50.927621" lon="8.655844">
        <ele>283.457448</ele>
        <time>2021-01-01T08:07:12.997Z</time>
      </trkpt>
      <trkpt lat="50.927603" lon="8.655683">
        <ele>283.357804</ele>
        <time>2021-01-01T08:07:19.996Z</time>
      </trkpt>
      <trkpt lat="50.927581" lon="8.655530">
        <ele>283.262171</ele>
        <time>2021-01-01T08:07:25.996Z</time>
      </trkpt>
      <trkpt lat="50.927567" lon="8.655369">
        <ele>283.163129</ele>
        <time>2021-01-01T08:07:33.996Z</time>
      </trkpt>
      <trkpt lat="50.927551" lon="8.655212">
        <ele>283.066211</ele>
        <time>2021-01-01T08:07:40.996Z</time>
      </trkpt>
      <trkpt lat="50.927525" lon="8.655075">
        <ele>282.979021</ele>
        <time>2021-01-01T08:07:46.996Z</time>
      </trkpt>
      <trkpt lat="50.927508" lon="8.654913">
        <ele>282.878940</ele>
        <time>2021-01-01T08:07:53.996Z</time>
      </trkpt>
      <trkpt lat="50.927481" lon="8.654775">
        <ele>282.790884</ele>
        <time>2021-01-01T08:07:59.996Z</time>
      </trkpt>
      <trkpt lat="50.927477" lon="8.654619">
        <ele>282.695739</ele>
        <time>2021-01-01T08:08:06.996Z</time>
      </trkpt>
      <trkpt lat="50.927463" lon="8.654473">
        <ele>282.600675</ele>
        <time>2021-01-01T08:08:13.996Z</time>
      </trkpt>
      <trkpt lat="50.927432" lon="8.654325">
        <ele>282.499655</ele>
        <time>2021-01-01T08:08:19.996Z</time>
      </trkpt>
      <trkpt lat="50.927394" lon="8.654168">
        <ele>282.390721</ele>
        <time>2021-01-01T08:08:26.996Z</time>
      </trkpt>
      <trkpt lat="50.927360" lon="8.654036">
        <ele>282.298356</ele>
        <time>2021-01-01T08:08:32.996Z</time>
      </trkpt>
      <trkpt lat="50.927346" lon="8.653884">
        <ele>282.198854</ele>
        <time>2021-01-01T08:08:38.996Z</time>
      </trkpt>
      <trkpt lat="50.927320" lon="8.653742">
        <ele>282.103073</ele>
        <time>2021-01-01T08:08:45.996Z</time>
      </trkpt>
      <trkpt lat="50.927323" lon="8.653586">
        <ele>282.001979</ele>
        <time>2021-01-01T08:08:52.995Z</time>
      </trkpt>
      <trkpt lat="50.927327" lon="8.653434">
        <ele>281.903437</ele>
        <time>2021-01-01T08:08:57.995Z</time>
      </trkpt>
      <trkpt lat="50.927329" lon="8.653279">
        <ele>281.803017</ele>
        <time>2021-01-01T08:09:04.995Z</time>
      </trkpt>
      <trkpt lat="50.927331" lon="8.653122">
        <ele>281.701301</ele>
        <time>2021-01-01T08:09:10.995Z</time>
      </trkpt>
      <trkpt lat="50.927323" lon="8.652976">
        <ele>281.606375</ele>
        <time>2021-01-01T08:09:16.995Z</time>
      </trkpt>
      <trkpt lat="50.927331" lon="8.652821">
        <ele>281.505640</ele>
        <time>2021-01-01T08:09:24.995Z</time>
      </trkpt>
      <trkpt lat="50.927330" lon="8.652666">
        <ele>281.405235</ele>
        <time>2021-01-01T08:09:32.995Z</time>
      </trkpt>
      <trkpt lat="50.927328" lon="8.652519">
        <ele>281.309995</ele>
        <time>2021-01-01T08:09:38.995Z</time>
      </trkpt>
      <trkpt lat="50.927332" lon="8.652359">
        <ele>281.206276</ele>
        <time>2021-01-01T08:09:45.995Z</time>
      </trkpt>
      <trkpt lat="50.927323" lon="8.652206">
        <ele>281.106742</ele>
        <time>2021-01-01T08:09:52.995Z</time>
      </trkpt>
      <trkpt lat="50.927300" lon="8.652035">
        <ele>280.993485</ele>
        <time>2021-01-01T08:09:59.995Z</time>
      </trkpt>
      <trkpt lat="50.927287" lon="8.651847">
        <ele>280.870979</ele>
        <time>2021-01-01T08:10:05.995Z</time>
      </trkpt>
      <trkpt lat="50.927307" lon="8.651707">
        <ele>280.845612</ele>
        <time>2021-01-01T08:10:25.996Z</time>
      </trkpt>
      <trkpt lat="50.927324" lon="8.651559">
        <ele>280.858109</ele>
        <time>2021-01-01T08:10:30.997Z</time>
      </trkpt>
      <trkpt lat="50.927345" lon="8.651385">
        <ele>280.872826</ele>
        <time>2021-01-01T08:10:34.997Z</time>
      </trkpt>
      <trkpt lat="50.927364" lon="8.651245">
        <ele>280.884722</ele>
        <time>2021-01-01T08:10:39.998Z</time>
      </trkpt>
      <trkpt lat="50.927395" lon="8.651101">
        <ele>280.897363</ele>
        <time>2021-01-01T08:10:44.998Z</time>
      </trkpt>
      <trkpt lat="50.927399" lon="8.650952">
        <ele>280.909752</ele>
        <time>2021-01-01T08:10:48.998Z</time>
      </trkpt>
      <trkpt lat="50.927380" lon="8.650803">
        <ele>280.922380</ele>
        <time>2021-01-01T08:10:52.998Z</time>
      </trkpt>
      <trkpt lat="50.927384" lon="8.650649">
        <ele>280.935183</ele>
        <time>2021-01-01T08:10:57.998Z</time>
      </trkpt>
      <trkpt lat="50.927366" lon="8.650485">
        <ele>280.949012</ele>
        <time>2021-01-01T08:11:04.998Z</time>
      </trkpt>
      <trkpt lat="50.927363" lon="8.650319">
        <ele>280.962807</ele>
        <time>2021-01-01T08:11:11.998Z</time>
      </trkpt>
      <trkpt lat="50.927355" lon="8.650166">
        <ele>280.975561</ele>
        <time>2021-01-01T08:11:17.998Z</time>
      </trkpt>
      <trkpt lat="50.927342" lon="8.650003">
        <ele>280.989209</ele>
        <time>2021-01-01T08:11:24.998Z</time>
      </trkpt>
      <trkpt lat="50.927350" lon="8.649859">
        <ele>281.001218</ele>
        <time>2021-01-01T08:11:31.998Z</time>
      </trkpt>
      <trkpt lat="50.927356" lon="8.649712">
        <ele>281.013455</ele>
        <time>2021-01-01T08:11:38.998Z</time>
      </trkpt>
      <trkpt lat="50.927353" lon="8.649568">
        <ele>281.025423</ele>
        <time>2021-01-01T08:11:44.998Z</time>
      </trkpt>
      <trkpt lat="50.927347" lon="8.649406">
        <ele>281.038904</ele>
        <time>2021-01-01T08:11:50.998Z</time>
      </trkpt>
      <trkpt lat="50.927339" lon="8.649246">
        <ele>281.052237</ele>
        <time>2021-01-01T08:11:57.998Z</time>
      </trkpt>
      <trkpt lat="50.927310" lon="8.649098">
        <ele>281.065112</ele>
        <time>2021-01-01T08:12:04.998Z</time>
      </trkpt>
      <trkpt lat="50.927299" lon="8.648939">
        <ele>281.075991</ele>
        <time>2021-01-01T08:12:12.998Z</time>
      </trkpt>
      <trkpt lat="50.927294" lon="8.648794">
        <ele>281.079567</ele>
        <time>2021-01-01T08:12:19.998Z</time>
      </trkpt>
      <trkpt lat="50.927304" lon="8.648635">
        <ele>281.083501</ele>
        <time>2021-01-01T08:12:26.998Z</time>
      </trkpt>
      <trkpt lat="50.927317" lon="8.648472">
        <ele>281.087547</ele>
        <time>2021-01-01T08:12:34.998Z</time>
      </trkpt>
      <trkpt lat="50.927324" lon="8.648305">
        <ele>281.091668</ele>
        <time>2021-01-01T08:12:40.997Z</time>
      </trkpt>
      <trkpt lat="50.927333" lon="8.648155">
        <ele>281.095378</ele>
        <time>2021-01-01T08:12:46.997Z</time>
      </trkpt>
      <trkpt lat="50.927328" lon="8.647993">
        <ele>281.099372</ele>
        <time>2021-01-01T08:12:52.997Z</time>
      </trkpt>
      <trkpt lat="50.927321" lon="8.647822">
        <ele>281.103591</ele>
        <time>2021-01-01T08:12:58.997Z</time>
      </trkpt>
      <trkpt lat="50.927296" lon="8.647665">
        <ele>281.107579</ele>
        <time>2021-01-01T08:13:05.997Z</time>
      </trkpt>
      <trkpt lat="50.927261" lon="8.647512">
        <ele>281.111586</ele>
        <time>2021-01-01T08:13:12.997Z</time>
      </trkpt>
      <trkpt lat="50.927213" lon="8.647389">
        <ele>281.115149</ele>
        <time>2021-01-01T08:13:19.997Z</time>
      </trkpt>
      <trkpt lat="50.927139" lon="8.647275">
        <ele>281.119178</ele>
        <time>2021-01-01T08:13:26.997Z</time>
      </trkpt>
      <trkpt lat="50.927069" lon="8.647179">
        <ele>281.122793</ele>
        <time>2021-01-01T08:13:32.997Z</time>
      </trkpt>
      <trkpt lat="50.927001" lon="8.647079">
        <ele>281.126415</ele>
        <time>2021-01-01T08:13:39.997Z</time>
      </trkpt>
      <trkpt lat="50.926947" lon="8.646959">
        <ele>281.130045</ele>
        <time>2021-01-01T08:13:46.997Z</time>
      </trkpt>
      <trkpt lat="50.926880" lon="8.646829">
        <ele>281.134180</ele>
        <time>2021-01-01T08:13:55.997Z</time>
      </trkpt>
      <trkpt lat="50.926808" lon="8.646741">
        <ele>281.137731</ele>
        <time>2021-01-01T08:14:01.997Z</time>
      </trkpt>
      <trkpt lat="50.926730" lon="8.646629">
        <ele>281.141840</ele>
        <time>2021-01-01T08:14:08.997Z</time>
      </trkpt>
      <trkpt lat="50.926659" lon="8.646534">
        <ele>281.139656</ele>
        <time>2021-01-01T08:14:14.996Z</time>
      </trkpt>
      <trkpt lat="50.926592" lon="8.646435">
        <ele>281.051958</ele>
        <time>2021-01-01T08:14:20.996Z</time>
      </trkpt>
      <trkpt lat="50.926511" lon="8.646335">
        <ele>280.953650</ele>
        <time>2021-01-01T08:14:28.996Z</time>
      </trkpt>
      <trkpt lat="50.926438" lon="8.646232">
        <ele>280.860076</ele>
        <time>2021-01-01T08:14:35.996Z</time>
      </trkpt>
      <trkpt lat="50.926370" lon="8.646126">
        <ele>280.768764</ele>
        <time>2021-01-01T08:14:40.996Z</time>
      </trkpt>
      <trkpt lat="50.926275" lon="8.646126">
        <ele>280.677769</ele>
        <time>2021-01-01T08:14:53.996Z</time>
      </trkpt>
      <trkpt lat="50.926189" lon="8.645973">
        <ele>280.554002</ele>
        <time>2021-01-01T08:14:59.996Z</time>
      </trkpt>
      <trkpt lat="50.926164" lon="8.645836">
        <ele>280.467892</ele>
        <time>2021-01-01T08:15:10.996Z</time>
      </trkpt>
      <trkpt lat="50.926089" lon="8.645722">
        <ele>280.368404</ele>
        <time>2021-01-01T08:15:15.996Z</time>
      </trkpt>
      <trkpt lat="50.926028" lon="8.645610">
        <ele>280.279038</ele>
        <time>2021-01-01T08:15:20.996Z</time>
      </trkpt>
      <trkpt lat="50.925969" lon="8.645498">
        <ele>280.190912</ele>
        <time>2021-01-01T08:15:25.996Z</time>
      </trkpt>
      <trkpt lat="50.925908" lon="8.645363">
        <ele>280.090627</ele>
        <time>2021-01-01T08:15:30.996Z</time>
      </trkpt>
      <trkpt lat="50.925834" lon="8.645264">
        <ele>279.997909</ele>
        <time>2021-01-01T08:15:36.996Z</time>
      </trkpt>
      <trkpt lat="50.925761" lon="8.645158">
        <ele>279.903121</ele>
        <time>2021-01-01T08:15:43.996Z</time>
      </trkpt>
      <trkpt lat="50.925686" lon="8.645051">
        <ele>279.806508</ele>
        <time>2021-01-01T08:15:50.995Z</time>
      </trkpt>
      <trkpt lat="50.925612" lon="8.644961">
        <ele>279.717196</ele>
        <time>2021-01-01T08:15:56.995Z</time>
      </trkpt>
      <trkpt lat="50.925542" lon="8.644851">
        <ele>279.622823</ele>
        <time>2021-01-01T08:16:02.995Z</time>
      </trkpt>
      <trkpt lat="50.925468" lon="8.644763">
        <ele>279.534241</ele>
        <time>2021-01-01T08:16:09.995Z</time>
      </trkpt>
      <trkpt lat="50.925403" lon="8.644657">
        <ele>279.444955</ele>
        <time>2021-01-01T08:16:17.995Z</time>
      </trkpt>
      <trkpt lat="50.925345" lon="8.644537">
        <ele>279.366205</ele>
        <time>2021-01-01T08:16:25.995Z</time>
      </trkpt>
      <trkpt lat="50.925276" lon="8.644438">
        <ele>279.293354</ele>
        <time>2021-01-01T08:16:36.995Z</time>
      </trkpt>
      <trkpt lat="50.925210" lon="8.644322">
        <ele>279.216221</ele>
        <time>2021-01-01T08:16:43.995Z</time>
      </trkpt>
      <trkpt lat="50.925137" lon="8.644223">
        <ele>279.141018</ele>
        <time>2021-01-01T08:16:50.995Z</time>
      </trkpt>
      <trkpt lat="50.925066" lon="8.644132">
        <ele>279.069543</ele>
        <time>2021-01-01T08:16:57.995Z</time>
      </trkpt>
      <trkpt lat="50.924996" lon="8.644032">
        <ele>278.995780</ele>
        <time>2021-01-01T08:17:04.995Z</time>
      </trkpt>
      <trkpt lat="50.925134" lon="8.644280">
        <ele>278.832494</ele>
        <time>2021-01-01T08:17:45.998Z</time>
      </trkpt>
      <trkpt lat="50.925038" lon="8.644288">
        <ele>278.757216</ele>
        <time>2021-01-01T08:18:00.999Z</time>
      </trkpt>
      <trkpt lat="50.924947" lon="8.644205">
        <ele>278.675020</ele>
        <time>2021-01-01T08:18:06.999Z</time>
      </trkpt>
      <trkpt lat="50.924875" lon="8.644101">
        <ele>278.598771</ele>
        <time>2021-01-01T08:18:12.999Z</time>
      </trkpt>
      <trkpt lat="50.924837" lon="8.643934">
        <ele>278.511134</ele>
        <time>2021-01-01T08:18:16.999Z</time>
      </trkpt>
      <trkpt lat="50.924785" lon="8.643793">
        <ele>278.430499</ele>
        <time>2021-01-01T08:18:20.999Z</time>
      </trkpt>
      <trkpt lat="50.924729" lon="8.643657">
        <ele>278.350316</ele>
        <time>2021-01-01T08:18:24.999Z</time>
      </trkpt>
      <trkpt lat="50.924657" lon="8.643544">
        <ele>278.271008</ele>
        <time>2021-01-01T08:18:29.999Z</time>
      </trkpt>
      <trkpt lat="50.924594" lon="8.643428">
        <ele>278.195429</ele>
        <time>2021-01-01T08:18:34.999Z</time>
      </trkpt>
      <trkpt lat="50.924526" lon="8.643309">
        <ele>278.116147</ele>
        <time>2021-01-01T08:18:39.998Z</time>
      </trkpt>
      <trkpt lat="50.924465" lon="8.643183">
        <ele>278.037727</ele>
        <time>2021-01-01T08:18:46.998Z</time>
      </trkpt>
      <trkpt lat="50.924389" lon="8.643081">
        <ele>277.957790</ele>
        <time>2021-01-01T08:18:53.998Z</time>
      </trkpt>
      <trkpt lat="50.924322" lon="8.642976">
        <ele>277.881342</ele>
        <time>2021-01-01T08:19:00.998Z</time>
      </trkpt>
      <trkpt lat="50.924249" lon="8.642850">
        <ele>277.793775</ele>
        <time>2021-01-01T08:19:07.998Z</time>
      </trkpt>
      <trkpt lat="50.924234" lon="8.643010">
        <ele>277.711006</ele>
        <time>2021-01-01T08:19:12.998Z</time>
      </trkpt>
      <trkpt lat="50.924367" lon="8.643144">
        <ele>277.583113</ele>
        <time>2021-01-01T08:19:21.998Z</time>
      </trkpt>
      <trkpt lat="50.924425" lon="8.643309">
        <ele>277.486447</ele>
        <time>2021-01-01T08:19:22.998Z</time>
      </trkpt>
      <trkpt lat="50.924483" lon="8.643426">
        <ele>277.410286</ele>
        <time>2021-01-01T08:19:23.998Z</time>
      </trkpt>
      <trkpt lat="50.924390" lon="8.643356">
        <ele>277.326729</ele>
        <time>2021-01-01T08:19:33.998Z</time>
      </trkpt>
      <trkpt lat="50.924352" lon="8.643213">
        <ele>277.247323</ele>
        <time>2021-01-01T08:19:36.998Z</time>
      </trkpt>
      <trkpt lat="50.924277" lon="8.643099">
        <ele>277.163009</ele>
        <time>2021-01-01T08:19:41.998Z</time>
      </trkpt>
      <trkpt lat="50.924316" lon="8.642946">
        <ele>277.078564</ele>
        <time>2021-01-01T08:19:50.998Z</time>
      </trkpt>
      <trkpt lat="50.924356" lon="8.642808">
        <ele>277.000845</ele>
        <time>2021-01-01T08:19:59.998Z</time>
      </trkpt>
      <trkpt lat="50.924425" lon="8.642706">
        <ele>276.924288</ele>
        <time>2021-01-01T08:20:02.998Z</time>
      </trkpt>
      <trkpt lat="50.924479" lon="8.642552">
        <ele>276.834119</ele>
        <time>2021-01-01T08:20:07.998Z</time>
      </trkpt>
      <trkpt lat="50.924521" lon="8.642397">
        <ele>276.747793</ele>
        <time>2021-01-01T08:20:11.998Z</time>
      </trkpt>
      <trkpt lat="50.924561" lon="8.642263">
        <ele>276.671929</ele>
        <time>2021-01-01T08:20:15.997Z</time>
      </trkpt>
      <trkpt lat="50.924559" lon="8.642102">
        <ele>276.589534</ele>
        <time>2021-01-01T08:20:19.997Z</time>
      </trkpt>
      <trkpt lat="50.924598" lon="8.641973">
        <ele>276.570560</ele>
        <time>2021-01-01T08:20:38.997Z</time>
      </trkpt>
      <trkpt lat="50.924714" lon="8.641491">
        <ele>276.687112</ele>
        <time>2021-01-01T08:21:24.997Z</time>
      </trkpt>
      <trkpt lat="50.924798" lon="8.641390">
        <ele>276.724886</ele>
        <time>2021-01-01T08:21:32.997Z</time>
      </trkpt>
      <trkpt lat="50.924873" lon="8.641283">
        <ele>276.761035</ele>
        <time>2021-01-01T08:21:38.997Z</time>
      </trkpt>
      <trkpt lat="50.924918" lon="8.641136">
        <ele>276.797952</ele>
        <time>2021-01-01T08:21:46.996Z</time>
      </trkpt>
      <trkpt lat="50.924961" lon="8.641000">
        <ele>276.832324</ele>
        <time>2021-01-01T08:21:52.996Z</time>
      </trkpt>
      <trkpt lat="50.925009" lon="8.640853">
        <ele>276.869723</ele>
        <time>2021-01-01T08:22:00.996Z</time>
      </trkpt>
      <trkpt lat="50.925081" lon="8.640742">
        <ele>276.905703</ele>
        <time>2021-01-01T08:22:05.996Z</time>
      </trkpt>
      <trkpt lat="50.925094" lon="8.640598">
        <ele>276.938565</ele>
        <time>2021-01-01T08:22:07.997Z</time>
      </trkpt>
      <trkpt lat="50.925253" lon="8.640645">
        <ele>276.996530</ele>
        <time>2021-01-01T08:22:10.997Z</time>
      </trkpt>
      <trkpt lat="50.925346" lon="8.640557">
        <ele>277.035338</ele>
        <time>2021-01-01T08:22:12.997Z</time>
      </trkpt>
      <trkpt lat="50.925429" lon="8.640467">
        <ele>277.071368</ele>
        <time>2021-01-01T08:22:16.998Z</time>
      </trkpt>
      <trkpt lat="50.925394" lon="8.640336">
        <ele>277.103510</ele>
        <time>2021-01-01T08:22:18.998Z</time>
      </trkpt>
      <trkpt lat="50.925290" lon="8.640292">
        <ele>277.142085</ele>
        <time>2021-01-01T08:22:24.998Z</time>
      </trkpt>
      <trkpt lat="50.925216" lon="8.640211">
        <ele>277.174305</ele>
        <time>2021-01-01T08:22:31.998Z</time>
      </trkpt>
      <trkpt lat="50.925309" lon="8.640150">
        <ele>277.126425</ele>
        <time>2021-01-01T08:22:33.998Z</time>
      </trkpt>
      <trkpt lat="50.925344" lon="8.640017">
        <ele>276.927615</ele>
        <time>2021-01-01T08:22:34.998Z</time>
      </trkpt>
      <trkpt lat="50.925310" lon="8.639816">
        <ele>276.640542</ele>
        <time>2021-01-01T08:22:36.998Z</time>
      </trkpt>
      <trkpt lat="50.925400" lon="8.639829">
        <ele>276.442772</ele>
        <time>2021-01-01T08:22:52.999Z</time>
      </trkpt>
      <trkpt lat="50.925429" lon="8.639686">
        <ele>276.235558</ele>
        <time>2021-01-01T08:22:59.998Z</time>
      </trkpt>
      <trkpt lat="50.925282" lon="8.639674">
        <ele>275.913438</ele>
        <time>2021-01-01T08:23:02.998Z</time>
      </trkpt>
      <trkpt lat="50.925170" lon="8.639811">
        <ele>275.603941</ele>
        <time>2021-01-01T08:23:03.998Z</time>
      </trkpt>
      <trkpt lat="50.924610" lon="8.641727">
        <ele>267.403595</ele>
        <time>2021-01-01T08:23:12.998Z</time>
      </trkpt>
      <trkpt lat="50.924683" lon="8.641574">
        <ele>264.691243</ele>
        <time>2021-01-01T08:23:14.998Z</time>
      </trkpt>
      <trkpt lat="50.924787" lon="8.641494">
        <ele>262.099407</ele>
        <time>2021-01-01T08:23:16.998Z</time>
      </trkpt>
      <trkpt lat="50.924813" lon="8.642074">
        <ele>253.880381</ele>
        <time>2021-01-01T08:23:20.998Z</time>
      </trkpt>
      <trkpt lat="50.924767" lon="8.642236">
        <ele>251.368892</ele>
        <time>2021-01-01T08:23:21.998Z</time>
      </trkpt>
      <trkpt lat="50.924720" lon="8.641944">
        <ele>247.109018</ele>
        <time>2021-01-01T08:23:24.998Z</time>
      </trkpt>
      <trkpt lat="50.924801" lon="8.641749">
        <ele>243.808015</ele>
        <time>2021-01-01T08:23:25.998Z</time>
      </trkpt>
      <trkpt lat="50.924853" lon="8.641531">
        <ele>240.513327</ele>
        <time>2021-01-01T08:23:27.998Z</time>
      </trkpt>
      <trkpt lat="50.924890" lon="8.641389">
        <ele>238.341427</ele>
        <time>2021-01-01T08:23:29.998Z</time>
      </trkpt>
      <trkpt lat="50.924950" lon="8.641222">
        <ele>235.624360</ele>
        <time>2021-01-01T08:23:31.998Z</time>
      </trkpt>
      <trkpt lat="50.925137" lon="8.640990">
        <ele>228.691518</ele>
        <time>2021-01-01T08:23:33.998Z</time>
      </trkpt>
      <trkpt lat="50.925333" lon="8.640984">
        <ele>221.603052</ele>
        <time>2021-01-01T08:23:34.998Z</time>
      </trkpt>
      <trkpt lat="50.925475" lon="8.640958">
        <ele>216.434403</ele>
        <time>2021-01-01T08:23:35.998Z</time>
      </trkpt>
      <trkpt lat="50.925714" lon="8.640670">
        <ele>205.582158</ele>
        <time>2021-01-01T08:23:36.998Z</time>
      </trkpt>
      <trkpt lat="50.926903" lon="8.637152">
        <ele>160.098380</ele>
        <time>2021-01-01T08:26:39.998Z</time>
      </trkpt>
      <trkpt lat="50.926802" lon="8.637085">
        <ele>159.519473</ele>
        <time>2021-01-01T08:26:43.998Z</time>
      </trkpt>
      <trkpt lat="50.926684" lon="8.637069">
        <ele>158.893202</ele>
        <time>2021-01-01T08:26:46.998Z</time>
      </trkpt>
      <trkpt lat="50.926578" lon="8.637038">
        <ele>159.137241</ele>
        <time>2021-01-01T08:26:50.998Z</time>
      </trkpt>
      <trkpt lat="50.926487" lon="8.636996">
        <ele>165.769437</ele>
        <time>2021-01-01T08:27:09.998Z</time>
      </trkpt>
      <trkpt lat="50.926425" lon="8.636877">
        <ele>172.579539</ele>
        <time>2021-01-01T08:27:41.997Z</time>
      </trkpt>
      <trkpt lat="50.926360" lon="8.636772">
        <ele>179.071209</ele>
        <time>2021-01-01T08:27:45.997Z</time>
      </trkpt>
      <trkpt lat="50.926263" lon="8.636771">
        <ele>185.859426</ele>
        <time>2021-01-01T08:27:49.997Z</time>
      </trkpt>
      <trkpt lat="50.926182" lon="8.636699">
        <ele>192.356894</ele>
        <time>2021-01-01T08:27:54.997Z</time>
      </trkpt>
      <trkpt lat="50.926079" lon="8.636636">
        <ele>200.081987</ele>
        <time>2021-01-01T08:28:00.997Z</time>
      </trkpt>
      <trkpt lat="50.926004" lon="8.636556">
        <ele>206.406491</ele>
        <time>2021-01-01T08:28:07.997Z</time>
      </trkpt>
      <trkpt lat="50.925942" lon="8.636447">
        <ele>212.882743</ele>
        <time>2021-01-01T08:28:27.997Z</time>
      </trkpt>
      <trkpt lat="50.925873" lon="8.636341">
        <ele>219.604178</ele>
        <time>2021-01-01T08:28:34.997Z</time>
      </trkpt>
      <trkpt lat="50.925793" lon="8.636238">
        <ele>226.814194</ele>
        <time>2021-01-01T08:28:40.997Z</time>
      </trkpt>
      <trkpt lat="50.925706" lon="8.636178">
        <ele>233.452843</ele>
        <time>2021-01-01T08:28:45.997Z</time>
      </trkpt>
      <trkpt lat="50.925633" lon="8.636095">
        <ele>239.737860</ele>
        <time>2021-01-01T08:28:50.997Z</time>
      </trkpt>
      <trkpt lat="50.925558" lon="8.635998">
        <ele>246.509441</ele>
        <time>2021-01-01T08:28:55.997Z</time>
      </trkpt>
      <trkpt lat="50.925475" lon="8.635915">
        <ele>253.375384</ele>
        <time>2021-01-01T08:29:01.997Z</time>
      </trkpt>
      <trkpt lat="50.925401" lon="8.635818">
        <ele>260.092880</ele>
        <time>2021-01-01T08:29:06.997Z</time>
      </trkpt>
      <trkpt lat="50.925345" lon="8.635669">
        <ele>267.745031</ele>
        <time>2021-01-01T08:29:09.997Z</time>
      </trkpt>
      <trkpt lat="50.925296" lon="8.635541">
        <ele>274.350905</ele>
        <time>2021-01-01T08:29:12.997Z</time>
      </trkpt>
      <trkpt lat="50.925233" lon="8.635415">
        <ele>281.445131</ele>
        <time>2021-01-01T08:29:17.997Z</time>
      </trkpt>
      <trkpt lat="50.925161" lon="8.635299">
        <ele>284.419166</ele>
        <time>2021-01-01T08:29:24.997Z</time>
      </trkpt>
      <trkpt lat="50.925094" lon="8.635181">
        <ele>284.690401</ele>
        <time>2021-01-01T08:29:31.996Z</time>
      </trkpt>
      <trkpt lat="50.925028" lon="8.635079">
        <ele>284.940050</ele>
        <time>2021-01-01T08:29:37.996Z</time>
      </trkpt>
      <trkpt lat="50.924953" lon="8.634984">
        <ele>285.200086</ele>
        <time>2021-01-01T08:29:44.996Z</time>
      </trkpt>
      <trkpt lat="50.924893" lon="8.634869">
        <ele>285.455043</ele>
        <time>2021-01-01T08:29:50.996Z</time>
      </trkpt>
      <trkpt lat="50.924858" lon="8.634737">
        <ele>285.699617</ele>
        <time>2021-01-01T08:29:56.996Z</time>
      </trkpt>
      <trkpt lat="50.924787" lon="8.634642">
        <ele>285.951274</ele>
        <time>2021-01-01T08:30:02.996Z</time>
      </trkpt>
      <trkpt lat="50.924724" lon="8.634522">
        <ele>286.217995</ele>
        <time>2021-01-01T08:30:08.996Z</time>
      </trkpt>
      <trkpt lat="50.924654" lon="8.634427">
        <ele>286.467587</ele>
        <time>2021-01-01T08:30:15.996Z</time>
      </trkpt>
      <trkpt lat="50.924577" lon="8.634309">
        <ele>286.757657</ele>
        <time>2021-01-01T08:30:22.996Z</time>
      </trkpt>
      <trkpt lat="50.924521" lon="8.634184">
        <ele>287.019569</ele>
        <time>2021-01-01T08:30:29.996Z</time>
      </trkpt>
      <trkpt lat="50.924453" lon="8.634074">
        <ele>287.282704</ele>
        <time>2021-01-01T08:30:36.996Z</time>
      </trkpt>
      <trkpt lat="50.924393" lon="8.633967">
        <ele>287.527293</ele>
        <time>2021-01-01T08:30:42.996Z</time>
      </trkpt>
      <trkpt lat="50.924321" lon="8.633858">
        <ele>287.796946</ele>
        <time>2021-01-01T08:30:48.996Z</time>
      </trkpt>
      <trkpt lat="50.924246" lon="8.633756">
        <ele>288.064606</ele>
        <time>2021-01-01T08:30:55.996Z</time>
      </trkpt>
      <trkpt lat="50.924177" lon="8.633655">
        <ele>288.318981</ele>
        <time>2021-01-01T08:31:02.996Z</time>
      </trkpt>
      <trkpt lat="50.924136" lon="8.633526">
        <ele>288.565722</ele>
        <time>2021-01-01T08:31:08.996Z</time>
      </trkpt>
      <trkpt lat="50.924076" lon="8.633396">
        <ele>288.840903</ele>
        <time>2021-01-01T08:31:14.996Z</time>
      </trkpt>
      <trkpt lat="50.924034" lon="8.633269">
        <ele>289.085847</ele>
        <time>2021-01-01T08:31:20.995Z</time>
      </trkpt>
      <trkpt lat="50.923982" lon="8.633142">
        <ele>288.921668</ele>
        <time>2021-01-01T08:31:27.995Z</time>
      </trkpt>
      <trkpt lat="50.923915" lon="8.633037">
        <ele>288.689577</ele>
        <time>2021-01-01T08:31:33.994Z</time>
      </trkpt>
      <trkpt lat="50.923847" lon="8.632939">
        <ele>288.463177</ele>
        <time>2021-01-01T08:31:39.995Z</time>
      </trkpt>
      <trkpt lat="50.923818" lon="8.632775">
        <ele>288.198583</ele>
        <time>2021-01-01T08:31:47.997Z</time>
      </trkpt>
      <trkpt lat="50.923756" lon="8.632659">
        <ele>287.962330</ele>
        <time>2021-01-01T08:31:53.997Z</time>
      </trkpt>
      <trkpt lat="50.923707" lon="8.632531">
        <ele>287.729697</ele>
        <time>2021-01-01T08:31:59.998Z</time>
      </trkpt>
      <trkpt lat="50.923665" lon="8.632393">
        <ele>287.491646</ele>
        <time>2021-01-01T08:32:05.998Z</time>
      </trkpt>
      <trkpt lat="50.923601" lon="8.632277">
        <ele>287.252176</ele>
        <time>2021-01-01T08:32:11.999Z</time>
      </trkpt>
      <trkpt lat="50.923551" lon="8.632145">
        <ele>287.012950</ele>
        <time>2021-01-01T08:32:17.999Z</time>
      </trkpt>
      <trkpt lat="50.923494" lon="8.631985">
        <ele>286.727455</ele>
        <time>2021-01-01T08:32:24.999Z</time>
      </trkpt>
      <trkpt lat="50.923435" lon="8.631873">
        <ele>286.500716</ele>
        <time>2021-01-01T08:32:30.999Z</time>
      </trkpt>
      <trkpt lat="50.923372" lon="8.631755">
        <ele>286.260498</ele>
        <time>2021-01-01T08:32:38.999Z</time>
      </trkpt>
      <trkpt lat="50.923298" lon="8.631644">
        <ele>286.009523</ele>
        <time>2021-01-01T08:32:45.999Z</time>
      </trkpt>
      <trkpt lat="50.923227" lon="8.631511">
        <ele>285.738782</ele>
        <time>2021-01-01T08:32:52.999Z</time>
      </trkpt>
      <trkpt lat="50.923173" lon="8.631387">
        <ele>285.504658</ele>
        <time>2021-01-01T08:32:59.999Z</time>
      </trkpt>
      <trkpt lat="50.923113" lon="8.631257">
        <ele>285.254368</ele>
        <time>2021-01-01T08:33:05.999Z</time>
      </trkpt>
      <trkpt lat="50.923041" lon="8.631162">
        <ele>285.023583</ele>
        <time>2021-01-01T08:33:12.999Z</time>
      </trkpt>
      <trkpt lat="50.923001" lon="8.631014">
        <ele>284.773432</ele>
        <time>2021-01-01T08:33:20.999Z</time>
      </trkpt>
      <trkpt lat="50.922970" lon="8.630874">
        <ele>284.589000</ele>
        <time>2021-01-01T08:33:27.999Z</time>
      </trkpt>
      <trkpt lat="50.922926" lon="8.630735">
        <ele>284.422784</ele>
        <time>2021-01-01T08:33:34.999Z</time>
      </trkpt>
      <trkpt lat="50.922871" lon="8.630479">
        <ele>284.133761</ele>
        <time>2021-01-01T08:34:42.999Z</time>
      </trkpt>
      <trkpt lat="50.922821" lon="8.630325">
        <ele>283.948645</ele>
        <time>2021-01-01T08:34:47.999Z</time>
      </trkpt>
      <trkpt lat="50.922793" lon="8.630178">
        <ele>283.784541</ele>
        <time>2021-01-01T08:34:52.998Z</time>
      </trkpt>
      <trkpt lat="50.922756" lon="8.630038">
        <ele>283.622315</ele>
        <time>2021-01-01T08:34:58.998Z</time>
      </trkpt>
      <trkpt lat="50.922720" lon="8.629903">
        <ele>283.465671</ele>
        <time>2021-01-01T08:35:04.998Z</time>
      </trkpt>
      <trkpt lat="50.922685" lon="8.629771">
        <ele>283.312640</ele>
        <time>2021-01-01T08:35:10.998Z</time>
      </trkpt>
      <trkpt lat="50.922661" lon="8.629623">
        <ele>283.149332</ele>
        <time>2021-01-01T08:35:17.998Z</time>
      </trkpt>
      <trkpt lat="50.922652" lon="8.629479">
        <ele>282.994693</ele>
        <time>2021-01-01T08:35:23.998Z</time>
      </trkpt>
      <trkpt lat="50.922630" lon="8.629325">
        <ele>282.825950</ele>
        <time>2021-01-01T08:35:30.998Z</time>
      </trkpt>
      <trkpt lat="50.922595" lon="8.629191">
        <ele>282.670946</ele>
        <time>2021-01-01T08:35:37.998Z</time>
      </trkpt>
      <trkpt lat="50.922551" lon="8.629066">
        <ele>282.517951</ele>
        <time>2021-01-01T08:35:43.998Z</time>
      </trkpt>
      <trkpt lat="50.922510" lon="8.628927">
        <ele>282.353952</ele>
        <time>2021-01-01T08:35:50.998Z</time>
      </trkpt>
      <trkpt lat="50.922454" lon="8.628806">
        <ele>282.193539</ele>
        <time>2021-01-01T08:35:57.998Z</time>
      </trkpt>
      <trkpt lat="50.922409" lon="8.628665">
        <ele>282.024649</ele>
        <time>2021-01-01T08:36:04.998Z</time>
      </trkpt>
      <trkpt lat="50.922364" lon="8.628536">
        <ele>281.867093</ele>
        <time>2021-01-01T08:36:10.998Z</time>
      </trkpt>
      <trkpt lat="50.922359" lon="8.628392">
        <ele>281.712975</ele>
        <time>2021-01-01T08:36:17.998Z</time>
      </trkpt>
      <trkpt lat="50.922286" lon="8.628290">
        <ele>281.467686</ele>
        <time>2021-01-01T08:36:21.998Z</time>
      </trkpt>
      <trkpt lat="50.922231" lon="8.628055">
        <ele>280.969120</ele>
        <time>2021-01-01T08:36:27.998Z</time>
      </trkpt>
      <trkpt lat="50.922177" lon="8.627884">
        <ele>280.588729</ele>
        <time>2021-01-01T08:36:29.998Z</time>
      </trkpt>
      <trkpt lat="50.922146" lon="8.627737">
        <ele>280.280433</ele>
        <time>2021-01-01T08:36:47.998Z</time>
      </trkpt>
      <trkpt lat="50.922116" lon="8.627587">
        <ele>279.967442</ele>
        <time>2021-01-01T08:36:55.998Z</time>
      </trkpt>
      <trkpt lat="50.922099" lon="8.627437">
        <ele>279.664323</ele>
        <time>2021-01-01T08:37:02.998Z</time>
      </trkpt>
      <trkpt lat="50.922098" lon="8.627289">
        <ele>279.369948</ele>
        <time>2021-01-01T08:37:08.998Z</time>
      </trkpt>
      <trkpt lat="50.922095" lon="8.627123">
        <ele>279.039654</ele>
        <time>2021-01-01T08:37:15.998Z</time>
      </trkpt>
      <trkpt lat="50.922104" lon="8.626976">
        <ele>278.745909</ele>
        <time>2021-01-01T08:37:22.998Z</time>
      </trkpt>
      <trkpt lat="50.922159" lon="8.626857">
        <ele>278.452429</ele>
        <time>2021-01-01T08:37:29.998Z</time>
      </trkpt>
      <trkpt lat="50.922232" lon="8.626732">
        <ele>278.113523</ele>
        <time>2021-01-01T08:37:36.998Z</time>
      </trkpt>
      <trkpt lat="50.922289" lon="8.626620">
        <ele>277.827231</ele>
        <time>2021-01-01T08:37:42.998Z</time>
      </trkpt>
      <trkpt lat="50.922324" lon="8.626482">
        <ele>277.531381</ele>
        <time>2021-01-01T08:37:48.998Z</time>
      </trkpt>
      <trkpt lat="50.922351" lon="8.626338">
        <ele>277.232579</ele>
        <time>2021-01-01T08:37:57.998Z</time>
      </trkpt>
      <trkpt lat="50.922391" lon="8.626199">
        <ele>276.928678</ele>
        <time>2021-01-01T08:38:04.998Z</time>
      </trkpt>
      <trkpt lat="50.922107" lon="8.626027">
        <ele>275.969547</ele>
        <time>2021-01-01T08:39:36.001Z</time>
      </trkpt>
      <trkpt lat="50.922025" lon="8.625866">
        <ele>276.103699</ele>
        <time>2021-01-01T08:39:43.001Z</time>
      </trkpt>
      <trkpt lat="50.921895" lon="8.625864">
        <ele>276.241446</ele>
        <time>2021-01-01T08:39:46.001Z</time>
      </trkpt>
      <trkpt lat="50.921773" lon="8.625907">
        <ele>276.373861</ele>
        <time>2021-01-01T08:39:49.001Z</time>
      </trkpt>
      <trkpt lat="50.921746" lon="8.625767">
        <ele>276.471647</ele>
        <time>2021-01-01T08:40:08.001Z</time>
      </trkpt>
      <trkpt lat="50.921821" lon="8.625667">
        <ele>276.575454</ele>
        <time>2021-01-01T08:40:16.001Z</time>
      </trkpt>
      <trkpt lat="50.921901" lon="8.625570">
        <ele>276.682141</ele>
        <time>2021-01-01T08:40:21.001Z</time>
      </trkpt>
      <trkpt lat="50.921986" lon="8.625520">
        <ele>276.778194</ele>
        <time>2021-01-01T08:40:27.001Z</time>
      </trkpt>
      <trkpt lat="50.922087" lon="8.625510">
        <ele>276.885416</ele>
        <time>2021-01-01T08:40:34.001Z</time>
      </trkpt>
      <trkpt lat="50.922180" lon="8.625569">
        <ele>276.991540</ele>
        <time>2021-01-01T08:40:39.001Z</time>
      </trkpt>
      <trkpt lat="50.922272" lon="8.625524">
        <ele>277.093546</ele>
        <time>2021-01-01T08:40:44.001Z</time>
      </trkpt>
      <trkpt lat="50.922375" lon="8.625605">
        <ele>277.215352</ele>
        <time>2021-01-01T08:40:48.001Z</time>
      </trkpt>
      <trkpt lat="50.922466" lon="8.625671">
        <ele>277.321369</ele>
        <time>2021-01-01T08:40:50.001Z</time>
      </trkpt>
      <trkpt lat="50.922582" lon="8.625692">
        <ele>277.445073</ele>
        <time>2021-01-01T08:40:54.001Z</time>
      </trkpt>
      <trkpt lat="50.922716" lon="8.625713">
        <ele>277.587743</ele>
        <time>2021-01-01T08:40:57.001Z</time>
      </trkpt>
      <trkpt lat="50.922816" lon="8.625726">
        <ele>277.694052</ele>
        <time>2021-01-01T08:41:01.001Z</time>
      </trkpt>
      <trkpt lat="50.922958" lon="8.625658">
        <ele>277.851211</ele>
        <time>2021-01-01T08:41:03.000Z</time>
      </trkpt>
      <trkpt lat="50.923049" lon="8.625640">
        <ele>278.129711</ele>
        <time>2021-01-01T08:41:05.000Z</time>
      </trkpt>
      <trkpt lat="50.923156" lon="8.625576">
        <ele>278.539342</ele>
        <time>2021-01-01T08:41:09.000Z</time>
      </trkpt>
      <trkpt lat="50.923197" lon="8.625441">
        <ele>278.877716</ele>
        <time>2021-01-01T08:41:15.000Z</time>
      </trkpt>
      <trkpt lat="50.923185" lon="8.625280">
        <ele>279.243796</ele>
        <time>2021-01-01T08:41:23.000Z</time>
      </trkpt>
      <trkpt lat="50.923145" lon="8.625145">
        <ele>279.580631</ele>
        <time>2021-01-01T08:41:30.000Z</time>
      </trkpt>
      <trkpt lat="50.923096" lon="8.624985">
        <ele>279.982303</ele>
        <time>2021-01-01T08:41:38.000Z</time>
      </trkpt>
      <trkpt lat="50.923035" lon="8.624870">
        <ele>280.321685</ele>
        <time>2021-01-01T08:41:45.000Z</time>
      </trkpt>
      <trkpt lat="50.922943" lon="8.624807">
        <ele>280.680637</ele>
        <time>2021-01-01T08:41:53.000Z</time>
      </trkpt>
      <trkpt lat="50.922842" lon="8.624771">
        <ele>281.051456</ele>
        <time>2021-01-01T08:41:59.000Z</time>
      </trkpt>
      <trkpt lat="50.922741" lon="8.624745">
        <ele>281.417988</ele>
        <time>2021-01-01T08:42:06.000Z</time>
      </trkpt>
      <trkpt lat="50.922650" lon="8.624700">
        <ele>281.759435</ele>
        <time>2021-01-01T08:42:11.000Z</time>
      </trkpt>
      <trkpt lat="50.922560" lon="8.624624">
        <ele>282.124662</ele>
        <time>2021-01-01T08:42:17.000Z</time>
      </trkpt>
      <trkpt lat="50.922489" lon="8.624532">
        <ele>282.453057</ele>
        <time>2021-01-01T08:42:23.000Z</time>
      </trkpt>
      <trkpt lat="50.922429" lon="8.624422">
        <ele>282.781528</ele>
        <time>2021-01-01T08:42:30.000Z</time>
      </trkpt>
      <trkpt lat="50.922440" lon="8.624266">
        <ele>283.135988</ele>
        <time>2021-01-01T08:42:46.000Z</time>
      </trkpt>
      <trkpt lat="50.922430" lon="8.624108">
        <ele>283.494561</ele>
        <time>2021-01-01T08:42:52.000Z</time>
      </trkpt>
      <trkpt lat="50.922396" lon="8.623941">
        <ele>283.890844</ele>
        <time>2021-01-01T08:43:00.000Z</time>
      </trkpt>
      <trkpt lat="50.922367" lon="8.623787">
        <ele>284.253776</ele>
        <time>2021-01-01T08:43:05.000Z</time>
      </trkpt>
      <trkpt lat="50.922319" lon="8.623661">
        <ele>284.270303</ele>
        <time>2021-01-01T08:43:09.000Z</time>
      </trkpt>
      <trkpt lat="50.922273" lon="8.623526">
        <ele>284.212815</ele>
        <time>2021-01-01T08:43:14.000Z</time>
      </trkpt>
      <trkpt lat="50.922330" lon="8.623640">
        <ele>284.158305</ele>
        <time>2021-01-01T08:44:03.000Z</time>
      </trkpt>
      <trkpt lat="50.922375" lon="8.623781">
        <ele>284.099101</ele>
        <time>2021-01-01T08:44:10.000Z</time>
      </trkpt>
      <trkpt lat="50.922411" lon="8.623916">
        <ele>284.044189</ele>
        <time>2021-01-01T08:44:16.000Z</time>
      </trkpt>
      <trkpt lat="50.922472" lon="8.624047">
        <ele>283.983177</ele>
        <time>2021-01-01T08:44:24.000Z</time>
      </trkpt>
      <trkpt lat="50.922525" lon="8.624173">
        <ele>283.926432</ele>
        <time>2021-01-01T08:44:31.001Z</time>
      </trkpt>
      <trkpt lat="50.922580" lon="8.624316">
        <ele>283.863679</ele>
        <time>2021-01-01T08:44:39.002Z</time>
      </trkpt>
      <trkpt lat="50.922635" lon="8.624435">
        <ele>283.808401</ele>
        <time>2021-01-01T08:44:47.002Z</time>
      </trkpt>
      <trkpt lat="50.922724" lon="8.624509">
        <ele>283.748686</ele>
        <time>2021-01-01T08:44:54.003Z</time>
      </trkpt>
      <trkpt lat="50.922806" lon="8.624582">
        <ele>283.692807</ele>
        <time>2021-01-01T08:45:01.003Z</time>
      </trkpt>
      <trkpt lat="50.922895" lon="8.624661">
        <ele>283.632200</ele>
        <time>2021-01-01T08:45:10.003Z</time>
      </trkpt>
      <trkpt lat="50.922971" lon="8.624747">
        <ele>283.576722</ele>
        <time>2021-01-01T08:45:16.003Z</time>
      </trkpt>
      <trkpt lat="50.923064" lon="8.624818">
        <ele>283.515388</ele>
        <time>2021-01-01T08:45:23.003Z</time>
      </trkpt>
      <trkpt lat="50.923166" lon="8.624830">
        <ele>283.454605</ele>
        <time>2021-01-01T08:45:29.003Z</time>
      </trkpt>
      <trkpt lat="50.923376" lon="8.624760">
        <ele>283.327082</ele>
        <time>2021-01-01T08:45:55.001Z</time>
      </trkpt>
      <trkpt lat="50.923471" lon="8.624725">
        <ele>283.269124</ele>
        <time>2021-01-01T08:46:01.001Z</time>
      </trkpt>
      <trkpt lat="50.923566" lon="8.624686">
        <ele>283.509384</ele>
        <time>2021-01-01T08:46:09.000Z</time>
      </trkpt>
      <trkpt lat="50.923665" lon="8.624652">
        <ele>283.954634</ele>
        <time>2021-01-01T08:46:16.000Z</time>
      </trkpt>
      <trkpt lat="50.923764" lon="8.624633">
        <ele>284.392976</ele>
        <time>2021-01-01T08:46:23.000Z</time>
      </trkpt>
      <trkpt lat="50.923867" lon="8.624579">
        <ele>284.869812</ele>
        <time>2021-01-01T08:46:30.000Z</time>
      </trkpt>
      <trkpt lat="50.923959" lon="8.624521">
        <ele>285.304974</ele>
        <time>2021-01-01T08:46:36.999Z</time>
      </trkpt>
      <trkpt lat="50.924034" lon="8.624436">
        <ele>285.710132</ele>
        <time>2021-01-01T08:46:42.999Z</time>
      </trkpt>
      <trkpt lat="50.924119" lon="8.624377">
        <ele>286.117961</ele>
        <time>2021-01-01T08:46:49.999Z</time>
      </trkpt>
      <trkpt lat="50.924215" lon="8.624291">
        <ele>286.602575</ele>
        <time>2021-01-01T08:46:56.999Z</time>
      </trkpt>
      <trkpt lat="50.924300" lon="8.624208">
        <ele>287.041310</ele>
        <time>2021-01-01T08:47:04.999Z</time>
      </trkpt>
      <trkpt lat="50.924374" lon="8.624120">
        <ele>287.447830</ele>
        <time>2021-01-01T08:47:10.999Z</time>
      </trkpt>
      <trkpt lat="50.924459" lon="8.624060">
        <ele>287.856777</ele>
        <time>2021-01-01T08:47:17.999Z</time>
      </trkpt>
      <trkpt lat="50.924539" lon="8.623960">
        <ele>288.304472</ele>
        <time>2021-01-01T08:47:25.999Z</time>
      </trkpt>
      <trkpt lat="50.924629" lon="8.623894">
        <ele>288.740302</ele>
        <time>2021-01-01T08:47:33.999Z</time>
      </trkpt>
      <trkpt lat="50.924701" lon="8.623795">
        <ele>289.159119</ele>
        <time>2021-01-01T08:47:40.999Z</time>
      </trkpt>
      <trkpt lat="50.924789" lon="8.623735">
        <ele>289.580147</ele>
        <time>2021-01-01T08:47:47.999Z</time>
      </trkpt>
      <trkpt lat="50.924872" lon="8.623662">
        <ele>289.997303</ele>
        <time>2021-01-01T08:47:54.999Z</time>
      </trkpt>
      <trkpt lat="50.924957" lon="8.623601">
        <ele>290.407383</ele>
        <time>2021-01-01T08:48:00.999Z</time>
      </trkpt>
      <trkpt lat="50.925041" lon="8.623518">
        <ele>290.842379</ele>
        <time>2021-01-01T08:48:07.999Z</time>
      </trkpt>
      <trkpt lat="50.925128" lon="8.623431">
        <ele>291.208204</ele>
        <time>2021-01-01T08:48:14.999Z</time>
      </trkpt>
      <trkpt lat="50.925207" lon="8.623361">
        <ele>291.364179</ele>
        <time>2021-01-01T08:48:21.999Z</time>
      </trkpt>
      <trkpt lat="50.925289" lon="8.623290">
        <ele>291.525205</ele>
        <time>2021-01-01T08:48:28.998Z</time>
      </trkpt>
      <trkpt lat="50.925384" lon="8.623275">
        <ele>291.689768</ele>
        <time>2021-01-01T08:48:34.998Z</time>
      </trkpt>
      <trkpt lat="50.925474" lon="8.623300">
        <ele>291.847264</ele>
        <time>2021-01-01T08:48:41.998Z</time>
      </trkpt>
      <trkpt lat="50.925561" lon="8.623344">
        <ele>292.004663</ele>
        <time>2021-01-01T08:48:47.998Z</time>
      </trkpt>
      <trkpt lat="50.925662" lon="8.623374">
        <ele>292.181785</ele>
        <time>2021-01-01T08:48:54.998Z</time>
      </trkpt>
      <trkpt lat="50.925752" lon="8.623400">
        <ele>292.339471</ele>
        <time>2021-01-01T08:48:59.998Z</time>
      </trkpt>
      <trkpt lat="50.925851" lon="8.623421">
        <ele>292.511638</ele>
        <time>2021-01-01T08:49:06.998Z</time>
      </trkpt>
      <trkpt lat="50.925936" lon="8.623468">
        <ele>292.666799</ele>
        <time>2021-01-01T08:49:12.998Z</time>
      </trkpt>
      <trkpt lat="50.926034" lon="8.623495">
        <ele>292.838252</ele>
        <time>2021-01-01T08:49:19.998Z</time>
      </trkpt>
      <trkpt lat="50.926127" lon="8.623514">
        <ele>292.999882</ele>
        <time>2021-01-01T08:49:26.998Z</time>
      </trkpt>
      <trkpt lat="50.926225" lon="8.623550">
        <ele>293.173277</ele>
        <time>2021-01-01T08:49:38.998Z</time>
      </trkpt>
      <trkpt lat="50.926321" lon="8.623547">
        <ele>293.338786</ele>
        <time>2021-01-01T08:49:44.998Z</time>
      </trkpt>
      <trkpt lat="50.926417" lon="8.623536">
        <ele>293.504695</ele>
        <time>2021-01-01T08:49:51.998Z</time>
      </trkpt>
      <trkpt lat="50.926508" lon="8.623534">
        <ele>293.661569</ele>
        <time>2021-01-01T08:49:57.998Z</time>
      </trkpt>
      <trkpt lat="50.926609" lon="8.623544">
        <ele>293.836004</ele>
        <time>2021-01-01T08:50:09.998Z</time>
      </trkpt>
      <trkpt lat="50.926699" lon="8.623558">
        <ele>293.991883</ele>
        <time>2021-01-01T08:50:17.998Z</time>
      </trkpt>
      <trkpt lat="50.926808" lon="8.623541">
        <ele>294.180675</ele>
        <time>2021-01-01T08:50:25.998Z</time>
      </trkpt>
      <trkpt lat="50.926910" lon="8.623542">
        <ele>294.910052</ele>
        <time>2021-01-01T08:50:31.998Z</time>
      </trkpt>
      <trkpt lat="50.927003" lon="8.623540">
        <ele>295.927359</ele>
        <time>2021-01-01T08:50:37.998Z</time>
      </trkpt>
      <trkpt lat="50.927099" lon="8.623563">
        <ele>296.989290</ele>
        <time>2021-01-01T08:50:44.997Z</time>
      </trkpt>
      <trkpt lat="50.927191" lon="8.623575">
        <ele>297.998960</ele>
        <time>2021-01-01T08:50:51.997Z</time>
      </trkpt>
      <trkpt lat="50.927281" lon="8.623576">
        <ele>298.983384</ele>
        <time>2021-01-01T08:50:57.997Z</time>
      </trkpt>
      <trkpt lat="50.927380" lon="8.623603">
        <ele>300.082106</ele>
        <time>2021-01-01T08:51:05.997Z</time>
      </trkpt>
      <trkpt lat="50.927473" lon="8.623592">
        <ele>301.102142</ele>
        <time>2021-01-01T08:51:11.997Z</time>
      </trkpt>
      <trkpt lat="50.927547" lon="8.623332">
        <ele>303.068883</ele>
        <time>2021-01-01T08:51:42.997Z</time>
      </trkpt>
      <trkpt lat="50.927579" lon="8.623192">
        <ele>304.095561</ele>
        <time>2021-01-01T08:51:50.997Z</time>
      </trkpt>
      <trkpt lat="50.927559" lon="8.623047">
        <ele>305.118862</ele>
        <time>2021-01-01T08:52:02.997Z</time>
      </trkpt>
      <trkpt lat="50.927563" lon="8.622785">
        <ele>306.925647</ele>
        <time>2021-01-01T08:52:44.997Z</time>
      </trkpt>
      <trkpt lat="50.927571" lon="8.622629">
        <ele>308.004682</ele>
        <time>2021-01-01T08:52:55.997Z</time>
      </trkpt>
      <trkpt lat="50.927602" lon="8.622483">
        <ele>309.066797</ele>
        <time>2021-01-01T08:53:08.998Z</time>
      </trkpt>
      <trkpt lat="50.927622" lon="8.622341">
        <ele>310.069903</ele>
        <time>2021-01-01T08:53:19.999Z</time>
      </trkpt>
      <trkpt lat="50.927626" lon="8.622186">
        <ele>311.139383</ele>
        <time>2021-01-01T08:53:31.999Z</time>
      </trkpt>
      <trkpt lat="50.927662" lon="8.622044">
        <ele>312.194566</ele>
        <time>2021-01-01T08:53:51.999Z</time>
      </trkpt>
      <trkpt lat="50.927695" lon="8.621899">
        <ele>313.257378</ele>
        <time>2021-01-01T08:54:06.999Z</time>
      </trkpt>
      <trkpt lat="50.927704" lon="8.621757">
        <ele>314.192437</ele>
        <time>2021-01-01T08:54:34.998Z</time>
      </trkpt>
      <trkpt lat="50.927884" lon="8.621561">
        <ele>316.210314</ele>
        <time>2021-01-01T08:55:06.998Z</time>
      </trkpt>
      <trkpt lat="50.927952" lon="8.621467">
        <ele>317.043938</ele>
        <time>2021-01-01T08:55:13.998Z</time>
      </trkpt>
      <trkpt lat="50.928011" lon="8.621346">
        <ele>317.935173</ele>
        <time>2021-01-01T08:55:27.998Z</time>
      </trkpt>
      <trkpt lat="50.928077" lon="8.621231">
        <ele>318.841259</ele>
        <time>2021-01-01T08:55:37.998Z</time>
      </trkpt>
      <trkpt lat="50.928132" lon="8.621097">
        <ele>319.772844</ele>
        <time>2021-01-01T08:55:44.998Z</time>
      </trkpt>
      <trkpt lat="50.928218" lon="8.621042">
        <ele>320.629886</ele>
        <time>2021-01-01T08:55:54.998Z</time>
      </trkpt>
      <trkpt lat="50.928303" lon="8.620953">
        <ele>321.571203</ele>
        <time>2021-01-01T08:56:04.998Z</time>
      </trkpt>
      <trkpt lat="50.928388" lon="8.620888">
        <ele>322.443348</ele>
        <time>2021-01-01T08:56:11.998Z</time>
      </trkpt>
      <trkpt lat="50.928493" lon="8.620887">
        <ele>323.413872</ele>
        <time>2021-01-01T08:56:19.997Z</time>
      </trkpt>
      <trkpt lat="50.928578" lon="8.620825">
        <ele>324.278572</ele>
        <time>2021-01-01T08:56:25.997Z</time>
      </trkpt>
      <trkpt lat="50.928660" lon="8.620757">
        <ele>325.133777</ele>
        <time>2021-01-01T08:56:31.997Z</time>
      </trkpt>
      <trkpt lat="50.928707" lon="8.620614">
        <ele>326.073316</ele>
        <time>2021-01-01T08:56:37.997Z</time>
      </trkpt>
      <trkpt lat="50.928764" lon="8.620488">
        <ele>326.976852</ele>
        <time>2021-01-01T08:56:43.997Z</time>
      </trkpt>
      <trkpt lat="50.928820" lon="8.620352">
        <ele>327.923236</ele>
        <time>2021-01-01T08:56:50.997Z</time>
      </trkpt>
      <trkpt lat="50.928897" lon="8.620261">
        <ele>328.810687</ele>
        <time>2021-01-01T08:57:00.997Z</time>
      </trkpt>
      <trkpt lat="50.928989" lon="8.620209">
        <ele>329.713384</ele>
        <time>2021-01-01T08:57:09.997Z</time>
      </trkpt>
      <trkpt lat="50.929092" lon="8.620150">
        <ele>330.772635</ele>
        <time>2021-01-01T08:57:21.997Z</time>
      </trkpt>
      <trkpt lat="50.929198" lon="8.620121">
        <ele>332.034743</ele>
        <time>2021-01-01T08:57:26.997Z</time>
      </trkpt>
      <trkpt lat="50.929292" lon="8.620125">
        <ele>333.138089</ele>
        <time>2021-01-01T08:57:34.997Z</time>
      </trkpt>
      <trkpt lat="50.929374" lon="8.620027">
        <ele>334.342658</ele>
        <time>2021-01-01T08:57:39.997Z</time>
      </trkpt>
      <trkpt lat="50.929448" lon="8.619914">
        <ele>335.547758</ele>
        <time>2021-01-01T08:57:48.997Z</time>
      </trkpt>
      <trkpt lat="50.929498" lon="8.619779">
        <ele>336.705746</ele>
        <time>2021-01-01T08:57:56.997Z</time>
      </trkpt>
      <trkpt lat="50.929721" lon="8.620002">
        <ele>339.798671</ele>
        <time>2021-01-01T08:59:05.996Z</time>
      </trkpt>
      <trkpt lat="50.929702" lon="8.619846">
        <ele>340.973684</ele>
        <time>2021-01-01T08:59:16.996Z</time>
      </trkpt>
      <trkpt lat="50.929700" lon="8.619683">
        <ele>342.179349</ele>
        <time>2021-01-01T08:59:19.996Z</time>
      </trkpt>
      <trkpt lat="50.929684" lon="8.619507">
        <ele>343.494396</ele>
        <time>2021-01-01T08:59:22.996Z</time>
      </trkpt>
      <trkpt lat="50.929662" lon="8.619323">
        <ele>344.879404</ele>
        <time>2021-01-01T08:59:26.996Z</time>
      </trkpt>
      <trkpt lat="50.929634" lon="8.619180">
        <ele>345.986793</ele>
        <time>2021-01-01T08:59:29.996Z</time>
      </trkpt>
      <trkpt lat="50.929584" lon="8.619053">
        <ele>347.094177</ele>
        <time>2021-01-01T08:59:34.996Z</time>
      </trkpt>
      <trkpt lat="50.929506" lon="8.618883">
        <ele>348.649230</ele>
        <time>2021-01-01T08:59:39.996Z</time>
      </trkpt>
      <trkpt lat="50.929454" lon="8.618729">
        <ele>349.941257</ele>
        <time>2021-01-01T08:59:41.996Z</time>
      </trkpt>
      <trkpt lat="50.929469" lon="8.618571">
        <ele>351.122904</ele>
        <time>2021-01-01T08:59:43.996Z</time>
      </trkpt>
      <trkpt lat="50.929449" lon="8.618307">
        <ele>353.175438</ele>
        <time>2021-01-01T08:59:45.996Z</time>
      </trkpt>
      <trkpt lat="50.929477" lon="8.617705">
        <ele>357.907582</ele>
        <time>2021-01-01T08:59:49.996Z</time>
      </trkpt>
      <trkpt lat="50.929490" lon="8.617542">
        <ele>359.195592</ele>
        <time>2021-01-01T08:59:51.996Z</time>
      </trkpt>
      <trkpt lat="50.929378" lon="8.617473">
        <ele>360.689981</ele>
        <time>2021-01-01T08:59:53.996Z</time>
      </trkpt>
      <trkpt lat="50.929275" lon="8.617447">
        <ele>361.987209</ele>
        <time>2021-01-01T08:59:54.996Z</time>
      </trkpt>
      <trkpt lat="50.929243" lon="8.617610">
        <ele>363.325587</ele>
        <time>2021-01-01T08:59:56.995Z</time>
      </trkpt>
      <trkpt lat="50.929312" lon="8.617707">
        <ele>364.472230</ele>
        <time>2021-01-01T09:00:00.995Z</time>
      </trkpt>
      <trkpt lat="50.929152" lon="8.617545">
        <ele>366.833013</ele>
        <time>2021-01-01T09:00:01.996Z</time>
      </trkpt>
      <trkpt lat="50.929258" lon="8.617116">
        <ele>370.445325</ele>
        <time>2021-01-01T09:00:02.996Z</time>
      </trkpt>
      <trkpt lat="50.929431" lon="8.617025">
        <ele>372.712275</ele>
        <time>2021-01-01T09:00:03.996Z</time>
      </trkpt>
      <trkpt lat="50.929553" lon="8.616690">
        <ele>380.484414</ele>
        <time>2021-01-01T09:00:05.996Z</time>
      </trkpt>
      <trkpt lat="50.929622" lon="8.616528">
        <ele>386.243884</ele>
        <time>2021-01-01T09:00:06.997Z</time>
      </trkpt>
      <trkpt lat="50.929566" lon="8.616306">
        <ele>393.287600</ele>
        <time>2021-01-01T09:00:07.997Z</time>
      </trkpt>
      <trkpt lat="50.929537" lon="8.616573">
        <ele>401.268509</ele>
        <time>2021-01-01T09:00:17.998Z</time>
      </trkpt>
      <trkpt lat="50.929508" lon="8.616731">
        <ele>406.116028</ele>
        <time>2021-01-01T09:00:18.998Z</time>
      </trkpt>
      <trkpt lat="50.929468" lon="8.616958">
        <ele>413.059158</ele>
        <time>2021-01-01T09:00:20.998Z</time>
      </trkpt>
      <trkpt lat="50.929399" lon="8.617102">
        <ele>418.387600</ele>
        <time>2021-01-01T09:00:22.998Z</time>
      </trkpt>
      <trkpt lat="50.929321" lon="8.617213">
        <ele>423.284575</ele>
        <time>2021-01-01T09:00:24.998Z</time>
      </trkpt>
      <trkpt lat="50.929222" lon="8.617340">
        <ele>429.234677</ele>
        <time>2021-01-01T09:00:27.998Z</time>
      </trkpt>
      <trkpt lat="50.929251" lon="8.617186">
        <ele>433.969210</ele>
        <time>2021-01-01T09:00:42.999Z</time>
      </trkpt>
      <trkpt lat="50.929302" lon="8.617306">
        <ele>438.232598</ele>
        <time>2021-01-01T09:00:48.999Z</time>
      </trkpt>
      <trkpt lat="50.929199" lon="8.617302">
        <ele>443.047897</ele>
        <time>2021-01-01T09:00:54.999Z</time>
      </trkpt>
      <trkpt lat="50.929270" lon="8.617439">
        <ele>448.272575</ele>
        <time>2021-01-01T09:01:00.999Z</time>
      </trkpt>
      <trkpt lat="50.929359" lon="8.617368">
        <ele>452.928322</ele>
        <time>2021-01-01T09:01:19.999Z</time>
      </trkpt>
      <trkpt lat="50.929442" lon="8.617240">
        <ele>457.769617</ele>
        <time>2021-01-01T09:01:26.999Z</time>
      </trkpt>
      <trkpt lat="50.929511" lon="8.617141">
        <ele>452.191302</ele>
        <time>2021-01-01T09:01:33.999Z</time>
      </trkpt>
      <trkpt lat="50.929608" lon="8.617119">
        <ele>446.315760</ele>
        <time>2021-01-01T09:01:37.998Z</time>
      </trkpt>
      <trkpt lat="50.929646" lon="8.616989">
        <ele>440.899980</ele>
        <time>2021-01-01T09:01:48.998Z</time>
      </trkpt>
      <trkpt lat="50.929731" lon="8.616790">
        <ele>431.814779</ele>
        <time>2021-01-01T09:01:50.998Z</time>
      </trkpt>
      <trkpt lat="50.929752" lon="8.616632">
        <ele>425.712144</ele>
        <time>2021-01-01T09:01:51.998Z</time>
      </trkpt>
      <trkpt lat="50.929698" lon="8.616389">
        <ele>415.974309</ele>
        <time>2021-01-01T09:01:56.998Z</time>
      </trkpt>
      <trkpt lat="50.929723" lon="8.616160">
        <ele>407.190819</ele>
        <time>2021-01-01T09:02:00.998Z</time>
      </trkpt>
      <trkpt lat="50.929907" lon="8.616175">
        <ele>396.143064</ele>
        <time>2021-01-01T09:02:02.998Z</time>
      </trkpt>
      <trkpt lat="50.930055" lon="8.616041">
        <ele>385.925242</ele>
        <time>2021-01-01T09:02:04.998Z</time>
      </trkpt>
      <trkpt lat="50.930173" lon="8.615966">
        <ele>378.302983</ele>
        <time>2021-01-01T09:02:06.998Z</time>
      </trkpt>
      <trkpt lat="50.930083" lon="8.615934">
        <ele>372.772462</ele>
        <time>2021-01-01T09:02:14.998Z</time>
      </trkpt>
      <trkpt lat="50.930001" lon="8.616078">
        <ele>365.438037</ele>
        <time>2021-01-01T09:02:22.998Z</time>
      </trkpt>
      <trkpt lat="50.930017" lon="8.616228">
        <ele>359.688496</ele>
        <time>2021-01-01T09:02:30.998Z</time>
      </trkpt>
      <trkpt lat="50.930085" lon="8.616324">
        <ele>354.230557</ele>
        <time>2021-01-01T09:02:38.998Z</time>
      </trkpt>
      <trkpt lat="50.930149" lon="8.616489">
        <ele>350.243842</ele>
        <time>2021-01-01T09:02:41.998Z</time>
      </trkpt>
      <trkpt lat="50.930161" lon="8.616642">
        <ele>350.256009</ele>
        <time>2021-01-01T09:02:43.998Z</time>
      </trkpt>
      <trkpt lat="50.930209" lon="8.616781">
        <ele>350.268517</ele>
        <time>2021-01-01T09:02:50.998Z</time>
      </trkpt>
      <trkpt lat="50.930303" lon="8.616814">
        <ele>350.280571</ele>
        <time>2021-01-01T09:03:04.998Z</time>
      </trkpt>
      <trkpt lat="50.930394" lon="8.616859">
        <ele>350.292505</ele>
        <time>2021-01-01T09:03:10.998Z</time>
      </trkpt>
      <trkpt lat="50.930479" lon="8.616910">
        <ele>350.303883</ele>
        <time>2021-01-01T09:03:19.998Z</time>
      </trkpt>
      <trkpt lat="50.930573" lon="8.616934">
        <ele>350.315804</ele>
        <time>2021-01-01T09:03:28.998Z</time>
      </trkpt>
      <trkpt lat="50.930672" lon="8.616921">
        <ele>350.328242</ele>
        <time>2021-01-01T09:03:35.998Z</time>
      </trkpt>
      <trkpt lat="50.930765" lon="8.616917">
        <ele>350.339890</ele>
        <time>2021-01-01T09:03:42.997Z</time>
      </trkpt>
      <trkpt lat="50.930860" lon="8.616875">
        <ele>350.352238</ele>
        <time>2021-01-01T09:03:50.997Z</time>
      </trkpt>
      <trkpt lat="50.930938" lon="8.616631">
        <ele>350.373828</ele>
        <time>2021-01-01T09:04:42.997Z</time>
      </trkpt>
      <trkpt lat="50.930975" lon="8.616499">
        <ele>350.385228</ele>
        <time>2021-01-01T09:04:54.997Z</time>
      </trkpt>
      <trkpt lat="50.930997" lon="8.616360">
        <ele>350.396537</ele>
        <time>2021-01-01T09:05:06.997Z</time>
      </trkpt>
      <trkpt lat="50.931015" lon="8.616209">
        <ele>350.408664</ele>
        <time>2021-01-01T09:05:18.997Z</time>
      </trkpt>
      <trkpt lat="50.930852" lon="8.615885">
        <ele>350.441378</ele>
        <time>2021-01-01T09:06:19.996Z</time>
      </trkpt>
      <trkpt lat="50.930809" lon="8.615733">
        <ele>350.454526</ele>
        <time>2021-01-01T09:06:23.996Z</time>
      </trkpt>
      <trkpt lat="50.930709" lon="8.615566">
        <ele>351.402981</ele>
        <time>2021-01-01T09:06:26.996Z</time>
      </trkpt>
      <trkpt lat="50.930643" lon="8.615418">
        <ele>352.671744</ele>
        <time>2021-01-01T09:06:28.996Z</time>
      </trkpt>
      <trkpt lat="50.930682" lon="8.615548">
        <ele>353.679303</ele>
        <time>2021-01-01T09:06:40.996Z</time>
      </trkpt>
      <trkpt lat="50.930783" lon="8.615563">
        <ele>354.805661</ele>
        <time>2021-01-01T09:06:44.996Z</time>
      </trkpt>
      <trkpt lat="50.930878" lon="8.615663">
        <ele>356.071523</ele>
        <time>2021-01-01T09:06:47.996Z</time>
      </trkpt>
      <trkpt lat="50.930989" lon="8.615686">
        <ele>357.314480</ele>
        <time>2021-01-01T09:06:50.996Z</time>
      </trkpt>
      <trkpt lat="50.931082" lon="8.615634">
        <ele>358.409351</ele>
        <time>2021-01-01T09:06:56.996Z</time>
      </trkpt>
      <trkpt lat="50.931172" lon="8.615553">
        <ele>359.558239</ele>
        <time>2021-01-01T09:07:02.995Z</time>
      </trkpt>
      <trkpt lat="50.931252" lon="8.615471">
        <ele>360.615752</ele>
        <time>2021-01-01T09:07:10.996Z</time>
      </trkpt>
      <trkpt lat="50.931324" lon="8.615367">
        <ele>361.696867</ele>
        <time>2021-01-01T09:07:17.997Z</time>
      </trkpt>
      <trkpt lat="50.931374" lon="8.615242">
        <ele>362.732922</ele>
        <time>2021-01-01T09:07:24.998Z</time>
      </trkpt>
      <trkpt lat="50.931425" lon="8.615113">
        <ele>363.798575</ele>
        <time>2021-01-01T09:07:34.999Z</time>
      </trkpt>
      <trkpt lat="50.931434" lon="8.614963">
        <ele>364.853020</ele>
        <time>2021-01-01T09:07:43.999Z</time>
      </trkpt>
      <trkpt lat="50.931503" lon="8.614867">
        <ele>365.871990</ele>
        <time>2021-01-01T09:07:55.999Z</time>
      </trkpt>
      <trkpt lat="50.931565" lon="8.614756">
        <ele>366.909921</ele>
        <time>2021-01-01T09:08:07.999Z</time>
      </trkpt>
      <trkpt lat="50.931617" lon="8.614621">
        <ele>368.017115</ele>
        <time>2021-01-01T09:08:19.999Z</time>
      </trkpt>
      <trkpt lat="50.931724" lon="8.614385">
        <ele>370.051578</ele>
        <time>2021-01-01T09:08:45.999Z</time>
      </trkpt>
      <trkpt lat="50.931776" lon="8.614261">
        <ele>371.125243</ele>
        <time>2021-01-01T09:08:50.999Z</time>
      </trkpt>
      <trkpt lat="50.931811" lon="8.614125">
        <ele>372.202093</ele>
        <time>2021-01-01T09:08:59.999Z</time>
      </trkpt>
      <trkpt lat="50.931802" lon="8.613967">
        <ele>373.365021</ele>
        <time>2021-01-01T09:09:10.999Z</time>
      </trkpt>
      <trkpt lat="50.931839" lon="8.613823">
        <ele>374.504956</ele>
        <time>2021-01-01T09:09:20.999Z</time>
      </trkpt>
      <trkpt lat="50.931890" lon="8.613703">
        <ele>375.565923</ele>
        <time>2021-01-01T09:09:39.998Z</time>
      </trkpt>
      <trkpt lat="50.931845" lon="8.613554">
        <ele>376.777087</ele>
        <time>2021-01-01T09:09:46.998Z</time>
      </trkpt>
      <trkpt lat="50.931789" lon="8.613431">
        <ele>377.889383</ele>
        <time>2021-01-01T09:09:49.998Z</time>
      </trkpt>
      <trkpt lat="50.931770" lon="8.613277">
        <ele>379.039696</ele>
        <time>2021-01-01T09:09:55.998Z</time>
      </trkpt>
      <trkpt lat="50.932013" lon="8.614379">
        <ele>387.597978</ele>
        <time>2021-01-01T09:10:05.998Z</time>
      </trkpt>
      <trkpt lat="50.931752" lon="8.614545">
        <ele>390.868491</ele>
        <time>2021-01-01T09:10:07.998Z</time>
      </trkpt>
      <trkpt lat="50.932025" lon="8.614778">
        <ele>385.100027</ele>
        <time>2021-01-01T09:10:08.998Z</time>
      </trkpt>
      <trkpt lat="50.931998" lon="8.614941">
        <ele>382.624188</ele>
        <time>2021-01-01T09:10:09.998Z</time>
      </trkpt>
      <trkpt lat="50.932117" lon="8.615116">
        <ele>378.842288</ele>
        <time>2021-01-01T09:10:10.998Z</time>
      </trkpt>
      <trkpt lat="50.932308" lon="8.614982">
        <ele>373.974503</ele>
        <time>2021-01-01T09:10:11.998Z</time>
      </trkpt>
      <trkpt lat="50.932445" lon="8.614899">
        <ele>370.556318</ele>
        <time>2021-01-01T09:10:12.998Z</time>
      </trkpt>
      <trkpt lat="50.932375" lon="8.614414">
        <ele>363.247151</ele>
        <time>2021-01-01T09:10:14.998Z</time>
      </trkpt>
      <trkpt lat="50.932394" lon="8.614252">
        <ele>360.826487</ele>
        <time>2021-01-01T09:10:16.998Z</time>
      </trkpt>
      <trkpt lat="50.932360" lon="8.614007">
        <ele>357.141176</ele>
        <time>2021-01-01T09:10:17.998Z</time>
      </trkpt>
      <trkpt lat="50.932446" lon="8.613952">
        <ele>354.979904</ele>
        <time>2021-01-01T09:10:20.998Z</time>
      </trkpt>
      <trkpt lat="50.931904" lon="8.613307">
        <ele>332.492994</ele>
        <time>2021-01-01T09:11:26.998Z</time>
      </trkpt>
      <trkpt lat="50.931980" lon="8.613401">
        <ele>328.778502</ele>
        <time>2021-01-01T09:11:30.998Z</time>
      </trkpt>
      <trkpt lat="50.931930" lon="8.613271">
        <ele>325.078626</ele>
        <time>2021-01-01T09:11:33.998Z</time>
      </trkpt>
      <trkpt lat="50.931783" lon="8.613328">
        <ele>319.245451</ele>
        <time>2021-01-01T09:11:37.998Z</time>
      </trkpt>
      <trkpt lat="50.931748" lon="8.613502">
        <ele>314.808194</ele>
        <time>2021-01-01T09:11:39.998Z</time>
      </trkpt>
      <trkpt lat="50.931719" lon="8.613733">
        <ele>309.085991</ele>
        <time>2021-01-01T09:11:41.998Z</time>
      </trkpt>
      <trkpt lat="50.931697" lon="8.613933">
        <ele>304.153707</ele>
        <time>2021-01-01T09:11:43.998Z</time>
      </trkpt>
      <trkpt lat="50.931670" lon="8.614173">
        <ele>298.230943</ele>
        <time>2021-01-01T09:11:47.998Z</time>
      </trkpt>
      <trkpt lat="50.931657" lon="8.614361">
        <ele>293.636227</ele>
        <time>2021-01-01T09:11:49.998Z</time>
      </trkpt>
      <trkpt lat="50.931716" lon="8.614237">
        <ele>289.861658</ele>
        <time>2021-01-01T09:12:19.997Z</time>
      </trkpt>
      <trkpt lat="50.931754" lon="8.614100">
        <ele>286.225289</ele>
        <time>2021-01-01T09:12:23.997Z</time>
      </trkpt>
      <trkpt lat="50.931815" lon="8.613963">
        <ele>282.150181</ele>
        <time>2021-01-01T09:12:29.997Z</time>
      </trkpt>
      <trkpt lat="50.931851" lon="8.613817">
        <ele>279.878893</ele>
        <time>2021-01-01T09:12:33.997Z</time>
      </trkpt>
      <trkpt lat="50.931945" lon="8.613558">
        <ele>278.978424</ele>
        <time>2021-01-01T09:12:36.997Z</time>
      </trkpt>
      <trkpt lat="50.932110" lon="8.613328">
        <ele>277.928493</ele>
        <time>2021-01-01T09:12:38.997Z</time>
      </trkpt>
      <trkpt lat="50.932204" lon="8.613283">
        <ele>277.459122</ele>
        <time>2021-01-01T09:12:39.997Z</time>
      </trkpt>
      <trkpt lat="50.932189" lon="8.613030">
        <ele>276.693508</ele>
        <time>2021-01-01T09:12:40.997Z</time>
      </trkpt>
      <trkpt lat="50.932380" lon="8.612839">
        <ele>275.614231</ele>
        <time>2021-01-01T09:12:42.997Z</time>
      </trkpt>
      <trkpt lat="50.932320" lon="8.612724">
        <ele>275.164436</ele>
        <time>2021-01-01T09:12:45.997Z</time>
      </trkpt>
      <trkpt lat="50.932344" lon="8.612577">
        <ele>274.706931</ele>
        <time>2021-01-01T09:12:47.997Z</time>
      </trkpt>
      <trkpt lat="50.932371" lon="8.612427">
        <ele>274.236936</ele>
        <time>2021-01-01T09:12:51.997Z</time>
      </trkpt>
      <trkpt lat="50.932374" lon="8.612264">
        <ele>273.745635</ele>
        <time>2021-01-01T09:12:55.997Z</time>
      </trkpt>
      <trkpt lat="50.934186" lon="8.612324">
        <ele>249.691872</ele>
        <time>2021-01-01T09:14:03.997Z</time>
      </trkpt>
      <trkpt lat="50.934122" lon="8.612217">
        <ele>248.181511</ele>
        <time>2021-01-01T09:14:07.997Z</time>
      </trkpt>
      <trkpt lat="50.934039" lon="8.612144">
        <ele>246.639816</ele>
        <time>2021-01-01T09:14:26.998Z</time>
      </trkpt>
      <trkpt lat="50.933927" lon="8.612050">
        <ele>244.581427</ele>
        <time>2021-01-01T09:14:31.999Z</time>
      </trkpt>
      <trkpt lat="50.933802" lon="8.612088">
        <ele>242.513755</ele>
        <time>2021-01-01T09:14:33.999Z</time>
      </trkpt>
      <trkpt lat="50.933712" lon="8.612178">
        <ele>250.879254</ele>
        <time>2021-01-01T09:14:39.999Z</time>
      </trkpt>
      <trkpt lat="50.933680" lon="8.612346">
        <ele>261.237876</ele>
        <time>2021-01-01T09:14:57.999Z</time>
      </trkpt>
      <trkpt lat="50.933636" lon="8.612213">
        <ele>270.103591</ele>
        <time>2021-01-01T09:15:21.999Z</time>
      </trkpt>
      <trkpt lat="50.933615" lon="8.612065">
        <ele>279.057466</ele>
        <time>2021-01-01T09:15:34.999Z</time>
      </trkpt>
      <trkpt lat="50.933685" lon="8.611972">
        <ele>287.607681</ele>
        <time>2021-01-01T09:15:46.999Z</time>
      </trkpt>
      <trkpt lat="50.933777" lon="8.611913">
        <ele>296.900808</ele>
        <time>2021-01-01T09:15:55.999Z</time>
      </trkpt>
      <trkpt lat="50.933852" lon="8.611822">
        <ele>305.742915</ele>
        <time>2021-01-01T09:16:03.999Z</time>
      </trkpt>
      <trkpt lat="50.933931" lon="8.611731">
        <ele>314.885429</ele>
        <time>2021-01-01T09:16:09.999Z</time>
      </trkpt>
      <trkpt lat="50.934011" lon="8.611626">
        <ele>324.608534</ele>
        <time>2021-01-01T09:16:16.999Z</time>
      </trkpt>
      <trkpt lat="50.934094" lon="8.611535">
        <ele>334.056753</ele>
        <time>2021-01-01T09:16:25.999Z</time>
      </trkpt>
      <trkpt lat="50.934258" lon="8.611315">
        <ele>354.168930</ele>
        <time>2021-01-01T09:17:07.999Z</time>
      </trkpt>
      <trkpt lat="50.934333" lon="8.611226">
        <ele>362.939803</ele>
        <time>2021-01-01T09:17:15.999Z</time>
      </trkpt>
      <trkpt lat="50.934419" lon="8.611161">
        <ele>371.860921</ele>
        <time>2021-01-01T09:17:23.998Z</time>
      </trkpt>
      <trkpt lat="50.934511" lon="8.611082">
        <ele>381.657661</ele>
        <time>2021-01-01T09:17:30.998Z</time>
      </trkpt>
      <trkpt lat="50.934592" lon="8.611020">
        <ele>390.079980</ele>
        <time>2021-01-01T09:17:36.998Z</time>
      </trkpt>
      <trkpt lat="50.934677" lon="8.610966">
        <ele>398.654745</ele>
        <time>2021-01-01T09:17:42.998Z</time>
      </trkpt>
      <trkpt lat="50.934775" lon="8.610928">
        <ele>408.102746</ele>
        <time>2021-01-01T09:17:49.998Z</time>
      </trkpt>
      <trkpt lat="50.934861" lon="8.610881">
        <ele>411.045592</ele>
        <time>2021-01-01T09:17:56.998Z</time>
      </trkpt>
      <trkpt lat="50.934959" lon="8.610839">
        <ele>411.562411</ele>
        <time>2021-01-01T09:18:03.998Z</time>
      </trkpt>
      <trkpt lat="50.935044" lon="8.610773">
        <ele>412.044199</ele>
        <time>2021-01-01T09:18:11.998Z</time>
      </trkpt>
      <trkpt lat="50.935137" lon="8.610750">
        <ele>412.523399</ele>
        <time>2021-01-01T09:18:18.998Z</time>
      </trkpt>
      <trkpt lat="50.935303" lon="8.610682">
        <ele>413.396251</ele>
        <time>2021-01-01T09:18:46.998Z</time>
      </trkpt>
      <trkpt lat="50.935404" lon="8.610649">
        <ele>413.921253</ele>
        <time>2021-01-01T09:18:53.998Z</time>
      </trkpt>
      <trkpt lat="50.935492" lon="8.610603">
        <ele>414.392965</ele>
        <time>2021-01-01T09:18:59.997Z</time>
      </trkpt>
      <trkpt lat="50.935583" lon="8.610589">
        <ele>414.858439</ele>
        <time>2021-01-01T09:19:05.997Z</time>
      </trkpt>
      <trkpt lat="50.935679" lon="8.610563">
        <ele>415.354265</ele>
        <time>2021-01-01T09:19:13.997Z</time>
      </trkpt>
      <trkpt lat="50.935778" lon="8.610525">
        <ele>415.872833</ele>
        <time>2021-01-01T09:19:20.997Z</time>
      </trkpt>
      <trkpt lat="50.935865" lon="8.610454">
        <ele>416.370916</ele>
        <time>2021-01-01T09:19:27.997Z</time>
      </trkpt>
      <trkpt lat="50.935952" lon="8.610380">
        <ele>416.873473</ele>
        <time>2021-01-01T09:19:34.997Z</time>
      </trkpt>
      <trkpt lat="50.936035" lon="8.610319">
        <ele>417.339167</ele>
        <time>2021-01-01T09:19:41.997Z</time>
      </trkpt>
      <trkpt lat="50.936126" lon="8.610248">
        <ele>417.855443</ele>
        <time>2021-01-01T09:19:48.997Z</time>
      </trkpt>
      <trkpt lat="50.936205" lon="8.610178">
        <ele>418.316107</ele>
        <time>2021-01-01T09:19:54.997Z</time>
      </trkpt>
      <trkpt lat="50.936285" lon="8.610109">
        <ele>418.779682</ele>
        <time>2021-01-01T09:19:59.997Z</time>
      </trkpt>
      <trkpt lat="50.936366" lon="8.610016">
        <ele>419.288698</ele>
        <time>2021-01-01T09:20:06.997Z</time>
      </trkpt>
      <trkpt lat="50.936455" lon="8.609951">
        <ele>419.787505</ele>
        <time>2021-01-01T09:20:13.997Z</time>
      </trkpt>
      <trkpt lat="50.936540" lon="8.609883">
        <ele>420.290593</ele>
        <time>2021-01-01T09:20:19.997Z</time>
      </trkpt>
      <trkpt lat="50.936625" lon="8.609804">
        <ele>420.815848</ele>
        <time>2021-01-01T09:20:26.997Z</time>
      </trkpt>
      <trkpt lat="50.936700" lon="8.609710">
        <ele>421.325457</ele>
        <time>2021-01-01T09:20:35.997Z</time>
      </trkpt>
      <trkpt lat="50.936722" lon="8.609567">
        <ele>421.820083</ele>
        <time>2021-01-01T09:20:44.997Z</time>
      </trkpt>
      <trkpt lat="50.936661" lon="8.609440">
        <ele>422.356659</ele>
        <time>2021-01-01T09:20:51.997Z</time>
      </trkpt>
      <trkpt lat="50.936596" lon="8.609341">
        <ele>422.837067</ele>
        <time>2021-01-01T09:21:01.997Z</time>
      </trkpt>
      <trkpt lat="50.936532" lon="8.609235">
        <ele>423.330350</ele>
        <time>2021-01-01T09:21:09.997Z</time>
      </trkpt>
      <trkpt lat="50.936479" lon="8.609116">
        <ele>423.820006</ele>
        <time>2021-01-01T09:21:17.996Z</time>
      </trkpt>
      <trkpt lat="50.936450" lon="8.608965">
        <ele>424.350445</ele>
        <time>2021-01-01T09:21:27.997Z</time>
      </trkpt>
      <trkpt lat="50.936465" lon="8.608817">
        <ele>424.854153</ele>
        <time>2021-01-01T09:21:35.998Z</time>
      </trkpt>
      <trkpt lat="50.936513" lon="8.608676">
        <ele>425.392661</ele>
        <time>2021-01-01T09:21:43.998Z</time>
      </trkpt>
      <trkpt lat="50.936572" lon="8.608568">
        <ele>425.872948</ele>
        <time>2021-01-01T09:21:50.998Z</time>
      </trkpt>
      <trkpt lat="50.936625" lon="8.608431">
        <ele>426.413126</ele>
        <time>2021-01-01T09:21:57.999Z</time>
      </trkpt>
      <trkpt lat="50.936675" lon="8.608307">
        <ele>426.907792</ele>
        <time>2021-01-01T09:22:04.999Z</time>
      </trkpt>
      <trkpt lat="50.936737" lon="8.608179">
        <ele>427.450277</ele>
        <time>2021-01-01T09:22:12.999Z</time>
      </trkpt>
      <trkpt lat="50.936778" lon="8.608050">
        <ele>427.935757</ele>
        <time>2021-01-01T09:22:20.999Z</time>
      </trkpt>
      <trkpt lat="50.936822" lon="8.607919">
        <ele>428.434569</ele>
        <time>2021-01-01T09:22:28.999Z</time>
      </trkpt>
      <trkpt lat="50.936845" lon="8.607778">
        <ele>428.923976</ele>
        <time>2021-01-01T09:22:36.999Z</time>
      </trkpt>
      <trkpt lat="50.936886" lon="8.607637">
        <ele>429.445775</ele>
        <time>2021-01-01T09:22:45.999Z</time>
      </trkpt>
      <trkpt lat="50.936890" lon="8.607487">
        <ele>429.710657</ele>
        <time>2021-01-01T09:22:59.999Z</time>
      </trkpt>
      <trkpt lat="50.936765" lon="8.607232">
        <ele>430.251114</ele>
        <time>2021-01-01T09:23:39.998Z</time>
      </trkpt>
      <trkpt lat="50.936734" lon="8.607094">
        <ele>430.496204</ele>
        <time>2021-01-01T09:23:47.998Z</time>
      </trkpt>
      <trkpt lat="50.936656" lon="8.607022">
        <ele>430.735753</ele>
        <time>2021-01-01T09:23:55.998Z</time>
      </trkpt>
      <trkpt lat="50.936581" lon="8.606923">
        <ele>430.994732</ele>
        <time>2021-01-01T09:24:05.998Z</time>
      </trkpt>
      <trkpt lat="50.936513" lon="8.606812">
        <ele>431.253708</ele>
        <time>2021-01-01T09:24:11.998Z</time>
      </trkpt>
      <trkpt lat="50.936459" lon="8.606691">
        <ele>431.501750</ele>
        <time>2021-01-01T09:24:13.998Z</time>
      </trkpt>
      <trkpt lat="50.936372" lon="8.606561">
        <ele>431.818985</ele>
        <time>2021-01-01T09:24:15.998Z</time>
      </trkpt>
      <trkpt lat="50.936311" lon="8.606435">
        <ele>432.084794</ele>
        <time>2021-01-01T09:24:18.998Z</time>
      </trkpt>
      <trkpt lat="50.936257" lon="8.606308">
        <ele>432.341094</ele>
        <time>2021-01-01T09:24:25.998Z</time>
      </trkpt>
      <trkpt lat="50.936668" lon="8.604728">
        <ele>423.445345</ele>
        <time>2021-01-01T09:24:32.999Z</time>
      </trkpt>
      <trkpt lat="50.936690" lon="8.604401">
        <ele>417.207566</ele>
        <time>2021-01-01T09:24:33.999Z</time>
      </trkpt>
      <trkpt lat="50.936755" lon="8.604103">
        <ele>411.226096</ele>
        <time>2021-01-01T09:24:34.999Z</time>
      </trkpt>
      <trkpt lat="50.936756" lon="8.603943">
        <ele>408.191074</ele>
        <time>2021-01-01T09:24:35.999Z</time>
      </trkpt>
      <trkpt lat="50.936776" lon="8.603669">
        <ele>402.959108</ele>
        <time>2021-01-01T09:24:36.999Z</time>
      </trkpt>
      <trkpt lat="50.936787" lon="8.603511">
        <ele>399.943939</ele>
        <time>2021-01-01T09:24:37.999Z</time>
      </trkpt>
      <trkpt lat="50.936832" lon="8.603257">
        <ele>394.939309</ele>
        <time>2021-01-01T09:24:39.999Z</time>
      </trkpt>
      <trkpt lat="50.936812" lon="8.603415">
        <ele>391.882515</ele>
        <time>2021-01-01T09:24:44.999Z</time>
      </trkpt>
      <trkpt lat="50.936903" lon="8.603593">
        <ele>387.534909</ele>
        <time>2021-01-01T09:24:48.999Z</time>
      </trkpt>
      <trkpt lat="50.936929" lon="8.603743">
        <ele>384.584060</ele>
        <time>2021-01-01T09:24:50.999Z</time>
      </trkpt>
      <trkpt lat="50.936983" lon="8.603885">
        <ele>381.438202</ele>
        <time>2021-01-01T09:24:51.999Z</time>
      </trkpt>
      <trkpt lat="50.937032" lon="8.604136">
        <ele>379.170450</ele>
        <time>2021-01-01T09:24:56.999Z</time>
      </trkpt>
      <trkpt lat="50.937083" lon="8.604306">
        <ele>378.252754</ele>
        <time>2021-01-01T09:24:58.999Z</time>
      </trkpt>
      <trkpt lat="50.937005" lon="8.604387">
        <ele>377.531763</ele>
        <time>2021-01-01T09:25:12.000Z</time>
      </trkpt>
      <trkpt lat="50.937016" lon="8.604530">
        <ele>376.829596</ele>
        <time>2021-01-01T09:25:16.000Z</time>
      </trkpt>
      <trkpt lat="50.936933" lon="8.604460">
        <ele>376.102599</ele>
        <time>2021-01-01T09:25:23.999Z</time>
      </trkpt>
      <trkpt lat="50.936830" lon="8.604409">
        <ele>375.268064</ele>
        <time>2021-01-01T09:25:29.999Z</time>
      </trkpt>
      <trkpt lat="50.936737" lon="8.604396">
        <ele>374.545970</ele>
        <time>2021-01-01T09:25:36.999Z</time>
      </trkpt>
      <trkpt lat="50.936635" lon="8.604394">
        <ele>373.756990</ele>
        <time>2021-01-01T09:25:42.999Z</time>
      </trkpt>
      <trkpt lat="50.936542" lon="8.604342">
        <ele>372.994334</ele>
        <time>2021-01-01T09:25:48.999Z</time>
      </trkpt>
      <trkpt lat="50.936453" lon="8.604266">
        <ele>372.212621</ele>
        <time>2021-01-01T09:25:55.999Z</time>
      </trkpt>
      <trkpt lat="50.936351" lon="8.604200">
        <ele>371.360635</ele>
        <time>2021-01-01T09:26:02.999Z</time>
      </trkpt>
      <trkpt lat="50.936259" lon="8.604106">
        <ele>370.514314</ele>
        <time>2021-01-01T09:26:10.999Z</time>
      </trkpt>
      <trkpt lat="50.936176" lon="8.604023">
        <ele>369.755511</ele>
        <time>2021-01-01T09:26:18.999Z</time>
      </trkpt>
      <trkpt lat="50.936137" lon="8.603886">
        <ele>369.022779</ele>
        <time>2021-01-01T09:26:26.999Z</time>
      </trkpt>
      <trkpt lat="50.936104" lon="8.603717">
        <ele>368.160406</ele>
        <time>2021-01-01T09:26:33.999Z</time>
      </trkpt>
      <trkpt lat="50.936111" lon="8.603570">
        <ele>367.441859</ele>
        <time>2021-01-01T09:26:38.999Z</time>
      </trkpt>
      <trkpt lat="50.936088" lon="8.603428">
        <ele>366.727230</ele>
        <time>2021-01-01T09:26:44.999Z</time>
      </trkpt>
      <trkpt lat="50.936052" lon="8.603280">
        <ele>366.970360</ele>
        <time>2021-01-01T09:26:52.999Z</time>
      </trkpt>
      <trkpt lat="50.936017" lon="8.603132">
        <ele>369.405684</ele>
        <time>2021-01-01T09:26:57.999Z</time>
      </trkpt>
      <trkpt lat="50.935988" lon="8.602971">
        <ele>371.985357</ele>
        <time>2021-01-01T09:27:05.999Z</time>
      </trkpt>
      <trkpt lat="50.935947" lon="8.602840">
        <ele>374.238716</ele>
        <time>2021-01-01T09:27:12.999Z</time>
      </trkpt>
      <trkpt lat="50.935996" lon="8.602719">
        <ele>376.454526</ele>
        <time>2021-01-01T09:27:31.999Z</time>
      </trkpt>
      <trkpt lat="50.936055" lon="8.602603">
        <ele>378.751046</ele>
        <time>2021-01-01T09:27:40.999Z</time>
      </trkpt>
      <trkpt lat="50.936153" lon="8.602572">
        <ele>381.193937</ele>
        <time>2021-01-01T09:27:57.999Z</time>
      </trkpt>
      <trkpt lat="50.936246" lon="8.602519">
        <ele>383.609631</ele>
        <time>2021-01-01T09:28:08.999Z</time>
      </trkpt>
      <trkpt lat="50.936338" lon="8.602501">
        <ele>385.875736</ele>
        <time>2021-01-01T09:28:19.999Z</time>
      </trkpt>
      <trkpt lat="50.936328" lon="8.602354">
        <ele>388.153539</ele>
        <time>2021-01-01T09:28:28.998Z</time>
      </trkpt>
      <trkpt lat="50.936311" lon="8.602210">
        <ele>390.410560</ele>
        <time>2021-01-01T09:28:35.998Z</time>
      </trkpt>
      <trkpt lat="50.936275" lon="8.602079">
        <ele>392.612260</ele>
        <time>2021-01-01T09:28:42.999Z</time>
      </trkpt>
      <trkpt lat="50.936249" lon="8.601940">
        <ele>394.846002</ele>
        <time>2021-01-01T09:28:46.999Z</time>
      </trkpt>
      <trkpt lat="50.936196" lon="8.601792">
        <ele>397.468482</ele>
        <time>2021-01-01T09:28:53.999Z</time>
      </trkpt>
      <trkpt lat="50.936200" lon="8.601641">
        <ele>399.796813</ele>
        <time>2021-01-01T09:29:01.999Z</time>
      </trkpt>
      <trkpt lat="50.936176" lon="8.601498">
        <ele>402.076632</ele>
        <time>2021-01-01T09:29:17.999Z</time>
      </trkpt>
      <trkpt lat="50.936197" lon="8.601339">
        <ele>404.579374</ele>
        <time>2021-01-01T09:29:24.999Z</time>
      </trkpt>
      <trkpt lat="50.936196" lon="8.601195">
        <ele>406.797944</ele>
        <time>2021-01-01T09:29:30.999Z</time>
      </trkpt>
      <trkpt lat="50.936219" lon="8.601041">
        <ele>409.236154</ele>
        <time>2021-01-01T09:29:38.999Z</time>
      </trkpt>
      <trkpt lat="50.936222" lon="8.600868">
        <ele>409.920466</ele>
        <time>2021-01-01T09:29:44.999Z</time>
      </trkpt>
      <trkpt lat="50.936182" lon="8.600719">
        <ele>409.563186</ele>
        <time>2021-01-01T09:29:49.999Z</time>
      </trkpt>
      <trkpt lat="50.936313" lon="8.600437">
        <ele>408.790332</ele>
        <time>2021-01-01T09:30:30.999Z</time>
      </trkpt>
      <trkpt lat="50.936389" lon="8.600345">
        <ele>408.455711</ele>
        <time>2021-01-01T09:30:41.999Z</time>
      </trkpt>
      <trkpt lat="50.936471" lon="8.600263">
        <ele>408.116418</ele>
        <time>2021-01-01T09:30:50.999Z</time>
      </trkpt>
      <trkpt lat="50.936527" lon="8.600149">
        <ele>407.797554</ele>
        <time>2021-01-01T09:30:58.999Z</time>
      </trkpt>
      <trkpt lat="50.936625" lon="8.600103">
        <ele>407.439801</ele>
        <time>2021-01-01T09:31:04.999Z</time>
      </trkpt>
      <trkpt lat="50.936719" lon="8.600061">
        <ele>407.097949</ele>
        <time>2021-01-01T09:31:10.999Z</time>
      </trkpt>
      <trkpt lat="50.936808" lon="8.600040">
        <ele>406.782969</ele>
        <time>2021-01-01T09:31:20.998Z</time>
      </trkpt>
      <trkpt lat="50.936886" lon="8.599937">
        <ele>406.427747</ele>
        <time>2021-01-01T09:31:28.998Z</time>
      </trkpt>
      <trkpt lat="50.936971" lon="8.599879">
        <ele>406.103853</ele>
        <time>2021-01-01T09:31:35.998Z</time>
      </trkpt>
      <trkpt lat="50.937077" lon="8.599883">
        <ele>405.732684</ele>
        <time>2021-01-01T09:31:48.998Z</time>
      </trkpt>
      <trkpt lat="50.937185" lon="8.599854">
        <ele>405.349244</ele>
        <time>2021-01-01T09:31:55.998Z</time>
      </trkpt>
      <trkpt lat="50.937280" lon="8.599847">
        <ele>405.016328</ele>
        <time>2021-01-01T09:32:00.998Z</time>
      </trkpt>
      <trkpt lat="50.937381" lon="8.599842">
        <ele>404.662595</ele>
        <time>2021-01-01T09:32:07.998Z</time>
      </trkpt>
      <trkpt lat="50.937475" lon="8.599868">
        <ele>404.328577</ele>
        <time>2021-01-01T09:32:14.998Z</time>
      </trkpt>
      <trkpt lat="50.937574" lon="8.599875">
        <ele>403.981673</ele>
        <time>2021-01-01T09:32:20.998Z</time>
      </trkpt>
      <trkpt lat="50.937659" lon="8.599968">
        <ele>403.255839</ele>
        <time>2021-01-01T09:32:27.998Z</time>
      </trkpt>
      <trkpt lat="50.937727" lon="8.600091">
        <ele>402.373180</ele>
        <time>2021-01-01T09:32:30.998Z</time>
      </trkpt>
      <trkpt lat="50.937757" lon="8.600256">
        <ele>401.446799</ele>
        <time>2021-01-01T09:32:33.998Z</time>
      </trkpt>
      <trkpt lat="50.937755" lon="8.600407">
        <ele>400.632066</ele>
        <time>2021-01-01T09:32:42.998Z</time>
      </trkpt>
      <trkpt lat="50.937858" lon="8.600439">
        <ele>399.733618</ele>
        <time>2021-01-01T09:32:55.998Z</time>
      </trkpt>
      <trkpt lat="50.937877" lon="8.600252">
        <ele>398.711842</ele>
        <time>2021-01-01T09:33:00.998Z</time>
      </trkpt>
      <trkpt lat="50.937755" lon="8.600112">
        <ele>397.423035</ele>
        <time>2021-01-01T09:33:01.998Z</time>
      </trkpt>
      <trkpt lat="50.937738" lon="8.599968">
        <ele>396.632729</ele>
        <time>2021-01-01T09:33:02.998Z</time>
      </trkpt>
      <trkpt lat="50.937622" lon="8.599871">
        <ele>395.510306</ele>
        <time>2021-01-01T09:33:04.998Z</time>
      </trkpt>
      <trkpt lat="50.937451" lon="8.599870">
        <ele>394.046487</ele>
        <time>2021-01-01T09:33:06.998Z</time>
      </trkpt>
      <trkpt lat="50.937354" lon="8.599956">
        <ele>393.095330</ele>
        <time>2021-01-01T09:33:07.998Z</time>
      </trkpt>
      <trkpt lat="50.937269" lon="8.600063">
        <ele>392.166566</ele>
        <time>2021-01-01T09:33:08.998Z</time>
      </trkpt>
      <trkpt lat="50.937142" lon="8.600039">
        <ele>391.071727</ele>
        <time>2021-01-01T09:33:09.998Z</time>
      </trkpt>
      <trkpt lat="50.937014" lon="8.600125">
        <ele>389.881845</ele>
        <time>2021-01-01T09:33:10.998Z</time>
      </trkpt>
      <trkpt lat="50.936902" lon="8.600205">
        <ele>388.830442</ele>
        <time>2021-01-01T09:33:11.998Z</time>
      </trkpt>
      <trkpt lat="50.936779" lon="8.600251">
        <ele>388.334273</ele>
        <time>2021-01-01T09:33:12.998Z</time>
      </trkpt>
      <trkpt lat="50.936663" lon="8.600302">
        <ele>388.134089</ele>
        <time>2021-01-01T09:33:13.998Z</time>
      </trkpt>
      <trkpt lat="50.936603" lon="8.600183">
        <ele>387.974366</ele>
        <time>2021-01-01T09:33:16.998Z</time>
      </trkpt>
      <trkpt lat="50.936534" lon="8.600044">
        <ele>387.788921</ele>
        <time>2021-01-01T09:33:18.998Z</time>
      </trkpt>
      <trkpt lat="50.936554" lon="8.599873">
        <ele>387.606646</ele>
        <time>2021-01-01T09:33:19.998Z</time>
      </trkpt>
      <trkpt lat="50.936631" lon="8.599659">
        <ele>387.348382</ele>
        <time>2021-01-01T09:33:22.998Z</time>
      </trkpt>
      <trkpt lat="50.936914" lon="8.599705">
        <ele>386.875268</ele>
        <time>2021-01-01T09:33:28.998Z</time>
      </trkpt>
      <trkpt lat="50.936911" lon="8.599547">
        <ele>386.709604</ele>
        <time>2021-01-01T09:33:29.998Z</time>
      </trkpt>
      <trkpt lat="50.936934" lon="8.599381">
        <ele>386.531475</ele>
        <time>2021-01-01T09:33:33.998Z</time>
      </trkpt>
      <trkpt lat="50.936943" lon="8.599200">
        <ele>386.341192</ele>
        <time>2021-01-01T09:33:36.998Z</time>
      </trkpt>
      <trkpt lat="50.936930" lon="8.599033">
        <ele>386.164841</ele>
        <time>2021-01-01T09:33:40.998Z</time>
      </trkpt>
      <trkpt lat="50.936913" lon="8.598868">
        <ele>385.989620</ele>
        <time>2021-01-01T09:33:45.998Z</time>
      </trkpt>
      <trkpt lat="50.936999" lon="8.598781">
        <ele>385.820004</ele>
        <time>2021-01-01T09:33:48.998Z</time>
      </trkpt>
      <trkpt lat="50.937108" lon="8.598721">
        <ele>385.628131</ele>
        <time>2021-01-01T09:33:51.998Z</time>
      </trkpt>
      <trkpt lat="50.937216" lon="8.598750">
        <ele>385.447631</ele>
        <time>2021-01-01T09:34:01.998Z</time>
      </trkpt>
      <trkpt lat="50.937323" lon="8.598792">
        <ele>385.272305</ele>
        <time>2021-01-01T09:34:06.998Z</time>
      </trkpt>
      <trkpt lat="50.937413" lon="8.598849">
        <ele>385.118169</ele>
        <time>2021-01-01T09:34:13.998Z</time>
      </trkpt>
      <trkpt lat="50.937485" lon="8.598742">
        <ele>384.961265</ele>
        <time>2021-01-01T09:34:25.998Z</time>
      </trkpt>
      <trkpt lat="50.937585" lon="8.598734">
        <ele>384.802000</ele>
        <time>2021-01-01T09:34:29.998Z</time>
      </trkpt>
      <trkpt lat="50.937615" lon="8.598594">
        <ele>384.653779</ele>
        <time>2021-01-01T09:34:36.998Z</time>
      </trkpt>
      <trkpt lat="50.937639" lon="8.598445">
        <ele>384.499627</ele>
        <time>2021-01-01T09:34:45.998Z</time>
      </trkpt>
      <trkpt lat="50.937710" lon="8.598343">
        <ele>384.347288</ele>
        <time>2021-01-01T09:34:54.998Z</time>
      </trkpt>
      <trkpt lat="50.937797" lon="8.598279">
        <ele>384.194758</ele>
        <time>2021-01-01T09:35:01.998Z</time>
      </trkpt>
      <trkpt lat="50.937793" lon="8.598124">
        <ele>384.039263</ele>
        <time>2021-01-01T09:35:10.998Z</time>
      </trkpt>
      <trkpt lat="50.937771" lon="8.597982">
        <ele>383.892690</ele>
        <time>2021-01-01T09:35:17.998Z</time>
      </trkpt>
      <trkpt lat="50.937786" lon="8.597838">
        <ele>383.746393</ele>
        <time>2021-01-01T09:35:24.998Z</time>
      </trkpt>
      <trkpt lat="50.937759" lon="8.597699">
        <ele>383.600597</ele>
        <time>2021-01-01T09:35:32.998Z</time>
      </trkpt>
      <trkpt lat="50.937745" lon="8.597536">
        <ele>383.435703</ele>
        <time>2021-01-01T09:35:40.998Z</time>
      </trkpt>
      <trkpt lat="50.937718" lon="8.597394">
        <ele>383.287031</ele>
        <time>2021-01-01T09:35:45.999Z</time>
      </trkpt>
      <trkpt lat="50.937693" lon="8.597255">
        <ele>383.142140</ele>
        <time>2021-01-01T09:35:52.998Z</time>
      </trkpt>
      <trkpt lat="50.937717" lon="8.597109">
        <ele>382.990899</ele>
        <time>2021-01-01T09:36:03.997Z</time>
      </trkpt>
      <trkpt lat="50.937750" lon="8.596969">
        <ele>382.841074</ele>
        <time>2021-01-01T09:36:09.997Z</time>
      </trkpt>
      <trkpt lat="50.937797" lon="8.596829">
        <ele>382.682073</ele>
        <time>2021-01-01T09:36:16.997Z</time>
      </trkpt>
      <trkpt lat="50.937823" lon="8.596691">
        <ele>382.340721</ele>
        <time>2021-01-01T09:36:23.997Z</time>
      </trkpt>
      <trkpt lat="50.937874" lon="8.596551">
        <ele>381.805339</ele>
        <time>2021-01-01T09:36:29.997Z</time>
      </trkpt>
      <trkpt lat="50.937942" lon="8.596424">
        <ele>381.253590</ele>
        <time>2021-01-01T09:36:35.997Z</time>
      </trkpt>
      <trkpt lat="50.937939" lon="8.596279">
        <ele>380.773271</ele>
        <time>2021-01-01T09:37:03.996Z</time>
      </trkpt>
      <trkpt lat="50.938001" lon="8.596174">
        <ele>380.296878</ele>
        <time>2021-01-01T09:37:10.996Z</time>
      </trkpt>
      <trkpt lat="50.938016" lon="8.596030">
        <ele>379.813660</ele>
        <time>2021-01-01T09:38:02.996Z</time>
      </trkpt>
      <trkpt lat="50.937929" lon="8.596101">
        <ele>379.299676</ele>
        <time>2021-01-01T09:38:31.996Z</time>
      </trkpt>
      <trkpt lat="50.937830" lon="8.596095">
        <ele>378.779168</ele>
        <time>2021-01-01T09:39:12.996Z</time>
      </trkpt>
      <trkpt lat="50.937735" lon="8.596043">
        <ele>378.251197</ele>
        <time>2021-01-01T09:39:22.995Z</time>
      </trkpt>
      <trkpt lat="50.937652" lon="8.595965">
        <ele>377.744400</ele>
        <time>2021-01-01T09:39:31.995Z</time>
      </trkpt>
      <trkpt lat="50.937548" lon="8.595970">
        <ele>377.197752</ele>
        <time>2021-01-01T09:39:44.995Z</time>
      </trkpt>
      <trkpt lat="50.937429" lon="8.596020">
        <ele>376.551002</ele>
        <time>2021-01-01T09:39:49.995Z</time>
      </trkpt>
      <trkpt lat="50.937327" lon="8.596080">
        <ele>375.979479</ele>
        <time>2021-01-01T09:39:55.995Z</time>
      </trkpt>
      <trkpt lat="50.937239" lon="8.596133">
        <ele>375.484963</ele>
        <time>2021-01-01T09:40:01.995Z</time>
      </trkpt>
      <trkpt lat="50.937156" lon="8.596190">
        <ele>375.009812</ele>
        <time>2021-01-01T09:40:07.995Z</time>
      </trkpt>
      <trkpt lat="50.937058" lon="8.596240">
        <ele>374.468980</ele>
        <time>2021-01-01T09:40:14.995Z</time>
      </trkpt>
      <trkpt lat="50.936967" lon="8.596241">
        <ele>373.990870</ele>
        <time>2021-01-01T09:40:18.995Z</time>
      </trkpt>
      <trkpt lat="50.936859" lon="8.596237">
        <ele>373.423303</ele>
        <time>2021-01-01T09:40:24.995Z</time>
      </trkpt>
      <trkpt lat="50.936752" lon="8.596210">
        <ele>372.701983</ele>
        <time>2021-01-01T09:40:32.995Z</time>
      </trkpt>
      <trkpt lat="50.936657" lon="8.596175">
        <ele>371.945592</ele>
        <time>2021-01-01T09:40:37.995Z</time>
      </trkpt>
      <trkpt lat="50.936583" lon="8.596073">
        <ele>371.185384</ele>
        <time>2021-01-01T09:40:47.995Z</time>
      </trkpt>
      <trkpt lat="50.936560" lon="8.595934">
        <ele>370.482992</ele>
        <time>2021-01-01T09:40:56.995Z</time>
      </trkpt>
      <trkpt lat="50.936567" lon="8.595775">
        <ele>369.703985</ele>
        <time>2021-01-01T09:41:05.995Z</time>
      </trkpt>
      <trkpt lat="50.936574" lon="8.595619">
        <ele>368.939604</ele>
        <time>2021-01-01T09:41:11.995Z</time>
      </trkpt>
      <trkpt lat="50.936586" lon="8.595469">
        <ele>368.200594</ele>
        <time>2021-01-01T09:41:18.995Z</time>
      </trkpt>
      <trkpt lat="50.936602" lon="8.595302">
        <ele>367.375002</ele>
        <time>2021-01-01T09:41:26.995Z</time>
      </trkpt>
      <trkpt lat="50.936627" lon="8.595156">
        <ele>366.635554</ele>
        <time>2021-01-01T09:41:31.995Z</time>
      </trkpt>
      <trkpt lat="50.936666" lon="8.595008">
        <ele>365.851510</ele>
        <time>2021-01-01T09:41:37.995Z</time>
      </trkpt>
      <trkpt lat="50.936743" lon="8.595089">
        <ele>365.135016</ele>
        <time>2021-01-01T09:41:46.995Z</time>
      </trkpt>
      <trkpt lat="50.936770" lon="8.595245">
        <ele>364.344335</ele>
        <time>2021-01-01T09:41:49.996Z</time>
      </trkpt>
      <trkpt lat="50.936842" lon="8.595398">
        <ele>363.411058</ele>
        <time>2021-01-01T09:41:52.997Z</time>
      </trkpt>
      <trkpt lat="50.936934" lon="8.595542">
        <ele>362.408836</ele>
        <time>2021-01-01T09:41:54.997Z</time>
      </trkpt>
      <trkpt lat="50.936980" lon="8.595673">
        <ele>361.675890</ele>
        <time>2021-01-01T09:41:56.998Z</time>
      </trkpt>
      <trkpt lat="50.937052" lon="8.595763">
        <ele>360.965038</ele>
        <time>2021-01-01T09:41:59.998Z</time>
      </trkpt>
      <trkpt lat="50.937036" lon="8.595612">
        <ele>360.216672</ele>
        <time>2021-01-01T09:42:06.999Z</time>
      </trkpt>
      <trkpt lat="50.937121" lon="8.595506">
        <ele>359.378228</ele>
        <time>2021-01-01T09:42:09.999Z</time>
      </trkpt>
      <trkpt lat="50.937143" lon="8.595360">
        <ele>354.969660</ele>
        <time>2021-01-01T09:42:12.000Z</time>
      </trkpt>
      <trkpt lat="50.937114" lon="8.595211">
        <ele>349.371276</ele>
        <time>2021-01-01T09:42:13.000Z</time>
      </trkpt>
      <trkpt lat="50.937102" lon="8.595038">
        <ele>343.123099</ele>
        <time>2021-01-01T09:42:17.000Z</time>
      </trkpt>
      <trkpt lat="50.937166" lon="8.594889">
        <ele>336.649647</ele>
        <time>2021-01-01T09:42:32.000Z</time>
      </trkpt>
      <trkpt lat="50.937184" lon="8.594741">
        <ele>331.238436</ele>
        <time>2021-01-01T09:42:32.999Z</time>
      </trkpt>
      <trkpt lat="50.937254" lon="8.594597">
        <ele>324.709525</ele>
        <time>2021-01-01T09:42:36.999Z</time>
      </trkpt>
      <trkpt lat="50.937351" lon="8.594561">
        <ele>319.034494</ele>
        <time>2021-01-01T09:42:40.998Z</time>
      </trkpt>
      <trkpt lat="50.937383" lon="8.594375">
        <ele>312.112792</ele>
        <time>2021-01-01T09:42:51.998Z</time>
      </trkpt>
      <trkpt lat="50.937442" lon="8.594266">
        <ele>306.954388</ele>
        <time>2021-01-01T09:43:01.999Z</time>
      </trkpt>
      <trkpt lat="50.937478" lon="8.594107">
        <ele>300.889112</ele>
        <time>2021-01-01T09:43:08.999Z</time>
      </trkpt>
      <trkpt lat="50.937473" lon="8.593951">
        <ele>295.281548</ele>
        <time>2021-01-01T09:43:11.999Z</time>
      </trkpt>
      <trkpt lat="50.937478" lon="8.593796">
        <ele>289.709836</ele>
        <time>2021-01-01T09:43:14.999Z</time>
      </trkpt>
      <trkpt lat="50.937570" lon="8.593797">
        <ele>284.468641</ele>
        <time>2021-01-01T09:43:26.999Z</time>
      </trkpt>
      <trkpt lat="50.937661" lon="8.593773">
        <ele>279.213428</ele>
        <time>2021-01-01T09:43:32.999Z</time>
      </trkpt>
      <trkpt lat="50.937706" lon="8.593641">
        <ele>273.825728</ele>
        <time>2021-01-01T09:43:40.999Z</time>
      </trkpt>
      <trkpt lat="50.937746" lon="8.593508">
        <ele>268.535217</ele>
        <time>2021-01-01T09:43:47.999Z</time>
      </trkpt>
      <trkpt lat="50.937782" lon="8.593356">
        <ele>262.705851</ele>
        <time>2021-01-01T09:43:53.999Z</time>
      </trkpt>
      <trkpt lat="50.937789" lon="8.593195">
        <ele>256.912325</ele>
        <time>2021-01-01T09:43:57.999Z</time>
      </trkpt>
      <trkpt lat="50.937862" lon="8.593077">
        <ele>259.685248</ele>
        <time>2021-01-01T09:44:03.999Z</time>
      </trkpt>
      <trkpt lat="50.937924" lon="8.592967">
        <ele>262.367123</ele>
        <time>2021-01-01T09:44:08.999Z</time>
      </trkpt>
      <trkpt lat="50.937999" lon="8.592818">
        <ele>265.832548</ele>
        <time>2021-01-01T09:44:13.999Z</time>
      </trkpt>
      <trkpt lat="50.938004" lon="8.592658">
        <ele>268.743675</ele>
        <time>2021-01-01T09:44:19.999Z</time>
      </trkpt>
      <trkpt lat="50.938022" lon="8.592514">
        <ele>271.411460</ele>
        <time>2021-01-01T09:44:26.999Z</time>
      </trkpt>
      <trkpt lat="50.938069" lon="8.592351">
        <ele>274.668889</ele>
        <time>2021-01-01T09:44:31.999Z</time>
      </trkpt>
      <trkpt lat="50.938109" lon="8.592220">
        <ele>277.314187</ele>
        <time>2021-01-01T09:44:36.999Z</time>
      </trkpt>
      <trkpt lat="50.938198" lon="8.592124">
        <ele>280.417484</ele>
        <time>2021-01-01T09:44:41.999Z</time>
      </trkpt>
      <trkpt lat="50.938298" lon="8.592050">
        <ele>283.599353</ele>
        <time>2021-01-01T09:44:44.999Z</time>
      </trkpt>
      <trkpt lat="50.938395" lon="8.592027">
        <ele>286.427635</ele>
        <time>2021-01-01T09:44:52.999Z</time>
      </trkpt>
      <trkpt lat="50.938461" lon="8.591919">
        <ele>289.161527</ele>
        <time>2021-01-01T09:44:59.999Z</time>
      </trkpt>
      <trkpt lat="50.938517" lon="8.591802">
        <ele>291.831415</ele>
        <time>2021-01-01T09:45:03.999Z</time>
      </trkpt>
      <trkpt lat="50.938555" lon="8.591619">
        <ele>295.332790</ele>
        <time>2021-01-01T09:45:09.999Z</time>
      </trkpt>
      <trkpt lat="50.938567" lon="8.591459">
        <ele>298.260830</ele>
        <time>2021-01-01T09:45:23.998Z</time>
      </trkpt>
      <trkpt lat="50.938579" lon="8.591307">
        <ele>301.044566</ele>
        <time>2021-01-01T09:45:30.998Z</time>
      </trkpt>
      <trkpt lat="50.938632" lon="8.591173">
        <ele>303.919527</ele>
        <time>2021-01-01T09:45:36.998Z</time>
      </trkpt>
      <trkpt lat="50.938684" lon="8.591054">
        <ele>306.551045</ele>
        <time>2021-01-01T09:45:40.998Z</time>
      </trkpt>
      <trkpt lat="50.938744" lon="8.590900">
        <ele>309.120894</ele>
        <time>2021-01-01T09:45:45.998Z</time>
      </trkpt>
      <trkpt lat="50.938791" lon="8.590767">
        <ele>310.248675</ele>
        <time>2021-01-01T09:45:48.998Z</time>
      </trkpt>
      <trkpt lat="50.938860" lon="8.590652">
        <ele>311.423091</ele>
        <time>2021-01-01T09:45:51.998Z</time>
      </trkpt>
      <trkpt lat="50.938915" lon="8.590496">
        <ele>312.745166</ele>
        <time>2021-01-01T09:45:58.998Z</time>
      </trkpt>
      <trkpt lat="50.938987" lon="8.590363">
        <ele>314.041969</ele>
        <time>2021-01-01T09:46:03.998Z</time>
      </trkpt>
      <trkpt lat="50.939080" lon="8.590296">
        <ele>315.240707</ele>
        <time>2021-01-01T09:46:06.998Z</time>
      </trkpt>
      <trkpt lat="50.939369" lon="8.590311">
        <ele>318.634462</ele>
        <time>2021-01-01T09:46:11.998Z</time>
      </trkpt>
      <trkpt lat="50.939469" lon="8.590426">
        <ele>320.083918</ele>
        <time>2021-01-01T09:46:12.998Z</time>
      </trkpt>
      <trkpt lat="50.939584" lon="8.590582">
        <ele>321.859566</ele>
        <time>2021-01-01T09:46:13.998Z</time>
      </trkpt>
      <trkpt lat="50.939735" lon="8.590879">
        <ele>324.681937</ele>
        <time>2021-01-01T09:46:14.998Z</time>
      </trkpt>
      <trkpt lat="50.939863" lon="8.591044">
        <ele>326.617420</ele>
        <time>2021-01-01T09:46:15.998Z</time>
      </trkpt>
      <trkpt lat="50.939994" lon="8.591302">
        <ele>329.067904</ele>
        <time>2021-01-01T09:46:17.998Z</time>
      </trkpt>
      <trkpt lat="50.940057" lon="8.591513">
        <ele>322.850930</ele>
        <time>2021-01-01T09:46:18.998Z</time>
      </trkpt>
      <trkpt lat="50.940106" lon="8.591679">
        <ele>314.026154</ele>
        <time>2021-01-01T09:46:19.998Z</time>
      </trkpt>
      <trkpt lat="50.940209" lon="8.591750">
        <ele>305.446857</ele>
        <time>2021-01-01T09:46:21.998Z</time>
      </trkpt>
      <trkpt lat="50.940374" lon="8.591808">
        <ele>292.535608</ele>
        <time>2021-01-01T09:46:27.998Z</time>
      </trkpt>
      <trkpt lat="50.940306" lon="8.591714">
        <ele>285.646003</ele>
        <time>2021-01-01T09:46:29.998Z</time>
      </trkpt>
      <trkpt lat="50.940249" lon="8.591850">
        <ele>277.782879</ele>
        <time>2021-01-01T09:46:34.998Z</time>
      </trkpt>
      <trkpt lat="50.940299" lon="8.592021">
        <ele>268.707691</ele>
        <time>2021-01-01T09:46:36.998Z</time>
      </trkpt>
      <trkpt lat="50.940429" lon="8.592049">
        <ele>258.684859</ele>
        <time>2021-01-01T09:46:38.998Z</time>
      </trkpt>
      <trkpt lat="50.940355" lon="8.591912">
        <ele>249.998115</ele>
        <time>2021-01-01T09:46:41.998Z</time>
      </trkpt>
      <trkpt lat="50.940471" lon="8.591920">
        <ele>241.127548</ele>
        <time>2021-01-01T09:46:44.998Z</time>
      </trkpt>
      <trkpt lat="50.940524" lon="8.591798">
        <ele>233.993876</ele>
        <time>2021-01-01T09:46:48.998Z</time>
      </trkpt>
      <trkpt lat="50.940583" lon="8.591664">
        <ele>226.124260</ele>
        <time>2021-01-01T09:46:53.998Z</time>
      </trkpt>
      <trkpt lat="50.940668" lon="8.591542">
        <ele>217.368464</ele>
        <time>2021-01-01T09:46:56.998Z</time>
      </trkpt>
      <trkpt lat="50.940690" lon="8.591380">
        <ele>209.390651</ele>
        <time>2021-01-01T09:47:01.998Z</time>
      </trkpt>
      <trkpt lat="50.940747" lon="8.591237">
        <ele>201.244856</ele>
        <time>2021-01-01T09:47:04.998Z</time>
      </trkpt>
      <trkpt lat="50.940686" lon="8.591110">
        <ele>193.557378</ele>
        <time>2021-01-01T09:47:07.998Z</time>
      </trkpt>
      <trkpt lat="50.940751" lon="8.590979">
        <ele>198.641978</ele>
        <time>2021-01-01T09:47:10.998Z</time>
      </trkpt>
      <trkpt lat="50.939632" lon="8.588901">
        <ele>320.294348</ele>
        <time>2021-01-01T09:47:22.997Z</time>
      </trkpt>
      <trkpt lat="50.939715" lon="8.588798">
        <ele>321.620083</ele>
        <time>2021-01-01T09:47:30.997Z</time>
      </trkpt>
      <trkpt lat="50.939783" lon="8.588699">
        <ele>322.781198</ele>
        <time>2021-01-01T09:47:37.997Z</time>
      </trkpt>
      <trkpt lat="50.939882" lon="8.588659">
        <ele>324.066598</ele>
        <time>2021-01-01T09:47:45.997Z</time>
      </trkpt>
      <trkpt lat="50.939985" lon="8.588635">
        <ele>325.376485</ele>
        <time>2021-01-01T09:47:53.997Z</time>
      </trkpt>
      <trkpt lat="50.940077" lon="8.588588">
        <ele>326.592571</ele>
        <time>2021-01-01T09:47:59.997Z</time>
      </trkpt>
      <trkpt lat="50.940117" lon="8.588441">
        <ele>327.862102</ele>
        <time>2021-01-01T09:48:04.997Z</time>
      </trkpt>
      <trkpt lat="50.940064" lon="8.588317">
        <ele>329.050080</ele>
        <time>2021-01-01T09:48:12.997Z</time>
      </trkpt>
      <trkpt lat="50.939986" lon="8.588230">
        <ele>330.249670</ele>
        <time>2021-01-01T09:48:16.997Z</time>
      </trkpt>
      <trkpt lat="50.939923" lon="8.588117">
        <ele>331.445940</ele>
        <time>2021-01-01T09:48:22.997Z</time>
      </trkpt>
      <trkpt lat="50.939840" lon="8.588058">
        <ele>332.590265</ele>
        <time>2021-01-01T09:48:28.997Z</time>
      </trkpt>
      <trkpt lat="50.939741" lon="8.588001">
        <ele>333.915374</ele>
        <time>2021-01-01T09:48:34.997Z</time>
      </trkpt>
      <trkpt lat="50.939651" lon="8.587959">
        <ele>335.095741</ele>
        <time>2021-01-01T09:48:40.997Z</time>
      </trkpt>
      <trkpt lat="50.939563" lon="8.587928">
        <ele>336.229948</ele>
        <time>2021-01-01T09:48:47.997Z</time>
      </trkpt>
      <trkpt lat="50.939465" lon="8.587904">
        <ele>337.477623</ele>
        <time>2021-01-01T09:48:55.997Z</time>
      </trkpt>
      <trkpt lat="50.939407" lon="8.587778">
        <ele>338.714805</ele>
        <time>2021-01-01T09:48:58.998Z</time>
      </trkpt>
      <trkpt lat="50.939402" lon="8.587612">
        <ele>340.032475</ele>
        <time>2021-01-01T09:49:01.998Z</time>
      </trkpt>
      <trkpt lat="50.939298" lon="8.587656">
        <ele>341.386754</ele>
        <time>2021-01-01T09:49:16.000Z</time>
      </trkpt>
      <trkpt lat="50.939206" lon="8.587639">
        <ele>342.552159</ele>
        <time>2021-01-01T09:49:23.000Z</time>
      </trkpt>
      <trkpt lat="50.939135" lon="8.587536">
        <ele>343.722099</ele>
        <time>2021-01-01T09:49:29.000Z</time>
      </trkpt>
      <trkpt lat="50.939075" lon="8.587421">
        <ele>344.857844</ele>
        <time>2021-01-01T09:49:37.000Z</time>
      </trkpt>
      <trkpt lat="50.938987" lon="8.587364">
        <ele>346.005250</ele>
        <time>2021-01-01T09:49:44.000Z</time>
      </trkpt>
      <trkpt lat="50.938890" lon="8.587368">
        <ele>347.176615</ele>
        <time>2021-01-01T09:49:52.000Z</time>
      </trkpt>
      <trkpt lat="50.938799" lon="8.587342">
        <ele>348.292817</ele>
        <time>2021-01-01T09:50:10.000Z</time>
      </trkpt>
      <trkpt lat="50.938760" lon="8.587190">
        <ele>349.541268</ele>
        <time>2021-01-01T09:50:14.000Z</time>
      </trkpt>
      <trkpt lat="50.938702" lon="8.587067">
        <ele>350.709907</ele>
        <time>2021-01-01T09:50:19.000Z</time>
      </trkpt>
      <trkpt lat="50.938635" lon="8.586959">
        <ele>351.862796</ele>
        <time>2021-01-01T09:50:25.999Z</time>
      </trkpt>
      <trkpt lat="50.938555" lon="8.586863">
        <ele>353.073574</ele>
        <time>2021-01-01T09:50:32.999Z</time>
      </trkpt>
      <trkpt lat="50.938608" lon="8.586737">
        <ele>354.225994</ele>
        <time>2021-01-01T09:50:52.999Z</time>
      </trkpt>
      <trkpt lat="50.938656" lon="8.586600">
        <ele>355.418423</ele>
        <time>2021-01-01T09:50:59.999Z</time>
      </trkpt>
      <trkpt lat="50.938681" lon="8.586453">
        <ele>356.576676</ele>
        <time>2021-01-01T09:51:06.999Z</time>
      </trkpt>
      <trkpt lat="50.938640" lon="8.586321">
        <ele>357.696169</ele>
        <time>2021-01-01T09:51:13.999Z</time>
      </trkpt>
      <trkpt lat="50.938608" lon="8.586180">
        <ele>358.836215</ele>
        <time>2021-01-01T09:51:20.999Z</time>
      </trkpt>
      <trkpt lat="50.938558" lon="8.586054">
        <ele>359.968928</ele>
        <time>2021-01-01T09:51:31.999Z</time>
      </trkpt>
      <trkpt lat="50.938505" lon="8.585925">
        <ele>361.140398</ele>
        <time>2021-01-01T09:51:40.999Z</time>
      </trkpt>
      <trkpt lat="50.938436" lon="8.585831">
        <ele>362.238189</ele>
        <time>2021-01-01T09:51:51.999Z</time>
      </trkpt>
      <trkpt lat="50.938371" lon="8.585723">
        <ele>363.374274</ele>
        <time>2021-01-01T09:52:02.999Z</time>
      </trkpt>
      <trkpt lat="50.938325" lon="8.585589">
        <ele>364.536695</ele>
        <time>2021-01-01T09:52:14.998Z</time>
      </trkpt>
      <trkpt lat="50.938284" lon="8.585448">
        <ele>365.752124</ele>
        <time>2021-01-01T09:52:25.998Z</time>
      </trkpt>
      <trkpt lat="50.938231" lon="8.585321">
        <ele>366.944363</ele>
        <time>2021-01-01T09:52:37.998Z</time>
      </trkpt>
      <trkpt lat="50.938218" lon="8.585161">
        <ele>368.207045</ele>
        <time>2021-01-01T09:52:49.998Z</time>
      </trkpt>
      <trkpt lat="50.938137" lon="8.585083">
        <ele>369.383861</ele>
        <time>2021-01-01T09:52:54.998Z</time>
      </trkpt>
      <trkpt lat="50.938091" lon="8.584954">
        <ele>370.543989</ele>
        <time>2021-01-01T09:53:10.998Z</time>
      </trkpt>
      <trkpt lat="50.938062" lon="8.584809">
        <ele>371.734691</ele>
        <time>2021-01-01T09:53:35.998Z</time>
      </trkpt>
      <trkpt lat="50.938038" lon="8.584656">
        <ele>372.968766</ele>
        <time>2021-01-01T09:53:46.998Z</time>
      </trkpt>
      <trkpt lat="50.937991" lon="8.584527">
        <ele>374.135063</ele>
        <time>2021-01-01T09:54:03.997Z</time>
      </trkpt>
      <trkpt lat="50.937967" lon="8.584386">
        <ele>375.278221</ele>
        <time>2021-01-01T09:54:16.997Z</time>
      </trkpt>
      <trkpt lat="50.937896" lon="8.584272">
        <ele>376.532753</ele>
        <time>2021-01-01T09:54:27.996Z</time>
      </trkpt>
      <trkpt lat="50.937819" lon="8.584179">
        <ele>377.734643</ele>
        <time>2021-01-01T09:54:36.996Z</time>
      </trkpt>
      <trkpt lat="50.937893" lon="8.584081">
        <ele>378.931790</ele>
        <time>2021-01-01T09:54:47.996Z</time>
      </trkpt>
      <trkpt lat="50.937979" lon="8.584036">
        <ele>380.056536</ele>
        <time>2021-01-01T09:54:54.996Z</time>
      </trkpt>
      <trkpt lat="50.938060" lon="8.583951">
        <ele>381.262687</ele>
        <time>2021-01-01T09:55:03.996Z</time>
      </trkpt>
      <trkpt lat="50.938135" lon="8.583850">
        <ele>382.484453</ele>
        <time>2021-01-01T09:55:12.996Z</time>
      </trkpt>
      <trkpt lat="50.938208" lon="8.583762">
        <ele>383.623105</ele>
        <time>2021-01-01T09:55:19.996Z</time>
      </trkpt>
      <trkpt lat="50.938285" lon="8.583688">
        <ele>384.741205</ele>
        <time>2021-01-01T09:55:26.996Z</time>
      </trkpt>
      <trkpt lat="50.938348" lon="8.583574">
        <ele>385.927989</ele>
        <time>2021-01-01T09:55:33.996Z</time>
      </trkpt>
      <trkpt lat="50.938423" lon="8.583480">
        <ele>386.781626</ele>
        <time>2021-01-01T09:55:40.996Z</time>
      </trkpt>
      <trkpt lat="50.938502" lon="8.583402">
        <ele>386.634648</ele>
        <time>2021-01-01T09:55:47.996Z</time>
      </trkpt>
      <trkpt lat="50.938580" lon="8.583296">
        <ele>386.472426</ele>
        <time>2021-01-01T09:55:55.995Z</time>
      </trkpt>
      <trkpt lat="50.938664" lon="8.583220">
        <ele>386.319681</ele>
        <time>2021-01-01T09:56:02.995Z</time>
      </trkpt>
      <trkpt lat="50.938742" lon="8.583141">
        <ele>386.173509</ele>
        <time>2021-01-01T09:56:09.995Z</time>
      </trkpt>
      <trkpt lat="50.938814" lon="8.583031">
        <ele>386.015629</ele>
        <time>2021-01-01T09:56:18.995Z</time>
      </trkpt>
      <trkpt lat="50.938899" lon="8.582960">
        <ele>385.863891</ele>
        <time>2021-01-01T09:56:25.995Z</time>
      </trkpt>
      <trkpt lat="50.938968" lon="8.582861">
        <ele>385.716948</ele>
        <time>2021-01-01T09:56:33.995Z</time>
      </trkpt>
      <trkpt lat="50.939032" lon="8.582758">
        <ele>385.572956</ele>
        <time>2021-01-01T09:56:41.995Z</time>
      </trkpt>
      <trkpt lat="50.939096" lon="8.582646">
        <ele>385.422454</ele>
        <time>2021-01-01T09:56:50.996Z</time>
      </trkpt>
      <trkpt lat="50.939150" lon="8.582530">
        <ele>385.278892</ele>
        <time>2021-01-01T09:56:59.997Z</time>
      </trkpt>
      <trkpt lat="50.939212" lon="8.582413">
        <ele>385.126720</ele>
        <time>2021-01-01T09:57:07.998Z</time>
      </trkpt>
      <trkpt lat="50.939286" lon="8.582330">
        <ele>384.983573</ele>
        <time>2021-01-01T09:57:15.998Z</time>
      </trkpt>
      <trkpt lat="50.939380" lon="8.582303">
        <ele>384.832670</ele>
        <time>2021-01-01T09:57:27.998Z</time>
      </trkpt>
      <trkpt lat="50.939428" lon="8.582178">
        <ele>384.686959</ele>
        <time>2021-01-01T09:57:36.998Z</time>
      </trkpt>
      <trkpt lat="50.939441" lon="8.582019">
        <ele>384.527359</ele>
        <time>2021-01-01T09:57:42.998Z</time>
      </trkpt>
      <trkpt lat="50.939433" lon="8.581856">
        <ele>384.364614</ele>
        <time>2021-01-01T09:57:48.998Z</time>
      </trkpt>
      <trkpt lat="50.939447" lon="8.581706">
        <ele>384.213671</ele>
        <time>2021-01-01T09:57:55.998Z</time>
      </trkpt>
      <trkpt lat="50.939429" lon="8.581564">
        <ele>384.069489</ele>
        <time>2021-01-01T09:58:02.998Z</time>
      </trkpt>
      <trkpt lat="50.939420" lon="8.581399">
        <ele>383.840729</ele>
        <time>2021-01-01T09:58:11.998Z</time>
      </trkpt>
      <trkpt lat="50.939409" lon="8.581237">
        <ele>383.537193</ele>
        <time>2021-01-01T09:58:20.998Z</time>
      </trkpt>
      <trkpt lat="50.939390" lon="8.581085">
        <ele>383.248515</ele>
        <time>2021-01-01T09:58:29.998Z</time>
      </trkpt>
      <trkpt lat="50.939401" lon="8.580934">
        <ele>382.965344</ele>
        <time>2021-01-01T09:58:37.998Z</time>
      </trkpt>
      <trkpt lat="50.939422" lon="8.580784">
        <ele>382.679096</ele>
        <time>2021-01-01T09:58:44.998Z</time>
      </trkpt>
      <trkpt lat="50.939442" lon="8.580635">
        <ele>382.395297</ele>
        <time>2021-01-01T09:58:53.998Z</time>
      </trkpt>
      <trkpt lat="50.939428" lon="8.580467">
        <ele>382.079605</ele>
        <time>2021-01-01T09:59:00.998Z</time>
      </trkpt>
      <trkpt lat="50.939437" lon="8.580318">
        <ele>381.800761</ele>
        <time>2021-01-01T09:59:07.998Z</time>
      </trkpt>
      <trkpt lat="50.939446" lon="8.580161">
        <ele>381.507079</ele>
        <time>2021-01-01T09:59:15.998Z</time>
      </trkpt>
      <trkpt lat="50.939460" lon="8.580001">
        <ele>381.206156</ele>
        <time>2021-01-01T09:59:22.998Z</time>
      </trkpt>
      <trkpt lat="50.939461" lon="8.579842">
        <ele>380.909941</ele>
        <time>2021-01-01T09:59:31.998Z</time>
      </trkpt>
      <trkpt lat="50.939501" lon="8.579714">
        <ele>380.643779</ele>
        <time>2021-01-01T09:59:43.997Z</time>
      </trkpt>
      <trkpt lat="50.939539" lon="8.579584">
        <ele>380.376815</ele>
        <time>2021-01-01T09:59:58.997Z</time>
      </trkpt>
      <trkpt lat="50.939692" lon="8.579583">
        <ele>379.924495</ele>
        <time>2021-01-01T10:00:51.997Z</time>
      </trkpt>
      <trkpt lat="50.939782" lon="8.579572">
        <ele>379.657639</ele>
        <time>2021-01-01T10:00:59.997Z</time>
      </trkpt>
      <trkpt lat="50.939883" lon="8.579591">
        <ele>379.356961</ele>
        <time>2021-01-01T10:01:07.997Z</time>
      </trkpt>
      <trkpt lat="50.939982" lon="8.579621">
        <ele>379.058998</ele>
        <time>2021-01-01T10:01:16.997Z</time>
      </trkpt>
      <trkpt lat="50.940067" lon="8.579669">
        <ele>378.792276</ele>
        <time>2021-01-01T10:01:23.997Z</time>
      </trkpt>
      <trkpt lat="50.940156" lon="8.579644">
        <ele>378.675175</ele>
        <time>2021-01-01T10:01:31.996Z</time>
      </trkpt>
      <trkpt lat="50.940250" lon="8.579576">
        <ele>378.708017</ele>
        <time>2021-01-01T10:01:38.996Z</time>
      </trkpt>
      <trkpt lat="50.940327" lon="8.579493">
        <ele>378.737609</ele>
        <time>2021-01-01T10:01:45.996Z</time>
      </trkpt>
      <trkpt lat="50.940401" lon="8.579411">
        <ele>378.766302</ele>
        <time>2021-01-01T10:01:53.996Z</time>
      </trkpt>
      <trkpt lat="50.940472" lon="8.579316">
        <ele>378.795825</ele>
        <time>2021-01-01T10:01:59.996Z</time>
      </trkpt>
      <trkpt lat="50.940521" lon="8.579174">
        <ele>378.828257</ele>
        <time>2021-01-01T10:02:07.996Z</time>
      </trkpt>
      <trkpt lat="50.940567" lon="8.579051">
        <ele>378.856910</ele>
        <time>2021-01-01T10:02:14.996Z</time>
      </trkpt>
      <trkpt lat="50.940632" lon="8.578922">
        <ele>378.889998</ele>
        <time>2021-01-01T10:02:21.996Z</time>
      </trkpt>
      <trkpt lat="50.940723" lon="8.578860">
        <ele>378.921481</ele>
        <time>2021-01-01T10:02:31.996Z</time>
      </trkpt>
      <trkpt lat="50.940791" lon="8.578765">
        <ele>378.950282</ele>
        <time>2021-01-01T10:02:36.996Z</time>
      </trkpt>
      <trkpt lat="50.940834" lon="8.578633">
        <ele>378.980050</ele>
        <time>2021-01-01T10:02:45.996Z</time>
      </trkpt>
      <trkpt lat="50.940889" lon="8.578503">
        <ele>379.011417</ele>
        <time>2021-01-01T10:02:55.996Z</time>
      </trkpt>
      <trkpt lat="50.940959" lon="8.578390">
        <ele>379.043160</ele>
        <time>2021-01-01T10:03:03.996Z</time>
      </trkpt>
      <trkpt lat="50.940994" lon="8.578255">
        <ele>379.072403</ele>
        <time>2021-01-01T10:03:12.996Z</time>
      </trkpt>
      <trkpt lat="50.941077" lon="8.578178">
        <ele>379.102968</ele>
        <time>2021-01-01T10:03:20.995Z</time>
      </trkpt>
      <trkpt lat="50.941124" lon="8.578044">
        <ele>379.133689</ele>
        <time>2021-01-01T10:03:27.995Z</time>
      </trkpt>
      <trkpt lat="50.941178" lon="8.577909">
        <ele>379.165721</ele>
        <time>2021-01-01T10:03:33.995Z</time>
      </trkpt>
      <trkpt lat="50.941230" lon="8.577787">
        <ele>379.195226</ele>
        <time>2021-01-01T10:03:41.995Z</time>
      </trkpt>
      <trkpt lat="50.941285" lon="8.577640">
        <ele>379.229473</ele>
        <time>2021-01-01T10:03:48.995Z</time>
      </trkpt>
      <trkpt lat="50.941357" lon="8.577538">
        <ele>379.234282</ele>
        <time>2021-01-01T10:03:53.995Z</time>
      </trkpt>
      <trkpt lat="50.941438" lon="8.577432">
        <ele>379.236536</ele>
        <time>2021-01-01T10:04:01.996Z</time>
      </trkpt>
      <trkpt lat="50.941443" lon="8.577288">
        <ele>379.238486</ele>
        <time>2021-01-01T10:04:09.997Z</time>
      </trkpt>
      <trkpt lat="50.941540" lon="8.577202">
        <ele>379.240871</ele>
        <time>2021-01-01T10:04:16.998Z</time>
      </trkpt>
      <trkpt lat="50.941621" lon="8.577103">
        <ele>379.243066</ele>
        <time>2021-01-01T10:04:21.998Z</time>
      </trkpt>
      <trkpt lat="50.941682" lon="8.576962">
        <ele>379.245379</ele>
        <time>2021-01-01T10:04:26.998Z</time>
      </trkpt>
      <trkpt lat="50.941687" lon="8.576807">
        <ele>379.247478</ele>
        <time>2021-01-01T10:04:36.998Z</time>
      </trkpt>
      <trkpt lat="50.941693" lon="8.576658">
        <ele>379.249497</ele>
        <time>2021-01-01T10:04:46.999Z</time>
      </trkpt>
      <trkpt lat="50.941768" lon="8.576560">
        <ele>379.251583</ele>
        <time>2021-01-01T10:04:54.998Z</time>
      </trkpt>
      <trkpt lat="50.941825" lon="8.576439">
        <ele>379.253626</ele>
        <time>2021-01-01T10:05:00.998Z</time>
      </trkpt>
      <trkpt lat="50.941867" lon="8.576288">
        <ele>379.255858</ele>
        <time>2021-01-01T10:05:08.998Z</time>
      </trkpt>
      <trkpt lat="50.941903" lon="8.576142">
        <ele>379.257979</ele>
        <time>2021-01-01T10:05:14.998Z</time>
      </trkpt>
      <trkpt lat="50.941912" lon="8.575995">
        <ele>379.259976</ele>
        <time>2021-01-01T10:05:23.998Z</time>
      </trkpt>
      <trkpt lat="50.941939" lon="8.575836">
        <ele>379.262204</ele>
        <time>2021-01-01T10:05:32.998Z</time>
      </trkpt>
      <trkpt lat="50.941953" lon="8.575673">
        <ele>379.264429</ele>
        <time>2021-01-01T10:05:41.998Z</time>
      </trkpt>
      <trkpt lat="50.942014" lon="8.575543">
        <ele>379.266621</ele>
        <time>2021-01-01T10:05:49.998Z</time>
      </trkpt>
      <trkpt lat="50.942038" lon="8.575406">
        <ele>379.268544</ele>
        <time>2021-01-01T10:06:13.998Z</time>
      </trkpt>
      <trkpt lat="50.941982" lon="8.575288">
        <ele>379.270542</ele>
        <time>2021-01-01T10:06:43.998Z</time>
      </trkpt>
      <trkpt lat="50.942056" lon="8.575191">
        <ele>379.915828</ele>
        <time>2021-01-01T10:07:33.997Z</time>
      </trkpt>
      <trkpt lat="50.942113" lon="8.575067">
        <ele>380.759727</ele>
        <time>2021-01-01T10:07:52.997Z</time>
      </trkpt>
      <trkpt lat="50.942165" lon="8.574923">
        <ele>381.672249</ele>
        <time>2021-01-01T10:08:22.997Z</time>
      </trkpt>
      <trkpt lat="50.942244" lon="8.574833">
        <ele>382.520789</ele>
        <time>2021-01-01T10:08:30.997Z</time>
      </trkpt>
      <trkpt lat="50.942319" lon="8.574751">
        <ele>383.315474</ele>
        <time>2021-01-01T10:08:36.997Z</time>
      </trkpt>
      <trkpt lat="50.942289" lon="8.574611">
        <ele>384.128494</ele>
        <time>2021-01-01T10:08:46.997Z</time>
      </trkpt>
      <trkpt lat="50.942279" lon="8.574456">
        <ele>384.985146</ele>
        <time>2021-01-01T10:08:53.997Z</time>
      </trkpt>
      <trkpt lat="50.942310" lon="8.574309">
        <ele>385.837422</ele>
        <time>2021-01-01T10:09:02.996Z</time>
      </trkpt>
      <trkpt lat="50.942381" lon="8.574195">
        <ele>386.718702</ele>
        <time>2021-01-01T10:09:10.996Z</time>
      </trkpt>
      <trkpt lat="50.942370" lon="8.574053">
        <ele>387.505300</ele>
        <time>2021-01-01T10:09:18.996Z</time>
      </trkpt>
      <trkpt lat="50.942374" lon="8.573903">
        <ele>388.330744</ele>
        <time>2021-01-01T10:09:26.996Z</time>
      </trkpt>
      <trkpt lat="50.942353" lon="8.573752">
        <ele>389.180928</ele>
        <time>2021-01-01T10:09:33.996Z</time>
      </trkpt>
      <trkpt lat="50.942389" lon="8.573608">
        <ele>390.032685</ele>
        <time>2021-01-01T10:09:44.996Z</time>
      </trkpt>
      <trkpt lat="50.942427" lon="8.573475">
        <ele>390.835586</ele>
        <time>2021-01-01T10:09:51.996Z</time>
      </trkpt>
      <trkpt lat="50.942467" lon="8.573334">
        <ele>391.685755</ele>
        <time>2021-01-01T10:09:58.996Z</time>
      </trkpt>
      <trkpt lat="50.942473" lon="8.573172">
        <ele>392.577972</ele>
        <time>2021-01-01T10:10:07.996Z</time>
      </trkpt>
      <trkpt lat="50.942489" lon="8.573020">
        <ele>393.425252</ele>
        <time>2021-01-01T10:10:17.996Z</time>
      </trkpt>
      <trkpt lat="50.942536" lon="8.572887">
        <ele>394.263639</ele>
        <time>2021-01-01T10:10:25.996Z</time>
      </trkpt>
      <trkpt lat="50.942544" lon="8.572740">
        <ele>395.102977</ele>
        <time>2021-01-01T10:10:37.996Z</time>
      </trkpt>
      <trkpt lat="50.942575" lon="8.572604">
        <ele>396.102248</ele>
        <time>2021-01-01T10:10:49.995Z</time>
      </trkpt>
      <trkpt lat="50.942587" lon="8.572454">
        <ele>397.146973</ele>
        <time>2021-01-01T10:11:02.996Z</time>
      </trkpt>
      <trkpt lat="50.942675" lon="8.572423">
        <ele>398.135426</ele>
        <time>2021-01-01T10:11:05.996Z</time>
      </trkpt>
      <trkpt lat="50.942741" lon="8.572307">
        <ele>399.215313</ele>
        <time>2021-01-01T10:11:11.997Z</time>
      </trkpt>
      <trkpt lat="50.942764" lon="8.572155">
        <ele>400.295392</ele>
        <time>2021-01-01T10:11:20.998Z</time>
      </trkpt>
      <trkpt lat="50.942788" lon="8.571999">
        <ele>401.404913</ele>
        <time>2021-01-01T10:11:29.998Z</time>
      </trkpt>
      <trkpt lat="50.942848" lon="8.571856">
        <ele>402.591963</ele>
        <time>2021-01-01T10:11:34.999Z</time>
      </trkpt>
      <trkpt lat="50.942862" lon="8.571713">
        <ele>403.591852</ele>
        <time>2021-01-01T10:11:44.999Z</time>
      </trkpt>
      <trkpt lat="50.942844" lon="8.571572">
        <ele>404.585862</ele>
        <time>2021-01-01T10:11:50.999Z</time>
      </trkpt>
      <trkpt lat="50.942838" lon="8.571417">
        <ele>405.658827</ele>
        <time>2021-01-01T10:11:58.999Z</time>
      </trkpt>
      <trkpt lat="50.942794" lon="8.571266">
        <ele>406.808299</ele>
        <time>2021-01-01T10:12:06.999Z</time>
      </trkpt>
      <trkpt lat="50.942769" lon="8.571110">
        <ele>407.920471</ele>
        <time>2021-01-01T10:12:13.999Z</time>
      </trkpt>
      <trkpt lat="50.942778" lon="8.570964">
        <ele>408.934051</ele>
        <time>2021-01-01T10:12:21.999Z</time>
      </trkpt>
      <trkpt lat="50.942871" lon="8.570877">
        <ele>410.117824</ele>
        <time>2021-01-01T10:12:32.999Z</time>
      </trkpt>
      <trkpt lat="50.942817" lon="8.570752">
        <ele>411.164985</ele>
        <time>2021-01-01T10:12:41.998Z</time>
      </trkpt>
      <trkpt lat="50.942794" lon="8.570583">
        <ele>412.359590</ele>
        <time>2021-01-01T10:12:44.998Z</time>
      </trkpt>
      <trkpt lat="50.942758" lon="8.570451">
        <ele>413.353390</ele>
        <time>2021-01-01T10:13:07.998Z</time>
      </trkpt>
      <trkpt lat="50.942721" lon="8.570316">
        <ele>414.370571</ele>
        <time>2021-01-01T10:13:16.998Z</time>
      </trkpt>
      <trkpt lat="50.942683" lon="8.570177">
        <ele>415.571053</ele>
        <time>2021-01-01T10:13:27.998Z</time>
      </trkpt>
      <trkpt lat="50.942682" lon="8.570026">
        <ele>416.834211</ele>
        <time>2021-01-01T10:13:39.998Z</time>
      </trkpt>
      <trkpt lat="50.942620" lon="8.569916">
        <ele>418.068754</ele>
        <time>2021-01-01T10:13:54.998Z</time>
      </trkpt>
      <trkpt lat="50.942563" lon="8.569802">
        <ele>419.286100</ele>
        <time>2021-01-01T10:14:04.998Z</time>
      </trkpt>
      <trkpt lat="50.942539" lon="8.569658">
        <ele>420.532063</ele>
        <time>2021-01-01T10:14:15.998Z</time>
      </trkpt>
      <trkpt lat="50.942531" lon="8.569507">
        <ele>421.799612</ele>
        <time>2021-01-01T10:14:24.998Z</time>
      </trkpt>
      <trkpt lat="50.942509" lon="8.569344">
        <ele>423.194012</ele>
        <time>2021-01-01T10:14:32.998Z</time>
      </trkpt>
      <trkpt lat="50.942472" lon="8.569203">
        <ele>424.471650</ele>
        <time>2021-01-01T10:14:41.997Z</time>
      </trkpt>
      <trkpt lat="50.942429" lon="8.569063">
        <ele>425.774453</ele>
        <time>2021-01-01T10:14:51.997Z</time>
      </trkpt>
      <trkpt lat="50.942418" lon="8.568904">
        <ele>427.112459</ele>
        <time>2021-01-01T10:15:03.997Z</time>
      </trkpt>
      <trkpt lat="50.942416" lon="8.568746">
        <ele>428.434375</ele>
        <time>2021-01-01T10:15:09.997Z</time>
      </trkpt>
      <trkpt lat="50.942440" lon="8.568593">
        <ele>429.753263</ele>
        <time>2021-01-01T10:15:16.997Z</time>
      </trkpt>
      <trkpt lat="50.942482" lon="8.568450">
        <ele>431.073004</ele>
        <time>2021-01-01T10:15:26.997Z</time>
      </trkpt>
      <trkpt lat="50.942533" lon="8.568312">
        <ele>432.411256</ele>
        <time>2021-01-01T10:15:33.997Z</time>
      </trkpt>
      <trkpt lat="50.942566" lon="8.568168">
        <ele>433.692987</ele>
        <time>2021-01-01T10:15:42.997Z</time>
      </trkpt>
      <trkpt lat="50.942596" lon="8.568027">
        <ele>434.937855</ele>
        <time>2021-01-01T10:15:50.997Z</time>
      </trkpt>
      <trkpt lat="50.942641" lon="8.567896">
        <ele>436.185911</ele>
        <time>2021-01-01T10:15:59.997Z</time>
      </trkpt>
      <trkpt lat="50.942686" lon="8.567764">
        <ele>437.441317</ele>
        <time>2021-01-01T10:16:09.997Z</time>
      </trkpt>
      <trkpt lat="50.942717" lon="8.567629">
        <ele>438.614465</ele>
        <time>2021-01-01T10:16:16.997Z</time>
      </trkpt>
      <trkpt lat="50.942763" lon="8.567492">
        <ele>439.428377</ele>
        <time>2021-01-01T10:16:24.997Z</time>
      </trkpt>
      <trkpt lat="50.942800" lon="8.567348">
        <ele>440.243730</ele>
        <time>2021-01-01T10:16:33.996Z</time>
      </trkpt>
      <trkpt lat="50.942855" lon="8.567221">
        <ele>441.051701</ele>
        <time>2021-01-01T10:16:43.996Z</time>
      </trkpt>
      <trkpt lat="50.942882" lon="8.567070">
        <ele>441.874654</ele>
        <time>2021-01-01T10:16:53.996Z</time>
      </trkpt>
      <trkpt lat="50.942927" lon="8.566943">
        <ele>442.638576</ele>
        <time>2021-01-01T10:17:02.996Z</time>
      </trkpt>
      <trkpt lat="50.942989" lon="8.566839">
        <ele>443.389224</ele>
        <time>2021-01-01T10:17:13.996Z</time>
      </trkpt>
      <trkpt lat="50.943057" lon="8.566731">
        <ele>444.189716</ele>
        <time>2021-01-01T10:17:30.996Z</time>
      </trkpt>
      <trkpt lat="50.943116" lon="8.566606">
        <ele>445.008575</ele>
        <time>2021-01-01T10:17:42.996Z</time>
      </trkpt>
      <trkpt lat="50.943149" lon="8.566468">
        <ele>445.782458</ele>
        <time>2021-01-01T10:17:49.996Z</time>
      </trkpt>
      <trkpt lat="50.943202" lon="8.566351">
        <ele>446.537959</ele>
        <time>2021-01-01T10:17:58.996Z</time>
      </trkpt>
      <trkpt lat="50.943250" lon="8.566223">
        <ele>447.318919</ele>
        <time>2021-01-01T10:18:08.997Z</time>
      </trkpt>
      <trkpt lat="50.943316" lon="8.566111">
        <ele>448.122920</ele>
        <time>2021-01-01T10:18:18.999Z</time>
      </trkpt>
      <trkpt lat="50.943368" lon="8.565992">
        <ele>448.882186</ele>
        <time>2021-01-01T10:18:28.999Z</time>
      </trkpt>
      <trkpt lat="50.943399" lon="8.565840">
        <ele>449.719819</ele>
        <time>2021-01-01T10:18:38.000Z</time>
      </trkpt>
      <trkpt lat="50.943404" lon="8.565692">
        <ele>450.496888</ele>
        <time>2021-01-01T10:18:47.000Z</time>
      </trkpt>
      <trkpt lat="50.943385" lon="8.565552">
        <ele>451.247733</ele>
        <time>2021-01-01T10:19:02.000Z</time>
      </trkpt>
      <trkpt lat="50.943350" lon="8.565412">
        <ele>452.037409</ele>
        <time>2021-01-01T10:19:10.000Z</time>
      </trkpt>
      <trkpt lat="50.943310" lon="8.565283">
        <ele>452.791211</ele>
        <time>2021-01-01T10:19:19.000Z</time>
      </trkpt>
      <trkpt lat="50.943260" lon="8.565156">
        <ele>453.533143</ele>
        <time>2021-01-01T10:19:28.000Z</time>
      </trkpt>
      <trkpt lat="50.943223" lon="8.565004">
        <ele>453.543566</ele>
        <time>2021-01-01T10:19:39.000Z</time>
      </trkpt>
      <trkpt lat="50.943156" lon="8.564880">
        <ele>453.554014</ele>
        <time>2021-01-01T10:19:49.000Z</time>
      </trkpt>
      <trkpt lat="50.943117" lon="8.564743">
        <ele>453.563630</ele>
        <time>2021-01-01T10:19:58.000Z</time>
      </trkpt>
      <trkpt lat="50.943084" lon="8.564591">
        <ele>453.573913</ele>
        <time>2021-01-01T10:20:07.999Z</time>
      </trkpt>
      <trkpt lat="50.943027" lon="8.564457">
        <ele>453.584254</ele>
        <time>2021-01-01T10:20:22.999Z</time>
      </trkpt>
      <trkpt lat="50.943007" lon="8.564313">
        <ele>453.593686</ele>
        <time>2021-01-01T10:20:32.999Z</time>
      </trkpt>
      <trkpt lat="50.943002" lon="8.564168">
        <ele>453.602974</ele>
        <time>2021-01-01T10:20:40.999Z</time>
      </trkpt>
      <trkpt lat="50.942988" lon="8.564008">
        <ele>453.613307</ele>
        <time>2021-01-01T10:20:49.999Z</time>
      </trkpt>
      <trkpt lat="50.942929" lon="8.563892">
        <ele>453.622842</ele>
        <time>2021-01-01T10:20:59.999Z</time>
      </trkpt>
      <trkpt lat="50.942916" lon="8.563742">
        <ele>453.632527</ele>
        <time>2021-01-01T10:21:13.999Z</time>
      </trkpt>
      <trkpt lat="50.942907" lon="8.563585">
        <ele>453.642610</ele>
        <time>2021-01-01T10:21:27.999Z</time>
      </trkpt>
      <trkpt lat="50.942847" lon="8.563462">
        <ele>453.652560</ele>
        <time>2021-01-01T10:21:31.999Z</time>
      </trkpt>
      <trkpt lat="50.942814" lon="8.563329">
        <ele>453.661703</ele>
        <time>2021-01-01T10:21:36.999Z</time>
      </trkpt>
      <trkpt lat="50.942796" lon="8.563187">
        <ele>453.670968</ele>
        <time>2021-01-01T10:21:43.999Z</time>
      </trkpt>
      <trkpt lat="50.942790" lon="8.563037">
        <ele>453.680581</ele>
        <time>2021-01-01T10:21:51.999Z</time>
      </trkpt>
      <trkpt lat="50.942771" lon="8.562883">
        <ele>453.690619</ele>
        <time>2021-01-01T10:22:01.999Z</time>
      </trkpt>
      <trkpt lat="50.942740" lon="8.562746">
        <ele>453.699930</ele>
        <time>2021-01-01T10:22:10.999Z</time>
      </trkpt>
      <trkpt lat="50.942717" lon="8.562584">
        <ele>453.710551</ele>
        <time>2021-01-01T10:22:18.999Z</time>
      </trkpt>
      <trkpt lat="50.942691" lon="8.562437">
        <ele>453.998927</ele>
        <time>2021-01-01T10:22:30.000Z</time>
      </trkpt>
      <trkpt lat="50.942644" lon="8.562285">
        <ele>454.598838</ele>
        <time>2021-01-01T10:22:38.000Z</time>
      </trkpt>
      <trkpt lat="50.942595" lon="8.562156">
        <ele>455.132533</ele>
        <time>2021-01-01T10:22:45.000Z</time>
      </trkpt>
      <trkpt lat="50.942549" lon="8.562027">
        <ele>455.657717</ele>
        <time>2021-01-01T10:22:54.001Z</time>
      </trkpt>
      <trkpt lat="50.942509" lon="8.561883">
        <ele>456.215311</ele>
        <time>2021-01-01T10:23:00.001Z</time>
      </trkpt>
      <trkpt lat="50.942482" lon="8.561745">
        <ele>456.727297</ele>
        <time>2021-01-01T10:23:12.001Z</time>
      </trkpt>
      <trkpt lat="50.942466" lon="8.561591">
        <ele>457.280312</ele>
        <time>2021-01-01T10:23:21.001Z</time>
      </trkpt>
      <trkpt lat="50.942436" lon="8.561455">
        <ele>457.790858</ele>
        <time>2021-01-01T10:23:28.001Z</time>
      </trkpt>
      <trkpt lat="50.942394" lon="8.561318">
        <ele>458.330677</ele>
        <time>2021-01-01T10:23:37.001Z</time>
      </trkpt>
      <trkpt lat="50.942362" lon="8.561170">
        <ele>458.885080</ele>
        <time>2021-01-01T10:24:01.000Z</time>
      </trkpt>
      <trkpt lat="50.942342" lon="8.561023">
        <ele>459.417930</ele>
        <time>2021-01-01T10:24:10.000Z</time>
      </trkpt>
      <trkpt lat="50.942306" lon="8.560892">
        <ele>459.924309</ele>
        <time>2021-01-01T10:24:18.000Z</time>
      </trkpt>
      <trkpt lat="50.942268" lon="8.560759">
        <ele>460.441734</ele>
        <time>2021-01-01T10:24:24.000Z</time>
      </trkpt>
      <trkpt lat="50.942241" lon="8.560609">
        <ele>460.994472</ele>
        <time>2021-01-01T10:24:34.000Z</time>
      </trkpt>
      <trkpt lat="50.942228" lon="8.560456">
        <ele>461.541485</ele>
        <time>2021-01-01T10:24:47.000Z</time>
      </trkpt>
      <trkpt lat="50.942244" lon="8.560315">
        <ele>462.049111</ele>
        <time>2021-01-01T10:25:00.000Z</time>
      </trkpt>
      <trkpt lat="50.942253" lon="8.559990">
        <ele>463.201756</ele>
        <time>2021-01-01T10:25:29.999Z</time>
      </trkpt>
      <trkpt lat="50.942314" lon="8.559815">
        <ele>463.872320</ele>
        <time>2021-01-01T10:25:31.999Z</time>
      </trkpt>
      <trkpt lat="50.942335" lon="8.559607">
        <ele>464.268517</ele>
        <time>2021-01-01T10:25:33.999Z</time>
      </trkpt>
      <trkpt lat="50.942222" lon="8.559560">
        <ele>464.617204</ele>
        <time>2021-01-01T10:25:35.999Z</time>
      </trkpt>
      <trkpt lat="50.942036" lon="8.559666">
        <ele>465.207109</ele>
        <time>2021-01-01T10:25:37.999Z</time>
      </trkpt>
      <trkpt lat="50.941982" lon="8.559784">
        <ele>465.481402</ele>
        <time>2021-01-01T10:25:38.999Z</time>
      </trkpt>
      <trkpt lat="50.941860" lon="8.560014">
        <ele>466.046862</ele>
        <time>2021-01-01T10:25:40.999Z</time>
      </trkpt>
      <trkpt lat="50.941723" lon="8.560328">
        <ele>466.765200</ele>
        <time>2021-01-01T10:25:42.999Z</time>
      </trkpt>
      <trkpt lat="50.941694" lon="8.560500">
        <ele>467.100084</ele>
        <time>2021-01-01T10:25:43.999Z</time>
      </trkpt>
      <trkpt lat="50.941637" lon="8.560744">
        <ele>467.589530</ele>
        <time>2021-01-01T10:25:45.999Z</time>
      </trkpt>
      <trkpt lat="50.941669" lon="8.560562">
        <ele>467.944918</ele>
        <time>2021-01-01T10:25:46.999Z</time>
      </trkpt>
      <trkpt lat="50.941753" lon="8.560621">
        <ele>468.219110</ele>
        <time>2021-01-01T10:25:57.999Z</time>
      </trkpt>
      <trkpt lat="50.941797" lon="8.560492">
        <ele>468.495002</ele>
        <time>2021-01-01T10:26:09.999Z</time>
      </trkpt>
      <trkpt lat="50.941859" lon="8.560377">
        <ele>468.779664</ele>
        <time>2021-01-01T10:26:14.999Z</time>
      </trkpt>
      <trkpt lat="50.941919" lon="8.560241">
        <ele>469.091921</ele>
        <time>2021-01-01T10:26:24.999Z</time>
      </trkpt>
      <trkpt lat="50.941939" lon="8.560096">
        <ele>468.107174</ele>
        <time>2021-01-01T10:26:27.999Z</time>
      </trkpt>
      <trkpt lat="50.942028" lon="8.560067">
        <ele>466.397253</ele>
        <time>2021-01-01T10:26:31.999Z</time>
      </trkpt>
      <trkpt lat="50.942126" lon="8.560003">
        <ele>464.402843</ele>
        <time>2021-01-01T10:26:37.999Z</time>
      </trkpt>
      <trkpt lat="50.942210" lon="8.559937">
        <ele>462.638828</ele>
        <time>2021-01-01T10:26:42.999Z</time>
      </trkpt>
      <trkpt lat="50.942294" lon="8.559878">
        <ele>460.910042</ele>
        <time>2021-01-01T10:26:46.999Z</time>
      </trkpt>
      <trkpt lat="50.942368" lon="8.559788">
        <ele>459.155442</ele>
        <time>2021-01-01T10:26:57.999Z</time>
      </trkpt>
      <trkpt lat="50.942451" lon="8.559719">
        <ele>457.392051</ele>
        <time>2021-01-01T10:27:07.999Z</time>
      </trkpt>
      <trkpt lat="50.942543" lon="8.559677">
        <ele>455.590400</ele>
        <time>2021-01-01T10:27:12.999Z</time>
      </trkpt>
      <trkpt lat="50.942620" lon="8.559603">
        <ele>453.896274</ele>
        <time>2021-01-01T10:27:21.999Z</time>
      </trkpt>
      <trkpt lat="50.942706" lon="8.559554">
        <ele>452.176610</ele>
        <time>2021-01-01T10:27:29.999Z</time>
      </trkpt>
      <trkpt lat="50.942796" lon="8.559550">
        <ele>450.482145</ele>
        <time>2021-01-01T10:27:39.999Z</time>
      </trkpt>
      <trkpt lat="50.942884" lon="8.559517">
        <ele>448.780379</ele>
        <time>2021-01-01T10:27:55.998Z</time>
      </trkpt>
      <trkpt lat="50.942947" lon="8.559404">
        <ele>446.991138</ele>
        <time>2021-01-01T10:28:19.998Z</time>
      </trkpt>
      <trkpt lat="50.943043" lon="8.559365">
        <ele>445.126165</ele>
        <time>2021-01-01T10:28:29.998Z</time>
      </trkpt>
      <trkpt lat="50.943115" lon="8.559239">
        <ele>443.109083</ele>
        <time>2021-01-01T10:28:42.998Z</time>
      </trkpt>
      <trkpt lat="50.943144" lon="8.559091">
        <ele>441.271145</ele>
        <time>2021-01-01T10:28:48.998Z</time>
      </trkpt>
      <trkpt lat="50.943247" lon="8.559108">
        <ele>439.322230</ele>
        <time>2021-01-01T10:28:54.998Z</time>
      </trkpt>
      <trkpt lat="50.943358" lon="8.559110">
        <ele>437.233074</ele>
        <time>2021-01-01T10:29:00.998Z</time>
      </trkpt>
      <trkpt lat="50.943456" lon="8.559146">
        <ele>435.345821</ele>
        <time>2021-01-01T10:29:05.998Z</time>
      </trkpt>
      <trkpt lat="50.943549" lon="8.559149">
        <ele>434.939882</ele>
        <time>2021-01-01T10:29:11.998Z</time>
      </trkpt>
      <trkpt lat="50.943634" lon="8.559054">
        <ele>434.486190</ele>
        <time>2021-01-01T10:29:15.998Z</time>
      </trkpt>
      <trkpt lat="50.943736" lon="8.558983">
        <ele>434.000127</ele>
        <time>2021-01-01T10:29:22.998Z</time>
      </trkpt>
      <trkpt lat="50.943840" lon="8.559012">
        <ele>433.539315</ele>
        <time>2021-01-01T10:29:26.998Z</time>
      </trkpt>
      <trkpt lat="50.943945" lon="8.559046">
        <ele>433.071650</ele>
        <time>2021-01-01T10:29:30.998Z</time>
      </trkpt>
      <trkpt lat="50.944044" lon="8.559146">
        <ele>432.559531</ele>
        <time>2021-01-01T10:29:33.998Z</time>
      </trkpt>
      <trkpt lat="50.944141" lon="8.559107">
        <ele>432.122847</ele>
        <time>2021-01-01T10:29:37.998Z</time>
      </trkpt>
      <trkpt lat="50.944244" lon="8.559115">
        <ele>431.672812</ele>
        <time>2021-01-01T10:29:41.998Z</time>
      </trkpt>
      <trkpt lat="50.944357" lon="8.559173">
        <ele>431.154529</ele>
        <time>2021-01-01T10:29:43.998Z</time>
      </trkpt>
      <trkpt lat="50.944464" lon="8.559154">
        <ele>430.684663</ele>
        <time>2021-01-01T10:29:45.998Z</time>
      </trkpt>
      <trkpt lat="50.944573" lon="8.559167">
        <ele>430.207641</ele>
        <time>2021-01-01T10:29:47.997Z</time>
      </trkpt>
      <trkpt lat="50.944644" lon="8.559269">
        <ele>429.789711</ele>
        <time>2021-01-01T10:29:51.997Z</time>
      </trkpt>
      <trkpt lat="50.944738" lon="8.559199">
        <ele>429.336581</ele>
        <time>2021-01-01T10:29:55.997Z</time>
      </trkpt>
      <trkpt lat="50.944733" lon="8.559052">
        <ele>428.931794</ele>
        <time>2021-01-01T10:29:58.997Z</time>
      </trkpt>
      <trkpt lat="50.944702" lon="8.558909">
        <ele>428.515971</ele>
        <time>2021-01-01T10:30:02.997Z</time>
      </trkpt>
      <trkpt lat="50.944658" lon="8.558741">
        <ele>428.015710</ele>
        <time>2021-01-01T10:30:06.997Z</time>
      </trkpt>
      <trkpt lat="50.944562" lon="8.558784">
        <ele>427.580398</ele>
        <time>2021-01-01T10:30:13.997Z</time>
      </trkpt>
      <trkpt lat="50.944423" lon="8.558845">
        <ele>427.553369</ele>
        <time>2021-01-01T10:30:15.997Z</time>
      </trkpt>
      <trkpt lat="50.944258" lon="8.558878">
        <ele>427.626486</ele>
        <time>2021-01-01T10:30:17.997Z</time>
      </trkpt>
      <trkpt lat="50.944258" lon="8.558713">
        <ele>427.672193</ele>
        <time>2021-01-01T10:30:27.997Z</time>
      </trkpt>
      <trkpt lat="50.944339" lon="8.558642">
        <ele>427.712875</ele>
        <time>2021-01-01T10:30:30.997Z</time>
      </trkpt>
      <trkpt lat="50.944421" lon="8.558517">
        <ele>427.762862</ele>
        <time>2021-01-01T10:30:35.997Z</time>
      </trkpt>
      <trkpt lat="50.944514" lon="8.558378">
        <ele>427.819027</ele>
        <time>2021-01-01T10:30:41.997Z</time>
      </trkpt>
      <trkpt lat="50.944488" lon="8.558241">
        <ele>427.858661</ele>
        <time>2021-01-01T10:30:42.997Z</time>
      </trkpt>
      <trkpt lat="50.944461" lon="8.558379">
        <ele>427.898690</ele>
        <time>2021-01-01T10:30:44.996Z</time>
      </trkpt>
      <trkpt lat="50.944485" lon="8.558714">
        <ele>427.992087</ele>
        <time>2021-01-01T10:30:46.996Z</time>
      </trkpt>
      <trkpt lat="50.944429" lon="8.558831">
        <ele>428.032789</ele>
        <time>2021-01-01T10:30:49.996Z</time>
      </trkpt>
      <trkpt lat="50.944334" lon="8.558665">
        <ele>428.094910</ele>
        <time>2021-01-01T10:30:53.996Z</time>
      </trkpt>
      <trkpt lat="50.944321" lon="8.558516">
        <ele>428.136579</ele>
        <time>2021-01-01T10:30:56.996Z</time>
      </trkpt>
      <trkpt lat="50.944338" lon="8.558356">
        <ele>428.181527</ele>
        <time>2021-01-01T10:31:00.996Z</time>
      </trkpt>
      <trkpt lat="50.944392" lon="8.558233">
        <ele>428.223055</ele>
        <time>2021-01-01T10:31:07.996Z</time>
      </trkpt>
      <trkpt lat="50.944432" lon="8.558096">
        <ele>428.264882</ele>
        <time>2021-01-01T10:31:14.996Z</time>
      </trkpt>
      <trkpt lat="50.944470" lon="8.557962">
        <ele>428.336141</ele>
        <time>2021-01-01T10:31:20.996Z</time>
      </trkpt>
      <trkpt lat="50.944540" lon="8.557869">
        <ele>428.450281</ele>
        <time>2021-01-01T10:31:26.996Z</time>
      </trkpt>
      <trkpt lat="50.944594" lon="8.557735">
        <ele>428.575589</ele>
        <time>2021-01-01T10:31:32.996Z</time>
      </trkpt>
      <trkpt lat="50.944640" lon="8.557611">
        <ele>428.688949</ele>
        <time>2021-01-01T10:31:43.995Z</time>
      </trkpt>
      <trkpt lat="50.944700" lon="8.557474">
        <ele>428.820387</ele>
        <time>2021-01-01T10:31:51.995Z</time>
      </trkpt>
      <trkpt lat="50.944743" lon="8.557344">
        <ele>428.936053</ele>
        <time>2021-01-01T10:31:56.995Z</time>
      </trkpt>
      <trkpt lat="50.944771" lon="8.557204">
        <ele>429.051766</ele>
        <time>2021-01-01T10:32:02.995Z</time>
      </trkpt>
      <trkpt lat="50.944809" lon="8.557022">
        <ele>429.202810</ele>
        <time>2021-01-01T10:32:05.995Z</time>
      </trkpt>
      <trkpt lat="50.944863" lon="8.556875">
        <ele>429.336859</ele>
        <time>2021-01-01T10:32:07.995Z</time>
      </trkpt>
      <trkpt lat="50.944941" lon="8.556709">
        <ele>429.499992</ele>
        <time>2021-01-01T10:32:09.995Z</time>
      </trkpt>
      <trkpt lat="50.945055" lon="8.556585">
        <ele>429.672789</ele>
        <time>2021-01-01T10:32:11.995Z</time>
      </trkpt>
      <trkpt lat="50.945137" lon="8.556499">
        <ele>429.795677</ele>
        <time>2021-01-01T10:32:14.994Z</time>
      </trkpt>
      <trkpt lat="50.945310" lon="8.556364">
        <ele>430.036712</ele>
        <time>2021-01-01T10:32:16.994Z</time>
      </trkpt>
      <trkpt lat="50.945455" lon="8.556501">
        <ele>430.247700</ele>
        <time>2021-01-01T10:32:17.995Z</time>
      </trkpt>
      <trkpt lat="50.945543" lon="8.556429">
        <ele>430.371487</ele>
        <time>2021-01-01T10:32:19.995Z</time>
      </trkpt>
      <trkpt lat="50.945458" lon="8.556542">
        <ele>430.510120</ele>
        <time>2021-01-01T10:32:22.996Z</time>
      </trkpt>
      <trkpt lat="50.945379" lon="8.556633">
        <ele>430.962394</ele>
        <time>2021-01-01T10:32:24.997Z</time>
      </trkpt>
      <trkpt lat="50.945336" lon="8.556782">
        <ele>431.543713</ele>
        <time>2021-01-01T10:32:26.997Z</time>
      </trkpt>
      <trkpt lat="50.945242" lon="8.556862">
        <ele>432.144191</ele>
        <time>2021-01-01T10:32:29.998Z</time>
      </trkpt>
      <trkpt lat="50.945156" lon="8.556771">
        <ele>432.726084</ele>
        <time>2021-01-01T10:32:43.000Z</time>
      </trkpt>
      <trkpt lat="50.945126" lon="8.556610">
        <ele>433.321619</ele>
        <time>2021-01-01T10:32:49.000Z</time>
      </trkpt>
      <trkpt lat="50.945067" lon="8.556501">
        <ele>433.831338</ele>
        <time>2021-01-01T10:32:54.000Z</time>
      </trkpt>
      <trkpt lat="50.944979" lon="8.556408">
        <ele>434.426536</ele>
        <time>2021-01-01T10:33:00.000Z</time>
      </trkpt>
      <trkpt lat="50.944928" lon="8.556289">
        <ele>434.937037</ele>
        <time>2021-01-01T10:33:16.000Z</time>
      </trkpt>
      <trkpt lat="50.944914" lon="8.556148">
        <ele>435.443353</ele>
        <time>2021-01-01T10:33:24.000Z</time>
      </trkpt>
      <trkpt lat="50.945005" lon="8.556148">
        <ele>435.955660</ele>
        <time>2021-01-01T10:33:52.000Z</time>
      </trkpt>
      <trkpt lat="50.945097" lon="8.556122">
        <ele>436.481744</ele>
        <time>2021-01-01T10:34:00.000Z</time>
      </trkpt>
      <trkpt lat="50.945221" lon="8.556119">
        <ele>437.179914</ele>
        <time>2021-01-01T10:34:08.000Z</time>
      </trkpt>
      <trkpt lat="50.945324" lon="8.556330">
        <ele>438.126699</ele>
        <time>2021-01-01T10:34:11.000Z</time>
      </trkpt>
      <trkpt lat="50.945310" lon="8.556155">
        <ele>438.752423</ele>
        <time>2021-01-01T10:34:16.000Z</time>
      </trkpt>
      <trkpt lat="50.945260" lon="8.555955">
        <ele>439.515647</ele>
        <time>2021-01-01T10:34:17.000Z</time>
      </trkpt>
      <trkpt lat="50.945294" lon="8.555787">
        <ele>440.141546</ele>
        <time>2021-01-01T10:34:21.000Z</time>
      </trkpt>
      <trkpt lat="50.945248" lon="8.555938">
        <ele>440.672942</ele>
        <time>2021-01-01T10:34:24.000Z</time>
      </trkpt>
      <trkpt lat="50.945129" lon="8.555926">
        <ele>440.757379</ele>
        <time>2021-01-01T10:34:26.000Z</time>
      </trkpt>
      <trkpt lat="50.945038" lon="8.555932">
        <ele>440.821873</ele>
        <time>2021-01-01T10:34:28.000Z</time>
      </trkpt>
      <trkpt lat="50.945031" lon="8.556078">
        <ele>440.887202</ele>
        <time>2021-01-01T10:34:30.000Z</time>
      </trkpt>
      <trkpt lat="50.944914" lon="8.556080">
        <ele>440.970057</ele>
        <time>2021-01-01T10:34:32.000Z</time>
      </trkpt>
      <trkpt lat="50.945002" lon="8.556220">
        <ele>441.058288</ele>
        <time>2021-01-01T10:34:39.000Z</time>
      </trkpt>
      <trkpt lat="50.944908" lon="8.556411">
        <ele>441.166420</ele>
        <time>2021-01-01T10:34:41.000Z</time>
      </trkpt>
      <trkpt lat="50.944989" lon="8.556339">
        <ele>441.232161</ele>
        <time>2021-01-01T10:34:46.000Z</time>
      </trkpt>
      <trkpt lat="50.945113" lon="8.556226">
        <ele>441.333413</ele>
        <time>2021-01-01T10:34:49.000Z</time>
      </trkpt>
      <trkpt lat="50.945324" lon="8.556011">
        <ele>441.510968</ele>
        <time>2021-01-01T10:34:51.000Z</time>
      </trkpt>
      <trkpt lat="50.946255" lon="8.556929">
        <ele>440.031957</ele>
        <time>2021-01-01T10:34:58.000Z</time>
      </trkpt>
      <trkpt lat="50.946533" lon="8.557294">
        <ele>438.639591</ele>
        <time>2021-01-01T10:35:03.000Z</time>
      </trkpt>
      <trkpt lat="50.946659" lon="8.557266">
        <ele>438.148586</ele>
        <time>2021-01-01T10:35:06.000Z</time>
      </trkpt>
      <trkpt lat="50.946631" lon="8.556642">
        <ele>436.627499</ele>
        <time>2021-01-01T10:35:07.000Z</time>
      </trkpt>
      <trkpt lat="50.946642" lon="8.556323">
        <ele>435.850696</ele>
        <time>2021-01-01T10:35:08.000Z</time>
      </trkpt>
      <trkpt lat="50.946655" lon="8.556063">
        <ele>435.216524</ele>
        <time>2021-01-01T10:35:09.000Z</time>
      </trkpt>
      <trkpt lat="50.946462" lon="8.556035">
        <ele>434.867327</ele>
        <time>2021-01-01T10:35:14.000Z</time>
      </trkpt>
      <trkpt lat="50.946358" lon="8.555955">
        <ele>434.758454</ele>
        <time>2021-01-01T10:35:18.000Z</time>
      </trkpt>
      <trkpt lat="50.946264" lon="8.555925">
        <ele>434.668129</ele>
        <time>2021-01-01T10:35:21.000Z</time>
      </trkpt>
      <trkpt lat="50.946127" lon="8.555910">
        <ele>434.538761</ele>
        <time>2021-01-01T10:35:24.000Z</time>
      </trkpt>
      <trkpt lat="50.946014" lon="8.555843">
        <ele>434.425124</ele>
        <time>2021-01-01T10:35:26.000Z</time>
      </trkpt>
      <trkpt lat="50.945899" lon="8.555728">
        <ele>434.297078</ele>
        <time>2021-01-01T10:35:28.000Z</time>
      </trkpt>
      <trkpt lat="50.945755" lon="8.555692">
        <ele>434.159750</ele>
        <time>2021-01-01T10:35:30.000Z</time>
      </trkpt>
      <trkpt lat="50.945637" lon="8.555625">
        <ele>434.041689</ele>
        <time>2021-01-01T10:35:32.000Z</time>
      </trkpt>
      <trkpt lat="50.945537" lon="8.555519">
        <ele>433.928406</ele>
        <time>2021-01-01T10:35:34.000Z</time>
      </trkpt>
      <trkpt lat="50.945426" lon="8.555481">
        <ele>433.821433</ele>
        <time>2021-01-01T10:35:36.000Z</time>
      </trkpt>
      <trkpt lat="50.945475" lon="8.555126">
        <ele>433.605726</ele>
        <time>2021-01-01T10:36:51.000Z</time>
      </trkpt>
      <trkpt lat="50.945533" lon="8.555003">
        <ele>433.514538</ele>
        <time>2021-01-01T10:36:59.999Z</time>
      </trkpt>
      <trkpt lat="50.945509" lon="8.555143">
        <ele>433.428420</ele>
        <time>2021-01-01T10:37:40.999Z</time>
      </trkpt>
      <trkpt lat="50.945577" lon="8.555239">
        <ele>433.342686</ele>
        <time>2021-01-01T10:37:48.999Z</time>
      </trkpt>
      <trkpt lat="50.945644" lon="8.555338">
        <ele>433.438015</ele>
        <time>2021-01-01T10:37:53.999Z</time>
      </trkpt>
      <trkpt lat="50.945724" lon="8.555409">
        <ele>433.698292</ele>
        <time>2021-01-01T10:38:01.999Z</time>
      </trkpt>
      <trkpt lat="50.945808" lon="8.555471">
        <ele>433.961354</ele>
        <time>2021-01-01T10:38:09.999Z</time>
      </trkpt>
      <trkpt lat="50.945909" lon="8.555617">
        <ele>434.349284</ele>
        <time>2021-01-01T10:38:20.999Z</time>
      </trkpt>
      <trkpt lat="50.946002" lon="8.555586">
        <ele>434.619133</ele>
        <time>2021-01-01T10:38:33.999Z</time>
      </trkpt>
      <trkpt lat="50.946081" lon="8.555673">
        <ele>434.892177</ele>
        <time>2021-01-01T10:38:39.999Z</time>
      </trkpt>
      <trkpt lat="50.946162" lon="8.555748">
        <ele>435.158468</ele>
        <time>2021-01-01T10:38:47.999Z</time>
      </trkpt>
      <trkpt lat="50.946242" lon="8.555835">
        <ele>435.433850</ele>
        <time>2021-01-01T10:38:57.999Z</time>
      </trkpt>
      <trkpt lat="50.946312" lon="8.555949">
        <ele>435.718651</ele>
        <time>2021-01-01T10:39:04.999Z</time>
      </trkpt>
      <trkpt lat="50.946386" lon="8.556044">
        <ele>435.988919</ele>
        <time>2021-01-01T10:39:11.999Z</time>
      </trkpt>
      <trkpt lat="50.946428" lon="8.556177">
        <ele>436.255087</ele>
        <time>2021-01-01T10:39:22.998Z</time>
      </trkpt>
      <trkpt lat="50.946461" lon="8.556322">
        <ele>436.530915</ele>
        <time>2021-01-01T10:39:38.999Z</time>
      </trkpt>
      <trkpt lat="50.946416" lon="8.556446">
        <ele>436.786935</ele>
        <time>2021-01-01T10:39:56.999Z</time>
      </trkpt>
      <trkpt lat="50.946212" lon="8.555887">
        <ele>437.942708</ele>
        <time>2021-01-01T10:40:16.000Z</time>
      </trkpt>
      <trkpt lat="50.946349" lon="8.555551">
        <ele>439.376082</ele>
        <time>2021-01-01T10:40:17.000Z</time>
      </trkpt>
      <trkpt lat="50.946247" lon="8.555534">
        <ele>440.504473</ele>
        <time>2021-01-01T10:40:18.000Z</time>
      </trkpt>
      <trkpt lat="50.946267" lon="8.555762">
        <ele>442.100191</ele>
        <time>2021-01-01T10:40:19.000Z</time>
      </trkpt>
      <trkpt lat="50.946245" lon="8.555991">
        <ele>443.705944</ele>
        <time>2021-01-01T10:40:20.000Z</time>
      </trkpt>
      <trkpt lat="50.946282" lon="8.556183">
        <ele>445.097732</ele>
        <time>2021-01-01T10:40:22.000Z</time>
      </trkpt>
      <trkpt lat="50.946401" lon="8.556447">
        <ele>447.347871</ele>
        <time>2021-01-01T10:40:23.000Z</time>
      </trkpt>
      <trkpt lat="50.946402" lon="8.556608">
        <ele>448.463958</ele>
        <time>2021-01-01T10:40:24.000Z</time>
      </trkpt>
      <trkpt lat="50.946445" lon="8.556734">
        <ele>449.457272</ele>
        <time>2021-01-01T10:40:25.000Z</time>
      </trkpt>
      <trkpt lat="50.946482" lon="8.556596">
        <ele>450.496885</ele>
        <time>2021-01-01T10:40:32.000Z</time>
      </trkpt>
      <trkpt lat="50.946535" lon="8.556741">
        <ele>451.658904</ele>
        <time>2021-01-01T10:40:38.000Z</time>
      </trkpt>
      <trkpt lat="50.946304" lon="8.557511">
        <ele>457.570640</ele>
        <time>2021-01-01T10:40:44.000Z</time>
      </trkpt>
      <trkpt lat="50.946271" lon="8.557727">
        <ele>458.112695</ele>
        <time>2021-01-01T10:40:45.000Z</time>
      </trkpt>
      <trkpt lat="50.946201" lon="8.557831">
        <ele>458.013956</ele>
        <time>2021-01-01T10:40:48.000Z</time>
      </trkpt>
      <trkpt lat="50.946202" lon="8.557986">
        <ele>457.913384</ele>
        <time>2021-01-01T10:40:51.000Z</time>
      </trkpt>
      <trkpt lat="50.946314" lon="8.557993">
        <ele>457.797959</ele>
        <time>2021-01-01T10:40:57.000Z</time>
      </trkpt>
      <trkpt lat="50.946392" lon="8.558074">
        <ele>457.701970</ele>
        <time>2021-01-01T10:41:01.000Z</time>
      </trkpt>
      <trkpt lat="50.946410" lon="8.557844">
        <ele>457.551596</ele>
        <time>2021-01-01T10:41:06.000Z</time>
      </trkpt>
      <trkpt lat="50.946303" lon="8.557985">
        <ele>457.408382</ele>
        <time>2021-01-01T10:41:10.000Z</time>
      </trkpt>
      <trkpt lat="50.946264" lon="8.558424">
        <ele>457.120734</ele>
        <time>2021-01-01T10:41:15.000Z</time>
      </trkpt>
      <trkpt lat="50.946093" lon="8.558568">
        <ele>456.921390</ele>
        <time>2021-01-01T10:41:17.000Z</time>
      </trkpt>
      <trkpt lat="50.945983" lon="8.558626">
        <ele>456.802026</ele>
        <time>2021-01-01T10:41:18.000Z</time>
      </trkpt>
      <trkpt lat="50.945784" lon="8.559153">
        <ele>456.403390</ele>
        <time>2021-01-01T10:41:23.000Z</time>
      </trkpt>
      <trkpt lat="50.945606" lon="8.559337">
        <ele>455.017445</ele>
        <time>2021-01-01T10:41:28.000Z</time>
      </trkpt>
      <trkpt lat="50.945612" lon="8.559503">
        <ele>454.128943</ele>
        <time>2021-01-01T10:41:30.000Z</time>
      </trkpt>
      <trkpt lat="50.945681" lon="8.559610">
        <ele>453.310786</ele>
        <time>2021-01-01T10:41:32.000Z</time>
      </trkpt>
      <trkpt lat="50.945754" lon="8.559694">
        <ele>452.546066</ele>
        <time>2021-01-01T10:41:40.000Z</time>
      </trkpt>
      <trkpt lat="50.945667" lon="8.559306">
        <ele>450.345357</ele>
        <time>2021-01-01T10:41:48.000Z</time>
      </trkpt>
      <trkpt lat="50.945954" lon="8.557499">
        <ele>440.851627</ele>
        <time>2021-01-01T10:42:06.999Z</time>
      </trkpt>
      <trkpt lat="50.945927" lon="8.557224">
        <ele>440.345217</ele>
        <time>2021-01-01T10:42:08.999Z</time>
      </trkpt>
      <trkpt lat="50.945911" lon="8.556999">
        <ele>439.933224</ele>
        <time>2021-01-01T10:42:09.999Z</time>
      </trkpt>
      <trkpt lat="50.945889" lon="8.556764">
        <ele>439.500941</ele>
        <time>2021-01-01T10:42:10.999Z</time>
      </trkpt>
      <trkpt lat="50.945900" lon="8.556542">
        <ele>439.095758</ele>
        <time>2021-01-01T10:42:11.999Z</time>
      </trkpt>
      <trkpt lat="50.945944" lon="8.556414">
        <ele>438.830450</ele>
        <time>2021-01-01T10:42:12.999Z</time>
      </trkpt>
      <trkpt lat="50.945944" lon="8.556218">
        <ele>438.473822</ele>
        <time>2021-01-01T10:42:14.999Z</time>
      </trkpt>
      <trkpt lat="50.946054" lon="8.556066">
        <ele>438.052630</ele>
        <time>2021-01-01T10:42:17.999Z</time>
      </trkpt>
      <trkpt lat="50.946145" lon="8.555937">
        <ele>437.700273</ele>
        <time>2021-01-01T10:42:20.999Z</time>
      </trkpt>
      <trkpt lat="50.946173" lon="8.555792">
        <ele>437.424329</ele>
        <time>2021-01-01T10:42:21.999Z</time>
      </trkpt>
      <trkpt lat="50.946242" lon="8.555595">
        <ele>437.014220</ele>
        <time>2021-01-01T10:42:23.999Z</time>
      </trkpt>
      <trkpt lat="50.946293" lon="8.555469">
        <ele>436.741728</ele>
        <time>2021-01-01T10:42:25.999Z</time>
      </trkpt>
      <trkpt lat="50.946350" lon="8.555320">
        <ele>436.424560</ele>
        <time>2021-01-01T10:42:31.999Z</time>
      </trkpt>
      <trkpt lat="50.946399" lon="8.555179">
        <ele>436.131571</ele>
        <time>2021-01-01T10:42:39.999Z</time>
      </trkpt>
      <trkpt lat="50.946421" lon="8.555028">
        <ele>436.045045</ele>
        <time>2021-01-01T10:42:45.999Z</time>
      </trkpt>
      <trkpt lat="50.946461" lon="8.554896">
        <ele>436.876224</ele>
        <time>2021-01-01T10:42:53.999Z</time>
      </trkpt>
      <trkpt lat="50.946464" lon="8.554753">
        <ele>437.688138</ele>
        <time>2021-01-01T10:42:59.999Z</time>
      </trkpt>
      <trkpt lat="50.946498" lon="8.554608">
        <ele>438.566088</ele>
        <time>2021-01-01T10:43:05.999Z</time>
      </trkpt>
      <trkpt lat="50.946549" lon="8.554470">
        <ele>439.473954</ele>
        <time>2021-01-01T10:43:12.999Z</time>
      </trkpt>
      <trkpt lat="50.946624" lon="8.554354">
        <ele>440.417133</ele>
        <time>2021-01-01T10:43:18.999Z</time>
      </trkpt>
      <trkpt lat="50.946697" lon="8.554235">
        <ele>441.359616</ele>
        <time>2021-01-01T10:43:21.999Z</time>
      </trkpt>
      <trkpt lat="50.946756" lon="8.554112">
        <ele>442.236848</ele>
        <time>2021-01-01T10:43:27.999Z</time>
      </trkpt>
      <trkpt lat="50.946826" lon="8.553998">
        <ele>443.140153</ele>
        <time>2021-01-01T10:43:35.999Z</time>
      </trkpt>
      <trkpt lat="50.946868" lon="8.553853">
        <ele>444.045749</ele>
        <time>2021-01-01T10:43:41.999Z</time>
      </trkpt>
      <trkpt lat="50.946899" lon="8.553713">
        <ele>444.887818</ele>
        <time>2021-01-01T10:43:47.999Z</time>
      </trkpt>
      <trkpt lat="50.946966" lon="8.553612">
        <ele>445.720055</ele>
        <time>2021-01-01T10:43:54.999Z</time>
      </trkpt>
      <trkpt lat="50.946995" lon="8.553472">
        <ele>446.556322</ele>
        <time>2021-01-01T10:44:04.999Z</time>
      </trkpt>
      <trkpt lat="50.947021" lon="8.553331">
        <ele>447.389992</ele>
        <time>2021-01-01T10:44:12.999Z</time>
      </trkpt>
      <trkpt lat="50.947045" lon="8.553175">
        <ele>448.301225</ele>
        <time>2021-01-01T10:44:20.999Z</time>
      </trkpt>
      <trkpt lat="50.947062" lon="8.553031">
        <ele>449.132575</ele>
        <time>2021-01-01T10:44:26.999Z</time>
      </trkpt>
      <trkpt lat="50.947073" lon="8.552872">
        <ele>450.040244</ele>
        <time>2021-01-01T10:44:34.999Z</time>
      </trkpt>
      <trkpt lat="50.947094" lon="8.552722">
        <ele>450.912181</ele>
        <time>2021-01-01T10:44:42.999Z</time>
      </trkpt>
      <trkpt lat="50.947130" lon="8.552567">
        <ele>451.849588</ele>
        <time>2021-01-01T10:44:50.999Z</time>
      </trkpt>
      <trkpt lat="50.947155" lon="8.552427">
        <ele>452.760435</ele>
        <time>2021-01-01T10:44:58.999Z</time>
      </trkpt>
      <trkpt lat="50.947212" lon="8.552288">
        <ele>453.840000</ele>
        <time>2021-01-01T10:45:06.999Z</time>
      </trkpt>
      <trkpt lat="50.947248" lon="8.552150">
        <ele>454.812242</ele>
        <time>2021-01-01T10:45:15.999Z</time>
      </trkpt>
      <trkpt lat="50.947247" lon="8.552007">
        <ele>455.743130</ele>
        <time>2021-01-01T10:45:23.998Z</time>
      </trkpt>
      <trkpt lat="50.947282" lon="8.551855">
        <ele>456.796554</ele>
        <time>2021-01-01T10:45:31.998Z</time>
      </trkpt>
      <trkpt lat="50.947305" lon="8.551716">
        <ele>457.732030</ele>
        <time>2021-01-01T10:45:41.998Z</time>
      </trkpt>
      <trkpt lat="50.947287" lon="8.551567">
        <ele>458.719584</ele>
        <time>2021-01-01T10:45:50.998Z</time>
      </trkpt>
      <trkpt lat="50.947318" lon="8.551433">
        <ele>459.648774</ele>
        <time>2021-01-01T10:45:59.998Z</time>
      </trkpt>
      <trkpt lat="50.947352" lon="8.551281">
        <ele>460.698694</ele>
        <time>2021-01-01T10:46:06.998Z</time>
      </trkpt>
      <trkpt lat="50.947371" lon="8.551137">
        <ele>461.656366</ele>
        <time>2021-01-01T10:46:14.998Z</time>
      </trkpt>
      <trkpt lat="50.947393" lon="8.550996">
        <ele>462.601902</ele>
        <time>2021-01-01T10:46:22.998Z</time>
      </trkpt>
      <trkpt lat="50.947393" lon="8.550665">
        <ele>464.756475</ele>
        <time>2021-01-01T10:47:08.999Z</time>
      </trkpt>
      <trkpt lat="50.947413" lon="8.550524">
        <ele>465.697257</ele>
        <time>2021-01-01T10:47:17.999Z</time>
      </trkpt>
      <trkpt lat="50.947425" lon="8.550377">
        <ele>466.662120</ele>
        <time>2021-01-01T10:47:25.999Z</time>
      </trkpt>
      <trkpt lat="50.947458" lon="8.550232">
        <ele>467.665658</ele>
        <time>2021-01-01T10:47:34.999Z</time>
      </trkpt>
      <trkpt lat="50.947510" lon="8.550109">
        <ele>468.629846</ele>
        <time>2021-01-01T10:47:42.999Z</time>
      </trkpt>
      <trkpt lat="50.947524" lon="8.549948">
        <ele>469.687773</ele>
        <time>2021-01-01T10:47:55.999Z</time>
      </trkpt>
      <trkpt lat="50.947548" lon="8.549803">
        <ele>470.663644</ele>
        <time>2021-01-01T10:48:04.999Z</time>
      </trkpt>
      <trkpt lat="50.947584" lon="8.549660">
        <ele>471.940601</ele>
        <time>2021-01-01T10:48:13.999Z</time>
      </trkpt>
      <trkpt lat="50.947647" lon="8.549536">
        <ele>473.266132</ele>
        <time>2021-01-01T10:48:22.999Z</time>
      </trkpt>
      <trkpt lat="50.947676" lon="8.549396">
        <ele>474.492450</ele>
        <time>2021-01-01T10:48:32.999Z</time>
      </trkpt>
      <trkpt lat="50.947730" lon="8.549274">
        <ele>475.733124</ele>
        <time>2021-01-01T10:48:41.999Z</time>
      </trkpt>
      <trkpt lat="50.947778" lon="8.549147">
        <ele>476.965487</ele>
        <time>2021-01-01T10:48:48.998Z</time>
      </trkpt>
      <trkpt lat="50.947803" lon="8.548999">
        <ele>478.240517</ele>
        <time>2021-01-01T10:48:57.998Z</time>
      </trkpt>
      <trkpt lat="50.947814" lon="8.548849">
        <ele>479.497120</ele>
        <time>2021-01-01T10:49:05.998Z</time>
      </trkpt>
      <trkpt lat="50.947883" lon="8.548743">
        <ele>480.765393</ele>
        <time>2021-01-01T10:49:15.998Z</time>
      </trkpt>
      <trkpt lat="50.947889" lon="8.548601">
        <ele>481.949652</ele>
        <time>2021-01-01T10:49:23.998Z</time>
      </trkpt>
      <trkpt lat="50.947909" lon="8.548455">
        <ele>483.192927</ele>
        <time>2021-01-01T10:49:33.998Z</time>
      </trkpt>
      <trkpt lat="50.947903" lon="8.548302">
        <ele>484.468528</ele>
        <time>2021-01-01T10:49:43.998Z</time>
      </trkpt>
      <trkpt lat="50.947942" lon="8.548153">
        <ele>485.811122</ele>
        <time>2021-01-01T10:49:52.998Z</time>
      </trkpt>
      <trkpt lat="50.947997" lon="8.548023">
        <ele>487.114143</ele>
        <time>2021-01-01T10:50:03.998Z</time>
      </trkpt>
      <trkpt lat="50.948044" lon="8.547895">
        <ele>488.346941</ele>
        <time>2021-01-01T10:50:11.998Z</time>
      </trkpt>
      <trkpt lat="50.948088" lon="8.547755">
        <ele>489.648804</ele>
        <time>2021-01-01T10:50:21.998Z</time>
      </trkpt>
      <trkpt lat="50.948138" lon="8.547625">
        <ele>490.916193</ele>
        <time>2021-01-01T10:50:28.998Z</time>
      </trkpt>
      <trkpt lat="50.948205" lon="8.547527">
        <ele>492.119545</ele>
        <time>2021-01-01T10:50:37.998Z</time>
      </trkpt>
      <trkpt lat="50.948249" lon="8.547374">
        <ele>493.519036</ele>
        <time>2021-01-01T10:50:47.998Z</time>
      </trkpt>
      <trkpt lat="50.948294" lon="8.547237">
        <ele>494.782080</ele>
        <time>2021-01-01T10:50:55.998Z</time>
      </trkpt>
      <trkpt lat="50.948323" lon="8.547099">
        <ele>495.918562</ele>
        <time>2021-01-01T10:51:03.998Z</time>
      </trkpt>
      <trkpt lat="50.948340" lon="8.546954">
        <ele>497.070786</ele>
        <time>2021-01-01T10:51:10.998Z</time>
      </trkpt>
      <trkpt lat="50.948374" lon="8.546811">
        <ele>498.264843</ele>
        <time>2021-01-01T10:51:18.998Z</time>
      </trkpt>
      <trkpt lat="50.948396" lon="8.546662">
        <ele>499.460406</ele>
        <time>2021-01-01T10:51:26.997Z</time>
      </trkpt>
      <trkpt lat="50.948448" lon="8.546537">
        <ele>500.630609</ele>
        <time>2021-01-01T10:51:34.997Z</time>
      </trkpt>
      <trkpt lat="50.948470" lon="8.546384">
        <ele>501.856616</ele>
        <time>2021-01-01T10:51:42.997Z</time>
      </trkpt>
      <trkpt lat="50.948497" lon="8.546243">
        <ele>503.007896</ele>
        <time>2021-01-01T10:51:53.997Z</time>
      </trkpt>
      <trkpt lat="50.948549" lon="8.546111">
        <ele>504.224105</ele>
        <time>2021-01-01T10:52:02.997Z</time>
      </trkpt>
      <trkpt lat="50.948564" lon="8.545970">
        <ele>505.341221</ele>
        <time>2021-01-01T10:52:12.997Z</time>
      </trkpt>
      <trkpt lat="50.948588" lon="8.545821">
        <ele>506.542681</ele>
        <time>2021-01-01T10:52:21.997Z</time>
      </trkpt>
      <trkpt lat="50.948609" lon="8.545664">
        <ele>507.796535</ele>
        <time>2021-01-01T10:52:29.997Z</time>
      </trkpt>
      <trkpt lat="50.948669" lon="8.545525">
        <ele>509.112857</ele>
        <time>2021-01-01T10:52:40.997Z</time>
      </trkpt>
      <trkpt lat="50.948712" lon="8.545391">
        <ele>510.287660</ele>
        <time>2021-01-01T10:52:46.997Z</time>
      </trkpt>
      <trkpt lat="50.948752" lon="8.545246">
        <ele>511.524258</ele>
        <time>2021-01-01T10:52:54.997Z</time>
      </trkpt>
      <trkpt lat="50.948817" lon="8.545138">
        <ele>512.691087</ele>
        <time>2021-01-01T10:53:00.997Z</time>
      </trkpt>
      <trkpt lat="50.948854" lon="8.544998">
        <ele>513.877123</ele>
        <time>2021-01-01T10:53:05.997Z</time>
      </trkpt>
      <trkpt lat="50.948839" lon="8.544843">
        <ele>515.102211</ele>
        <time>2021-01-01T10:53:12.998Z</time>
      </trkpt>
      <trkpt lat="50.948814" lon="8.544692">
        <ele>516.321901</ele>
        <time>2021-01-01T10:53:24.999Z</time>
      </trkpt>
      <trkpt lat="50.948744" lon="8.544563">
        <ele>517.388537</ele>
        <time>2021-01-01T10:53:34.999Z</time>
      </trkpt>
      <trkpt lat="50.948705" lon="8.544430">
        <ele>518.204064</ele>
        <time>2021-01-01T10:53:41.999Z</time>
      </trkpt>
      <trkpt lat="50.948654" lon="8.544294">
        <ele>519.083901</ele>
        <time>2021-01-01T10:53:55.999Z</time>
      </trkpt>
      <trkpt lat="50.948605" lon="8.544173">
        <ele>519.883531</ele>
        <time>2021-01-01T10:54:03.999Z</time>
      </trkpt>
      <trkpt lat="50.948661" lon="8.544043">
        <ele>520.759001</ele>
        <time>2021-01-01T10:54:13.999Z</time>
      </trkpt>
      <trkpt lat="50.948652" lon="8.543886">
        <ele>521.635392</ele>
        <time>2021-01-01T10:54:19.999Z</time>
      </trkpt>
      <trkpt lat="50.948639" lon="8.543736">
        <ele>522.477116</ele>
        <time>2021-01-01T10:54:31.999Z</time>
      </trkpt>
      <trkpt lat="50.948633" lon="8.543586">
        <ele>523.312667</ele>
        <time>2021-01-01T10:54:39.999Z</time>
      </trkpt>
      <trkpt lat="50.948592" lon="8.543450">
        <ele>524.150810</ele>
        <time>2021-01-01T10:54:44.999Z</time>
      </trkpt>
      <trkpt lat="50.948604" lon="8.543292">
        <ele>525.035515</ele>
        <time>2021-01-01T10:54:54.999Z</time>
      </trkpt>
      <trkpt lat="50.948599" lon="8.543145">
        <ele>525.853900</ele>
        <time>2021-01-01T10:55:02.999Z</time>
      </trkpt>
      <trkpt lat="50.948600" lon="8.542986">
        <ele>526.737849</ele>
        <time>2021-01-01T10:55:12.999Z</time>
      </trkpt>
      <trkpt lat="50.948541" lon="8.542874">
        <ele>527.549447</ele>
        <time>2021-01-01T10:55:22.999Z</time>
      </trkpt>
      <trkpt lat="50.948522" lon="8.542732">
        <ele>528.356454</ele>
        <time>2021-01-01T10:55:29.999Z</time>
      </trkpt>
      <trkpt lat="50.948602" lon="8.542616">
        <ele>529.312565</ele>
        <time>2021-01-01T10:55:59.998Z</time>
      </trkpt>
      <trkpt lat="50.948737" lon="8.542691">
        <ele>530.574637</ele>
        <time>2021-01-01T10:56:01.998Z</time>
      </trkpt>
      <trkpt lat="50.948874" lon="8.542585">
        <ele>531.919472</ele>
        <time>2021-01-01T10:56:02.998Z</time>
      </trkpt>
      <trkpt lat="50.948977" lon="8.542635">
        <ele>532.815708</ele>
        <time>2021-01-01T10:56:03.998Z</time>
      </trkpt>
      <trkpt lat="50.948890" lon="8.542734">
        <ele>533.563781</ele>
        <time>2021-01-01T10:56:09.998Z</time>
      </trkpt>
      <trkpt lat="50.948785" lon="8.542739">
        <ele>534.297876</ele>
        <time>2021-01-01T10:56:13.998Z</time>
      </trkpt>
      <trkpt lat="50.948696" lon="8.542707">
        <ele>534.935587</ele>
        <time>2021-01-01T10:56:20.998Z</time>
      </trkpt>
      <trkpt lat="50.948713" lon="8.542563">
        <ele>535.580610</ele>
        <time>2021-01-01T10:56:25.998Z</time>
      </trkpt>
      <trkpt lat="50.948640" lon="8.542454">
        <ele>536.280998</ele>
        <time>2021-01-01T10:56:33.998Z</time>
      </trkpt>
      <trkpt lat="50.948598" lon="8.542321">
        <ele>536.935999</ele>
        <time>2021-01-01T10:56:40.998Z</time>
      </trkpt>
      <trkpt lat="50.948533" lon="8.542219">
        <ele>537.574747</ele>
        <time>2021-01-01T10:56:46.998Z</time>
      </trkpt>
      <trkpt lat="50.948481" lon="8.542099">
        <ele>538.215980</ele>
        <time>2021-01-01T10:56:51.998Z</time>
      </trkpt>
      <trkpt lat="50.948416" lon="8.541992">
        <ele>538.870394</ele>
        <time>2021-01-01T10:56:56.998Z</time>
      </trkpt>
      <trkpt lat="50.948364" lon="8.541873">
        <ele>539.508005</ele>
        <time>2021-01-01T10:57:02.998Z</time>
      </trkpt>
      <trkpt lat="50.948316" lon="8.541736">
        <ele>540.198176</ele>
        <time>2021-01-01T10:57:09.998Z</time>
      </trkpt>
      <trkpt lat="50.948288" lon="8.541580">
        <ele>540.912332</ele>
        <time>2021-01-01T10:57:20.998Z</time>
      </trkpt>
      <trkpt lat="50.948254" lon="8.541445">
        <ele>541.552433</ele>
        <time>2021-01-01T10:57:29.998Z</time>
      </trkpt>
      <trkpt lat="50.948249" lon="8.541300">
        <ele>542.191787</ele>
        <time>2021-01-01T10:57:40.998Z</time>
      </trkpt>
      <trkpt lat="50.948311" lon="8.541181">
        <ele>542.871656</ele>
        <time>2021-01-01T10:57:48.998Z</time>
      </trkpt>
      <trkpt lat="50.948351" lon="8.541048">
        <ele>543.520518</ele>
        <time>2021-01-01T10:57:56.998Z</time>
      </trkpt>
      <trkpt lat="50.948351" lon="8.540903">
        <ele>544.158914</ele>
        <time>2021-01-01T10:58:03.998Z</time>
      </trkpt>
      <trkpt lat="50.948337" lon="8.540754">
        <ele>544.822177</ele>
        <time>2021-01-01T10:58:20.998Z</time>
      </trkpt>
      <trkpt lat="50.948365" lon="8.540422">
        <ele>547.299491</ele>
        <time>2021-01-01T10:59:12.997Z</time>
      </trkpt>
      <trkpt lat="50.948382" lon="8.540280">
        <ele>548.506484</ele>
        <time>2021-01-01T10:59:34.997Z</time>
      </trkpt>
      <trkpt lat="50.948426" lon="8.540146">
        <ele>549.768312</ele>
        <time>2021-01-01T10:59:44.997Z</time>
      </trkpt>
      <trkpt lat="50.948466" lon="8.540002">
        <ele>551.082477</ele>
        <time>2021-01-01T10:59:57.997Z</time>
      </trkpt>
      <trkpt lat="50.948433" lon="8.539856">
        <ele>552.377739</ele>
        <time>2021-01-01T11:00:07.997Z</time>
      </trkpt>
      <trkpt lat="50.948452" lon="8.539693">
        <ele>553.761974</ele>
        <time>2021-01-01T11:00:16.997Z</time>
      </trkpt>
      <trkpt lat="50.948494" lon="8.539544">
        <ele>555.125057</ele>
        <time>2021-01-01T11:00:27.997Z</time>
      </trkpt>
      <trkpt lat="50.948517" lon="8.539398">
        <ele>556.381766</ele>
        <time>2021-01-01T11:00:37.997Z</time>
      </trkpt>
      <trkpt lat="50.948522" lon="8.539250">
        <ele>557.619417</ele>
        <time>2021-01-01T11:00:49.997Z</time>
      </trkpt>
      <trkpt lat="50.948499" lon="8.539110">
        <ele>558.827581</ele>
        <time>2021-01-01T11:00:56.998Z</time>
      </trkpt>
      <trkpt lat="50.948500" lon="8.538952">
        <ele>560.147027</ele>
        <time>2021-01-01T11:01:04.999Z</time>
      </trkpt>
      <trkpt lat="50.948498" lon="8.538804">
        <ele>561.383187</ele>
        <time>2021-01-01T11:01:13.999Z</time>
      </trkpt>
      <trkpt lat="50.948492" lon="8.538660">
        <ele>562.588287</ele>
        <time>2021-01-01T11:01:24.999Z</time>
      </trkpt>
      <trkpt lat="50.948497" lon="8.538513">
        <ele>563.817599</ele>
        <time>2021-01-01T11:01:38.999Z</time>
      </trkpt>
      <trkpt lat="50.948539" lon="8.538374">
        <ele>565.104909</ele>
        <time>2021-01-01T11:01:52.999Z</time>
      </trkpt>
      <trkpt lat="50.948566" lon="8.538220">
        <ele>566.439752</ele>
        <time>2021-01-01T11:02:02.999Z</time>
      </trkpt>
      <trkpt lat="50.948622" lon="8.538086">
        <ele>567.782515</ele>
        <time>2021-01-01T11:02:12.999Z</time>
      </trkpt>
      <trkpt lat="50.948680" lon="8.537970">
        <ele>569.019206</ele>
        <time>2021-01-01T11:02:21.999Z</time>
      </trkpt>
      <trkpt lat="50.948717" lon="8.537811">
        <ele>570.604916</ele>
        <time>2021-01-01T11:02:31.999Z</time>
      </trkpt>
      <trkpt lat="50.948749" lon="8.537673">
        <ele>571.980609</ele>
        <time>2021-01-01T11:02:49.999Z</time>
      </trkpt>
      <trkpt lat="50.948763" lon="8.537513">
        <ele>573.491815</ele>
        <time>2021-01-01T11:02:59.999Z</time>
      </trkpt>
      <trkpt lat="50.948785" lon="8.537197">
        <ele>576.466064</ele>
        <time>2021-01-01T11:03:54.998Z</time>
      </trkpt>
      <trkpt lat="50.948809" lon="8.537054">
        <ele>577.850517</ele>
        <time>2021-01-01T11:04:06.998Z</time>
      </trkpt>
      <trkpt lat="50.948820" lon="8.536909">
        <ele>579.216823</ele>
        <time>2021-01-01T11:04:16.998Z</time>
      </trkpt>
      <trkpt lat="50.948795" lon="8.536757">
        <ele>580.686477</ele>
        <time>2021-01-01T11:04:26.998Z</time>
      </trkpt>
      <trkpt lat="50.948802" lon="8.536605">
        <ele>582.112265</ele>
        <time>2021-01-01T11:04:35.998Z</time>
      </trkpt>
      <trkpt lat="50.948804" lon="8.536456">
        <ele>583.506510</ele>
        <time>2021-01-01T11:04:45.998Z</time>
      </trkpt>
      <trkpt lat="50.948808" lon="8.536311">
        <ele>584.864318</ele>
        <time>2021-01-01T11:04:55.998Z</time>
      </trkpt>
      <trkpt lat="50.948786" lon="8.536171">
        <ele>586.214177</ele>
        <time>2021-01-01T11:05:06.998Z</time>
      </trkpt>
      <trkpt lat="50.948742" lon="8.536358">
        <ele>588.081633</ele>
        <time>2021-01-01T11:05:14.998Z</time>
      </trkpt>
      <trkpt lat="50.948820" lon="8.536079">
        <ele>590.937187</ele>
        <time>2021-01-01T11:06:43.997Z</time>
      </trkpt>
      <trkpt lat="50.948889" lon="8.535980">
        <ele>592.318340</ele>
        <time>2021-01-01T11:07:04.997Z</time>
      </trkpt>
      <trkpt lat="50.948961" lon="8.535891">
        <ele>593.673446</ele>
        <time>2021-01-01T11:07:14.997Z</time>
      </trkpt>
      <trkpt lat="50.949043" lon="8.535821">
        <ele>595.056010</ele>
        <time>2021-01-01T11:07:22.997Z</time>
      </trkpt>
      <trkpt lat="50.949125" lon="8.535752">
        <ele>596.319791</ele>
        <time>2021-01-01T11:07:33.997Z</time>
      </trkpt>
      <trkpt lat="50.949193" lon="8.535648">
        <ele>597.495153</ele>
        <time>2021-01-01T11:07:45.996Z</time>
      </trkpt>
      <trkpt lat="50.949249" lon="8.535525">
        <ele>598.685177</ele>
        <time>2021-01-01T11:07:58.997Z</time>
      </trkpt>
      <trkpt lat="50.949347" lon="8.535512">
        <ele>599.909227</ele>
        <time>2021-01-01T11:08:15.995Z</time>
      </trkpt>
      <trkpt lat="50.949437" lon="8.535493">
        <ele>601.039315</ele>
        <time>2021-01-01T11:08:27.995Z</time>
      </trkpt>
      <trkpt lat="50.949532" lon="8.535479">
        <ele>602.226858</ele>
        <time>2021-01-01T11:08:34.994Z</time>
      </trkpt>
      <trkpt lat="50.949625" lon="8.535427">
        <ele>603.454142</ele>
        <time>2021-01-01T11:08:40.994Z</time>
      </trkpt>
      <trkpt lat="50.949724" lon="8.535380">
        <ele>604.740322</ele>
        <time>2021-01-01T11:08:46.994Z</time>
      </trkpt>
      <trkpt lat="50.949815" lon="8.535343">
        <ele>605.909562</ele>
        <time>2021-01-01T11:08:56.994Z</time>
      </trkpt>
      <trkpt lat="50.949913" lon="8.535332">
        <ele>607.132406</ele>
        <time>2021-01-01T11:09:08.994Z</time>
      </trkpt>
      <trkpt lat="50.950005" lon="8.535352">
        <ele>608.288213</ele>
        <time>2021-01-01T11:09:18.994Z</time>
      </trkpt>
      <trkpt lat="50.950103" lon="8.535393">
        <ele>609.549669</ele>
        <time>2021-01-01T11:09:32.994Z</time>
      </trkpt>
      <trkpt lat="50.950201" lon="8.535389">
        <ele>610.769871</ele>
        <time>2021-01-01T11:09:43.994Z</time>
      </trkpt>
      <trkpt lat="50.950298" lon="8.535403">
        <ele>611.982203</ele>
        <time>2021-01-01T11:09:49.994Z</time>
      </trkpt>
      <trkpt lat="50.950399" lon="8.535375">
        <ele>613.258371</ele>
        <time>2021-01-01T11:09:58.994Z</time>
      </trkpt>
      <trkpt lat="50.950494" lon="8.535389">
        <ele>614.445914</ele>
        <time>2021-01-01T11:10:06.994Z</time>
      </trkpt>
      <trkpt lat="50.950600" lon="8.535397">
        <ele>615.766778</ele>
        <time>2021-01-01T11:10:16.994Z</time>
      </trkpt>
      <trkpt lat="50.950690" lon="8.535420">
        <ele>616.901427</ele>
        <time>2021-01-01T11:10:22.994Z</time>
      </trkpt>
      <trkpt lat="50.950778" lon="8.535454">
        <ele>618.028736</ele>
        <time>2021-01-01T11:10:35.993Z</time>
      </trkpt>
      <trkpt lat="50.950870" lon="8.535474">
        <ele>619.214842</ele>
        <time>2021-01-01T11:10:45.993Z</time>
      </trkpt>
      <trkpt lat="50.950968" lon="8.535518">
        <ele>620.518400</ele>
        <time>2021-01-01T11:10:55.993Z</time>
      </trkpt>
      <trkpt lat="50.951051" lon="8.535591">
        <ele>621.732932</ele>
        <time>2021-01-01T11:11:01.993Z</time>
      </trkpt>
      <trkpt lat="50.951147" lon="8.535620">
        <ele>622.983733</ele>
        <time>2021-01-01T11:11:08.993Z</time>
      </trkpt>
      <trkpt lat="50.951244" lon="8.535652">
        <ele>624.251810</ele>
        <time>2021-01-01T11:11:17.993Z</time>
      </trkpt>
      <trkpt lat="50.951332" lon="8.535695">
        <ele>625.430322</ele>
        <time>2021-01-01T11:11:26.993Z</time>
      </trkpt>
      <trkpt lat="50.951415" lon="8.535637">
        <ele>626.591063</ele>
        <time>2021-01-01T11:11:54.993Z</time>
      </trkpt>
      <trkpt lat="50.951497" lon="8.535698">
        <ele>627.750158</ele>
        <time>2021-01-01T11:12:07.993Z</time>
      </trkpt>
      <trkpt lat="50.951592" lon="8.535737">
        <ele>629.006113</ele>
        <time>2021-01-01T11:12:19.993Z</time>
      </trkpt>
      <trkpt lat="50.951684" lon="8.535732">
        <ele>630.184353</ele>
        <time>2021-01-01T11:12:33.993Z</time>
      </trkpt>
      <trkpt lat="50.951782" lon="8.535718">
        <ele>631.443770</ele>
        <time>2021-01-01T11:12:50.993Z</time>
      </trkpt>
      <trkpt lat="50.951875" lon="8.535730">
        <ele>632.638046</ele>
        <time>2021-01-01T11:13:00.993Z</time>
      </trkpt>
      <trkpt lat="50.951970" lon="8.535713">
        <ele>633.861697</ele>
        <time>2021-01-01T11:13:13.993Z</time>
      </trkpt>
      <trkpt lat="50.952060" lon="8.535666">
        <ele>635.074385</ele>
        <time>2021-01-01T11:13:25.993Z</time>
      </trkpt>
      <trkpt lat="50.952157" lon="8.535657">
        <ele>636.318052</ele>
        <time>2021-01-01T11:13:38.992Z</time>
      </trkpt>
      <trkpt lat="50.952251" lon="8.535654">
        <ele>637.521444</ele>
        <time>2021-01-01T11:13:47.992Z</time>
      </trkpt>
      <trkpt lat="50.952342" lon="8.535684">
        <ele>638.711049</ele>
        <time>2021-01-01T11:14:02.992Z</time>
      </trkpt>
      <trkpt lat="50.952438" lon="8.535680">
        <ele>639.940220</ele>
        <time>2021-01-01T11:14:17.992Z</time>
      </trkpt>
      <trkpt lat="50.952526" lon="8.535626">
        <ele>641.144224</ele>
        <time>2021-01-01T11:14:28.992Z</time>
      </trkpt>
      <trkpt lat="50.952620" lon="8.535610">
        <ele>641.974071</ele>
        <time>2021-01-01T11:14:40.992Z</time>
      </trkpt>
      <trkpt lat="50.952724" lon="8.535598">
        <ele>642.889375</ele>
        <time>2021-01-01T11:14:49.992Z</time>
      </trkpt>
      <trkpt lat="50.952819" lon="8.535601">
        <ele>643.723435</ele>
        <time>2021-01-01T11:15:00.995Z</time>
      </trkpt>
      <trkpt lat="50.952909" lon="8.535625">
        <ele>644.524510</ele>
        <time>2021-01-01T11:15:10.997Z</time>
      </trkpt>
      <trkpt lat="50.952997" lon="8.535578">
        <ele>645.339510</ele>
        <time>2021-01-01T11:15:18.998Z</time>
      </trkpt>
      <trkpt lat="50.953090" lon="8.535527">
        <ele>646.203189</ele>
        <time>2021-01-01T11:15:30.999Z</time>
      </trkpt>
      <trkpt lat="50.953193" lon="8.535538">
        <ele>647.109350</ele>
        <time>2021-01-01T11:15:38.999Z</time>
      </trkpt>
      <trkpt lat="50.953285" lon="8.535572">
        <ele>647.938508</ele>
        <time>2021-01-01T11:15:45.999Z</time>
      </trkpt>
      <trkpt lat="50.953378" lon="8.535585">
        <ele>648.758006</ele>
        <time>2021-01-01T11:15:53.999Z</time>
      </trkpt>
      <trkpt lat="50.953469" lon="8.535591">
        <ele>649.557478</ele>
        <time>2021-01-01T11:15:59.999Z</time>
      </trkpt>
      <trkpt lat="50.953574" lon="8.535592">
        <ele>650.479168</ele>
        <time>2021-01-01T11:16:09.999Z</time>
      </trkpt>
      <trkpt lat="50.953667" lon="8.535576">
        <ele>651.300288</ele>
        <time>2021-01-01T11:16:17.999Z</time>
      </trkpt>
      <trkpt lat="50.953758" lon="8.535589">
        <ele>652.102300</ele>
        <time>2021-01-01T11:16:24.999Z</time>
      </trkpt>
      <trkpt lat="50.953849" lon="8.535569">
        <ele>652.908703</ele>
        <time>2021-01-01T11:16:47.998Z</time>
      </trkpt>
      <trkpt lat="50.953974" lon="8.535631">
        <ele>654.058245</ele>
        <time>2021-01-01T11:17:02.998Z</time>
      </trkpt>
      <trkpt lat="50.954051" lon="8.535712">
        <ele>654.869073</ele>
        <time>2021-01-01T11:17:39.998Z</time>
      </trkpt>
      <trkpt lat="50.953960" lon="8.535640">
        <ele>655.761575</ele>
        <time>2021-01-01T11:17:59.998Z</time>
      </trkpt>
      <trkpt lat="50.953853" lon="8.535586">
        <ele>656.747126</ele>
        <time>2021-01-01T11:18:05.998Z</time>
      </trkpt>
      <trkpt lat="50.953773" lon="8.535482">
        <ele>656.790666</ele>
        <time>2021-01-01T11:18:10.998Z</time>
      </trkpt>
      <trkpt lat="50.953693" lon="8.535391">
        <ele>656.632178</ele>
        <time>2021-01-01T11:18:17.998Z</time>
      </trkpt>
      <trkpt lat="50.953617" lon="8.535288">
        <ele>656.471256</ele>
        <time>2021-01-01T11:18:24.998Z</time>
      </trkpt>
      <trkpt lat="50.953537" lon="8.535194">
        <ele>656.310976</ele>
        <time>2021-01-01T11:18:32.998Z</time>
      </trkpt>
      <trkpt lat="50.953463" lon="8.535081">
        <ele>656.145625</ele>
        <time>2021-01-01T11:18:40.997Z</time>
      </trkpt>
      <trkpt lat="50.953399" lon="8.534980">
        <ele>656.000300</ele>
        <time>2021-01-01T11:18:48.997Z</time>
      </trkpt>
      <trkpt lat="50.953327" lon="8.534867">
        <ele>655.837254</ele>
        <time>2021-01-01T11:18:57.997Z</time>
      </trkpt>
      <trkpt lat="50.953286" lon="8.534721">
        <ele>655.675096</ele>
        <time>2021-01-01T11:19:06.997Z</time>
      </trkpt>
      <trkpt lat="50.953212" lon="8.534607">
        <ele>655.509039</ele>
        <time>2021-01-01T11:19:14.997Z</time>
      </trkpt>
      <trkpt lat="50.953140" lon="8.534484">
        <ele>655.338709</ele>
        <time>2021-01-01T11:19:22.997Z</time>
      </trkpt>
      <trkpt lat="50.953073" lon="8.534351">
        <ele>655.165952</ele>
        <time>2021-01-01T11:19:30.997Z</time>
      </trkpt>
      <trkpt lat="50.953007" lon="8.534245">
        <ele>655.014760</ele>
        <time>2021-01-01T11:19:37.997Z</time>
      </trkpt>
      <trkpt lat="50.952931" lon="8.534146">
        <ele>654.856441</ele>
        <time>2021-01-01T11:19:45.997Z</time>
      </trkpt>
      <trkpt lat="50.952861" lon="8.534032">
        <ele>654.694944</ele>
        <time>2021-01-01T11:19:52.997Z</time>
      </trkpt>
      <trkpt lat="50.952795" lon="8.533918">
        <ele>654.537876</ele>
        <time>2021-01-01T11:20:00.997Z</time>
      </trkpt>
      <trkpt lat="50.952721" lon="8.533834">
        <ele>654.391377</ele>
        <time>2021-01-01T11:20:06.997Z</time>
      </trkpt>
      <trkpt lat="50.952665" lon="8.533702">
        <ele>654.229934</ele>
        <time>2021-01-01T11:20:13.997Z</time>
      </trkpt>
      <trkpt lat="50.952646" lon="8.533561">
        <ele>654.083660</ele>
        <time>2021-01-01T11:20:20.997Z</time>
      </trkpt>
      <trkpt lat="50.952637" lon="8.533414">
        <ele>654.037181</ele>
        <time>2021-01-01T11:20:27.997Z</time>
      </trkpt>
      <trkpt lat="50.952632" lon="8.533271">
        <ele>654.051047</ele>
        <time>2021-01-01T11:20:34.996Z</time>
      </trkpt>
      <trkpt lat="50.952640" lon="8.533114">
        <ele>654.066296</ele>
        <time>2021-01-01T11:20:44.996Z</time>
      </trkpt>
      <trkpt lat="50.952598" lon="8.532961">
        <ele>654.082454</ele>
        <time>2021-01-01T11:20:51.996Z</time>
      </trkpt>
      <trkpt lat="50.952575" lon="8.532821">
        <ele>654.096461</ele>
        <time>2021-01-01T11:20:58.996Z</time>
      </trkpt>
      <trkpt lat="50.952527" lon="8.532699">
        <ele>654.110386</ele>
        <time>2021-01-01T11:21:06.996Z</time>
      </trkpt>
      <trkpt lat="50.952486" lon="8.532561">
        <ele>654.125158</ele>
        <time>2021-01-01T11:21:14.996Z</time>
      </trkpt>
      <trkpt lat="50.952473" lon="8.532415">
        <ele>654.139433</ele>
        <time>2021-01-01T11:21:21.996Z</time>
      </trkpt>
      <trkpt lat="50.952532" lon="8.532599">
        <ele>654.159422</ele>
        <time>2021-01-01T11:22:09.998Z</time>
      </trkpt>
      <trkpt lat="50.952569" lon="8.532744">
        <ele>654.174568</ele>
        <time>2021-01-01T11:22:17.998Z</time>
      </trkpt>
      <trkpt lat="50.952595" lon="8.532889">
        <ele>654.189163</ele>
        <time>2021-01-01T11:22:23.998Z</time>
      </trkpt>
      <trkpt lat="50.952640" lon="8.533014">
        <ele>654.203102</ele>
        <time>2021-01-01T11:22:30.999Z</time>
      </trkpt>
      <trkpt lat="50.952673" lon="8.533168">
        <ele>654.218850</ele>
        <time>2021-01-01T11:22:39.999Z</time>
      </trkpt>
      <trkpt lat="50.952695" lon="8.533319">
        <ele>654.233855</ele>
        <time>2021-01-01T11:22:45.999Z</time>
      </trkpt>
      <trkpt lat="50.952712" lon="8.533474">
        <ele>654.249086</ele>
        <time>2021-01-01T11:22:51.999Z</time>
      </trkpt>
      <trkpt lat="50.952717" lon="8.533635">
        <ele>654.264692</ele>
        <time>2021-01-01T11:22:59.999Z</time>
      </trkpt>
      <trkpt lat="50.952744" lon="8.533771">
        <ele>654.278497</ele>
        <time>2021-01-01T11:23:06.999Z</time>
      </trkpt>
      <trkpt lat="50.952795" lon="8.533890">
        <ele>654.292431</ele>
        <time>2021-01-01T11:23:14.999Z</time>
      </trkpt>
      <trkpt lat="50.952846" lon="8.534040">
        <ele>654.408733</ele>
        <time>2021-01-01T11:23:21.999Z</time>
      </trkpt>
      <trkpt lat="50.952907" lon="8.534152">
        <ele>654.752802</ele>
        <time>2021-01-01T11:23:28.999Z</time>
      </trkpt>
      <trkpt lat="50.952973" lon="8.534266">
        <ele>655.112617</ele>
        <time>2021-01-01T11:23:36.998Z</time>
      </trkpt>
      <trkpt lat="50.953045" lon="8.534378">
        <ele>655.484495</ele>
        <time>2021-01-01T11:23:45.998Z</time>
      </trkpt>
      <trkpt lat="50.953122" lon="8.534486">
        <ele>655.863545</ele>
        <time>2021-01-01T11:23:51.998Z</time>
      </trkpt>
      <trkpt lat="50.953186" lon="8.534617">
        <ele>656.248799</ele>
        <time>2021-01-01T11:24:00.998Z</time>
      </trkpt>
      <trkpt lat="50.953263" lon="8.534693">
        <ele>656.583284</ele>
        <time>2021-01-01T11:24:06.998Z</time>
      </trkpt>
      <trkpt lat="50.953327" lon="8.534819">
        <ele>656.959423</ele>
        <time>2021-01-01T11:24:13.998Z</time>
      </trkpt>
      <trkpt lat="50.953386" lon="8.534952">
        <ele>657.337446</ele>
        <time>2021-01-01T11:24:20.998Z</time>
      </trkpt>
      <trkpt lat="50.953442" lon="8.535064">
        <ele>657.669743</ele>
        <time>2021-01-01T11:24:27.998Z</time>
      </trkpt>
      <trkpt lat="50.953518" lon="8.535175">
        <ele>658.050721</ele>
        <time>2021-01-01T11:24:35.998Z</time>
      </trkpt>
      <trkpt lat="50.953597" lon="8.535262">
        <ele>658.405416</ele>
        <time>2021-01-01T11:24:42.998Z</time>
      </trkpt>
      <trkpt lat="50.953668" lon="8.535349">
        <ele>658.736290</ele>
        <time>2021-01-01T11:24:49.998Z</time>
      </trkpt>
      <trkpt lat="50.953738" lon="8.535459">
        <ele>659.099648</ele>
        <time>2021-01-01T11:24:55.998Z</time>
      </trkpt>
      <trkpt lat="50.953813" lon="8.535560">
        <ele>659.462469</ele>
        <time>2021-01-01T11:25:03.998Z</time>
      </trkpt>
      <trkpt lat="50.953906" lon="8.535629">
        <ele>659.841169</ele>
        <time>2021-01-01T11:25:12.997Z</time>
      </trkpt>
      <trkpt lat="50.953991" lon="8.535709">
        <ele>660.205704</ele>
        <time>2021-01-01T11:25:20.997Z</time>
      </trkpt>
      <trkpt lat="50.954073" lon="8.535808">
        <ele>660.585750</ele>
        <time>2021-01-01T11:25:28.997Z</time>
      </trkpt>
      <trkpt lat="50.954152" lon="8.535882">
        <ele>660.924135</ele>
        <time>2021-01-01T11:25:37.997Z</time>
      </trkpt>
      <trkpt lat="50.954231" lon="8.535958">
        <ele>661.398534</ele>
        <time>2021-01-01T11:25:43.997Z</time>
      </trkpt>
      <trkpt lat="50.954299" lon="8.536061">
        <ele>661.887778</ele>
        <time>2021-01-01T11:25:50.997Z</time>
      </trkpt>
      <trkpt lat="50.954365" lon="8.536173">
        <ele>662.390672</ele>
        <time>2021-01-01T11:25:59.997Z</time>
      </trkpt>
      <trkpt lat="50.954430" lon="8.536292">
        <ele>662.907140</ele>
        <time>2021-01-01T11:26:08.997Z</time>
      </trkpt>
      <trkpt lat="50.954501" lon="8.536391">
        <ele>663.399045</ele>
        <time>2021-01-01T11:26:15.997Z</time>
      </trkpt>
      <trkpt lat="50.954553" lon="8.536510">
        <ele>663.873940</ele>
        <time>2021-01-01T11:26:21.997Z</time>
      </trkpt>
      <trkpt lat="50.954611" lon="8.536623">
        <ele>664.351897</ele>
        <time>2021-01-01T11:26:28.997Z</time>
      </trkpt>
      <trkpt lat="50.954672" lon="8.536737">
        <ele>664.842361</ele>
        <time>2021-01-01T11:26:36.997Z</time>
      </trkpt>
      <trkpt lat="50.954729" lon="8.536861">
        <ele>665.345706</ele>
        <time>2021-01-01T11:26:43.996Z</time>
      </trkpt>
      <trkpt lat="50.954777" lon="8.536999">
        <ele>665.862608</ele>
        <time>2021-01-01T11:26:51.996Z</time>
      </trkpt>
      <trkpt lat="50.954819" lon="8.537136">
        <ele>666.362208</ele>
        <time>2021-01-01T11:27:01.996Z</time>
      </trkpt>
      <trkpt lat="50.954884" lon="8.537249">
        <ele>666.863974</ele>
        <time>2021-01-01T11:27:08.996Z</time>
      </trkpt>
      <trkpt lat="50.954934" lon="8.537373">
        <ele>667.346737</ele>
        <time>2021-01-01T11:27:14.996Z</time>
      </trkpt>
      <trkpt lat="50.954998" lon="8.537494">
        <ele>667.864811</ele>
        <time>2021-01-01T11:27:22.996Z</time>
      </trkpt>
      <trkpt lat="50.955077" lon="8.537586">
        <ele>668.374817</ele>
        <time>2021-01-01T11:27:29.996Z</time>
      </trkpt>
      <trkpt lat="50.955146" lon="8.537688">
        <ele>668.865596</ele>
        <time>2021-01-01T11:27:38.996Z</time>
      </trkpt>
      <trkpt lat="50.955195" lon="8.537823">
        <ele>669.376484</ele>
        <time>2021-01-01T11:27:48.996Z</time>
      </trkpt>
      <trkpt lat="50.955246" lon="8.537949">
        <ele>669.867575</ele>
        <time>2021-01-01T11:27:53.996Z</time>
      </trkpt>
      <trkpt lat="50.955297" lon="8.538070">
        <ele>670.283352</ele>
        <time>2021-01-01T11:28:03.996Z</time>
      </trkpt>
      <trkpt lat="50.955342" lon="8.538193">
        <ele>670.075415</ele>
        <time>2021-01-01T11:28:10.996Z</time>
      </trkpt>
      <trkpt lat="50.955402" lon="8.538319">
        <ele>669.844511</ele>
        <time>2021-01-01T11:28:23.995Z</time>
      </trkpt>
      <trkpt lat="50.955474" lon="8.538422">
        <ele>669.619585</ele>
        <time>2021-01-01T11:28:29.995Z</time>
      </trkpt>
      <trkpt lat="50.955546" lon="8.538520">
        <ele>669.399485</ele>
        <time>2021-01-01T11:28:57.995Z</time>
      </trkpt>
      <trkpt lat="50.955587" lon="8.538660">
        <ele>669.173787</ele>
        <time>2021-01-01T11:29:08.996Z</time>
      </trkpt>
      <trkpt lat="50.955600" lon="8.538802">
        <ele>668.964021</ele>
        <time>2021-01-01T11:29:34.998Z</time>
      </trkpt>
      <trkpt lat="50.955507" lon="8.538298">
        <ele>668.196278</ele>
        <time>2021-01-01T11:43:59.147Z</time>
      </trkpt>
      <trkpt lat="50.955587" lon="8.538233">
        <ele>667.987718</ele>
        <time>2021-01-01T11:44:10.147Z</time>
      </trkpt>
      <trkpt lat="50.955662" lon="8.538153">
        <ele>667.778024</ele>
        <time>2021-01-01T11:44:16.147Z</time>
      </trkpt>
      <trkpt lat="50.955712" lon="8.538025">
        <ele>667.557847</ele>
        <time>2021-01-01T11:44:23.147Z</time>
      </trkpt>
      <trkpt lat="50.955768" lon="8.537892">
        <ele>667.323985</ele>
        <time>2021-01-01T11:44:31.147Z</time>
      </trkpt>
      <trkpt lat="50.955824" lon="8.537775">
        <ele>667.109174</ele>
        <time>2021-01-01T11:44:39.147Z</time>
      </trkpt>
      <trkpt lat="50.955922" lon="8.537721">
        <ele>666.868434</ele>
        <time>2021-01-01T11:44:47.146Z</time>
      </trkpt>
      <trkpt lat="50.956015" lon="8.537682">
        <ele>666.645205</ele>
        <time>2021-01-01T11:44:55.146Z</time>
      </trkpt>
      <trkpt lat="50.956114" lon="8.537632">
        <ele>666.404108</ele>
        <time>2021-01-01T11:45:02.146Z</time>
      </trkpt>
      <trkpt lat="50.956203" lon="8.537600">
        <ele>666.192334</ele>
        <time>2021-01-01T11:45:09.146Z</time>
      </trkpt>
      <trkpt lat="50.956299" lon="8.537569">
        <ele>665.433821</ele>
        <time>2021-01-01T11:45:18.146Z</time>
      </trkpt>
      <trkpt lat="50.956396" lon="8.537575">
        <ele>664.475487</ele>
        <time>2021-01-01T11:45:26.146Z</time>
      </trkpt>
      <trkpt lat="50.956484" lon="8.537603">
        <ele>663.589452</ele>
        <time>2021-01-01T11:45:36.146Z</time>
      </trkpt>
      <trkpt lat="50.956576" lon="8.537611">
        <ele>662.679844</ele>
        <time>2021-01-01T11:45:51.146Z</time>
      </trkpt>
      <trkpt lat="50.956674" lon="8.537655">
        <ele>661.674417</ele>
        <time>2021-01-01T11:46:09.146Z</time>
      </trkpt>
      <trkpt lat="50.956777" lon="8.537696">
        <ele>660.626098</ele>
        <time>2021-01-01T11:46:18.145Z</time>
      </trkpt>
      <trkpt lat="50.956871" lon="8.537729">
        <ele>659.675688</ele>
        <time>2021-01-01T11:46:23.145Z</time>
      </trkpt>
      <trkpt lat="50.956958" lon="8.537793">
        <ele>658.729074</ele>
        <time>2021-01-01T11:46:29.145Z</time>
      </trkpt>
      <trkpt lat="50.957049" lon="8.537881">
        <ele>657.677152</ele>
        <time>2021-01-01T11:46:33.145Z</time>
      </trkpt>
      <trkpt lat="50.957146" lon="8.537941">
        <ele>656.649423</ele>
        <time>2021-01-01T11:46:42.145Z</time>
      </trkpt>
      <trkpt lat="50.957238" lon="8.537958">
        <ele>655.735045</ele>
        <time>2021-01-01T11:46:52.145Z</time>
      </trkpt>
      <trkpt lat="50.957313" lon="8.538043">
        <ele>654.825315</ele>
        <time>2021-01-01T11:47:03.145Z</time>
      </trkpt>
      <trkpt lat="50.957390" lon="8.538123">
        <ele>653.916835</ele>
        <time>2021-01-01T11:47:21.145Z</time>
      </trkpt>
      <trkpt lat="50.957456" lon="8.538235">
        <ele>652.963098</ele>
        <time>2021-01-01T11:47:27.145Z</time>
      </trkpt>
      <trkpt lat="50.957527" lon="8.538343">
        <ele>651.992354</ele>
        <time>2021-01-01T11:47:36.144Z</time>
      </trkpt>
      <trkpt lat="50.957621" lon="8.538361">
        <ele>651.057637</ele>
        <time>2021-01-01T11:47:49.144Z</time>
      </trkpt>
      <trkpt lat="50.957717" lon="8.538321">
        <ele>650.077803</ele>
        <time>2021-01-01T11:48:06.144Z</time>
      </trkpt>
      <trkpt lat="50.957816" lon="8.538298">
        <ele>649.090042</ele>
        <time>2021-01-01T11:48:12.144Z</time>
      </trkpt>
      <trkpt lat="50.957918" lon="8.538306">
        <ele>647.956552</ele>
        <time>2021-01-01T11:48:19.144Z</time>
      </trkpt>
      <trkpt lat="50.958018" lon="8.538329">
        <ele>646.527645</ele>
        <time>2021-01-01T11:48:28.144Z</time>
      </trkpt>
      <trkpt lat="50.958112" lon="8.538334">
        <ele>645.197603</ele>
        <time>2021-01-01T11:48:34.144Z</time>
      </trkpt>
      <trkpt lat="50.958203" lon="8.538320">
        <ele>643.904704</ele>
        <time>2021-01-01T11:48:40.144Z</time>
      </trkpt>
      <trkpt lat="50.958303" lon="8.538366">
        <ele>642.432395</ele>
        <time>2021-01-01T11:48:47.144Z</time>
      </trkpt>
      <trkpt lat="50.958396" lon="8.538370">
        <ele>641.116758</ele>
        <time>2021-01-01T11:48:53.144Z</time>
      </trkpt>
      <trkpt lat="50.958491" lon="8.538361">
        <ele>639.770932</ele>
        <time>2021-01-01T11:49:00.144Z</time>
      </trkpt>
      <trkpt lat="50.958588" lon="8.538310">
        <ele>638.325945</ele>
        <time>2021-01-01T11:49:07.143Z</time>
      </trkpt>
      <trkpt lat="50.958691" lon="8.538261">
        <ele>636.805389</ele>
        <time>2021-01-01T11:49:12.143Z</time>
      </trkpt>
      <trkpt lat="50.958787" lon="8.538224">
        <ele>635.408378</ele>
        <time>2021-01-01T11:49:16.143Z</time>
      </trkpt>
      <trkpt lat="50.958877" lon="8.538182">
        <ele>634.081804</ele>
        <time>2021-01-01T11:49:21.143Z</time>
      </trkpt>
      <trkpt lat="50.958953" lon="8.538095">
        <ele>632.756805</ele>
        <time>2021-01-01T11:49:29.143Z</time>
      </trkpt>
      <trkpt lat="50.959041" lon="8.538066">
        <ele>631.485832</ele>
        <time>2021-01-01T11:49:36.143Z</time>
      </trkpt>
      <trkpt lat="50.959131" lon="8.538071">
        <ele>630.212323</ele>
        <time>2021-01-01T11:49:45.143Z</time>
      </trkpt>
      <trkpt lat="50.959225" lon="8.538079">
        <ele>628.881119</ele>
        <time>2021-01-01T11:49:55.143Z</time>
      </trkpt>
      <trkpt lat="50.959315" lon="8.538101">
        <ele>627.593392</ele>
        <time>2021-01-01T11:50:06.143Z</time>
      </trkpt>
      <trkpt lat="50.959405" lon="8.538108">
        <ele>626.319136</ele>
        <time>2021-01-01T11:50:13.143Z</time>
      </trkpt>
      <trkpt lat="50.959500" lon="8.538101">
        <ele>624.974253</ele>
        <time>2021-01-01T11:50:24.143Z</time>
      </trkpt>
      <trkpt lat="50.959592" lon="8.538123">
        <ele>623.658565</ele>
        <time>2021-01-01T11:50:31.142Z</time>
      </trkpt>
      <trkpt lat="50.959685" lon="8.538125">
        <ele>622.378755</ele>
        <time>2021-01-01T11:50:37.142Z</time>
      </trkpt>
      <trkpt lat="50.959778" lon="8.538125">
        <ele>621.142270</ele>
        <time>2021-01-01T11:50:48.142Z</time>
      </trkpt>
      <trkpt lat="50.959869" lon="8.538132">
        <ele>619.930957</ele>
        <time>2021-01-01T11:50:56.142Z</time>
      </trkpt>
      <trkpt lat="50.959961" lon="8.538103">
        <ele>618.683891</ele>
        <time>2021-01-01T11:51:05.999Z</time>
      </trkpt>
      <trkpt lat="50.960113" lon="8.537922">
        <ele>616.157699</ele>
        <time>2021-01-01T11:51:42.999Z</time>
      </trkpt>
      <trkpt lat="50.960184" lon="8.537828">
        <ele>614.928566</ele>
        <time>2021-01-01T11:51:48.999Z</time>
      </trkpt>
      <trkpt lat="50.960251" lon="8.537728">
        <ele>613.705937</ele>
        <time>2021-01-01T11:51:58.999Z</time>
      </trkpt>
      <trkpt lat="50.960156" lon="8.537874">
        <ele>611.948030</ele>
        <time>2021-01-01T11:52:53.999Z</time>
      </trkpt>
      <trkpt lat="50.960093" lon="8.537994">
        <ele>610.639798</ele>
        <time>2021-01-01T11:52:59.999Z</time>
      </trkpt>
      <trkpt lat="50.960008" lon="8.538046">
        <ele>609.428681</ele>
        <time>2021-01-01T11:53:05.998Z</time>
      </trkpt>
      <trkpt lat="50.960091" lon="8.537963">
        <ele>608.124494</ele>
        <time>2021-01-01T11:53:25.998Z</time>
      </trkpt>
      <trkpt lat="50.960176" lon="8.537920">
        <ele>606.938391</ele>
        <time>2021-01-01T11:53:35.998Z</time>
      </trkpt>
      <trkpt lat="50.960268" lon="8.537861">
        <ele>605.619181</ele>
        <time>2021-01-01T11:53:42.998Z</time>
      </trkpt>
      <trkpt lat="50.960486" lon="8.537690">
        <ele>602.386301</ele>
        <time>2021-01-01T11:54:42.997Z</time>
      </trkpt>
      <trkpt lat="50.960571" lon="8.537630">
        <ele>601.149517</ele>
        <time>2021-01-01T11:54:50.997Z</time>
      </trkpt>
      <trkpt lat="50.960660" lon="8.537596">
        <ele>599.932441</ele>
        <time>2021-01-01T11:54:57.997Z</time>
      </trkpt>
      <trkpt lat="50.960738" lon="8.537519">
        <ele>598.657151</ele>
        <time>2021-01-01T11:55:04.997Z</time>
      </trkpt>
      <trkpt lat="50.960827" lon="8.537457">
        <ele>597.140084</ele>
        <time>2021-01-01T11:55:12.997Z</time>
      </trkpt>
      <trkpt lat="50.960947" lon="8.537452">
        <ele>595.266331</ele>
        <time>2021-01-01T11:55:19.997Z</time>
      </trkpt>
      <trkpt lat="50.961045" lon="8.537441">
        <ele>593.732808</ele>
        <time>2021-01-01T11:55:25.997Z</time>
      </trkpt>
      <trkpt lat="50.961116" lon="8.537352">
        <ele>592.320769</ele>
        <time>2021-01-01T11:55:34.997Z</time>
      </trkpt>
      <trkpt lat="50.961181" lon="8.537232">
        <ele>590.764725</ele>
        <time>2021-01-01T11:55:44.997Z</time>
      </trkpt>
      <trkpt lat="50.961245" lon="8.537118">
        <ele>589.263347</ele>
        <time>2021-01-01T11:55:56.997Z</time>
      </trkpt>
      <trkpt lat="50.961314" lon="8.537023">
        <ele>587.837747</ele>
        <time>2021-01-01T11:56:03.997Z</time>
      </trkpt>
      <trkpt lat="50.961404" lon="8.536989">
        <ele>586.393696</ele>
        <time>2021-01-01T11:56:23.996Z</time>
      </trkpt>
      <trkpt lat="50.961477" lon="8.536886">
        <ele>584.869287</ele>
        <time>2021-01-01T11:56:36.996Z</time>
      </trkpt>
      <trkpt lat="50.961546" lon="8.536767">
        <ele>583.279083</ele>
        <time>2021-01-01T11:56:49.996Z</time>
      </trkpt>
      <trkpt lat="50.961620" lon="8.536682">
        <ele>581.853407</ele>
        <time>2021-01-01T11:56:59.996Z</time>
      </trkpt>
      <trkpt lat="50.961684" lon="8.536570">
        <ele>580.366658</ele>
        <time>2021-01-01T11:57:06.996Z</time>
      </trkpt>
      <trkpt lat="50.961757" lon="8.536456">
        <ele>578.768369</ele>
        <time>2021-01-01T11:57:15.996Z</time>
      </trkpt>
      <trkpt lat="50.961808" lon="8.536329">
        <ele>577.287603</ele>
        <time>2021-01-01T11:57:23.996Z</time>
      </trkpt>
      <trkpt lat="50.961888" lon="8.536224">
        <ele>575.667430</ele>
        <time>2021-01-01T11:57:32.996Z</time>
      </trkpt>
      <trkpt lat="50.961976" lon="8.536140">
        <ele>574.064682</ele>
        <time>2021-01-01T11:57:42.996Z</time>
      </trkpt>
      <trkpt lat="50.962058" lon="8.536063">
        <ele>572.577622</ele>
        <time>2021-01-01T11:57:50.995Z</time>
      </trkpt>
      <trkpt lat="50.962151" lon="8.536056">
        <ele>571.124333</ele>
        <time>2021-01-01T11:58:02.995Z</time>
      </trkpt>
      <trkpt lat="50.962243" lon="8.536023">
        <ele>569.520826</ele>
        <time>2021-01-01T11:58:11.995Z</time>
      </trkpt>
      <trkpt lat="50.962282" lon="8.535893">
        <ele>567.961668</ele>
        <time>2021-01-01T11:58:34.998Z</time>
      </trkpt>
      <trkpt lat="50.962366" lon="8.535842">
        <ele>566.415573</ele>
        <time>2021-01-01T11:58:45.999Z</time>
      </trkpt>
      <trkpt lat="50.962440" lon="8.535759">
        <ele>564.857958</ele>
        <time>2021-01-01T11:58:55.999Z</time>
      </trkpt>
      <trkpt lat="50.962527" lon="8.535689">
        <ele>563.181184</ele>
        <time>2021-01-01T11:59:02.999Z</time>
      </trkpt>
      <trkpt lat="50.962616" lon="8.535648">
        <ele>561.588011</ele>
        <time>2021-01-01T11:59:12.999Z</time>
      </trkpt>
      <trkpt lat="50.962704" lon="8.535603">
        <ele>559.998604</ele>
        <time>2021-01-01T11:59:22.999Z</time>
      </trkpt>
      <trkpt lat="50.962796" lon="8.535599">
        <ele>558.416365</ele>
        <time>2021-01-01T11:59:34.999Z</time>
      </trkpt>
      <trkpt lat="50.962888" lon="8.535564">
        <ele>556.789951</ele>
        <time>2021-01-01T11:59:43.999Z</time>
      </trkpt>
      <trkpt lat="50.962978" lon="8.535530">
        <ele>555.199495</ele>
        <time>2021-01-01T11:59:50.998Z</time>
      </trkpt>
      <trkpt lat="50.963080" lon="8.535503">
        <ele>553.421729</ele>
        <time>2021-01-01T11:59:58.998Z</time>
      </trkpt>
      <trkpt lat="50.963169" lon="8.535473">
        <ele>551.857558</ele>
        <time>2021-01-01T12:00:05.998Z</time>
      </trkpt>
      <trkpt lat="50.963257" lon="8.535428">
        <ele>550.268153</ele>
        <time>2021-01-01T12:00:13.998Z</time>
      </trkpt>
      <trkpt lat="50.963353" lon="8.535404">
        <ele>548.597407</ele>
        <time>2021-01-01T12:00:22.998Z</time>
      </trkpt>
      <trkpt lat="50.963451" lon="8.535447">
        <ele>546.849462</ele>
        <time>2021-01-01T12:00:32.998Z</time>
      </trkpt>
      <trkpt lat="50.963542" lon="8.535482">
        <ele>545.239763</ele>
        <time>2021-01-01T12:00:38.998Z</time>
      </trkpt>
      <trkpt lat="50.963636" lon="8.535516">
        <ele>543.582332</ele>
        <time>2021-01-01T12:00:46.998Z</time>
      </trkpt>
      <trkpt lat="50.963727" lon="8.535525">
        <ele>542.014846</ele>
        <time>2021-01-01T12:00:53.998Z</time>
      </trkpt>
      <trkpt lat="50.963820" lon="8.535535">
        <ele>540.412347</ele>
        <time>2021-01-01T12:01:04.998Z</time>
      </trkpt>
      <trkpt lat="50.963912" lon="8.535533">
        <ele>539.495732</ele>
        <time>2021-01-01T12:01:12.998Z</time>
      </trkpt>
      <trkpt lat="50.964006" lon="8.535520">
        <ele>538.777031</ele>
        <time>2021-01-01T12:01:19.998Z</time>
      </trkpt>
      <trkpt lat="50.964095" lon="8.535456">
        <ele>538.032843</ele>
        <time>2021-01-01T12:01:27.997Z</time>
      </trkpt>
      <trkpt lat="50.964171" lon="8.535364">
        <ele>537.304908</ele>
        <time>2021-01-01T12:01:37.997Z</time>
      </trkpt>
      <trkpt lat="50.964269" lon="8.535355">
        <ele>536.557204</ele>
        <time>2021-01-01T12:01:46.997Z</time>
      </trkpt>
      <trkpt lat="50.964358" lon="8.535320">
        <ele>535.858816</ele>
        <time>2021-01-01T12:01:55.997Z</time>
      </trkpt>
      <trkpt lat="50.964453" lon="8.535273">
        <ele>535.100897</ele>
        <time>2021-01-01T12:02:05.997Z</time>
      </trkpt>
      <trkpt lat="50.964541" lon="8.535231">
        <ele>534.400982</ele>
        <time>2021-01-01T12:02:15.997Z</time>
      </trkpt>
      <trkpt lat="50.964629" lon="8.535128">
        <ele>533.568261</ele>
        <time>2021-01-01T12:02:25.997Z</time>
      </trkpt>
      <trkpt lat="50.964718" lon="8.535066">
        <ele>532.827981</ele>
        <time>2021-01-01T12:02:32.997Z</time>
      </trkpt>
      <trkpt lat="50.964803" lon="8.535014">
        <ele>532.134151</ele>
        <time>2021-01-01T12:02:39.997Z</time>
      </trkpt>
      <trkpt lat="50.964896" lon="8.534978">
        <ele>531.405031</ele>
        <time>2021-01-01T12:02:48.997Z</time>
      </trkpt>
      <trkpt lat="50.964978" lon="8.534910">
        <ele>530.700392</ele>
        <time>2021-01-01T12:02:56.996Z</time>
      </trkpt>
      <trkpt lat="50.965061" lon="8.534807">
        <ele>529.898010</ele>
        <time>2021-01-01T12:03:04.996Z</time>
      </trkpt>
      <trkpt lat="50.965133" lon="8.534676">
        <ele>529.063942</ele>
        <time>2021-01-01T12:03:12.996Z</time>
      </trkpt>
      <trkpt lat="50.965203" lon="8.534574">
        <ele>528.340270</ele>
        <time>2021-01-01T12:03:18.996Z</time>
      </trkpt>
      <trkpt lat="50.965282" lon="8.534480">
        <ele>527.588327</ele>
        <time>2021-01-01T12:03:23.996Z</time>
      </trkpt>
      <trkpt lat="50.965337" lon="8.534362">
        <ele>526.884112</ele>
        <time>2021-01-01T12:03:29.996Z</time>
      </trkpt>
      <trkpt lat="50.965350" lon="8.534218">
        <ele>526.208271</ele>
        <time>2021-01-01T12:03:36.996Z</time>
      </trkpt>
      <trkpt lat="50.965359" lon="8.534071">
        <ele>525.612291</ele>
        <time>2021-01-01T12:03:43.996Z</time>
      </trkpt>
      <trkpt lat="50.965407" lon="8.534201">
        <ele>525.004199</ele>
        <time>2021-01-01T12:04:04.996Z</time>
      </trkpt>
      <trkpt lat="50.965468" lon="8.534319">
        <ele>524.388172</ele>
        <time>2021-01-01T12:04:10.996Z</time>
      </trkpt>
      <trkpt lat="50.965526" lon="8.534429">
        <ele>523.809267</ele>
        <time>2021-01-01T12:04:18.996Z</time>
      </trkpt>
      <trkpt lat="50.965600" lon="8.534521">
        <ele>523.207078</ele>
        <time>2021-01-01T12:04:27.995Z</time>
      </trkpt>
      <trkpt lat="50.965660" lon="8.534636">
        <ele>522.604469</ele>
        <time>2021-01-01T12:04:35.995Z</time>
      </trkpt>
      <trkpt lat="50.965714" lon="8.534756">
        <ele>522.009331</ele>
        <time>2021-01-01T12:04:42.995Z</time>
      </trkpt>
      <trkpt lat="50.965775" lon="8.534869">
        <ele>521.408765</ele>
        <time>2021-01-01T12:04:49.995Z</time>
      </trkpt>
      <trkpt lat="50.965843" lon="8.534982">
        <ele>520.778091</ele>
        <time>2021-01-01T12:04:57.995Z</time>
      </trkpt>
      <trkpt lat="50.965902" lon="8.535094">
        <ele>520.188887</ele>
        <time>2021-01-01T12:05:06.995Z</time>
      </trkpt>
      <trkpt lat="50.965951" lon="8.535230">
        <ele>519.556637</ele>
        <time>2021-01-01T12:05:14.995Z</time>
      </trkpt>
      <trkpt lat="50.966023" lon="8.535324">
        <ele>518.959395</ele>
        <time>2021-01-01T12:05:24.995Z</time>
      </trkpt>
      <trkpt lat="50.966089" lon="8.535424">
        <ele>518.374880</ele>
        <time>2021-01-01T12:05:29.996Z</time>
      </trkpt>
      <trkpt lat="50.966153" lon="8.535526">
        <ele>517.793879</ele>
        <time>2021-01-01T12:05:37.997Z</time>
      </trkpt>
      <trkpt lat="50.966240" lon="8.535628">
        <ele>517.100957</ele>
        <time>2021-01-01T12:05:45.998Z</time>
      </trkpt>
      <trkpt lat="50.966318" lon="8.535711">
        <ele>516.499340</ele>
        <time>2021-01-01T12:05:52.999Z</time>
      </trkpt>
      <trkpt lat="50.966394" lon="8.535815">
        <ele>515.856504</ele>
        <time>2021-01-01T12:06:00.999Z</time>
      </trkpt>
      <trkpt lat="50.966453" lon="8.535949">
        <ele>515.196748</ele>
        <time>2021-01-01T12:06:07.999Z</time>
      </trkpt>
      <trkpt lat="50.966492" lon="8.536087">
        <ele>514.528638</ele>
        <time>2021-01-01T12:06:13.999Z</time>
      </trkpt>
      <trkpt lat="50.966533" lon="8.536219">
        <ele>513.774382</ele>
        <time>2021-01-01T12:06:21.999Z</time>
      </trkpt>
      <trkpt lat="50.966614" lon="8.536288">
        <ele>513.026400</ele>
        <time>2021-01-01T12:06:26.999Z</time>
      </trkpt>
      <trkpt lat="50.966685" lon="8.536382">
        <ele>512.274173</ele>
        <time>2021-01-01T12:06:30.999Z</time>
      </trkpt>
      <trkpt lat="50.966736" lon="8.536507">
        <ele>511.510909</ele>
        <time>2021-01-01T12:06:35.999Z</time>
      </trkpt>
      <trkpt lat="50.966770" lon="8.536641">
        <ele>510.770567</ele>
        <time>2021-01-01T12:06:44.999Z</time>
      </trkpt>
      <trkpt lat="50.966822" lon="8.536777">
        <ele>509.955222</ele>
        <time>2021-01-01T12:06:51.999Z</time>
      </trkpt>
      <trkpt lat="50.966875" lon="8.536916">
        <ele>509.122512</ele>
        <time>2021-01-01T12:07:01.999Z</time>
      </trkpt>
      <trkpt lat="50.966938" lon="8.537058">
        <ele>508.232369</ele>
        <time>2021-01-01T12:07:07.999Z</time>
      </trkpt>
      <trkpt lat="50.967003" lon="8.537191">
        <ele>507.369637</ele>
        <time>2021-01-01T12:07:15.999Z</time>
      </trkpt>
      <trkpt lat="50.967055" lon="8.537324">
        <ele>506.567396</ele>
        <time>2021-01-01T12:07:22.999Z</time>
      </trkpt>
      <trkpt lat="50.967129" lon="8.537444">
        <ele>505.706719</ele>
        <time>2021-01-01T12:07:29.998Z</time>
      </trkpt>
      <trkpt lat="50.967191" lon="8.537578">
        <ele>504.854613</ele>
        <time>2021-01-01T12:07:36.998Z</time>
      </trkpt>
      <trkpt lat="50.967252" lon="8.537704">
        <ele>504.040170</ele>
        <time>2021-01-01T12:07:42.998Z</time>
      </trkpt>
      <trkpt lat="50.967330" lon="8.537809">
        <ele>503.208071</ele>
        <time>2021-01-01T12:07:49.998Z</time>
      </trkpt>
      <trkpt lat="50.967388" lon="8.537946">
        <ele>502.362111</ele>
        <time>2021-01-01T12:07:55.998Z</time>
      </trkpt>
      <trkpt lat="50.967424" lon="8.538086">
        <ele>501.587168</ele>
        <time>2021-01-01T12:08:02.998Z</time>
      </trkpt>
      <trkpt lat="50.967474" lon="8.538219">
        <ele>500.793396</ele>
        <time>2021-01-01T12:08:11.998Z</time>
      </trkpt>
      <trkpt lat="50.967545" lon="8.538319">
        <ele>500.057411</ele>
        <time>2021-01-01T12:08:18.998Z</time>
      </trkpt>
      <trkpt lat="50.967621" lon="8.538398">
        <ele>499.505727</ele>
        <time>2021-01-01T12:08:27.998Z</time>
      </trkpt>
      <trkpt lat="50.967701" lon="8.538497">
        <ele>498.889730</ele>
        <time>2021-01-01T12:08:34.998Z</time>
      </trkpt>
      <trkpt lat="50.967751" lon="8.538620">
        <ele>498.329786</ele>
        <time>2021-01-01T12:08:43.998Z</time>
      </trkpt>
      <trkpt lat="50.967797" lon="8.538763">
        <ele>497.715621</ele>
        <time>2021-01-01T12:08:50.998Z</time>
      </trkpt>
      <trkpt lat="50.967857" lon="8.538879">
        <ele>497.141481</ele>
        <time>2021-01-01T12:08:55.998Z</time>
      </trkpt>
      <trkpt lat="50.967930" lon="8.538986">
        <ele>496.538113</ele>
        <time>2021-01-01T12:09:01.998Z</time>
      </trkpt>
      <trkpt lat="50.968001" lon="8.539112">
        <ele>495.891436</ele>
        <time>2021-01-01T12:09:08.997Z</time>
      </trkpt>
      <trkpt lat="50.968079" lon="8.539228">
        <ele>495.242389</ele>
        <time>2021-01-01T12:09:15.997Z</time>
      </trkpt>
      <trkpt lat="50.968147" lon="8.539346">
        <ele>494.630627</ele>
        <time>2021-01-01T12:09:22.997Z</time>
      </trkpt>
      <trkpt lat="50.968243" lon="8.539394">
        <ele>494.019359</ele>
        <time>2021-01-01T12:09:30.997Z</time>
      </trkpt>
      <trkpt lat="50.968332" lon="8.539416">
        <ele>493.472315</ele>
        <time>2021-01-01T12:09:38.997Z</time>
      </trkpt>
      <trkpt lat="50.968431" lon="8.539466">
        <ele>492.841367</ele>
        <time>2021-01-01T12:09:45.997Z</time>
      </trkpt>
      <trkpt lat="50.968523" lon="8.539517">
        <ele>492.249544</ele>
        <time>2021-01-01T12:09:56.996Z</time>
      </trkpt>
      <trkpt lat="50.968601" lon="8.539597">
        <ele>491.685595</ele>
        <time>2021-01-01T12:10:04.996Z</time>
      </trkpt>
      <trkpt lat="50.968675" lon="8.539704">
        <ele>491.077754</ele>
        <time>2021-01-01T12:10:11.996Z</time>
      </trkpt>
      <trkpt lat="50.968740" lon="8.539810">
        <ele>490.511884</ele>
        <time>2021-01-01T12:10:17.996Z</time>
      </trkpt>
      <trkpt lat="50.968822" lon="8.539883">
        <ele>489.940939</ele>
        <time>2021-01-01T12:10:27.996Z</time>
      </trkpt>
      <trkpt lat="50.968884" lon="8.540008">
        <ele>489.332369</ele>
        <time>2021-01-01T12:10:34.996Z</time>
      </trkpt>
      <trkpt lat="50.968961" lon="8.540083">
        <ele>488.532115</ele>
        <time>2021-01-01T12:10:42.996Z</time>
      </trkpt>
      <trkpt lat="50.969039" lon="8.540193">
        <ele>487.549326</ele>
        <time>2021-01-01T12:10:49.995Z</time>
      </trkpt>
      <trkpt lat="50.969141" lon="8.540259">
        <ele>486.511673</ele>
        <time>2021-01-01T12:10:55.995Z</time>
      </trkpt>
      <trkpt lat="50.969233" lon="8.540298">
        <ele>485.614592</ele>
        <time>2021-01-01T12:11:04.995Z</time>
      </trkpt>
      <trkpt lat="50.969324" lon="8.540372">
        <ele>484.651411</ele>
        <time>2021-01-01T12:11:09.995Z</time>
      </trkpt>
      <trkpt lat="50.969413" lon="8.540426">
        <ele>483.753826</ele>
        <time>2021-01-01T12:11:15.995Z</time>
      </trkpt>
      <trkpt lat="50.969511" lon="8.540485">
        <ele>482.766446</ele>
        <time>2021-01-01T12:11:21.995Z</time>
      </trkpt>
      <trkpt lat="50.969600" lon="8.540537">
        <ele>481.873027</ele>
        <time>2021-01-01T12:11:27.995Z</time>
      </trkpt>
      <trkpt lat="50.969673" lon="8.540641">
        <ele>480.949089</ele>
        <time>2021-01-01T12:11:33.995Z</time>
      </trkpt>
      <trkpt lat="50.969736" lon="8.540758">
        <ele>480.035812</ele>
        <time>2021-01-01T12:11:41.995Z</time>
      </trkpt>
      <trkpt lat="50.969806" lon="8.540867">
        <ele>479.112196</ele>
        <time>2021-01-01T12:11:48.995Z</time>
      </trkpt>
      <trkpt lat="50.969886" lon="8.540962">
        <ele>478.171092</ele>
        <time>2021-01-01T12:11:54.995Z</time>
      </trkpt>
      <trkpt lat="50.969952" lon="8.541066">
        <ele>477.295136</ele>
        <time>2021-01-01T12:12:00.995Z</time>
      </trkpt>
      <trkpt lat="50.970029" lon="8.541171">
        <ele>476.338964</ele>
        <time>2021-01-01T12:12:08.995Z</time>
      </trkpt>
      <trkpt lat="50.970099" lon="8.541285">
        <ele>475.394345</ele>
        <time>2021-01-01T12:12:15.995Z</time>
      </trkpt>
      <trkpt lat="50.970166" lon="8.541392">
        <ele>474.499148</ele>
        <time>2021-01-01T12:12:23.994Z</time>
      </trkpt>
      <trkpt lat="50.970239" lon="8.541485">
        <ele>473.617455</ele>
        <time>2021-01-01T12:12:31.996Z</time>
      </trkpt>
      <trkpt lat="50.970320" lon="8.541589">
        <ele>472.636131</ele>
        <time>2021-01-01T12:12:37.996Z</time>
      </trkpt>
      <trkpt lat="50.970399" lon="8.541684">
        <ele>472.025324</ele>
        <time>2021-01-01T12:12:44.997Z</time>
      </trkpt>
      <trkpt lat="50.970472" lon="8.541776">
        <ele>471.625399</ele>
        <time>2021-01-01T12:12:51.998Z</time>
      </trkpt>
      <trkpt lat="50.970539" lon="8.541873">
        <ele>471.236333</ele>
        <time>2021-01-01T12:12:59.998Z</time>
      </trkpt>
      <trkpt lat="50.970604" lon="8.541974">
        <ele>470.846085</ele>
        <time>2021-01-01T12:13:04.998Z</time>
      </trkpt>
      <trkpt lat="50.970680" lon="8.542053">
        <ele>470.456292</ele>
        <time>2021-01-01T12:13:10.998Z</time>
      </trkpt>
      <trkpt lat="50.970768" lon="8.542130">
        <ele>470.025131</ele>
        <time>2021-01-01T12:13:17.998Z</time>
      </trkpt>
      <trkpt lat="50.970842" lon="8.542216">
        <ele>469.631625</ele>
        <time>2021-01-01T12:13:23.998Z</time>
      </trkpt>
      <trkpt lat="50.970922" lon="8.542284">
        <ele>469.242240</ele>
        <time>2021-01-01T12:13:30.998Z</time>
      </trkpt>
      <trkpt lat="50.970989" lon="8.542400">
        <ele>468.816890</ele>
        <time>2021-01-01T12:13:38.998Z</time>
      </trkpt>
      <trkpt lat="50.971082" lon="8.542496">
        <ele>468.340899</ele>
        <time>2021-01-01T12:13:47.998Z</time>
      </trkpt>
      <trkpt lat="50.971150" lon="8.542594">
        <ele>467.946843</ele>
        <time>2021-01-01T12:13:53.998Z</time>
      </trkpt>
      <trkpt lat="50.971235" lon="8.542646">
        <ele>467.555956</ele>
        <time>2021-01-01T12:14:02.998Z</time>
      </trkpt>
      <trkpt lat="50.971309" lon="8.542755">
        <ele>467.122832</ele>
        <time>2021-01-01T12:14:09.998Z</time>
      </trkpt>
      <trkpt lat="50.971395" lon="8.542821">
        <ele>466.712949</ele>
        <time>2021-01-01T12:14:17.998Z</time>
      </trkpt>
      <trkpt lat="50.971483" lon="8.542860">
        <ele>466.320889</ele>
        <time>2021-01-01T12:14:24.998Z</time>
      </trkpt>
      <trkpt lat="50.971575" lon="8.542908">
        <ele>465.905333</ele>
        <time>2021-01-01T12:14:32.998Z</time>
      </trkpt>
      <trkpt lat="50.971666" lon="8.542974">
        <ele>465.476030</ele>
        <time>2021-01-01T12:14:38.998Z</time>
      </trkpt>
      <trkpt lat="50.971737" lon="8.543083">
        <ele>465.052256</ele>
        <time>2021-01-01T12:14:45.998Z</time>
      </trkpt>
      <trkpt lat="50.971813" lon="8.543169">
        <ele>464.651795</ele>
        <time>2021-01-01T12:14:52.998Z</time>
      </trkpt>
      <trkpt lat="50.971885" lon="8.543350">
        <ele>463.835996</ele>
        <time>2021-01-01T12:14:57.998Z</time>
      </trkpt>
      <trkpt lat="50.971908" lon="8.543489">
        <ele>463.264663</ele>
        <time>2021-01-01T12:15:05.997Z</time>
      </trkpt>
      <trkpt lat="50.971965" lon="8.543628">
        <ele>462.605250</ele>
        <time>2021-01-01T12:15:14.997Z</time>
      </trkpt>
      <trkpt lat="50.972052" lon="8.543701">
        <ele>461.984060</ele>
        <time>2021-01-01T12:15:21.997Z</time>
      </trkpt>
      <trkpt lat="50.972122" lon="8.543802">
        <ele>461.386985</ele>
        <time>2021-01-01T12:15:29.997Z</time>
      </trkpt>
      <trkpt lat="50.972155" lon="8.543941">
        <ele>460.796446</ele>
        <time>2021-01-01T12:15:34.997Z</time>
      </trkpt>
      <trkpt lat="50.972189" lon="8.544084">
        <ele>460.188801</ele>
        <time>2021-01-01T12:15:39.997Z</time>
      </trkpt>
      <trkpt lat="50.972248" lon="8.544215">
        <ele>459.548540</ele>
        <time>2021-01-01T12:15:44.997Z</time>
      </trkpt>
      <trkpt lat="50.972318" lon="8.544341">
        <ele>458.880573</ele>
        <time>2021-01-01T12:15:52.997Z</time>
      </trkpt>
      <trkpt lat="50.972388" lon="8.544457">
        <ele>458.241875</ele>
        <time>2021-01-01T12:16:02.997Z</time>
      </trkpt>
      <trkpt lat="50.972482" lon="8.544530">
        <ele>457.581290</ele>
        <time>2021-01-01T12:16:09.997Z</time>
      </trkpt>
      <trkpt lat="50.972549" lon="8.544646">
        <ele>456.955547</ele>
        <time>2021-01-01T12:16:15.997Z</time>
      </trkpt>
      <trkpt lat="50.972623" lon="8.544731">
        <ele>456.378987</ele>
        <time>2021-01-01T12:16:22.997Z</time>
      </trkpt>
      <trkpt lat="50.972686" lon="8.544832">
        <ele>455.813842</ele>
        <time>2021-01-01T12:16:29.997Z</time>
      </trkpt>
      <trkpt lat="50.972779" lon="8.545009">
        <ele>454.897440</ele>
        <time>2021-01-01T12:16:39.997Z</time>
      </trkpt>
      <trkpt lat="50.972815" lon="8.545176">
        <ele>454.195744</ele>
        <time>2021-01-01T12:16:42.997Z</time>
      </trkpt>
      <trkpt lat="50.972845" lon="8.545320">
        <ele>453.592789</ele>
        <time>2021-01-01T12:16:47.996Z</time>
      </trkpt>
      <trkpt lat="50.972854" lon="8.545470">
        <ele>452.918739</ele>
        <time>2021-01-01T12:16:52.996Z</time>
      </trkpt>
      <trkpt lat="50.972887" lon="8.545606">
        <ele>452.148732</ele>
        <time>2021-01-01T12:17:00.996Z</time>
      </trkpt>
      <trkpt lat="50.972948" lon="8.545716">
        <ele>451.374353</ele>
        <time>2021-01-01T12:17:09.996Z</time>
      </trkpt>
      <trkpt lat="50.973020" lon="8.545817">
        <ele>450.568348</ele>
        <time>2021-01-01T12:17:19.996Z</time>
      </trkpt>
      <trkpt lat="50.973081" lon="8.545943">
        <ele>449.728672</ele>
        <time>2021-01-01T12:17:25.996Z</time>
      </trkpt>
      <trkpt lat="50.973132" lon="8.546080">
        <ele>448.887863</ele>
        <time>2021-01-01T12:17:30.996Z</time>
      </trkpt>
      <trkpt lat="50.973229" lon="8.546069">
        <ele>448.071953</ele>
        <time>2021-01-01T12:17:37.996Z</time>
      </trkpt>
      <trkpt lat="50.973318" lon="8.546137">
        <ele>447.243310</ele>
        <time>2021-01-01T12:17:47.996Z</time>
      </trkpt>
      <trkpt lat="50.973314" lon="8.546300">
        <ele>446.381513</ele>
        <time>2021-01-01T12:18:17.996Z</time>
      </trkpt>
      <trkpt lat="50.973337" lon="8.546441">
        <ele>445.612009</ele>
        <time>2021-01-01T12:18:23.996Z</time>
      </trkpt>
      <trkpt lat="50.973373" lon="8.546573">
        <ele>444.852042</ele>
        <time>2021-01-01T12:18:27.995Z</time>
      </trkpt>
      <trkpt lat="50.973409" lon="8.546716">
        <ele>444.038420</ele>
        <time>2021-01-01T12:18:32.995Z</time>
      </trkpt>
      <trkpt lat="50.973473" lon="8.546825">
        <ele>443.251056</ele>
        <time>2021-01-01T12:18:38.995Z</time>
      </trkpt>
      <trkpt lat="50.973526" lon="8.546951">
        <ele>442.450527</ele>
        <time>2021-01-01T12:18:46.995Z</time>
      </trkpt>
      <trkpt lat="50.973602" lon="8.547046">
        <ele>441.639055</ele>
        <time>2021-01-01T12:18:56.995Z</time>
      </trkpt>
      <trkpt lat="50.973690" lon="8.547130">
        <ele>440.777623</ele>
        <time>2021-01-01T12:19:02.995Z</time>
      </trkpt>
      <trkpt lat="50.973747" lon="8.547264">
        <ele>439.923299</ele>
        <time>2021-01-01T12:19:08.995Z</time>
      </trkpt>
      <trkpt lat="50.973808" lon="8.547401">
        <ele>439.036853</ele>
        <time>2021-01-01T12:19:15.995Z</time>
      </trkpt>
      <trkpt lat="50.973842" lon="8.547538">
        <ele>438.258891</ele>
        <time>2021-01-01T12:19:22.995Z</time>
      </trkpt>
      <trkpt lat="50.973901" lon="8.547649">
        <ele>437.618228</ele>
        <time>2021-01-01T12:19:29.995Z</time>
      </trkpt>
      <trkpt lat="50.973966" lon="8.547765">
        <ele>436.960425</ele>
        <time>2021-01-01T12:19:34.996Z</time>
      </trkpt>
      <trkpt lat="50.974007" lon="8.547906">
        <ele>436.302505</ele>
        <time>2021-01-01T12:19:41.997Z</time>
      </trkpt>
      <trkpt lat="50.974065" lon="8.548033">
        <ele>435.637899</ele>
        <time>2021-01-01T12:19:49.998Z</time>
      </trkpt>
      <trkpt lat="50.974134" lon="8.548138">
        <ele>434.994986</ele>
        <time>2021-01-01T12:19:55.998Z</time>
      </trkpt>
      <trkpt lat="50.974233" lon="8.548237">
        <ele>434.207911</ele>
        <time>2021-01-01T12:20:00.998Z</time>
      </trkpt>
      <trkpt lat="50.974292" lon="8.548360">
        <ele>433.552892</ele>
        <time>2021-01-01T12:20:05.998Z</time>
      </trkpt>
      <trkpt lat="50.974340" lon="8.548497">
        <ele>432.888741</ele>
        <time>2021-01-01T12:20:12.999Z</time>
      </trkpt>
      <trkpt lat="50.974389" lon="8.548637">
        <ele>432.210214</ele>
        <time>2021-01-01T12:20:19.999Z</time>
      </trkpt>
      <trkpt lat="50.974446" lon="8.548780">
        <ele>431.493266</ele>
        <time>2021-01-01T12:20:25.999Z</time>
      </trkpt>
      <trkpt lat="50.974525" lon="8.548865">
        <ele>430.851294</ele>
        <time>2021-01-01T12:20:31.999Z</time>
      </trkpt>
      <trkpt lat="50.974597" lon="8.548971">
        <ele>430.190790</ele>
        <time>2021-01-01T12:20:38.998Z</time>
      </trkpt>
      <trkpt lat="50.974677" lon="8.549078">
        <ele>429.487139</ele>
        <time>2021-01-01T12:20:43.998Z</time>
      </trkpt>
      <trkpt lat="50.974716" lon="8.549220">
        <ele>428.830874</ele>
        <time>2021-01-01T12:20:51.998Z</time>
      </trkpt>
      <trkpt lat="50.974788" lon="8.549346">
        <ele>428.110091</ele>
        <time>2021-01-01T12:20:58.998Z</time>
      </trkpt>
      <trkpt lat="50.974863" lon="8.549463">
        <ele>427.402813</ele>
        <time>2021-01-01T12:21:07.998Z</time>
      </trkpt>
      <trkpt lat="50.974931" lon="8.549591">
        <ele>426.693380</ele>
        <time>2021-01-01T12:21:13.998Z</time>
      </trkpt>
      <trkpt lat="50.974991" lon="8.549716">
        <ele>426.025825</ele>
        <time>2021-01-01T12:21:20.998Z</time>
      </trkpt>
      <trkpt lat="50.975053" lon="8.549831">
        <ele>425.013630</ele>
        <time>2021-01-01T12:21:28.998Z</time>
      </trkpt>
      <trkpt lat="50.975136" lon="8.549906">
        <ele>423.999665</ele>
        <time>2021-01-01T12:21:37.998Z</time>
      </trkpt>
      <trkpt lat="50.975192" lon="8.550025">
        <ele>423.006413</ele>
        <time>2021-01-01T12:21:44.998Z</time>
      </trkpt>
      <trkpt lat="50.975214" lon="8.550201">
        <ele>421.806759</ele>
        <time>2021-01-01T12:21:48.998Z</time>
      </trkpt>
      <trkpt lat="50.975260" lon="8.550340">
        <ele>420.756903</ele>
        <time>2021-01-01T12:21:53.998Z</time>
      </trkpt>
      <trkpt lat="50.975290" lon="8.550479">
        <ele>419.774508</ele>
        <time>2021-01-01T12:21:59.998Z</time>
      </trkpt>
      <trkpt lat="50.975351" lon="8.550595">
        <ele>418.764068</ele>
        <time>2021-01-01T12:22:04.998Z</time>
      </trkpt>
      <trkpt lat="50.975421" lon="8.550713">
        <ele>417.680173</ele>
        <time>2021-01-01T12:22:09.998Z</time>
      </trkpt>
      <trkpt lat="50.975454" lon="8.550848">
        <ele>416.711972</ele>
        <time>2021-01-01T12:22:14.998Z</time>
      </trkpt>
      <trkpt lat="50.975484" lon="8.550985">
        <ele>415.742220</ele>
        <time>2021-01-01T12:22:19.997Z</time>
      </trkpt>
      <trkpt lat="50.975524" lon="8.551118">
        <ele>414.756795</ele>
        <time>2021-01-01T12:22:26.997Z</time>
      </trkpt>
      <trkpt lat="50.975583" lon="8.551232">
        <ele>413.770203</ele>
        <time>2021-01-01T12:22:32.997Z</time>
      </trkpt>
      <trkpt lat="50.975628" lon="8.551379">
        <ele>412.677412</ele>
        <time>2021-01-01T12:22:39.997Z</time>
      </trkpt>
      <trkpt lat="50.975675" lon="8.551517">
        <ele>411.628467</ele>
        <time>2021-01-01T12:22:45.997Z</time>
      </trkpt>
      <trkpt lat="50.975756" lon="8.551593">
        <ele>410.629523</ele>
        <time>2021-01-01T12:22:53.997Z</time>
      </trkpt>
      <trkpt lat="50.975837" lon="8.551659">
        <ele>409.662871</ele>
        <time>2021-01-01T12:23:03.997Z</time>
      </trkpt>
      <trkpt lat="50.975906" lon="8.551560">
        <ele>408.675523</ele>
        <time>2021-01-01T12:23:13.997Z</time>
      </trkpt>
      <trkpt lat="50.975984" lon="8.551471">
        <ele>407.655728</ele>
        <time>2021-01-01T12:23:21.997Z</time>
      </trkpt>
      <trkpt lat="50.976059" lon="8.551375">
        <ele>406.610916</ele>
        <time>2021-01-01T12:23:31.997Z</time>
      </trkpt>
      <trkpt lat="50.976133" lon="8.551293">
        <ele>405.582402</ele>
        <time>2021-01-01T12:23:38.997Z</time>
      </trkpt>
      <trkpt lat="50.976220" lon="8.551243">
        <ele>404.527793</ele>
        <time>2021-01-01T12:23:47.997Z</time>
      </trkpt>
      <trkpt lat="50.976316" lon="8.551246">
        <ele>403.433316</ele>
        <time>2021-01-01T12:23:56.996Z</time>
      </trkpt>
      <trkpt lat="50.976409" lon="8.551213">
        <ele>402.347110</ele>
        <time>2021-01-01T12:24:06.996Z</time>
      </trkpt>
      <trkpt lat="50.976479" lon="8.551123">
        <ele>401.320527</ele>
        <time>2021-01-01T12:24:14.996Z</time>
      </trkpt>
      <trkpt lat="50.976580" lon="8.551090">
        <ele>400.145159</ele>
        <time>2021-01-01T12:24:23.996Z</time>
      </trkpt>
      <trkpt lat="50.976672" lon="8.551034">
        <ele>399.022108</ele>
        <time>2021-01-01T12:24:31.996Z</time>
      </trkpt>
      <trkpt lat="50.976746" lon="8.550950">
        <ele>397.985318</ele>
        <time>2021-01-01T12:24:39.996Z</time>
      </trkpt>
      <trkpt lat="50.976825" lon="8.550867">
        <ele>396.905631</ele>
        <time>2021-01-01T12:24:51.996Z</time>
      </trkpt>
      <trkpt lat="50.976920" lon="8.550875">
        <ele>395.821243</ele>
        <time>2021-01-01T12:24:59.996Z</time>
      </trkpt>
      <trkpt lat="50.976990" lon="8.550771">
        <ele>394.728649</ele>
        <time>2021-01-01T12:25:07.996Z</time>
      </trkpt>
      <trkpt lat="50.977088" lon="8.550771">
        <ele>393.611586</ele>
        <time>2021-01-01T12:25:13.996Z</time>
      </trkpt>
      <trkpt lat="50.977197" lon="8.550773">
        <ele>392.369056</ele>
        <time>2021-01-01T12:25:18.996Z</time>
      </trkpt>
      <trkpt lat="50.977299" lon="8.550778">
        <ele>391.205846</ele>
        <time>2021-01-01T12:25:25.996Z</time>
      </trkpt>
      <trkpt lat="50.977390" lon="8.550776">
        <ele>390.168474</ele>
        <time>2021-01-01T12:25:33.995Z</time>
      </trkpt>
      <trkpt lat="50.977495" lon="8.550760">
        <ele>388.966125</ele>
        <time>2021-01-01T12:25:37.995Z</time>
      </trkpt>
      <trkpt lat="50.977588" lon="8.550699">
        <ele>387.819214</ele>
        <time>2021-01-01T12:25:42.995Z</time>
      </trkpt>
      <trkpt lat="50.977688" lon="8.550640">
        <ele>386.603247</ele>
        <time>2021-01-01T12:25:46.995Z</time>
      </trkpt>
      <trkpt lat="50.977710" lon="8.550492">
        <ele>386.173715</ele>
        <time>2021-01-01T12:25:50.995Z</time>
      </trkpt>
      <trkpt lat="50.977735" lon="8.550353">
        <ele>385.883797</ele>
        <time>2021-01-01T12:25:58.995Z</time>
      </trkpt>
      <trkpt lat="50.977648" lon="8.550488">
        <ele>385.496372</ele>
        <time>2021-01-01T12:26:08.995Z</time>
      </trkpt>
      <trkpt lat="50.977664" lon="8.550648">
        <ele>385.171467</ele>
        <time>2021-01-01T12:26:11.995Z</time>
      </trkpt>
      <trkpt lat="50.977671" lon="8.550798">
        <ele>384.869813</ele>
        <time>2021-01-01T12:26:17.995Z</time>
      </trkpt>
      <trkpt lat="50.977754" lon="8.550862">
        <ele>384.575925</ele>
        <time>2021-01-01T12:26:24.995Z</time>
      </trkpt>
      <trkpt lat="50.977856" lon="8.550863">
        <ele>384.251020</ele>
        <time>2021-01-01T12:26:30.995Z</time>
      </trkpt>
      <trkpt lat="50.977951" lon="8.550911">
        <ele>383.933476</ele>
        <time>2021-01-01T12:26:39.996Z</time>
      </trkpt>
      <trkpt lat="50.978058" lon="8.550947">
        <ele>383.585089</ele>
        <time>2021-01-01T12:26:43.997Z</time>
      </trkpt>
      <trkpt lat="50.978160" lon="8.550943">
        <ele>383.260091</ele>
        <time>2021-01-01T12:26:48.997Z</time>
      </trkpt>
      <trkpt lat="50.978249" lon="8.550892">
        <ele>382.958715</ele>
        <time>2021-01-01T12:26:52.997Z</time>
      </trkpt>
      <trkpt lat="50.978352" lon="8.550879">
        <ele>382.629598</ele>
        <time>2021-01-01T12:26:55.997Z</time>
      </trkpt>
      <trkpt lat="50.978462" lon="8.550848">
        <ele>382.273744</ele>
        <time>2021-01-01T12:26:59.998Z</time>
      </trkpt>
      <trkpt lat="50.978563" lon="8.550875">
        <ele>381.947507</ele>
        <time>2021-01-01T12:27:03.998Z</time>
      </trkpt>
      <trkpt lat="50.978691" lon="8.550888">
        <ele>381.538959</ele>
        <time>2021-01-01T12:27:06.998Z</time>
      </trkpt>
      <trkpt lat="50.978795" lon="8.550938">
        <ele>381.192846</ele>
        <time>2021-01-01T12:27:09.998Z</time>
      </trkpt>
      <trkpt lat="50.978893" lon="8.551016">
        <ele>380.843688</ele>
        <time>2021-01-01T12:27:11.999Z</time>
      </trkpt>
      <trkpt lat="50.978979" lon="8.551064">
        <ele>380.282266</ele>
        <time>2021-01-01T12:27:17.999Z</time>
      </trkpt>
      <trkpt lat="50.979079" lon="8.551121">
        <ele>379.323525</ele>
        <time>2021-01-01T12:27:21.999Z</time>
      </trkpt>
      <trkpt lat="50.979180" lon="8.551163">
        <ele>378.381391</ele>
        <time>2021-01-01T12:27:25.999Z</time>
      </trkpt>
      <trkpt lat="50.979268" lon="8.551218">
        <ele>377.528019</ele>
        <time>2021-01-01T12:27:29.999Z</time>
      </trkpt>
      <trkpt lat="50.979379" lon="8.551267">
        <ele>376.488398</ele>
        <time>2021-01-01T12:27:34.999Z</time>
      </trkpt>
      <trkpt lat="50.979475" lon="8.551305">
        <ele>375.595607</ele>
        <time>2021-01-01T12:27:37.999Z</time>
      </trkpt>
      <trkpt lat="50.979574" lon="8.551349">
        <ele>374.667924</ele>
        <time>2021-01-01T12:27:42.999Z</time>
      </trkpt>
      <trkpt lat="50.979670" lon="8.551383">
        <ele>373.780354</ele>
        <time>2021-01-01T12:27:48.999Z</time>
      </trkpt>
      <trkpt lat="50.979783" lon="8.551449">
        <ele>372.693895</ele>
        <time>2021-01-01T12:27:53.999Z</time>
      </trkpt>
      <trkpt lat="50.979868" lon="8.551524">
        <ele>371.816453</ele>
        <time>2021-01-01T12:27:58.999Z</time>
      </trkpt>
      <trkpt lat="50.979958" lon="8.551614">
        <ele>370.856744</ele>
        <time>2021-01-01T12:28:05.999Z</time>
      </trkpt>
      <trkpt lat="50.980050" lon="8.551685">
        <ele>369.933736</ele>
        <time>2021-01-01T12:28:12.998Z</time>
      </trkpt>
      <trkpt lat="50.980144" lon="8.551742">
        <ele>369.025775</ele>
        <time>2021-01-01T12:28:20.998Z</time>
      </trkpt>
      <trkpt lat="50.980233" lon="8.551805">
        <ele>368.146500</ele>
        <time>2021-01-01T12:28:27.998Z</time>
      </trkpt>
      <trkpt lat="50.980320" lon="8.551849">
        <ele>367.322583</ele>
        <time>2021-01-01T12:28:34.998Z</time>
      </trkpt>
      <trkpt lat="50.980415" lon="8.551896">
        <ele>366.424689</ele>
        <time>2021-01-01T12:28:41.998Z</time>
      </trkpt>
      <trkpt lat="50.980514" lon="8.551941">
        <ele>365.495461</ele>
        <time>2021-01-01T12:28:48.998Z</time>
      </trkpt>
      <trkpt lat="50.980604" lon="8.552001">
        <ele>364.614673</ele>
        <time>2021-01-01T12:28:56.998Z</time>
      </trkpt>
      <trkpt lat="50.980702" lon="8.552058">
        <ele>363.775726</ele>
        <time>2021-01-01T12:29:03.998Z</time>
      </trkpt>
      <trkpt lat="50.980798" lon="8.552091">
        <ele>363.003650</ele>
        <time>2021-01-01T12:29:10.998Z</time>
      </trkpt>
      <trkpt lat="50.980901" lon="8.552138">
        <ele>362.161272</ele>
        <time>2021-01-01T12:29:17.998Z</time>
      </trkpt>
      <trkpt lat="50.980987" lon="8.552200">
        <ele>361.418898</ele>
        <time>2021-01-01T12:29:23.998Z</time>
      </trkpt>
      <trkpt lat="50.981072" lon="8.552284">
        <ele>360.631994</ele>
        <time>2021-01-01T12:29:31.998Z</time>
      </trkpt>
      <trkpt lat="50.981145" lon="8.552376">
        <ele>359.899498</ele>
        <time>2021-01-01T12:29:38.998Z</time>
      </trkpt>
      <trkpt lat="50.981235" lon="8.552464">
        <ele>359.068758</ele>
        <time>2021-01-01T12:29:46.997Z</time>
      </trkpt>
      <trkpt lat="50.981318" lon="8.552548">
        <ele>358.295159</ele>
        <time>2021-01-01T12:29:54.997Z</time>
      </trkpt>
      <trkpt lat="50.981392" lon="8.552631">
        <ele>357.583078</ele>
        <time>2021-01-01T12:30:01.997Z</time>
      </trkpt>
      <trkpt lat="50.981464" lon="8.552723">
        <ele>356.856725</ele>
        <time>2021-01-01T12:30:07.997Z</time>
      </trkpt>
      <trkpt lat="50.981540" lon="8.552823">
        <ele>356.080979</ele>
        <time>2021-01-01T12:30:17.997Z</time>
      </trkpt>
      <trkpt lat="50.981618" lon="8.552923">
        <ele>355.293063</ele>
        <time>2021-01-01T12:30:25.997Z</time>
      </trkpt>
      <trkpt lat="50.981695" lon="8.553022">
        <ele>354.514371</ele>
        <time>2021-01-01T12:30:31.997Z</time>
      </trkpt>
      <trkpt lat="50.981806" lon="8.553052">
        <ele>353.629317</ele>
        <time>2021-01-01T12:30:37.997Z</time>
      </trkpt>
      <trkpt lat="50.981902" lon="8.553002">
        <ele>352.835179</ele>
        <time>2021-01-01T12:30:42.997Z</time>
      </trkpt>
      <trkpt lat="50.982064" lon="8.552846">
        <ele>351.346045</ele>
        <time>2021-01-01T12:31:08.997Z</time>
      </trkpt>
      <trkpt lat="50.982101" lon="8.552706">
        <ele>350.594661</ele>
        <time>2021-01-01T12:31:16.997Z</time>
      </trkpt>
      <trkpt lat="50.982151" lon="8.552581">
        <ele>350.107322</ele>
        <time>2021-01-01T12:31:22.996Z</time>
      </trkpt>
      <trkpt lat="50.982220" lon="8.552454">
        <ele>349.710451</ele>
        <time>2021-01-01T12:31:32.996Z</time>
      </trkpt>
      <trkpt lat="50.982317" lon="8.552375">
        <ele>349.300818</ele>
        <time>2021-01-01T12:31:36.996Z</time>
      </trkpt>
      <trkpt lat="50.982386" lon="8.552283">
        <ele>348.962284</ele>
        <time>2021-01-01T12:31:41.996Z</time>
      </trkpt>
      <trkpt lat="50.982459" lon="8.552192">
        <ele>348.613570</ele>
        <time>2021-01-01T12:31:47.996Z</time>
      </trkpt>
      <trkpt lat="50.982536" lon="8.552088">
        <ele>348.233750</ele>
        <time>2021-01-01T12:31:54.996Z</time>
      </trkpt>
      <trkpt lat="50.982619" lon="8.551994">
        <ele>347.850687</ele>
        <time>2021-01-01T12:32:02.996Z</time>
      </trkpt>
      <trkpt lat="50.982694" lon="8.552093">
        <ele>347.484233</ele>
        <time>2021-01-01T12:32:08.996Z</time>
      </trkpt>
      <trkpt lat="50.982745" lon="8.552218">
        <ele>347.131840</ele>
        <time>2021-01-01T12:32:16.996Z</time>
      </trkpt>
      <trkpt lat="50.982831" lon="8.552151">
        <ele>346.771886</ele>
        <time>2021-01-01T12:32:24.996Z</time>
      </trkpt>
      <trkpt lat="50.982877" lon="8.551999">
        <ele>346.372899</ele>
        <time>2021-01-01T12:32:30.996Z</time>
      </trkpt>
      <trkpt lat="50.982876" lon="8.552161">
        <ele>345.989626</ele>
        <time>2021-01-01T12:32:49.996Z</time>
      </trkpt>
      <trkpt lat="50.982875" lon="8.552324">
        <ele>345.603988</ele>
        <time>2021-01-01T12:33:04.995Z</time>
      </trkpt>
      <trkpt lat="50.982864" lon="8.552478">
        <ele>345.237322</ele>
        <time>2021-01-01T12:33:11.995Z</time>
      </trkpt>
      <trkpt lat="50.982819" lon="8.552613">
        <ele>344.875938</ele>
        <time>2021-01-01T12:33:16.995Z</time>
      </trkpt>
      <trkpt lat="50.982809" lon="8.552769">
        <ele>344.504969</ele>
        <time>2021-01-01T12:33:21.995Z</time>
      </trkpt>
      <trkpt lat="50.982901" lon="8.552794">
        <ele>344.154224</ele>
        <time>2021-01-01T12:33:36.995Z</time>
      </trkpt>
      <trkpt lat="50.982968" lon="8.552688">
        <ele>343.798869</ele>
        <time>2021-01-01T12:33:43.995Z</time>
      </trkpt>
      <trkpt lat="50.983047" lon="8.552587">
        <ele>343.562540</ele>
        <time>2021-01-01T12:33:49.996Z</time>
      </trkpt>
      <trkpt lat="50.983121" lon="8.552494">
        <ele>343.538239</ele>
        <time>2021-01-01T12:33:56.997Z</time>
      </trkpt>
      <trkpt lat="50.983198" lon="8.552380">
        <ele>343.511130</ele>
        <time>2021-01-01T12:34:03.998Z</time>
      </trkpt>
      <trkpt lat="50.983292" lon="8.552291">
        <ele>343.482946</ele>
        <time>2021-01-01T12:34:11.998Z</time>
      </trkpt>
      <trkpt lat="50.983389" lon="8.552216">
        <ele>343.455162</ele>
        <time>2021-01-01T12:34:19.998Z</time>
      </trkpt>
      <trkpt lat="50.983490" lon="8.552148">
        <ele>343.426911</ele>
        <time>2021-01-01T12:34:25.999Z</time>
      </trkpt>
      <trkpt lat="50.983586" lon="8.552072">
        <ele>343.399286</ele>
        <time>2021-01-01T12:34:33.999Z</time>
      </trkpt>
      <trkpt lat="50.983682" lon="8.552017">
        <ele>343.373003</ele>
        <time>2021-01-01T12:34:40.999Z</time>
      </trkpt>
      <trkpt lat="50.983767" lon="8.551967">
        <ele>343.349659</ele>
        <time>2021-01-01T12:34:47.999Z</time>
      </trkpt>
      <trkpt lat="50.983846" lon="8.551885">
        <ele>343.325355</ele>
        <time>2021-01-01T12:34:52.999Z</time>
      </trkpt>
      <trkpt lat="50.983938" lon="8.551826">
        <ele>343.299803</ele>
        <time>2021-01-01T12:35:05.998Z</time>
      </trkpt>
      <trkpt lat="50.984026" lon="8.551757">
        <ele>343.274529</ele>
        <time>2021-01-01T12:35:13.998Z</time>
      </trkpt>
      <trkpt lat="50.984115" lon="8.551715">
        <ele>343.250617</ele>
        <time>2021-01-01T12:35:19.998Z</time>
      </trkpt>
      <trkpt lat="50.984206" lon="8.551714">
        <ele>343.227180</ele>
        <time>2021-01-01T12:35:25.998Z</time>
      </trkpt>
      <trkpt lat="50.984312" lon="8.551675">
        <ele>343.199158</ele>
        <time>2021-01-01T12:35:31.998Z</time>
      </trkpt>
      <trkpt lat="50.984404" lon="8.551650">
        <ele>343.175120</ele>
        <time>2021-01-01T12:35:35.998Z</time>
      </trkpt>
      <trkpt lat="50.984493" lon="8.551614">
        <ele>343.151467</ele>
        <time>2021-01-01T12:35:40.998Z</time>
      </trkpt>
      <trkpt lat="50.984630" lon="8.551720">
        <ele>343.112221</ele>
        <time>2021-01-01T12:36:08.998Z</time>
      </trkpt>
      <trkpt lat="50.984717" lon="8.551648">
        <ele>343.088028</ele>
        <time>2021-01-01T12:36:14.998Z</time>
      </trkpt>
      <trkpt lat="50.984808" lon="8.551629">
        <ele>343.065491</ele>
        <time>2021-01-01T12:36:20.998Z</time>
      </trkpt>
      <trkpt lat="50.984902" lon="8.551626">
        <ele>343.042404</ele>
        <time>2021-01-01T12:36:26.998Z</time>
      </trkpt>
      <trkpt lat="50.984998" lon="8.551566">
        <ele>343.017072</ele>
        <time>2021-01-01T12:36:33.998Z</time>
      </trkpt>
      <trkpt lat="50.985089" lon="8.551560">
        <ele>342.994708</ele>
        <time>2021-01-01T12:36:38.998Z</time>
      </trkpt>
      <trkpt lat="50.985185" lon="8.551522">
        <ele>342.970414</ele>
        <time>2021-01-01T12:36:44.997Z</time>
      </trkpt>
      <trkpt lat="50.985276" lon="8.551512">
        <ele>342.948016</ele>
        <time>2021-01-01T12:36:50.997Z</time>
      </trkpt>
      <trkpt lat="50.985376" lon="8.551489">
        <ele>342.923204</ele>
        <time>2021-01-01T12:36:57.997Z</time>
      </trkpt>
      <trkpt lat="50.985478" lon="8.551456">
        <ele>342.897644</ele>
        <time>2021-01-01T12:37:04.997Z</time>
      </trkpt>
      <trkpt lat="50.985570" lon="8.551447">
        <ele>342.875010</ele>
        <time>2021-01-01T12:37:11.997Z</time>
      </trkpt>
      <trkpt lat="50.985663" lon="8.551413">
        <ele>342.851577</ele>
        <time>2021-01-01T12:37:18.997Z</time>
      </trkpt>
      <trkpt lat="50.985755" lon="8.551371">
        <ele>342.828072</ele>
        <time>2021-01-01T12:37:24.997Z</time>
      </trkpt>
      <trkpt lat="50.985853" lon="8.551343">
        <ele>342.803622</ele>
        <time>2021-01-01T12:37:30.997Z</time>
      </trkpt>
      <trkpt lat="50.985955" lon="8.551331">
        <ele>342.778507</ele>
        <time>2021-01-01T12:37:37.997Z</time>
      </trkpt>
      <trkpt lat="50.986056" lon="8.551281">
        <ele>342.752530</ele>
        <time>2021-01-01T12:37:43.997Z</time>
      </trkpt>
      <trkpt lat="50.986156" lon="8.551255">
        <ele>342.727648</ele>
        <time>2021-01-01T12:37:51.997Z</time>
      </trkpt>
      <trkpt lat="50.986247" lon="8.551223">
        <ele>342.704762</ele>
        <time>2021-01-01T12:37:58.997Z</time>
      </trkpt>
      <trkpt lat="50.986346" lon="8.551209">
        <ele>342.680356</ele>
        <time>2021-01-01T12:38:06.997Z</time>
      </trkpt>
      <trkpt lat="50.986439" lon="8.551165">
        <ele>342.675520</ele>
        <time>2021-01-01T12:38:13.997Z</time>
      </trkpt>
      <trkpt lat="50.986532" lon="8.551097">
        <ele>342.690918</ele>
        <time>2021-01-01T12:38:21.997Z</time>
      </trkpt>
      <trkpt lat="50.986623" lon="8.551077">
        <ele>342.704734</ele>
        <time>2021-01-01T12:38:26.996Z</time>
      </trkpt>
      <trkpt lat="50.986705" lon="8.551016">
        <ele>342.718352</ele>
        <time>2021-01-01T12:38:32.996Z</time>
      </trkpt>
      <trkpt lat="50.986798" lon="8.550977">
        <ele>342.732818</ele>
        <time>2021-01-01T12:38:38.996Z</time>
      </trkpt>
      <trkpt lat="50.986891" lon="8.550978">
        <ele>342.746806</ele>
        <time>2021-01-01T12:38:45.996Z</time>
      </trkpt>
      <trkpt lat="50.986993" lon="8.550973">
        <ele>342.762154</ele>
        <time>2021-01-01T12:38:51.996Z</time>
      </trkpt>
      <trkpt lat="50.987081" lon="8.551021">
        <ele>342.776148</ele>
        <time>2021-01-01T12:38:57.996Z</time>
      </trkpt>
      <trkpt lat="50.987189" lon="8.551045">
        <ele>342.792549</ele>
        <time>2021-01-01T12:39:04.996Z</time>
      </trkpt>
      <trkpt lat="50.987291" lon="8.551076">
        <ele>342.808168</ele>
        <time>2021-01-01T12:39:11.996Z</time>
      </trkpt>
      <trkpt lat="50.987394" lon="8.551069">
        <ele>342.823673</ele>
        <time>2021-01-01T12:39:17.996Z</time>
      </trkpt>
      <trkpt lat="50.987490" lon="8.551074">
        <ele>342.838119</ele>
        <time>2021-01-01T12:39:25.996Z</time>
      </trkpt>
      <trkpt lat="50.987595" lon="8.551068">
        <ele>342.853921</ele>
        <time>2021-01-01T12:39:32.996Z</time>
      </trkpt>
      <trkpt lat="50.987686" lon="8.551075">
        <ele>342.867624</ele>
        <time>2021-01-01T12:39:39.996Z</time>
      </trkpt>
      <trkpt lat="50.987780" lon="8.551067">
        <ele>342.881781</ele>
        <time>2021-01-01T12:39:44.996Z</time>
      </trkpt>
      <trkpt lat="50.987868" lon="8.551033">
        <ele>342.895402</ele>
        <time>2021-01-01T12:39:50.996Z</time>
      </trkpt>
      <trkpt lat="50.987963" lon="8.551013">
        <ele>342.909815</ele>
        <time>2021-01-01T12:39:57.996Z</time>
      </trkpt>
      <trkpt lat="50.988060" lon="8.551018">
        <ele>342.924412</ele>
        <time>2021-01-01T12:40:04.995Z</time>
      </trkpt>
      <trkpt lat="50.988151" lon="8.551011">
        <ele>342.938114</ele>
        <time>2021-01-01T12:40:09.995Z</time>
      </trkpt>
      <trkpt lat="50.988242" lon="8.551026">
        <ele>342.958844</ele>
        <time>2021-01-01T12:40:15.995Z</time>
      </trkpt>
      <trkpt lat="50.988414" lon="8.550979">
        <ele>342.999108</ele>
        <time>2021-01-01T12:40:50.996Z</time>
      </trkpt>
      <trkpt lat="50.988506" lon="8.550938">
        <ele>343.021153</ele>
        <time>2021-01-01T12:40:57.997Z</time>
      </trkpt>
      <trkpt lat="50.988597" lon="8.550948">
        <ele>343.042197</ele>
        <time>2021-01-01T12:41:04.998Z</time>
      </trkpt>
      <trkpt lat="50.988693" lon="8.550948">
        <ele>343.064345</ele>
        <time>2021-01-01T12:41:12.999Z</time>
      </trkpt>
      <trkpt lat="50.988890" lon="8.550950">
        <ele>343.109796</ele>
        <time>2021-01-01T12:43:03.998Z</time>
      </trkpt>
      <trkpt lat="50.988971" lon="8.550850">
        <ele>343.133462</ele>
        <time>2021-01-01T12:43:11.998Z</time>
      </trkpt>
      <trkpt lat="50.989060" lon="8.550793">
        <ele>343.155601</ele>
        <time>2021-01-01T12:43:17.998Z</time>
      </trkpt>
      <trkpt lat="50.989140" lon="8.550702">
        <ele>343.178301</ele>
        <time>2021-01-01T12:43:25.998Z</time>
      </trkpt>
      <trkpt lat="50.989227" lon="8.550631">
        <ele>343.200866</ele>
        <time>2021-01-01T12:43:32.998Z</time>
      </trkpt>
      <trkpt lat="50.989317" lon="8.550560">
        <ele>343.224049</ele>
        <time>2021-01-01T12:43:40.998Z</time>
      </trkpt>
      <trkpt lat="50.989411" lon="8.550520">
        <ele>343.246500</ele>
        <time>2021-01-01T12:43:46.998Z</time>
      </trkpt>
      <trkpt lat="50.989503" lon="8.550479">
        <ele>343.268545</ele>
        <time>2021-01-01T12:43:51.998Z</time>
      </trkpt>
      <trkpt lat="50.989585" lon="8.550381">
        <ele>343.292218</ele>
        <time>2021-01-01T12:43:57.998Z</time>
      </trkpt>
      <trkpt lat="50.989634" lon="8.550256">
        <ele>343.313603</ele>
        <time>2021-01-01T12:44:02.998Z</time>
      </trkpt>
      <trkpt lat="50.989672" lon="8.550116">
        <ele>343.335744</ele>
        <time>2021-01-01T12:44:09.998Z</time>
      </trkpt>
      <trkpt lat="50.989697" lon="8.549965">
        <ele>343.356684</ele>
        <time>2021-01-01T12:44:17.998Z</time>
      </trkpt>
      <trkpt lat="50.989775" lon="8.549841">
        <ele>343.372619</ele>
        <time>2021-01-01T12:44:27.997Z</time>
      </trkpt>
      <trkpt lat="50.989850" lon="8.549757">
        <ele>343.385870</ele>
        <time>2021-01-01T12:44:34.996Z</time>
      </trkpt>
      <trkpt lat="50.989933" lon="8.549680">
        <ele>343.399749</ele>
        <time>2021-01-01T12:44:41.996Z</time>
      </trkpt>
      <trkpt lat="50.990004" lon="8.549550">
        <ele>343.415394</ele>
        <time>2021-01-01T12:44:49.996Z</time>
      </trkpt>
      <trkpt lat="50.990087" lon="8.549440">
        <ele>343.431002</ele>
        <time>2021-01-01T12:44:56.996Z</time>
      </trkpt>
      <trkpt lat="50.990165" lon="8.549358">
        <ele>343.444509</ele>
        <time>2021-01-01T12:45:03.996Z</time>
      </trkpt>
      <trkpt lat="50.990256" lon="8.549270">
        <ele>343.459892</ele>
        <time>2021-01-01T12:45:09.996Z</time>
      </trkpt>
      <trkpt lat="50.990330" lon="8.549182">
        <ele>343.473240</ele>
        <time>2021-01-01T12:45:15.996Z</time>
      </trkpt>
      <trkpt lat="50.990387" lon="8.549060">
        <ele>343.487051</ele>
        <time>2021-01-01T12:45:22.996Z</time>
      </trkpt>
      <trkpt lat="50.990461" lon="8.548954">
        <ele>343.501439</ele>
        <time>2021-01-01T12:45:28.996Z</time>
      </trkpt>
      <trkpt lat="50.990527" lon="8.548848">
        <ele>343.514991</ele>
        <time>2021-01-01T12:45:35.996Z</time>
      </trkpt>
      <trkpt lat="50.990590" lon="8.548738">
        <ele>343.528509</ele>
        <time>2021-01-01T12:45:42.996Z</time>
      </trkpt>
      <trkpt lat="50.990641" lon="8.548608">
        <ele>343.542433</ele>
        <time>2021-01-01T12:45:48.996Z</time>
      </trkpt>
      <trkpt lat="50.990695" lon="8.548474">
        <ele>343.556895</ele>
        <time>2021-01-01T12:45:55.996Z</time>
      </trkpt>
      <trkpt lat="50.990747" lon="8.548338">
        <ele>343.571358</ele>
        <time>2021-01-01T12:46:02.996Z</time>
      </trkpt>
      <trkpt lat="50.990815" lon="8.548218">
        <ele>343.586035</ele>
        <time>2021-01-01T12:46:09.995Z</time>
      </trkpt>
      <trkpt lat="50.990896" lon="8.548105">
        <ele>343.601601</ele>
        <time>2021-01-01T12:46:16.995Z</time>
      </trkpt>
      <trkpt lat="50.990926" lon="8.547953">
        <ele>343.631495</ele>
        <time>2021-01-01T12:46:22.995Z</time>
      </trkpt>
      <trkpt lat="50.990968" lon="8.547805">
        <ele>343.734900</ele>
        <time>2021-01-01T12:46:28.995Z</time>
      </trkpt>
      <trkpt lat="50.991022" lon="8.547679">
        <ele>343.831990</ele>
        <time>2021-01-01T12:46:34.995Z</time>
      </trkpt>
      <trkpt lat="50.991095" lon="8.547581">
        <ele>343.928701</ele>
        <time>2021-01-01T12:46:39.995Z</time>
      </trkpt>
      <trkpt lat="50.991158" lon="8.547452">
        <ele>344.032697</ele>
        <time>2021-01-01T12:46:48.995Z</time>
      </trkpt>
      <trkpt lat="50.991217" lon="8.547336">
        <ele>344.127688</ele>
        <time>2021-01-01T12:46:54.995Z</time>
      </trkpt>
      <trkpt lat="50.991239" lon="8.547173">
        <ele>344.233869</ele>
        <time>2021-01-01T12:47:04.995Z</time>
      </trkpt>
      <trkpt lat="50.991269" lon="8.547015">
        <ele>344.338984</ele>
        <time>2021-01-01T12:47:10.995Z</time>
      </trkpt>
      <trkpt lat="50.991336" lon="8.546903">
        <ele>344.437399</ele>
        <time>2021-01-01T12:47:15.995Z</time>
      </trkpt>
      <trkpt lat="50.991389" lon="8.546780">
        <ele>344.532340</ele>
        <time>2021-01-01T12:47:22.995Z</time>
      </trkpt>
      <trkpt lat="50.991420" lon="8.546635">
        <ele>344.629878</ele>
        <time>2021-01-01T12:47:31.995Z</time>
      </trkpt>
      <trkpt lat="50.991465" lon="8.546491">
        <ele>344.732278</ele>
        <time>2021-01-01T12:47:38.995Z</time>
      </trkpt>
      <trkpt lat="50.991488" lon="8.546345">
        <ele>344.828138</ele>
        <time>2021-01-01T12:47:45.994Z</time>
      </trkpt>
      <trkpt lat="50.991504" lon="8.546178">
        <ele>344.935731</ele>
        <time>2021-01-01T12:47:51.994Z</time>
      </trkpt>
      <trkpt lat="50.991510" lon="8.546029">
        <ele>345.030828</ele>
        <time>2021-01-01T12:47:57.994Z</time>
      </trkpt>
      <trkpt lat="50.991513" lon="8.545866">
        <ele>345.134692</ele>
        <time>2021-01-01T12:48:05.995Z</time>
      </trkpt>
      <trkpt lat="50.991535" lon="8.545721">
        <ele>345.229693</ele>
        <time>2021-01-01T12:48:11.996Z</time>
      </trkpt>
      <trkpt lat="50.991564" lon="8.545567">
        <ele>345.332076</ele>
        <time>2021-01-01T12:48:19.997Z</time>
      </trkpt>
      <trkpt lat="50.991583" lon="8.545413">
        <ele>345.432030</ele>
        <time>2021-01-01T12:48:26.998Z</time>
      </trkpt>
      <trkpt lat="50.991602" lon="8.545260">
        <ele>345.639773</ele>
        <time>2021-01-01T12:48:33.998Z</time>
      </trkpt>
      <trkpt lat="50.991625" lon="8.545104">
        <ele>345.854973</ele>
        <time>2021-01-01T12:48:40.998Z</time>
      </trkpt>
      <trkpt lat="50.991642" lon="8.544950">
        <ele>346.064973</ele>
        <time>2021-01-01T12:48:47.998Z</time>
      </trkpt>
      <trkpt lat="50.991644" lon="8.544805">
        <ele>346.259775</ele>
        <time>2021-01-01T12:48:54.998Z</time>
      </trkpt>
      <trkpt lat="50.991653" lon="8.544653">
        <ele>346.464833</ele>
        <time>2021-01-01T12:49:00.998Z</time>
      </trkpt>
      <trkpt lat="50.991692" lon="8.544500">
        <ele>346.686544</ele>
        <time>2021-01-01T12:49:05.998Z</time>
      </trkpt>
      <trkpt lat="50.991718" lon="8.544352">
        <ele>346.892925</ele>
        <time>2021-01-01T12:49:10.998Z</time>
      </trkpt>
      <trkpt lat="50.991729" lon="8.544205">
        <ele>347.091756</ele>
        <time>2021-01-01T12:49:27.998Z</time>
      </trkpt>
      <trkpt lat="50.991715" lon="8.544057">
        <ele>347.292772</ele>
        <time>2021-01-01T12:49:44.998Z</time>
      </trkpt>
      <trkpt lat="50.991801" lon="8.543839">
        <ele>347.638331</ele>
        <time>2021-01-01T12:50:52.997Z</time>
      </trkpt>
      <trkpt lat="50.991745" lon="8.544043">
        <ele>347.937254</ele>
        <time>2021-01-01T12:50:54.997Z</time>
      </trkpt>
      <trkpt lat="50.991713" lon="8.544214">
        <ele>348.176866</ele>
        <time>2021-01-01T12:50:55.997Z</time>
      </trkpt>
      <trkpt lat="50.991639" lon="8.544477">
        <ele>348.563798</ele>
        <time>2021-01-01T12:50:57.997Z</time>
      </trkpt>
      <trkpt lat="50.991649" lon="8.544628">
        <ele>348.767731</ele>
        <time>2021-01-01T12:50:59.997Z</time>
      </trkpt>
      <trkpt lat="50.991726" lon="8.544709">
        <ele>348.964793</ele>
        <time>2021-01-01T12:51:03.997Z</time>
      </trkpt>
      <trkpt lat="50.991753" lon="8.544569">
        <ele>349.161460</ele>
        <time>2021-01-01T12:51:17.997Z</time>
      </trkpt>
      <trkpt lat="50.991779" lon="8.544427">
        <ele>349.299769</ele>
        <time>2021-01-01T12:51:22.997Z</time>
      </trkpt>
      <trkpt lat="50.991812" lon="8.544263">
        <ele>349.373261</ele>
        <time>2021-01-01T12:51:27.997Z</time>
      </trkpt>
      <trkpt lat="50.991850" lon="8.544126">
        <ele>349.437166</ele>
        <time>2021-01-01T12:51:30.997Z</time>
      </trkpt>
      <trkpt lat="50.991850" lon="8.543935">
        <ele>349.518693</ele>
        <time>2021-01-01T12:51:34.997Z</time>
      </trkpt>
      <trkpt lat="50.991881" lon="8.543769">
        <ele>349.592602</ele>
        <time>2021-01-01T12:51:39.997Z</time>
      </trkpt>
      <trkpt lat="50.991878" lon="8.543607">
        <ele>349.661781</ele>
        <time>2021-01-01T12:51:43.997Z</time>
      </trkpt>
      <trkpt lat="50.991899" lon="8.543464">
        <ele>349.724459</ele>
        <time>2021-01-01T12:51:49.997Z</time>
      </trkpt>
      <trkpt lat="50.991920" lon="8.543286">
        <ele>349.801761</ele>
        <time>2021-01-01T12:51:55.997Z</time>
      </trkpt>
      <trkpt lat="50.991943" lon="8.543118">
        <ele>349.875147</ele>
        <time>2021-01-01T12:52:02.996Z</time>
      </trkpt>
      <trkpt lat="50.991947" lon="8.542944">
        <ele>349.949468</ele>
        <time>2021-01-01T12:52:07.996Z</time>
      </trkpt>
      <trkpt lat="50.991964" lon="8.542785">
        <ele>350.018308</ele>
        <time>2021-01-01T12:52:11.996Z</time>
      </trkpt>
      <trkpt lat="50.991996" lon="8.542604">
        <ele>350.098557</ele>
        <time>2021-01-01T12:52:14.996Z</time>
      </trkpt>
      <trkpt lat="50.992013" lon="8.542427">
        <ele>350.174983</ele>
        <time>2021-01-01T12:52:17.996Z</time>
      </trkpt>
      <trkpt lat="50.992020" lon="8.542213">
        <ele>350.266451</ele>
        <time>2021-01-01T12:52:19.996Z</time>
      </trkpt>
      <trkpt lat="50.992032" lon="8.542005">
        <ele>350.355607</ele>
        <time>2021-01-01T12:52:22.996Z</time>
      </trkpt>
      <trkpt lat="50.992075" lon="8.541870">
        <ele>350.420189</ele>
        <time>2021-01-01T12:52:24.996Z</time>
      </trkpt>
      <trkpt lat="50.992101" lon="8.541727">
        <ele>350.483723</ele>
        <time>2021-01-01T12:52:27.996Z</time>
      </trkpt>
      <trkpt lat="50.992090" lon="8.541556">
        <ele>350.696825</ele>
        <time>2021-01-01T12:52:32.996Z</time>
      </trkpt>
      <trkpt lat="50.992101" lon="8.541383">
        <ele>350.928936</ele>
        <time>2021-01-01T12:52:38.996Z</time>
      </trkpt>
      <trkpt lat="50.992088" lon="8.541226">
        <ele>351.140319</ele>
        <time>2021-01-01T12:52:45.996Z</time>
      </trkpt>
      <trkpt lat="50.992066" lon="8.541073">
        <ele>351.349818</ele>
        <time>2021-01-01T12:52:52.996Z</time>
      </trkpt>
      <trkpt lat="50.992040" lon="8.540913">
        <ele>351.570403</ele>
        <time>2021-01-01T12:53:00.996Z</time>
      </trkpt>
      <trkpt lat="50.992013" lon="8.540768">
        <ele>351.772254</ele>
        <time>2021-01-01T12:53:06.996Z</time>
      </trkpt>
      <trkpt lat="50.991964" lon="8.540626">
        <ele>351.988426</ele>
        <time>2021-01-01T12:53:13.996Z</time>
      </trkpt>
      <trkpt lat="50.991950" lon="8.540471">
        <ele>352.197453</ele>
        <time>2021-01-01T12:53:21.996Z</time>
      </trkpt>
      <trkpt lat="50.991937" lon="8.540316">
        <ele>352.406190</ele>
        <time>2021-01-01T12:53:28.995Z</time>
      </trkpt>
      <trkpt lat="50.991929" lon="8.540158">
        <ele>352.617784</ele>
        <time>2021-01-01T12:53:35.995Z</time>
      </trkpt>
      <trkpt lat="50.991925" lon="8.539997">
        <ele>352.832869</ele>
        <time>2021-01-01T12:53:42.995Z</time>
      </trkpt>
      <trkpt lat="50.991919" lon="8.539846">
        <ele>353.034839</ele>
        <time>2021-01-01T12:53:48.995Z</time>
      </trkpt>
      <trkpt lat="50.991906" lon="8.539701">
        <ele>353.230352</ele>
        <time>2021-01-01T12:53:55.995Z</time>
      </trkpt>
      <trkpt lat="50.991903" lon="8.539554">
        <ele>353.426684</ele>
        <time>2021-01-01T12:54:02.995Z</time>
      </trkpt>
      <trkpt lat="50.991894" lon="8.539399">
        <ele>353.634471</ele>
        <time>2021-01-01T12:54:09.995Z</time>
      </trkpt>
      <trkpt lat="50.991863" lon="8.539245">
        <ele>353.850301</ele>
        <time>2021-01-01T12:54:16.995Z</time>
      </trkpt>
      <trkpt lat="50.991869" lon="8.539077">
        <ele>354.074924</ele>
        <time>2021-01-01T12:54:24.995Z</time>
      </trkpt>
      <trkpt lat="50.991856" lon="8.538920">
        <ele>354.286308</ele>
        <time>2021-01-01T12:54:32.995Z</time>
      </trkpt>
      <trkpt lat="50.991833" lon="8.538782">
        <ele>354.545073</ele>
        <time>2021-01-01T12:54:39.995Z</time>
      </trkpt>
      <trkpt lat="50.991798" lon="8.538634">
        <ele>354.840339</ele>
        <time>2021-01-01T12:54:46.995Z</time>
      </trkpt>
      <trkpt lat="50.991798" lon="8.538468">
        <ele>355.150356</ele>
        <time>2021-01-01T12:54:53.995Z</time>
      </trkpt>
      <trkpt lat="50.991805" lon="8.538303">
        <ele>355.459205</ele>
        <time>2021-01-01T12:55:00.995Z</time>
      </trkpt>
      <trkpt lat="50.991796" lon="8.538155">
        <ele>355.736894</ele>
        <time>2021-01-01T12:55:07.996Z</time>
      </trkpt>
      <trkpt lat="50.991788" lon="8.537994">
        <ele>356.038509</ele>
        <time>2021-01-01T12:55:13.997Z</time>
      </trkpt>
      <trkpt lat="50.991790" lon="8.537838">
        <ele>356.329911</ele>
        <time>2021-01-01T12:55:19.998Z</time>
      </trkpt>
      <trkpt lat="50.991792" lon="8.537688">
        <ele>356.610111</ele>
        <time>2021-01-01T12:55:26.998Z</time>
      </trkpt>
      <trkpt lat="50.991765" lon="8.537541">
        <ele>356.896094</ele>
        <time>2021-01-01T12:55:33.998Z</time>
      </trkpt>
      <trkpt lat="50.991758" lon="8.537388">
        <ele>357.182588</ele>
        <time>2021-01-01T12:55:40.998Z</time>
      </trkpt>
      <trkpt lat="50.991754" lon="8.537242">
        <ele>357.455512</ele>
        <time>2021-01-01T12:55:47.998Z</time>
      </trkpt>
      <trkpt lat="50.991724" lon="8.537099">
        <ele>357.737019</ele>
        <time>2021-01-01T12:55:54.998Z</time>
      </trkpt>
      <trkpt lat="50.991716" lon="8.536951">
        <ele>358.014439</ele>
        <time>2021-01-01T12:55:59.998Z</time>
      </trkpt>
      <trkpt lat="50.991694" lon="8.536811">
        <ele>358.283925</ele>
        <time>2021-01-01T12:56:08.998Z</time>
      </trkpt>
      <trkpt lat="50.991647" lon="8.536686">
        <ele>358.555853</ele>
        <time>2021-01-01T12:56:21.998Z</time>
      </trkpt>
      <trkpt lat="50.991667" lon="8.536526">
        <ele>358.860502</ele>
        <time>2021-01-01T12:56:31.998Z</time>
      </trkpt>
      <trkpt lat="50.991680" lon="8.536369">
        <ele>359.156238</ele>
        <time>2021-01-01T12:56:36.998Z</time>
      </trkpt>
      <trkpt lat="50.991686" lon="8.536221">
        <ele>359.433213</ele>
        <time>2021-01-01T12:56:41.998Z</time>
      </trkpt>
      <trkpt lat="50.991688" lon="8.536057">
        <ele>359.641941</ele>
        <time>2021-01-01T12:56:45.998Z</time>
      </trkpt>
      <trkpt lat="50.991671" lon="8.535912">
        <ele>359.639819</ele>
        <time>2021-01-01T12:56:50.998Z</time>
      </trkpt>
      <trkpt lat="50.991658" lon="8.535769">
        <ele>359.637740</ele>
        <time>2021-01-01T12:56:55.998Z</time>
      </trkpt>
      <trkpt lat="50.991655" lon="8.535615">
        <ele>359.635523</ele>
        <time>2021-01-01T12:56:59.998Z</time>
      </trkpt>
      <trkpt lat="50.991670" lon="8.535465">
        <ele>359.633338</ele>
        <time>2021-01-01T12:57:03.998Z</time>
      </trkpt>
      <trkpt lat="50.991697" lon="8.535297">
        <ele>359.630843</ele>
        <time>2021-01-01T12:57:06.998Z</time>
      </trkpt>
      <trkpt lat="50.991707" lon="8.535153">
        <ele>359.628759</ele>
        <time>2021-01-01T12:57:09.998Z</time>
      </trkpt>
      <trkpt lat="50.991714" lon="8.535006">
        <ele>359.626637</ele>
        <time>2021-01-01T12:57:14.998Z</time>
      </trkpt>
      <trkpt lat="50.991723" lon="8.534846">
        <ele>359.624326</ele>
        <time>2021-01-01T12:57:20.998Z</time>
      </trkpt>
      <trkpt lat="50.991734" lon="8.534674">
        <ele>359.621839</ele>
        <time>2021-01-01T12:57:27.998Z</time>
      </trkpt>
      <trkpt lat="50.991742" lon="8.534511">
        <ele>359.619486</ele>
        <time>2021-01-01T12:57:34.998Z</time>
      </trkpt>
      <trkpt lat="50.991743" lon="8.534360">
        <ele>359.617314</ele>
        <time>2021-01-01T12:57:39.997Z</time>
      </trkpt>
      <trkpt lat="50.991757" lon="8.534217">
        <ele>359.615232</ele>
        <time>2021-01-01T12:57:45.997Z</time>
      </trkpt>
      <trkpt lat="50.991772" lon="8.534060">
        <ele>359.612947</ele>
        <time>2021-01-01T12:57:52.997Z</time>
      </trkpt>
      <trkpt lat="50.991804" lon="8.533900">
        <ele>359.610531</ele>
        <time>2021-01-01T12:57:58.997Z</time>
      </trkpt>
      <trkpt lat="50.991825" lon="8.533744">
        <ele>359.608236</ele>
        <time>2021-01-01T12:58:04.997Z</time>
      </trkpt>
      <trkpt lat="50.991840" lon="8.533594">
        <ele>359.606051</ele>
        <time>2021-01-01T12:58:10.997Z</time>
      </trkpt>
      <trkpt lat="50.991860" lon="8.533446">
        <ele>359.603873</ele>
        <time>2021-01-01T12:58:17.997Z</time>
      </trkpt>
      <trkpt lat="50.991897" lon="8.533313">
        <ele>359.601781</ele>
        <time>2021-01-01T12:58:23.997Z</time>
      </trkpt>
      <trkpt lat="50.991930" lon="8.533150">
        <ele>359.349683</ele>
        <time>2021-01-01T12:58:30.997Z</time>
      </trkpt>
      <trkpt lat="50.991934" lon="8.533006">
        <ele>359.118079</ele>
        <time>2021-01-01T12:58:37.997Z</time>
      </trkpt>
      <trkpt lat="50.991936" lon="8.532863">
        <ele>358.888250</ele>
        <time>2021-01-01T12:58:45.997Z</time>
      </trkpt>
      <trkpt lat="50.991943" lon="8.532712">
        <ele>358.644965</ele>
        <time>2021-01-01T12:58:53.997Z</time>
      </trkpt>
      <trkpt lat="50.991966" lon="8.532561">
        <ele>358.395335</ele>
        <time>2021-01-01T12:59:02.997Z</time>
      </trkpt>
      <trkpt lat="50.992007" lon="8.532422">
        <ele>358.148682</ele>
        <time>2021-01-01T12:59:06.997Z</time>
      </trkpt>
      <trkpt lat="50.992062" lon="8.532285">
        <ele>357.887587</ele>
        <time>2021-01-01T12:59:15.996Z</time>
      </trkpt>
      <trkpt lat="50.992087" lon="8.532145">
        <ele>357.653758</ele>
        <time>2021-01-01T12:59:21.996Z</time>
      </trkpt>
      <trkpt lat="50.992119" lon="8.531983">
        <ele>357.380940</ele>
        <time>2021-01-01T12:59:27.996Z</time>
      </trkpt>
      <trkpt lat="50.992132" lon="8.531816">
        <ele>357.110561</ele>
        <time>2021-01-01T12:59:33.996Z</time>
      </trkpt>
      <trkpt lat="50.992132" lon="8.531656">
        <ele>356.853473</ele>
        <time>2021-01-01T12:59:38.996Z</time>
      </trkpt>
      <trkpt lat="50.992145" lon="8.531504">
        <ele>356.606996</ele>
        <time>2021-01-01T12:59:43.996Z</time>
      </trkpt>
      <trkpt lat="50.992169" lon="8.531354">
        <ele>356.358312</ele>
        <time>2021-01-01T12:59:48.996Z</time>
      </trkpt>
      <trkpt lat="50.992169" lon="8.531208">
        <ele>356.123720</ele>
        <time>2021-01-01T12:59:53.996Z</time>
      </trkpt>
      <trkpt lat="50.992166" lon="8.531050">
        <ele>355.869732</ele>
        <time>2021-01-01T12:59:59.996Z</time>
      </trkpt>
      <trkpt lat="50.992134" lon="8.530894">
        <ele>355.606096</ele>
        <time>2021-01-01T13:00:06.996Z</time>
      </trkpt>
      <trkpt lat="50.992121" lon="8.530736">
        <ele>355.350063</ele>
        <time>2021-01-01T13:00:12.996Z</time>
      </trkpt>
      <trkpt lat="50.992107" lon="8.530578">
        <ele>355.093686</ele>
        <time>2021-01-01T13:00:17.996Z</time>
      </trkpt>
      <trkpt lat="50.992101" lon="8.530420">
        <ele>355.079360</ele>
        <time>2021-01-01T13:00:24.996Z</time>
      </trkpt>
      <trkpt lat="50.992093" lon="8.530252">
        <ele>355.189353</ele>
        <time>2021-01-01T13:00:30.996Z</time>
      </trkpt>
      <trkpt lat="50.992074" lon="8.530083">
        <ele>355.301433</ele>
        <time>2021-01-01T13:00:36.996Z</time>
      </trkpt>
      <trkpt lat="50.992073" lon="8.529914">
        <ele>355.411771</ele>
        <time>2021-01-01T13:00:44.995Z</time>
      </trkpt>
      <trkpt lat="50.992047" lon="8.529755">
        <ele>355.519021</ele>
        <time>2021-01-01T13:00:50.995Z</time>
      </trkpt>
      <trkpt lat="50.992029" lon="8.529596">
        <ele>355.624492</ele>
        <time>2021-01-01T13:00:56.995Z</time>
      </trkpt>
      <trkpt lat="50.992011" lon="8.529426">
        <ele>355.737037</ele>
        <time>2021-01-01T13:01:02.995Z</time>
      </trkpt>
      <trkpt lat="50.991997" lon="8.529273">
        <ele>355.837975</ele>
        <time>2021-01-01T13:01:08.995Z</time>
      </trkpt>
      <trkpt lat="50.991981" lon="8.529114">
        <ele>355.943098</ele>
        <time>2021-01-01T13:01:14.995Z</time>
      </trkpt>
      <trkpt lat="50.991937" lon="8.528976">
        <ele>356.044092</ele>
        <time>2021-01-01T13:01:20.995Z</time>
      </trkpt>
      <trkpt lat="50.991913" lon="8.528837">
        <ele>356.138193</ele>
        <time>2021-01-01T13:01:27.995Z</time>
      </trkpt>
      <trkpt lat="50.991894" lon="8.528685">
        <ele>356.239365</ele>
        <time>2021-01-01T13:01:34.995Z</time>
      </trkpt>
      <trkpt lat="50.991848" lon="8.528536">
        <ele>356.347713</ele>
        <time>2021-01-01T13:01:40.995Z</time>
      </trkpt>
      <trkpt lat="50.991834" lon="8.528388">
        <ele>356.445422</ele>
        <time>2021-01-01T13:01:47.995Z</time>
      </trkpt>
      <trkpt lat="50.991794" lon="8.528236">
        <ele>356.552981</ele>
        <time>2021-01-01T13:01:54.995Z</time>
      </trkpt>
      <trkpt lat="50.991763" lon="8.528101">
        <ele>356.646799</ele>
        <time>2021-01-01T13:02:01.995Z</time>
      </trkpt>
      <trkpt lat="50.991726" lon="8.527954">
        <ele>356.750159</ele>
        <time>2021-01-01T13:02:09.996Z</time>
      </trkpt>
      <trkpt lat="50.991699" lon="8.527808">
        <ele>356.849506</ele>
        <time>2021-01-01T13:02:17.997Z</time>
      </trkpt>
      <trkpt lat="50.991659" lon="8.527668">
        <ele>357.031764</ele>
        <time>2021-01-01T13:02:24.998Z</time>
      </trkpt>
      <trkpt lat="50.991624" lon="8.527531">
        <ele>357.234720</ele>
        <time>2021-01-01T13:02:31.998Z</time>
      </trkpt>
      <trkpt lat="50.991579" lon="8.527400">
        <ele>357.439576</ele>
        <time>2021-01-01T13:02:39.999Z</time>
      </trkpt>
      <trkpt lat="50.991504" lon="8.527298">
        <ele>357.654880</ele>
        <time>2021-01-01T13:02:46.999Z</time>
      </trkpt>
      <trkpt lat="50.991458" lon="8.527169">
        <ele>357.858397</ele>
        <time>2021-01-01T13:02:50.999Z</time>
      </trkpt>
      <trkpt lat="50.991417" lon="8.527016">
        <ele>358.086657</ele>
        <time>2021-01-01T13:02:56.999Z</time>
      </trkpt>
      <trkpt lat="50.991363" lon="8.526884">
        <ele>358.302758</ele>
        <time>2021-01-01T13:03:02.999Z</time>
      </trkpt>
      <trkpt lat="50.991305" lon="8.526739">
        <ele>358.538587</ele>
        <time>2021-01-01T13:03:09.999Z</time>
      </trkpt>
      <trkpt lat="50.991257" lon="8.526612">
        <ele>358.741931</ele>
        <time>2021-01-01T13:03:14.999Z</time>
      </trkpt>
      <trkpt lat="50.991219" lon="8.526474">
        <ele>358.948695</ele>
        <time>2021-01-01T13:03:20.999Z</time>
      </trkpt>
      <trkpt lat="50.991181" lon="8.526324">
        <ele>359.170649</ele>
        <time>2021-01-01T13:03:26.999Z</time>
      </trkpt>
      <trkpt lat="50.991149" lon="8.526171">
        <ele>359.391960</ele>
        <time>2021-01-01T13:03:32.998Z</time>
      </trkpt>
      <trkpt lat="50.991108" lon="8.526013">
        <ele>359.626553</ele>
        <time>2021-01-01T13:03:38.998Z</time>
      </trkpt>
      <trkpt lat="50.991063" lon="8.525873">
        <ele>359.842336</ele>
        <time>2021-01-01T13:03:43.998Z</time>
      </trkpt>
      <trkpt lat="50.991040" lon="8.525733">
        <ele>360.040950</ele>
        <time>2021-01-01T13:03:49.998Z</time>
      </trkpt>
      <trkpt lat="50.990983" lon="8.525605">
        <ele>360.256181</ele>
        <time>2021-01-01T13:03:55.998Z</time>
      </trkpt>
      <trkpt lat="50.990922" lon="8.525479">
        <ele>360.474381</ele>
        <time>2021-01-01T13:04:02.998Z</time>
      </trkpt>
      <trkpt lat="50.990862" lon="8.525357">
        <ele>360.686907</ele>
        <time>2021-01-01T13:04:09.998Z</time>
      </trkpt>
      <trkpt lat="50.990804" lon="8.525219">
        <ele>360.723177</ele>
        <time>2021-01-01T13:04:16.998Z</time>
      </trkpt>
      <trkpt lat="50.990803" lon="8.525063">
        <ele>360.585537</ele>
        <time>2021-01-01T13:04:23.998Z</time>
      </trkpt>
      <trkpt lat="50.990785" lon="8.524912">
        <ele>360.449948</ele>
        <time>2021-01-01T13:04:30.998Z</time>
      </trkpt>
      <trkpt lat="50.990764" lon="8.524746">
        <ele>360.300565</ele>
        <time>2021-01-01T13:04:37.998Z</time>
      </trkpt>
      <trkpt lat="50.990735" lon="8.524604">
        <ele>360.168855</ele>
        <time>2021-01-01T13:04:44.998Z</time>
      </trkpt>
      <trkpt lat="50.990682" lon="8.524484">
        <ele>360.039521</ele>
        <time>2021-01-01T13:04:49.998Z</time>
      </trkpt>
      <trkpt lat="50.990638" lon="8.524345">
        <ele>359.902252</ele>
        <time>2021-01-01T13:04:54.998Z</time>
      </trkpt>
      <trkpt lat="50.990591" lon="8.524218">
        <ele>359.772274</ele>
        <time>2021-01-01T13:04:59.998Z</time>
      </trkpt>
      <trkpt lat="50.990559" lon="8.524068">
        <ele>359.632540</ele>
        <time>2021-01-01T13:05:05.998Z</time>
      </trkpt>
      <trkpt lat="50.990523" lon="8.523918">
        <ele>359.490907</ele>
        <time>2021-01-01T13:05:13.997Z</time>
      </trkpt>
      <trkpt lat="50.990482" lon="8.523773">
        <ele>359.350664</ele>
        <time>2021-01-01T13:05:18.997Z</time>
      </trkpt>
      <trkpt lat="50.990433" lon="8.523634">
        <ele>359.210107</ele>
        <time>2021-01-01T13:05:26.997Z</time>
      </trkpt>
      <trkpt lat="50.990405" lon="8.523487">
        <ele>359.074606</ele>
        <time>2021-01-01T13:05:32.997Z</time>
      </trkpt>
      <trkpt lat="50.990389" lon="8.523341">
        <ele>358.943857</ele>
        <time>2021-01-01T13:05:38.997Z</time>
      </trkpt>
      <trkpt lat="50.990354" lon="8.523190">
        <ele>358.801890</ele>
        <time>2021-01-01T13:05:45.997Z</time>
      </trkpt>
      <trkpt lat="50.990336" lon="8.523029">
        <ele>358.657622</ele>
        <time>2021-01-01T13:05:53.997Z</time>
      </trkpt>
      <trkpt lat="50.990354" lon="8.522856">
        <ele>358.502918</ele>
        <time>2021-01-01T13:05:59.997Z</time>
      </trkpt>
      <trkpt lat="50.990404" lon="8.522679">
        <ele>358.331752</ele>
        <time>2021-01-01T13:06:03.997Z</time>
      </trkpt>
      <trkpt lat="50.990419" lon="8.522522">
        <ele>356.501978</ele>
        <time>2021-01-01T13:06:10.997Z</time>
      </trkpt>
      <trkpt lat="50.990407" lon="8.522367">
        <ele>353.638042</ele>
        <time>2021-01-01T13:06:16.997Z</time>
      </trkpt>
      <trkpt lat="50.990476" lon="8.522253">
        <ele>350.737701</ele>
        <time>2021-01-01T13:06:24.997Z</time>
      </trkpt>
      <trkpt lat="50.990548" lon="8.522125">
        <ele>347.589616</ele>
        <time>2021-01-01T13:06:28.997Z</time>
      </trkpt>
      <trkpt lat="50.990645" lon="8.521930">
        <ele>343.031679</ele>
        <time>2021-01-01T13:06:34.997Z</time>
      </trkpt>
      <trkpt lat="50.990034" lon="8.522975">
        <ele>316.875463</ele>
        <time>2021-01-01T13:06:54.996Z</time>
      </trkpt>
      <trkpt lat="50.990017" lon="8.522766">
        <ele>313.010750</ele>
        <time>2021-01-01T13:06:57.996Z</time>
      </trkpt>
      <trkpt lat="50.989975" lon="8.522533">
        <ele>308.566010</ele>
        <time>2021-01-01T13:06:59.996Z</time>
      </trkpt>
      <trkpt lat="50.989884" lon="8.522299">
        <ele>305.447739</ele>
        <time>2021-01-01T13:07:01.996Z</time>
      </trkpt>
      <trkpt lat="50.989754" lon="8.522478">
        <ele>304.539107</ele>
        <time>2021-01-01T13:07:06.996Z</time>
      </trkpt>
      <trkpt lat="50.989691" lon="8.522595">
        <ele>304.027218</ele>
        <time>2021-01-01T13:07:08.996Z</time>
      </trkpt>
      <trkpt lat="50.989568" lon="8.522630">
        <ele>303.367225</ele>
        <time>2021-01-01T13:07:11.996Z</time>
      </trkpt>
      <trkpt lat="50.989645" lon="8.522550">
        <ele>302.881282</ele>
        <time>2021-01-01T13:07:16.996Z</time>
      </trkpt>
      <trkpt lat="50.989698" lon="8.522419">
        <ele>302.363549</ele>
        <time>2021-01-01T13:07:19.996Z</time>
      </trkpt>
      <trkpt lat="50.989674" lon="8.521961">
        <ele>300.835594</ele>
        <time>2021-01-01T13:07:23.996Z</time>
      </trkpt>
      <trkpt lat="50.989662" lon="8.521728">
        <ele>300.058363</ele>
        <time>2021-01-01T13:07:24.996Z</time>
      </trkpt>
      <trkpt lat="50.989734" lon="8.521513">
        <ele>299.248700</ele>
        <time>2021-01-01T13:07:25.996Z</time>
      </trkpt>
      <trkpt lat="50.989803" lon="8.521404">
        <ele>298.734754</ele>
        <time>2021-01-01T13:07:30.996Z</time>
      </trkpt>
      <trkpt lat="50.989815" lon="8.521252">
        <ele>298.225451</ele>
        <time>2021-01-01T13:07:33.996Z</time>
      </trkpt>
      <trkpt lat="50.989820" lon="8.521071">
        <ele>297.623112</ele>
        <time>2021-01-01T13:07:36.996Z</time>
      </trkpt>
      <trkpt lat="50.989817" lon="8.520857">
        <ele>296.911464</ele>
        <time>2021-01-01T13:07:39.996Z</time>
      </trkpt>
      <trkpt lat="50.989875" lon="8.520693">
        <ele>296.941711</ele>
        <time>2021-01-01T13:07:42.996Z</time>
      </trkpt>
      <trkpt lat="50.989915" lon="8.520545">
        <ele>300.387445</ele>
        <time>2021-01-01T13:07:48.996Z</time>
      </trkpt>
      <trkpt lat="50.989929" lon="8.520401">
        <ele>303.504612</ele>
        <time>2021-01-01T13:07:52.996Z</time>
      </trkpt>
      <trkpt lat="50.989998" lon="8.520262">
        <ele>307.291721</ele>
        <time>2021-01-01T13:07:55.996Z</time>
      </trkpt>
      <trkpt lat="50.990069" lon="8.520153">
        <ele>310.647390</ele>
        <time>2021-01-01T13:08:00.996Z</time>
      </trkpt>
      <trkpt lat="50.990100" lon="8.520010">
        <ele>313.882969</ele>
        <time>2021-01-01T13:08:05.996Z</time>
      </trkpt>
      <trkpt lat="50.990104" lon="8.519866">
        <ele>316.966593</ele>
        <time>2021-01-01T13:08:09.996Z</time>
      </trkpt>
      <trkpt lat="50.990129" lon="8.519728">
        <ele>320.038696</ele>
        <time>2021-01-01T13:08:12.996Z</time>
      </trkpt>
      <trkpt lat="50.990130" lon="8.519554">
        <ele>323.761272</ele>
        <time>2021-01-01T13:08:17.995Z</time>
      </trkpt>
      <trkpt lat="50.990112" lon="8.519400">
        <ele>327.112147</ele>
        <time>2021-01-01T13:08:21.995Z</time>
      </trkpt>
      <trkpt lat="50.990097" lon="8.519234">
        <ele>330.699829</ele>
        <time>2021-01-01T13:08:27.995Z</time>
      </trkpt>
      <trkpt lat="50.990087" lon="8.519079">
        <ele>334.033153</ele>
        <time>2021-01-01T13:08:34.995Z</time>
      </trkpt>
      <trkpt lat="50.990064" lon="8.518929">
        <ele>337.335978</ele>
        <time>2021-01-01T13:08:40.995Z</time>
      </trkpt>
      <trkpt lat="50.990055" lon="8.518772">
        <ele>340.708619</ele>
        <time>2021-01-01T13:08:46.995Z</time>
      </trkpt>
      <trkpt lat="50.990062" lon="8.518622">
        <ele>343.926414</ele>
        <time>2021-01-01T13:08:53.995Z</time>
      </trkpt>
      <trkpt lat="50.990046" lon="8.518455">
        <ele>347.540235</ele>
        <time>2021-01-01T13:09:00.995Z</time>
      </trkpt>
      <trkpt lat="50.990012" lon="8.518309">
        <ele>350.870557</ele>
        <time>2021-01-01T13:09:12.995Z</time>
      </trkpt>
      <trkpt lat="50.989989" lon="8.518171">
        <ele>353.924566</ele>
        <time>2021-01-01T13:09:18.996Z</time>
      </trkpt>
      <trkpt lat="50.989992" lon="8.518013">
        <ele>357.306243</ele>
        <time>2021-01-01T13:09:23.997Z</time>
      </trkpt>
      <trkpt lat="50.990004" lon="8.517859">
        <ele>357.207028</ele>
        <time>2021-01-01T13:09:28.998Z</time>
      </trkpt>
      <trkpt lat="50.990017" lon="8.517716">
        <ele>356.912334</ele>
        <time>2021-01-01T13:09:33.998Z</time>
      </trkpt>
      <trkpt lat="50.990017" lon="8.517572">
        <ele>356.618627</ele>
        <time>2021-01-01T13:09:38.998Z</time>
      </trkpt>
      <trkpt lat="50.990028" lon="8.517420">
        <ele>356.306560</ele>
        <time>2021-01-01T13:09:46.999Z</time>
      </trkpt>
      <trkpt lat="50.990037" lon="8.517275">
        <ele>356.009379</ele>
        <time>2021-01-01T13:09:55.999Z</time>
      </trkpt>
      <trkpt lat="50.990017" lon="8.517131">
        <ele>355.708606</ele>
        <time>2021-01-01T13:10:04.999Z</time>
      </trkpt>
      <trkpt lat="50.990003" lon="8.516985">
        <ele>355.407384</ele>
        <time>2021-01-01T13:10:13.999Z</time>
      </trkpt>
      <trkpt lat="50.990029" lon="8.516838">
        <ele>355.095946</ele>
        <time>2021-01-01T13:10:20.999Z</time>
      </trkpt>
      <trkpt lat="50.990034" lon="8.516676">
        <ele>354.765128</ele>
        <time>2021-01-01T13:10:29.999Z</time>
      </trkpt>
      <trkpt lat="50.990036" lon="8.516529">
        <ele>354.465232</ele>
        <time>2021-01-01T13:10:35.999Z</time>
      </trkpt>
      <trkpt lat="50.990047" lon="8.516382">
        <ele>354.163295</ele>
        <time>2021-01-01T13:10:40.999Z</time>
      </trkpt>
      <trkpt lat="50.990036" lon="8.516229">
        <ele>353.849202</ele>
        <time>2021-01-01T13:10:46.999Z</time>
      </trkpt>
      <trkpt lat="50.990050" lon="8.516080">
        <ele>353.541929</ele>
        <time>2021-01-01T13:10:52.999Z</time>
      </trkpt>
      <trkpt lat="50.990082" lon="8.515922">
        <ele>353.203396</ele>
        <time>2021-01-01T13:10:59.999Z</time>
      </trkpt>
      <trkpt lat="50.990127" lon="8.515785">
        <ele>352.888210</ele>
        <time>2021-01-01T13:11:04.998Z</time>
      </trkpt>
      <trkpt lat="50.990145" lon="8.515641">
        <ele>352.588768</ele>
        <time>2021-01-01T13:11:11.998Z</time>
      </trkpt>
      <trkpt lat="50.990158" lon="8.515485">
        <ele>352.267809</ele>
        <time>2021-01-01T13:11:18.998Z</time>
      </trkpt>
      <trkpt lat="50.990180" lon="8.515325">
        <ele>351.933773</ele>
        <time>2021-01-01T13:11:21.998Z</time>
      </trkpt>
      <trkpt lat="50.990214" lon="8.515159">
        <ele>351.764397</ele>
        <time>2021-01-01T13:11:25.998Z</time>
      </trkpt>
      <trkpt lat="50.990289" lon="8.515062">
        <ele>352.043573</ele>
        <time>2021-01-01T13:11:34.998Z</time>
      </trkpt>
      <trkpt lat="50.990333" lon="8.514930">
        <ele>352.314979</ele>
        <time>2021-01-01T13:11:47.998Z</time>
      </trkpt>
      <trkpt lat="50.990334" lon="8.514771">
        <ele>352.603903</ele>
        <time>2021-01-01T13:12:01.998Z</time>
      </trkpt>
      <trkpt lat="50.990366" lon="8.514619">
        <ele>352.895133</ele>
        <time>2021-01-01T13:12:05.998Z</time>
      </trkpt>
      <trkpt lat="50.990381" lon="8.514422">
        <ele>353.255700</ele>
        <time>2021-01-01T13:12:08.998Z</time>
      </trkpt>
      <trkpt lat="50.990402" lon="8.514248">
        <ele>353.577625</ele>
        <time>2021-01-01T13:12:12.998Z</time>
      </trkpt>
      <trkpt lat="50.990428" lon="8.514096">
        <ele>353.863833</ele>
        <time>2021-01-01T13:12:16.998Z</time>
      </trkpt>
      <trkpt lat="50.990446" lon="8.513953">
        <ele>354.128814</ele>
        <time>2021-01-01T13:12:21.998Z</time>
      </trkpt>
      <trkpt lat="50.990459" lon="8.513804">
        <ele>354.402142</ele>
        <time>2021-01-01T13:12:26.998Z</time>
      </trkpt>
      <trkpt lat="50.990508" lon="8.513681">
        <ele>354.666638</ele>
        <time>2021-01-01T13:12:35.998Z</time>
      </trkpt>
      <trkpt lat="50.990550" lon="8.513491">
        <ele>355.032546</ele>
        <time>2021-01-01T13:12:41.998Z</time>
      </trkpt>
      <trkpt lat="50.990585" lon="8.513348">
        <ele>355.311335</ele>
        <time>2021-01-01T13:12:46.998Z</time>
      </trkpt>
      <trkpt lat="50.990609" lon="8.513187">
        <ele>355.611970</ele>
        <time>2021-01-01T13:12:52.997Z</time>
      </trkpt>
      <trkpt lat="50.990627" lon="8.513037">
        <ele>355.889434</ele>
        <time>2021-01-01T13:12:57.997Z</time>
      </trkpt>
      <trkpt lat="50.990635" lon="8.512892">
        <ele>356.153914</ele>
        <time>2021-01-01T13:13:05.997Z</time>
      </trkpt>
      <trkpt lat="50.990648" lon="8.512742">
        <ele>356.429041</ele>
        <time>2021-01-01T13:13:11.997Z</time>
      </trkpt>
      <trkpt lat="50.990677" lon="8.512594">
        <ele>356.710691</ele>
        <time>2021-01-01T13:13:16.997Z</time>
      </trkpt>
      <trkpt lat="50.990703" lon="8.512451">
        <ele>356.834191</ele>
        <time>2021-01-01T13:13:21.997Z</time>
      </trkpt>
      <trkpt lat="50.990720" lon="8.512305">
        <ele>356.751657</ele>
        <time>2021-01-01T13:13:32.997Z</time>
      </trkpt>
      <trkpt lat="50.990766" lon="8.512161">
        <ele>356.661895</ele>
        <time>2021-01-01T13:13:40.997Z</time>
      </trkpt>
      <trkpt lat="50.990814" lon="8.512010">
        <ele>356.567863</ele>
        <time>2021-01-01T13:13:48.997Z</time>
      </trkpt>
      <trkpt lat="50.990858" lon="8.511879">
        <ele>356.485326</ele>
        <time>2021-01-01T13:13:57.997Z</time>
      </trkpt>
      <trkpt lat="50.990894" lon="8.511737">
        <ele>356.400232</ele>
        <time>2021-01-01T13:14:05.997Z</time>
      </trkpt>
      <trkpt lat="50.990941" lon="8.511600">
        <ele>356.313502</ele>
        <time>2021-01-01T13:14:11.997Z</time>
      </trkpt>
      <trkpt lat="50.990968" lon="8.511457">
        <ele>356.230515</ele>
        <time>2021-01-01T13:14:19.997Z</time>
      </trkpt>
      <trkpt lat="50.990969" lon="8.511302">
        <ele>356.144352</ele>
        <time>2021-01-01T13:14:27.997Z</time>
      </trkpt>
      <trkpt lat="50.991023" lon="8.511147">
        <ele>356.045876</ele>
        <time>2021-01-01T13:14:35.997Z</time>
      </trkpt>
      <trkpt lat="50.991068" lon="8.511008">
        <ele>355.958991</ele>
        <time>2021-01-01T13:14:42.996Z</time>
      </trkpt>
      <trkpt lat="50.991103" lon="8.510863">
        <ele>355.872668</ele>
        <time>2021-01-01T13:14:51.996Z</time>
      </trkpt>
      <trkpt lat="50.991119" lon="8.510696">
        <ele>355.778770</ele>
        <time>2021-01-01T13:14:58.996Z</time>
      </trkpt>
      <trkpt lat="50.991184" lon="8.510572">
        <ele>355.689072</ele>
        <time>2021-01-01T13:15:07.996Z</time>
      </trkpt>
      <trkpt lat="50.991220" lon="8.510431">
        <ele>355.604493</ele>
        <time>2021-01-01T13:15:14.996Z</time>
      </trkpt>
      <trkpt lat="50.991264" lon="8.510240">
        <ele>355.491437</ele>
        <time>2021-01-01T13:15:18.996Z</time>
      </trkpt>
      <trkpt lat="50.991301" lon="8.510097">
        <ele>355.405496</ele>
        <time>2021-01-01T13:15:20.996Z</time>
      </trkpt>
      <trkpt lat="50.991348" lon="8.509899">
        <ele>355.287869</ele>
        <time>2021-01-01T13:15:23.996Z</time>
      </trkpt>
      <trkpt lat="50.991393" lon="8.509760">
        <ele>355.423179</ele>
        <time>2021-01-01T13:15:27.996Z</time>
      </trkpt>
      <trkpt lat="50.991456" lon="8.509626">
        <ele>355.590877</ele>
        <time>2021-01-01T13:15:32.996Z</time>
      </trkpt>
      <trkpt lat="50.991506" lon="8.509503">
        <ele>355.737687</ele>
        <time>2021-01-01T13:15:38.996Z</time>
      </trkpt>
      <trkpt lat="50.991556" lon="8.509358">
        <ele>355.903459</ele>
        <time>2021-01-01T13:15:45.996Z</time>
      </trkpt>
      <trkpt lat="50.991615" lon="8.509220">
        <ele>356.070726</ele>
        <time>2021-01-01T13:15:52.996Z</time>
      </trkpt>
      <trkpt lat="50.991677" lon="8.509093">
        <ele>356.231874</ele>
        <time>2021-01-01T13:15:59.996Z</time>
      </trkpt>
      <trkpt lat="50.991724" lon="8.508942">
        <ele>356.400774</ele>
        <time>2021-01-01T13:16:05.996Z</time>
      </trkpt>
      <trkpt lat="50.991790" lon="8.508826">
        <ele>356.557556</ele>
        <time>2021-01-01T13:16:11.996Z</time>
      </trkpt>
      <trkpt lat="50.991846" lon="8.508686">
        <ele>356.723873</ele>
        <time>2021-01-01T13:16:17.996Z</time>
      </trkpt>
      <trkpt lat="50.991869" lon="8.508538">
        <ele>356.876721</ele>
        <time>2021-01-01T13:16:23.997Z</time>
      </trkpt>
      <trkpt lat="50.991908" lon="8.508375">
        <ele>357.051562</ele>
        <time>2021-01-01T13:16:29.998Z</time>
      </trkpt>
      <trkpt lat="50.991946" lon="8.508241">
        <ele>357.198923</ele>
        <time>2021-01-01T13:16:35.998Z</time>
      </trkpt>
      <trkpt lat="50.991991" lon="8.508090">
        <ele>357.366434</ele>
        <time>2021-01-01T13:16:41.999Z</time>
      </trkpt>
      <trkpt lat="50.992021" lon="8.507941">
        <ele>357.523286</ele>
        <time>2021-01-01T13:16:48.999Z</time>
      </trkpt>
      <trkpt lat="50.992066" lon="8.507797">
        <ele>357.684481</ele>
        <time>2021-01-01T13:16:55.999Z</time>
      </trkpt>
      <trkpt lat="50.992120" lon="8.507682">
        <ele>357.828336</ele>
        <time>2021-01-01T13:17:00.999Z</time>
      </trkpt>
      <trkpt lat="50.992177" lon="8.507549">
        <ele>357.989665</ele>
        <time>2021-01-01T13:17:07.999Z</time>
      </trkpt>
      <trkpt lat="50.992207" lon="8.507411">
        <ele>358.136049</ele>
        <time>2021-01-01T13:17:14.999Z</time>
      </trkpt>
      <trkpt lat="50.992244" lon="8.507261">
        <ele>357.917186</ele>
        <time>2021-01-01T13:17:22.999Z</time>
      </trkpt>
      <trkpt lat="50.992273" lon="8.507123">
        <ele>357.698512</ele>
        <time>2021-01-01T13:17:28.999Z</time>
      </trkpt>
      <trkpt lat="50.992296" lon="8.506974">
        <ele>357.467923</ele>
        <time>2021-01-01T13:17:33.999Z</time>
      </trkpt>
      <trkpt lat="50.992346" lon="8.506839">
        <ele>357.232491</ele>
        <time>2021-01-01T13:17:41.999Z</time>
      </trkpt>
      <trkpt lat="50.992416" lon="8.506724">
        <ele>356.992037</ele>
        <time>2021-01-01T13:17:48.999Z</time>
      </trkpt>
      <trkpt lat="50.992475" lon="8.506616">
        <ele>356.777095</ele>
        <time>2021-01-01T13:17:53.999Z</time>
      </trkpt>
      <trkpt lat="50.992519" lon="8.506462">
        <ele>356.522897</ele>
        <time>2021-01-01T13:18:00.999Z</time>
      </trkpt>
      <trkpt lat="50.992572" lon="8.506308">
        <ele>356.259090</ele>
        <time>2021-01-01T13:18:06.999Z</time>
      </trkpt>
      <trkpt lat="50.992601" lon="8.506157">
        <ele>356.021802</ele>
        <time>2021-01-01T13:18:13.999Z</time>
      </trkpt>
      <trkpt lat="50.992658" lon="8.506013">
        <ele>355.766124</ele>
        <time>2021-01-01T13:18:20.999Z</time>
      </trkpt>
      <trkpt lat="50.992726" lon="8.505897">
        <ele>355.527869</ele>
        <time>2021-01-01T13:18:26.999Z</time>
      </trkpt>
      <trkpt lat="50.992782" lon="8.505757">
        <ele>355.278549</ele>
        <time>2021-01-01T13:18:33.999Z</time>
      </trkpt>
      <trkpt lat="50.992834" lon="8.505632">
        <ele>355.053344</ele>
        <time>2021-01-01T13:18:39.998Z</time>
      </trkpt>
      <trkpt lat="50.992891" lon="8.505497">
        <ele>354.809012</ele>
        <time>2021-01-01T13:18:47.998Z</time>
      </trkpt>
      <trkpt lat="50.992946" lon="8.505377">
        <ele>354.585898</ele>
        <time>2021-01-01T13:18:54.997Z</time>
      </trkpt>
      <trkpt lat="50.992998" lon="8.505240">
        <ele>354.345441</ele>
        <time>2021-01-01T13:19:02.997Z</time>
      </trkpt>
      <trkpt lat="50.993057" lon="8.505110">
        <ele>354.104552</ele>
        <time>2021-01-01T13:19:09.997Z</time>
      </trkpt>
      <trkpt lat="50.993123" lon="8.504975">
        <ele>353.850308</ele>
        <time>2021-01-01T13:19:16.997Z</time>
      </trkpt>
      <trkpt lat="50.993178" lon="8.504853">
        <ele>353.851701</ele>
        <time>2021-01-01T13:19:22.997Z</time>
      </trkpt>
      <trkpt lat="50.993236" lon="8.504713">
        <ele>353.853255</ele>
        <time>2021-01-01T13:19:30.997Z</time>
      </trkpt>
      <trkpt lat="50.993283" lon="8.504587">
        <ele>353.854614</ele>
        <time>2021-01-01T13:19:37.997Z</time>
      </trkpt>
      <trkpt lat="50.993334" lon="8.504462">
        <ele>353.855996</ele>
        <time>2021-01-01T13:19:44.997Z</time>
      </trkpt>
      <trkpt lat="50.993400" lon="8.504350">
        <ele>353.857420</ele>
        <time>2021-01-01T13:19:52.997Z</time>
      </trkpt>
      <trkpt lat="50.993447" lon="8.504220">
        <ele>353.858810</ele>
        <time>2021-01-01T13:19:59.997Z</time>
      </trkpt>
      <trkpt lat="50.993505" lon="8.504087">
        <ele>353.860311</ele>
        <time>2021-01-01T13:20:06.997Z</time>
      </trkpt>
      <trkpt lat="50.993566" lon="8.503981">
        <ele>353.861644</ele>
        <time>2021-01-01T13:20:11.997Z</time>
      </trkpt>
      <trkpt lat="50.993618" lon="8.503856">
        <ele>353.863034</ele>
        <time>2021-01-01T13:20:17.997Z</time>
      </trkpt>
      <trkpt lat="50.993679" lon="8.503746">
        <ele>353.864394</ele>
        <time>2021-01-01T13:20:23.996Z</time>
      </trkpt>
      <trkpt lat="50.993728" lon="8.503611">
        <ele>353.865840</ele>
        <time>2021-01-01T13:20:30.996Z</time>
      </trkpt>
      <trkpt lat="50.993792" lon="8.503485">
        <ele>353.867342</ele>
        <time>2021-01-01T13:20:37.996Z</time>
      </trkpt>
      <trkpt lat="50.993846" lon="8.503362">
        <ele>353.868733</ele>
        <time>2021-01-01T13:20:44.996Z</time>
      </trkpt>
      <trkpt lat="50.993883" lon="8.503229">
        <ele>353.870082</ele>
        <time>2021-01-01T13:20:51.996Z</time>
      </trkpt>
      <trkpt lat="50.993940" lon="8.503107">
        <ele>353.871491</ele>
        <time>2021-01-01T13:20:57.996Z</time>
      </trkpt>
      <trkpt lat="50.994002" lon="8.502982">
        <ele>353.872968</ele>
        <time>2021-01-01T13:21:04.996Z</time>
      </trkpt>
      <trkpt lat="50.994060" lon="8.502865">
        <ele>353.874349</ele>
        <time>2021-01-01T13:21:10.996Z</time>
      </trkpt>
      <trkpt lat="50.994119" lon="8.502728">
        <ele>353.875889</ele>
        <time>2021-01-01T13:21:17.996Z</time>
      </trkpt>
      <trkpt lat="50.994190" lon="8.502608">
        <ele>353.733042</ele>
        <time>2021-01-01T13:21:24.996Z</time>
      </trkpt>
      <trkpt lat="50.994237" lon="8.502486">
        <ele>353.422695</ele>
        <time>2021-01-01T13:21:30.996Z</time>
      </trkpt>
      <trkpt lat="50.994289" lon="8.502351">
        <ele>353.079293</ele>
        <time>2021-01-01T13:21:37.996Z</time>
      </trkpt>
      <trkpt lat="50.994349" lon="8.502223">
        <ele>352.733020</ele>
        <time>2021-01-01T13:21:44.996Z</time>
      </trkpt>
      <trkpt lat="50.994393" lon="8.502095">
        <ele>352.416584</ele>
        <time>2021-01-01T13:21:51.996Z</time>
      </trkpt>
      <trkpt lat="50.994456" lon="8.501971">
        <ele>352.070831</ele>
        <time>2021-01-01T13:22:00.995Z</time>
      </trkpt>
      <trkpt lat="50.994510" lon="8.501834">
        <ele>351.720112</ele>
        <time>2021-01-01T13:22:07.995Z</time>
      </trkpt>
      <trkpt lat="50.994555" lon="8.501693">
        <ele>351.377110</ele>
        <time>2021-01-01T13:22:13.995Z</time>
      </trkpt>
      <trkpt lat="50.994620" lon="8.501592">
        <ele>351.063699</ele>
        <time>2021-01-01T13:22:19.995Z</time>
      </trkpt>
      <trkpt lat="50.994676" lon="8.501449">
        <ele>350.698287</ele>
        <time>2021-01-01T13:22:26.995Z</time>
      </trkpt>
      <trkpt lat="50.994725" lon="8.501318">
        <ele>350.367661</ele>
        <time>2021-01-01T13:22:34.995Z</time>
      </trkpt>
      <trkpt lat="50.994774" lon="8.501196">
        <ele>350.053662</ele>
        <time>2021-01-01T13:22:41.995Z</time>
      </trkpt>
      <trkpt lat="50.994817" lon="8.501067">
        <ele>349.736951</ele>
        <time>2021-01-01T13:22:48.995Z</time>
      </trkpt>
      <trkpt lat="50.994880" lon="8.500937">
        <ele>349.380977</ele>
        <time>2021-01-01T13:22:54.995Z</time>
      </trkpt>
      <trkpt lat="50.994934" lon="8.500810">
        <ele>349.048448</ele>
        <time>2021-01-01T13:23:00.995Z</time>
      </trkpt>
      <trkpt lat="50.994980" lon="8.500676">
        <ele>348.717286</ele>
        <time>2021-01-01T13:23:05.995Z</time>
      </trkpt>
      <trkpt lat="50.995028" lon="8.500517">
        <ele>348.334685</ele>
        <time>2021-01-01T13:23:09.995Z</time>
      </trkpt>
      <trkpt lat="50.995108" lon="8.500435">
        <ele>348.006503</ele>
        <time>2021-01-01T13:23:14.995Z</time>
      </trkpt>
      <trkpt lat="50.995127" lon="8.500586">
        <ele>347.661588</ele>
        <time>2021-01-01T13:23:22.995Z</time>
      </trkpt>
      <trkpt lat="50.995194" lon="8.500467">
        <ele>346.405964</ele>
        <time>2021-01-01T13:23:36.997Z</time>
      </trkpt>
      <trkpt lat="50.995236" lon="8.500332">
        <ele>345.221695</ele>
        <time>2021-01-01T13:23:41.998Z</time>
      </trkpt>
      <trkpt lat="50.995285" lon="8.500202">
        <ele>344.030059</ele>
        <time>2021-01-01T13:23:47.998Z</time>
      </trkpt>
      <trkpt lat="50.995318" lon="8.500055">
        <ele>342.802710</ele>
        <time>2021-01-01T13:23:54.998Z</time>
      </trkpt>
      <trkpt lat="50.995261" lon="8.500221">
        <ele>341.315636</ele>
        <time>2021-01-01T13:24:00.998Z</time>
      </trkpt>
      <trkpt lat="50.995198" lon="8.500329">
        <ele>340.157628</ele>
        <time>2021-01-01T13:24:11.998Z</time>
      </trkpt>
      <trkpt lat="50.995282" lon="8.500269">
        <ele>339.006878</ele>
        <time>2021-01-01T13:24:17.998Z</time>
      </trkpt>
      <trkpt lat="50.995351" lon="8.500150">
        <ele>337.734459</ele>
        <time>2021-01-01T13:24:22.998Z</time>
      </trkpt>
      <trkpt lat="50.995419" lon="8.500017">
        <ele>336.386927</ele>
        <time>2021-01-01T13:24:28.998Z</time>
      </trkpt>
      <trkpt lat="50.995476" lon="8.499884">
        <ele>335.121552</ele>
        <time>2021-01-01T13:24:33.998Z</time>
      </trkpt>
      <trkpt lat="50.995543" lon="8.499766">
        <ele>333.871783</ele>
        <time>2021-01-01T13:24:37.998Z</time>
      </trkpt>
      <trkpt lat="50.995613" lon="8.499628">
        <ele>332.477969</ele>
        <time>2021-01-01T13:24:42.998Z</time>
      </trkpt>
      <trkpt lat="50.995673" lon="8.499498">
        <ele>331.210227</ele>
        <time>2021-01-01T13:24:44.998Z</time>
      </trkpt>
      <trkpt lat="50.995702" lon="8.499345">
        <ele>329.953660</ele>
        <time>2021-01-01T13:24:46.998Z</time>
      </trkpt>
      <trkpt lat="50.995756" lon="8.499164">
        <ele>328.378460</ele>
        <time>2021-01-01T13:24:49.998Z</time>
      </trkpt>
      <trkpt lat="50.995819" lon="8.499281">
        <ele>327.167594</ele>
        <time>2021-01-01T13:24:53.998Z</time>
      </trkpt>
      <trkpt lat="50.995781" lon="8.499126">
        <ele>325.859470</ele>
        <time>2021-01-01T13:25:03.998Z</time>
      </trkpt>
      <trkpt lat="50.995705" lon="8.499009">
        <ele>326.532575</ele>
        <time>2021-01-01T13:25:07.998Z</time>
      </trkpt>
      <trkpt lat="50.995635" lon="8.498862">
        <ele>329.428834</ele>
        <time>2021-01-01T13:25:10.998Z</time>
      </trkpt>
      <trkpt lat="50.995584" lon="8.498724">
        <ele>331.943260</ele>
        <time>2021-01-01T13:25:12.998Z</time>
      </trkpt>
      <trkpt lat="50.995502" lon="8.498612">
        <ele>334.642746</ele>
        <time>2021-01-01T13:25:16.998Z</time>
      </trkpt>
      <trkpt lat="50.995434" lon="8.498480">
        <ele>337.322896</ele>
        <time>2021-01-01T13:25:20.998Z</time>
      </trkpt>
      <trkpt lat="50.995376" lon="8.498322">
        <ele>340.196807</ele>
        <time>2021-01-01T13:25:26.998Z</time>
      </trkpt>
      <trkpt lat="50.995312" lon="8.498212">
        <ele>342.550491</ele>
        <time>2021-01-01T13:25:31.998Z</time>
      </trkpt>
      <trkpt lat="50.995287" lon="8.498068">
        <ele>344.897539</ele>
        <time>2021-01-01T13:25:39.998Z</time>
      </trkpt>
      <trkpt lat="50.995263" lon="8.497920">
        <ele>347.298881</ele>
        <time>2021-01-01T13:25:47.998Z</time>
      </trkpt>
      <trkpt lat="50.995250" lon="8.497753">
        <ele>349.942803</ele>
        <time>2021-01-01T13:25:53.997Z</time>
      </trkpt>
      <trkpt lat="50.995236" lon="8.497603">
        <ele>352.325400</ele>
        <time>2021-01-01T13:26:00.997Z</time>
      </trkpt>
      <trkpt lat="50.995222" lon="8.497457">
        <ele>354.645846</ele>
        <time>2021-01-01T13:26:08.997Z</time>
      </trkpt>
      <trkpt lat="50.995267" lon="8.497319">
        <ele>357.087862</ele>
        <time>2021-01-01T13:26:14.997Z</time>
      </trkpt>
      <trkpt lat="50.995336" lon="8.497204">
        <ele>359.584260</ele>
        <time>2021-01-01T13:26:22.997Z</time>
      </trkpt>
      <trkpt lat="50.995425" lon="8.497154">
        <ele>361.940883</ele>
        <time>2021-01-01T13:26:34.997Z</time>
      </trkpt>
      <trkpt lat="50.995522" lon="8.497087">
        <ele>364.581345</ele>
        <time>2021-01-01T13:26:42.997Z</time>
      </trkpt>
      <trkpt lat="50.995606" lon="8.497007">
        <ele>367.026211</ele>
        <time>2021-01-01T13:26:45.997Z</time>
      </trkpt>
      <trkpt lat="50.995686" lon="8.496923">
        <ele>369.420054</ele>
        <time>2021-01-01T13:26:57.997Z</time>
      </trkpt>
      <trkpt lat="50.995753" lon="8.496826">
        <ele>370.783763</ele>
        <time>2021-01-01T13:27:05.997Z</time>
      </trkpt>
      <trkpt lat="50.995834" lon="8.496753">
        <ele>371.784091</ele>
        <time>2021-01-01T13:27:12.997Z</time>
      </trkpt>
      <trkpt lat="50.995946" lon="8.496723">
        <ele>373.004171</ele>
        <time>2021-01-01T13:27:20.997Z</time>
      </trkpt>
      <trkpt lat="50.996031" lon="8.496655">
        <ele>374.026447</ele>
        <time>2021-01-01T13:27:26.996Z</time>
      </trkpt>
      <trkpt lat="50.996127" lon="8.496638">
        <ele>375.064064</ele>
        <time>2021-01-01T13:27:32.996Z</time>
      </trkpt>
      <trkpt lat="50.996208" lon="8.496535">
        <ele>376.178508</ele>
        <time>2021-01-01T13:27:39.996Z</time>
      </trkpt>
      <trkpt lat="50.996201" lon="8.496382">
        <ele>377.215626</ele>
        <time>2021-01-01T13:27:53.996Z</time>
      </trkpt>
      <trkpt lat="50.996188" lon="8.496188">
        <ele>378.534618</ele>
        <time>2021-01-01T13:28:00.996Z</time>
      </trkpt>
      <trkpt lat="50.996278" lon="8.496133">
        <ele>379.570440</ele>
        <time>2021-01-01T13:28:04.996Z</time>
      </trkpt>
      <trkpt lat="50.996204" lon="8.496022">
        <ele>380.663617</ele>
        <time>2021-01-01T13:28:13.996Z</time>
      </trkpt>
      <trkpt lat="50.996150" lon="8.495905">
        <ele>381.644517</ele>
        <time>2021-01-01T13:28:18.996Z</time>
      </trkpt>
      <trkpt lat="50.996113" lon="8.495767">
        <ele>382.658628</ele>
        <time>2021-01-01T13:28:25.996Z</time>
      </trkpt>
      <trkpt lat="50.996073" lon="8.495615">
        <ele>383.772472</ele>
        <time>2021-01-01T13:28:32.996Z</time>
      </trkpt>
      <trkpt lat="50.996012" lon="8.495503">
        <ele>384.773833</ele>
        <time>2021-01-01T13:28:41.996Z</time>
      </trkpt>
      <trkpt lat="50.995952" lon="8.495386">
        <ele>385.794175</ele>
        <time>2021-01-01T13:28:48.996Z</time>
      </trkpt>
      <trkpt lat="50.995885" lon="8.495263">
        <ele>386.893948</ele>
        <time>2021-01-01T13:28:55.995Z</time>
      </trkpt>
      <trkpt lat="50.995835" lon="8.495138">
        <ele>387.895278</ele>
        <time>2021-01-01T13:29:02.995Z</time>
      </trkpt>
      <trkpt lat="50.995790" lon="8.495014">
        <ele>388.862993</ele>
        <time>2021-01-01T13:29:09.995Z</time>
      </trkpt>
      <trkpt lat="50.995763" lon="8.494874">
        <ele>389.319754</ele>
        <time>2021-01-01T13:29:14.995Z</time>
      </trkpt>
      <trkpt lat="50.995836" lon="8.494986">
        <ele>389.049479</ele>
        <time>2021-01-01T13:29:18.995Z</time>
      </trkpt>
      <trkpt lat="50.995810" lon="8.494805">
        <ele>388.738272</ele>
        <time>2021-01-01T13:31:13.998Z</time>
      </trkpt>
      <trkpt lat="50.995803" lon="8.494627">
        <ele>388.439314</ele>
        <time>2021-01-01T13:31:31.998Z</time>
      </trkpt>
      <trkpt lat="50.995811" lon="8.494476">
        <ele>388.185303</ele>
        <time>2021-01-01T13:31:39.998Z</time>
      </trkpt>
      <trkpt lat="50.995836" lon="8.494333">
        <ele>387.936520</ele>
        <time>2021-01-01T13:31:48.998Z</time>
      </trkpt>
      <trkpt lat="50.995866" lon="8.494189">
        <ele>387.682257</ele>
        <time>2021-01-01T13:31:58.998Z</time>
      </trkpt>
      <trkpt lat="50.995920" lon="8.494037">
        <ele>387.389676</ele>
        <time>2021-01-01T13:32:06.998Z</time>
      </trkpt>
      <trkpt lat="50.995965" lon="8.493891">
        <ele>387.117170</ele>
        <time>2021-01-01T13:32:10.998Z</time>
      </trkpt>
      <trkpt lat="50.996025" lon="8.493782">
        <ele>386.874434</ele>
        <time>2021-01-01T13:32:16.998Z</time>
      </trkpt>
      <trkpt lat="50.996063" lon="8.493652">
        <ele>386.634164</ele>
        <time>2021-01-01T13:32:34.997Z</time>
      </trkpt>
      <trkpt lat="50.996100" lon="8.493505">
        <ele>386.368780</ele>
        <time>2021-01-01T13:32:46.997Z</time>
      </trkpt>
      <trkpt lat="50.996113" lon="8.493355">
        <ele>386.114968</ele>
        <time>2021-01-01T13:32:59.997Z</time>
      </trkpt>
      <trkpt lat="50.996063" lon="8.493210">
        <ele>385.837820</ele>
        <time>2021-01-01T13:33:09.997Z</time>
      </trkpt>
      <trkpt lat="50.996051" lon="8.493060">
        <ele>385.584358</ele>
        <time>2021-01-01T13:33:16.997Z</time>
      </trkpt>
      <trkpt lat="50.996023" lon="8.492920">
        <ele>385.338118</ele>
        <time>2021-01-01T13:33:25.997Z</time>
      </trkpt>
      <trkpt lat="50.996000" lon="8.492771">
        <ele>385.080953</ele>
        <time>2021-01-01T13:33:34.997Z</time>
      </trkpt>
      <trkpt lat="50.995954" lon="8.492636">
        <ele>384.823621</ele>
        <time>2021-01-01T13:33:39.997Z</time>
      </trkpt>
      <trkpt lat="50.995906" lon="8.492443">
        <ele>384.318741</ele>
        <time>2021-01-01T13:33:44.997Z</time>
      </trkpt>
      <trkpt lat="50.995848" lon="8.492320">
        <ele>383.807435</ele>
        <time>2021-01-01T13:33:47.997Z</time>
      </trkpt>
      <trkpt lat="50.995801" lon="8.492176">
        <ele>383.267787</ele>
        <time>2021-01-01T13:33:50.997Z</time>
      </trkpt>
      <trkpt lat="50.995742" lon="8.492066">
        <ele>382.786976</ele>
        <time>2021-01-01T13:33:53.997Z</time>
      </trkpt>
      <trkpt lat="50.995680" lon="8.491946">
        <ele>382.270470</ele>
        <time>2021-01-01T13:33:58.997Z</time>
      </trkpt>
      <trkpt lat="50.995620" lon="8.491834">
        <ele>381.781165</ele>
        <time>2021-01-01T13:34:06.996Z</time>
      </trkpt>
      <trkpt lat="50.995540" lon="8.491734">
        <ele>381.243115</ele>
        <time>2021-01-01T13:34:13.996Z</time>
      </trkpt>
      <trkpt lat="50.995466" lon="8.491631">
        <ele>380.723096</ele>
        <time>2021-01-01T13:34:19.996Z</time>
      </trkpt>
      <trkpt lat="50.995390" lon="8.491537">
        <ele>380.213999</ele>
        <time>2021-01-01T13:34:28.996Z</time>
      </trkpt>
      <trkpt lat="50.995317" lon="8.491452">
        <ele>379.735605</ele>
        <time>2021-01-01T13:34:34.996Z</time>
      </trkpt>
      <trkpt lat="50.995246" lon="8.491354">
        <ele>379.238469</ele>
        <time>2021-01-01T13:34:44.996Z</time>
      </trkpt>
      <trkpt lat="50.995220" lon="8.491198">
        <ele>378.701592</ele>
        <time>2021-01-01T13:34:53.996Z</time>
      </trkpt>
      <trkpt lat="50.995219" lon="8.491051">
        <ele>378.212516</ele>
        <time>2021-01-01T13:35:10.996Z</time>
      </trkpt>
      <trkpt lat="50.995248" lon="8.490898">
        <ele>377.680927</ele>
        <time>2021-01-01T13:35:17.996Z</time>
      </trkpt>
      <trkpt lat="50.995297" lon="8.490770">
        <ele>377.182507</ele>
        <time>2021-01-01T13:35:23.996Z</time>
      </trkpt>
      <trkpt lat="50.995396" lon="8.490747">
        <ele>376.653641</ele>
        <time>2021-01-01T13:35:39.996Z</time>
      </trkpt>
      <trkpt lat="50.995491" lon="8.490758">
        <ele>376.150151</ele>
        <time>2021-01-01T13:35:45.995Z</time>
      </trkpt>
      <trkpt lat="50.995589" lon="8.490795">
        <ele>375.617711</ele>
        <time>2021-01-01T13:35:52.995Z</time>
      </trkpt>
      <trkpt lat="50.995686" lon="8.490841">
        <ele>375.109641</ele>
        <time>2021-01-01T13:35:57.995Z</time>
      </trkpt>
      <trkpt lat="50.995784" lon="8.490851">
        <ele>374.900828</ele>
        <time>2021-01-01T13:36:03.995Z</time>
      </trkpt>
      <trkpt lat="50.995875" lon="8.490868">
        <ele>374.705997</ele>
        <time>2021-01-01T13:36:09.995Z</time>
      </trkpt>
      <trkpt lat="50.995996" lon="8.490812">
        <ele>374.438015</ele>
        <time>2021-01-01T13:36:14.995Z</time>
      </trkpt>
      <trkpt lat="50.996051" lon="8.490649">
        <ele>374.190504</ele>
        <time>2021-01-01T13:36:17.995Z</time>
      </trkpt>
      <trkpt lat="50.996042" lon="8.490493">
        <ele>373.980858</ele>
        <time>2021-01-01T13:36:19.995Z</time>
      </trkpt>
      <trkpt lat="50.996131" lon="8.490533">
        <ele>373.784187</ele>
        <time>2021-01-01T13:36:28.995Z</time>
      </trkpt>
      <trkpt lat="50.996233" lon="8.490726">
        <ele>373.446916</ele>
        <time>2021-01-01T13:36:35.995Z</time>
      </trkpt>
      <trkpt lat="50.996309" lon="8.490858">
        <ele>373.207497</ele>
        <time>2021-01-01T13:36:40.995Z</time>
      </trkpt>
      <trkpt lat="50.996377" lon="8.491002">
        <ele>372.966574</ele>
        <time>2021-01-01T13:36:44.995Z</time>
      </trkpt>
      <trkpt lat="50.996453" lon="8.491107">
        <ele>372.752422</ele>
        <time>2021-01-01T13:36:49.995Z</time>
      </trkpt>
      <trkpt lat="50.996543" lon="8.491165">
        <ele>372.545909</ele>
        <time>2021-01-01T13:36:55.995Z</time>
      </trkpt>
      <trkpt lat="50.996642" lon="8.491166">
        <ele>372.335395</ele>
        <time>2021-01-01T13:37:03.995Z</time>
      </trkpt>
      <trkpt lat="50.996725" lon="8.491082">
        <ele>372.126147</ele>
        <time>2021-01-01T13:37:10.995Z</time>
      </trkpt>
      <trkpt lat="50.996772" lon="8.490940">
        <ele>371.911438</ele>
        <time>2021-01-01T13:37:17.995Z</time>
      </trkpt>
      <trkpt lat="50.996823" lon="8.490816">
        <ele>371.713203</ele>
        <time>2021-01-01T13:37:25.994Z</time>
      </trkpt>
      <trkpt lat="50.996876" lon="8.490696">
        <ele>371.517015</ele>
        <time>2021-01-01T13:37:33.994Z</time>
      </trkpt>
      <trkpt lat="50.996971" lon="8.490623">
        <ele>371.282865</ele>
        <time>2021-01-01T13:37:37.995Z</time>
      </trkpt>
      <trkpt lat="50.997062" lon="8.490578">
        <ele>370.894155</ele>
        <time>2021-01-01T13:37:45.997Z</time>
      </trkpt>
      <trkpt lat="50.997157" lon="8.490576">
        <ele>370.506656</ele>
        <time>2021-01-01T13:37:59.998Z</time>
      </trkpt>
      <trkpt lat="50.997201" lon="8.490438">
        <ele>370.109561</ele>
        <time>2021-01-01T13:38:10.999Z</time>
      </trkpt>
      <trkpt lat="50.997262" lon="8.490332">
        <ele>369.740873</ele>
        <time>2021-01-01T13:38:18.999Z</time>
      </trkpt>
      <trkpt lat="50.997356" lon="8.490246">
        <ele>369.298474</ele>
        <time>2021-01-01T13:38:28.999Z</time>
      </trkpt>
      <trkpt lat="50.997451" lon="8.490169">
        <ele>368.863509</ele>
        <time>2021-01-01T13:38:32.999Z</time>
      </trkpt>
      <trkpt lat="50.997511" lon="8.490048">
        <ele>368.468095</ele>
        <time>2021-01-01T13:38:35.999Z</time>
      </trkpt>
      <trkpt lat="50.997566" lon="8.489934">
        <ele>368.099383</ele>
        <time>2021-01-01T13:38:41.999Z</time>
      </trkpt>
      <trkpt lat="50.997603" lon="8.489794">
        <ele>367.709622</ele>
        <time>2021-01-01T13:38:47.999Z</time>
      </trkpt>
      <trkpt lat="50.997635" lon="8.489649">
        <ele>367.315206</ele>
        <time>2021-01-01T13:38:52.999Z</time>
      </trkpt>
      <trkpt lat="50.997659" lon="8.489480">
        <ele>366.870500</ele>
        <time>2021-01-01T13:38:57.999Z</time>
      </trkpt>
      <trkpt lat="50.997701" lon="8.489350">
        <ele>366.495407</ele>
        <time>2021-01-01T13:39:00.999Z</time>
      </trkpt>
      <trkpt lat="50.997756" lon="8.489201">
        <ele>366.052014</ele>
        <time>2021-01-01T13:39:04.999Z</time>
      </trkpt>
      <trkpt lat="50.997775" lon="8.489036">
        <ele>365.621452</ele>
        <time>2021-01-01T13:39:07.999Z</time>
      </trkpt>
      <trkpt lat="50.997812" lon="8.488879">
        <ele>365.191127</ele>
        <time>2021-01-01T13:39:11.998Z</time>
      </trkpt>
      <trkpt lat="50.997863" lon="8.488744">
        <ele>364.786965</ele>
        <time>2021-01-01T13:39:17.998Z</time>
      </trkpt>
      <trkpt lat="50.997947" lon="8.488690">
        <ele>364.417387</ele>
        <time>2021-01-01T13:39:30.998Z</time>
      </trkpt>
      <trkpt lat="50.998018" lon="8.488562">
        <ele>363.979432</ele>
        <time>2021-01-01T13:39:36.998Z</time>
      </trkpt>
      <trkpt lat="50.998070" lon="8.488442">
        <ele>363.675684</ele>
        <time>2021-01-01T13:39:43.998Z</time>
      </trkpt>
      <trkpt lat="50.998245" lon="8.488182">
        <ele>362.888149</ele>
        <time>2021-01-01T13:40:10.998Z</time>
      </trkpt>
      <trkpt lat="50.998304" lon="8.488071">
        <ele>362.587580</ele>
        <time>2021-01-01T13:40:24.998Z</time>
      </trkpt>
      <trkpt lat="50.998519" lon="8.488058">
        <ele>361.880339</ele>
        <time>2021-01-01T13:41:05.997Z</time>
      </trkpt>
      <trkpt lat="50.998661" lon="8.487922">
        <ele>361.335335</ele>
        <time>2021-01-01T13:41:41.997Z</time>
      </trkpt>
      <trkpt lat="50.998760" lon="8.487903">
        <ele>361.007546</ele>
        <time>2021-01-01T13:41:49.997Z</time>
      </trkpt>
      <trkpt lat="50.998851" lon="8.487896">
        <ele>360.708068</ele>
        <time>2021-01-01T13:41:56.997Z</time>
      </trkpt>
      <trkpt lat="50.998945" lon="8.487880">
        <ele>360.397312</ele>
        <time>2021-01-01T13:42:05.997Z</time>
      </trkpt>
      <trkpt lat="50.999027" lon="8.487810">
        <ele>360.091333</ele>
        <time>2021-01-01T13:42:11.997Z</time>
      </trkpt>
      <trkpt lat="50.999116" lon="8.487731">
        <ele>359.756228</ele>
        <time>2021-01-01T13:42:19.997Z</time>
      </trkpt>
      <trkpt lat="50.999173" lon="8.487617">
        <ele>359.455027</ele>
        <time>2021-01-01T13:42:25.997Z</time>
      </trkpt>
      <trkpt lat="50.999251" lon="8.487544">
        <ele>359.157465</ele>
        <time>2021-01-01T13:42:30.997Z</time>
      </trkpt>
      <trkpt lat="50.999323" lon="8.487442">
        <ele>358.840389</ele>
        <time>2021-01-01T13:42:36.997Z</time>
      </trkpt>
      <trkpt lat="50.999399" lon="8.487360">
        <ele>358.538420</ele>
        <time>2021-01-01T13:42:42.997Z</time>
      </trkpt>
      <trkpt lat="50.999491" lon="8.487348">
        <ele>358.234989</ele>
        <time>2021-01-01T13:42:51.997Z</time>
      </trkpt>
      <trkpt lat="50.999500" lon="8.487198">
        <ele>358.085874</ele>
        <time>2021-01-01T13:42:58.996Z</time>
      </trkpt>
      <trkpt lat="50.999493" lon="8.487040">
        <ele>358.162652</ele>
        <time>2021-01-01T13:43:04.996Z</time>
      </trkpt>
      <trkpt lat="50.999521" lon="8.486902">
        <ele>358.232937</ele>
        <time>2021-01-01T13:43:11.996Z</time>
      </trkpt>
      <trkpt lat="50.999549" lon="8.486761">
        <ele>358.304607</ele>
        <time>2021-01-01T13:43:17.996Z</time>
      </trkpt>
      <trkpt lat="50.999586" lon="8.486616">
        <ele>358.380452</ele>
        <time>2021-01-01T13:43:23.996Z</time>
      </trkpt>
      <trkpt lat="50.999620" lon="8.486459">
        <ele>358.460936</ele>
        <time>2021-01-01T13:43:30.996Z</time>
      </trkpt>
      <trkpt lat="50.999674" lon="8.486339">
        <ele>358.532445</ele>
        <time>2021-01-01T13:43:37.996Z</time>
      </trkpt>
      <trkpt lat="50.999736" lon="8.486214">
        <ele>358.609594</ele>
        <time>2021-01-01T13:43:46.996Z</time>
      </trkpt>
      <trkpt lat="50.999811" lon="8.486113">
        <ele>358.685318</ele>
        <time>2021-01-01T13:43:53.996Z</time>
      </trkpt>
      <trkpt lat="50.999877" lon="8.486004">
        <ele>358.758639</ele>
        <time>2021-01-01T13:44:00.996Z</time>
      </trkpt>
      <trkpt lat="50.999957" lon="8.485900">
        <ele>358.838254</ele>
        <time>2021-01-01T13:44:07.996Z</time>
      </trkpt>
      <trkpt lat="51.000054" lon="8.485833">
        <ele>358.919721</ele>
        <time>2021-01-01T13:44:13.996Z</time>
      </trkpt>
      <trkpt lat="51.000120" lon="8.485727">
        <ele>358.992001</ele>
        <time>2021-01-01T13:44:20.996Z</time>
      </trkpt>
      <trkpt lat="51.000202" lon="8.485630">
        <ele>359.070741</ele>
        <time>2021-01-01T13:44:27.996Z</time>
      </trkpt>
      <trkpt lat="51.000290" lon="8.485580">
        <ele>359.142726</ele>
        <time>2021-01-01T13:44:33.996Z</time>
      </trkpt>
      <trkpt lat="51.000372" lon="8.485492">
        <ele>359.218942</ele>
        <time>2021-01-01T13:44:39.995Z</time>
      </trkpt>
      <trkpt lat="51.000462" lon="8.485438">
        <ele>359.293041</ele>
        <time>2021-01-01T13:44:46.996Z</time>
      </trkpt>
      <trkpt lat="51.000551" lon="8.485364">
        <ele>359.370411</ele>
        <time>2021-01-01T13:44:53.997Z</time>
      </trkpt>
      <trkpt lat="51.000613" lon="8.485237">
        <ele>359.443818</ele>
        <time>2021-01-01T13:44:59.998Z</time>
      </trkpt>
      <trkpt lat="51.000673" lon="8.485116">
        <ele>359.475980</ele>
        <time>2021-01-01T13:45:06.998Z</time>
      </trkpt>
      <trkpt lat="51.000744" lon="8.485001">
        <ele>359.509614</ele>
        <time>2021-01-01T13:45:13.999Z</time>
      </trkpt>
      <trkpt lat="51.000802" lon="8.484874">
        <ele>359.542375</ele>
        <time>2021-01-01T13:45:19.999Z</time>
      </trkpt>
      <trkpt lat="51.000872" lon="8.484758">
        <ele>359.575928</ele>
        <time>2021-01-01T13:45:25.999Z</time>
      </trkpt>
      <trkpt lat="51.000959" lon="8.484702">
        <ele>359.607069</ele>
        <time>2021-01-01T13:45:40.999Z</time>
      </trkpt>
      <trkpt lat="51.001058" lon="8.484667">
        <ele>359.640715</ele>
        <time>2021-01-01T13:45:47.999Z</time>
      </trkpt>
      <trkpt lat="51.001140" lon="8.484602">
        <ele>359.671116</ele>
        <time>2021-01-01T13:45:54.999Z</time>
      </trkpt>
      <trkpt lat="51.001224" lon="8.484544">
        <ele>359.701500</ele>
        <time>2021-01-01T13:46:01.999Z</time>
      </trkpt>
      <trkpt lat="51.001307" lon="8.484489">
        <ele>359.731334</ele>
        <time>2021-01-01T13:46:08.999Z</time>
      </trkpt>
      <trkpt lat="51.001390" lon="8.484422">
        <ele>359.762219</ele>
        <time>2021-01-01T13:46:15.999Z</time>
      </trkpt>
      <trkpt lat="51.001482" lon="8.484412">
        <ele>359.792812</ele>
        <time>2021-01-01T13:46:21.999Z</time>
      </trkpt>
      <trkpt lat="51.001575" lon="8.484369">
        <ele>359.824944</ele>
        <time>2021-01-01T13:46:27.999Z</time>
      </trkpt>
      <trkpt lat="51.001676" lon="8.484324">
        <ele>359.859743</ele>
        <time>2021-01-01T13:46:35.999Z</time>
      </trkpt>
      <trkpt lat="51.001772" lon="8.484314">
        <ele>359.891660</ele>
        <time>2021-01-01T13:46:43.999Z</time>
      </trkpt>
      <trkpt lat="51.001862" lon="8.484301">
        <ele>359.921641</ele>
        <time>2021-01-01T13:46:50.999Z</time>
      </trkpt>
      <trkpt lat="51.001961" lon="8.484258">
        <ele>359.955689</ele>
        <time>2021-01-01T13:46:57.999Z</time>
      </trkpt>
      <trkpt lat="51.002063" lon="8.484251">
        <ele>359.989560</ele>
        <time>2021-01-01T13:47:04.998Z</time>
      </trkpt>
      <trkpt lat="51.002278" lon="8.484209">
        <ele>360.104112</ele>
        <time>2021-01-01T13:47:27.998Z</time>
      </trkpt>
      <trkpt lat="51.002370" lon="8.484232">
        <ele>360.189271</ele>
        <time>2021-01-01T13:47:35.998Z</time>
      </trkpt>
      <trkpt lat="51.002472" lon="8.484224">
        <ele>360.282652</ele>
        <time>2021-01-01T13:47:41.998Z</time>
      </trkpt>
      <trkpt lat="51.002562" lon="8.484188">
        <ele>360.367515</ele>
        <time>2021-01-01T13:47:47.998Z</time>
      </trkpt>
      <trkpt lat="51.002671" lon="8.484176">
        <ele>360.467422</ele>
        <time>2021-01-01T13:47:54.998Z</time>
      </trkpt>
      <trkpt lat="51.002767" lon="8.484157">
        <ele>360.555882</ele>
        <time>2021-01-01T13:48:01.998Z</time>
      </trkpt>
      <trkpt lat="51.002863" lon="8.484144">
        <ele>360.643981</ele>
        <time>2021-01-01T13:48:09.998Z</time>
      </trkpt>
      <trkpt lat="51.002965" lon="8.484120">
        <ele>360.738266</ele>
        <time>2021-01-01T13:48:16.998Z</time>
      </trkpt>
      <trkpt lat="51.003066" lon="8.484120">
        <ele>360.830619</ele>
        <time>2021-01-01T13:48:23.998Z</time>
      </trkpt>
      <trkpt lat="51.003163" lon="8.484100">
        <ele>360.920059</ele>
        <time>2021-01-01T13:48:30.998Z</time>
      </trkpt>
      <trkpt lat="51.003264" lon="8.484083">
        <ele>361.012929</ele>
        <time>2021-01-01T13:48:37.998Z</time>
      </trkpt>
      <trkpt lat="51.003372" lon="8.484073">
        <ele>361.111850</ele>
        <time>2021-01-01T13:48:44.998Z</time>
      </trkpt>
      <trkpt lat="51.003471" lon="8.484058">
        <ele>361.202786</ele>
        <time>2021-01-01T13:48:50.998Z</time>
      </trkpt>
      <trkpt lat="51.003570" lon="8.484074">
        <ele>361.293777</ele>
        <time>2021-01-01T13:49:07.998Z</time>
      </trkpt>
      <trkpt lat="51.003666" lon="8.484044">
        <ele>361.383240</ele>
        <time>2021-01-01T13:49:13.998Z</time>
      </trkpt>
      <trkpt lat="51.003757" lon="8.484026">
        <ele>361.467091</ele>
        <time>2021-01-01T13:49:19.998Z</time>
      </trkpt>
      <trkpt lat="51.003848" lon="8.484044">
        <ele>361.550943</ele>
        <time>2021-01-01T13:49:25.998Z</time>
      </trkpt>
      <trkpt lat="51.003945" lon="8.484013">
        <ele>361.641415</ele>
        <time>2021-01-01T13:49:33.997Z</time>
      </trkpt>
      <trkpt lat="51.004045" lon="8.484004">
        <ele>361.694279</ele>
        <time>2021-01-01T13:49:40.997Z</time>
      </trkpt>
      <trkpt lat="51.004136" lon="8.483978">
        <ele>361.714912</ele>
        <time>2021-01-01T13:49:45.997Z</time>
      </trkpt>
      <trkpt lat="51.004231" lon="8.483983">
        <ele>361.736123</ele>
        <time>2021-01-01T13:49:50.997Z</time>
      </trkpt>
      <trkpt lat="51.004332" lon="8.483983">
        <ele>361.758662</ele>
        <time>2021-01-01T13:50:08.997Z</time>
      </trkpt>
      <trkpt lat="51.004439" lon="8.483993">
        <ele>361.782580</ele>
        <time>2021-01-01T13:50:14.997Z</time>
      </trkpt>
      <trkpt lat="51.004536" lon="8.483969">
        <ele>361.804487</ele>
        <time>2021-01-01T13:50:22.997Z</time>
      </trkpt>
      <trkpt lat="51.004628" lon="8.483969">
        <ele>361.825017</ele>
        <time>2021-01-01T13:50:28.997Z</time>
      </trkpt>
      <trkpt lat="51.004718" lon="8.483993">
        <ele>361.845382</ele>
        <time>2021-01-01T13:50:34.997Z</time>
      </trkpt>
      <trkpt lat="51.004817" lon="8.483960">
        <ele>361.867955</ele>
        <time>2021-01-01T13:50:42.997Z</time>
      </trkpt>
      <trkpt lat="51.004907" lon="8.483959">
        <ele>361.888039</ele>
        <time>2021-01-01T13:50:48.997Z</time>
      </trkpt>
      <trkpt lat="51.004999" lon="8.483946">
        <ele>361.908650</ele>
        <time>2021-01-01T13:50:55.997Z</time>
      </trkpt>
      <trkpt lat="51.005108" lon="8.483929">
        <ele>361.933090</ele>
        <time>2021-01-01T13:51:00.997Z</time>
      </trkpt>
      <trkpt lat="51.005200" lon="8.483884">
        <ele>361.954571</ele>
        <time>2021-01-01T13:51:08.997Z</time>
      </trkpt>
      <trkpt lat="51.005301" lon="8.483872">
        <ele>361.977172</ele>
        <time>2021-01-01T13:51:13.997Z</time>
      </trkpt>
      <trkpt lat="51.005397" lon="8.483869">
        <ele>361.998599</ele>
        <time>2021-01-01T13:51:18.997Z</time>
      </trkpt>
      <trkpt lat="51.005495" lon="8.483857">
        <ele>362.020533</ele>
        <time>2021-01-01T13:51:25.997Z</time>
      </trkpt>
      <trkpt lat="51.005596" lon="8.483822">
        <ele>362.043601</ele>
        <time>2021-01-01T13:51:33.997Z</time>
      </trkpt>
      <trkpt lat="51.005686" lon="8.483771">
        <ele>362.064924</ele>
        <time>2021-01-01T13:51:39.997Z</time>
      </trkpt>
      <trkpt lat="51.005779" lon="8.483734">
        <ele>361.966681</ele>
        <time>2021-01-01T13:51:46.996Z</time>
      </trkpt>
      <trkpt lat="51.005867" lon="8.483690">
        <ele>361.209118</ele>
        <time>2021-01-01T13:51:54.998Z</time>
      </trkpt>
      <trkpt lat="51.005959" lon="8.483658">
        <ele>360.435747</ele>
        <time>2021-01-01T13:52:02.999Z</time>
      </trkpt>
      <trkpt lat="51.006046" lon="8.483601">
        <ele>359.662987</ele>
        <time>2021-01-01T13:52:08.999Z</time>
      </trkpt>
      <trkpt lat="51.006129" lon="8.483540">
        <ele>358.912052</ele>
        <time>2021-01-01T13:52:15.999Z</time>
      </trkpt>
      <trkpt lat="51.006218" lon="8.483509">
        <ele>358.163851</ele>
        <time>2021-01-01T13:52:23.999Z</time>
      </trkpt>
      <trkpt lat="51.006311" lon="8.483475">
        <ele>357.380204</ele>
        <time>2021-01-01T13:52:32.999Z</time>
      </trkpt>
      <trkpt lat="51.006399" lon="8.483438">
        <ele>356.632700</ele>
        <time>2021-01-01T13:52:40.999Z</time>
      </trkpt>
      <trkpt lat="51.006485" lon="8.483377">
        <ele>355.859336</ele>
        <time>2021-01-01T13:52:51.999Z</time>
      </trkpt>
      <trkpt lat="51.006584" lon="8.483352">
        <ele>355.036166</ele>
        <time>2021-01-01T13:53:03.999Z</time>
      </trkpt>
      <trkpt lat="51.006670" lon="8.483303">
        <ele>354.285934</ele>
        <time>2021-01-01T13:53:13.999Z</time>
      </trkpt>
      <trkpt lat="51.006762" lon="8.483261">
        <ele>353.499893</ele>
        <time>2021-01-01T13:53:23.999Z</time>
      </trkpt>
      <trkpt lat="51.006855" lon="8.483237">
        <ele>352.726190</ele>
        <time>2021-01-01T13:53:30.999Z</time>
      </trkpt>
      <trkpt lat="51.006954" lon="8.483170">
        <ele>351.842576</ele>
        <time>2021-01-01T13:53:37.999Z</time>
      </trkpt>
      <trkpt lat="51.007061" lon="8.483161">
        <ele>350.962680</ele>
        <time>2021-01-01T13:53:42.999Z</time>
      </trkpt>
      <trkpt lat="51.007165" lon="8.483125">
        <ele>350.088627</ele>
        <time>2021-01-01T13:53:47.999Z</time>
      </trkpt>
      <trkpt lat="51.007262" lon="8.483087">
        <ele>349.268236</ele>
        <time>2021-01-01T13:53:58.999Z</time>
      </trkpt>
      <trkpt lat="51.007346" lon="8.483031">
        <ele>348.520211</ele>
        <time>2021-01-01T13:54:05.999Z</time>
      </trkpt>
      <trkpt lat="51.007435" lon="8.482981">
        <ele>347.745039</ele>
        <time>2021-01-01T13:54:09.999Z</time>
      </trkpt>
      <trkpt lat="51.007522" lon="8.482930">
        <ele>346.928393</ele>
        <time>2021-01-01T13:54:14.999Z</time>
      </trkpt>
      <trkpt lat="51.007613" lon="8.482963">
        <ele>346.033560</ele>
        <time>2021-01-01T13:54:18.999Z</time>
      </trkpt>
      <trkpt lat="51.007696" lon="8.482884">
        <ele>345.106058</ele>
        <time>2021-01-01T13:54:29.998Z</time>
      </trkpt>
      <trkpt lat="51.007768" lon="8.482765">
        <ele>344.110194</ele>
        <time>2021-01-01T13:54:39.998Z</time>
      </trkpt>
      <trkpt lat="51.007851" lon="8.482689">
        <ele>343.191860</ele>
        <time>2021-01-01T13:54:44.998Z</time>
      </trkpt>
      <trkpt lat="51.007925" lon="8.482600">
        <ele>342.302185</ele>
        <time>2021-01-01T13:54:47.997Z</time>
      </trkpt>
      <trkpt lat="51.008022" lon="8.482565">
        <ele>341.348588</ele>
        <time>2021-01-01T13:54:51.997Z</time>
      </trkpt>
      <trkpt lat="51.008090" lon="8.482448">
        <ele>340.387809</ele>
        <time>2021-01-01T13:54:56.997Z</time>
      </trkpt>
      <trkpt lat="51.008184" lon="8.482380">
        <ele>339.397676</ele>
        <time>2021-01-01T13:55:04.997Z</time>
      </trkpt>
      <trkpt lat="51.008280" lon="8.482295">
        <ele>338.344143</ele>
        <time>2021-01-01T13:55:09.997Z</time>
      </trkpt>
      <trkpt lat="51.008327" lon="8.482126">
        <ele>337.229569</ele>
        <time>2021-01-01T13:55:12.997Z</time>
      </trkpt>
      <trkpt lat="51.008411" lon="8.482043">
        <ele>336.281317</ele>
        <time>2021-01-01T13:55:25.997Z</time>
      </trkpt>
      <trkpt lat="51.008505" lon="8.481997">
        <ele>335.338395</ele>
        <time>2021-01-01T13:55:30.997Z</time>
      </trkpt>
      <trkpt lat="51.008576" lon="8.481887">
        <ele>334.387820</ele>
        <time>2021-01-01T13:55:35.997Z</time>
      </trkpt>
      <trkpt lat="51.008650" lon="8.481801">
        <ele>333.508952</ele>
        <time>2021-01-01T13:55:39.997Z</time>
      </trkpt>
      <trkpt lat="51.008742" lon="8.481737">
        <ele>332.546166</ele>
        <time>2021-01-01T13:55:44.997Z</time>
      </trkpt>
      <trkpt lat="51.008833" lon="8.481658">
        <ele>331.552090</ele>
        <time>2021-01-01T13:55:50.997Z</time>
      </trkpt>
      <trkpt lat="51.008912" lon="8.481587">
        <ele>330.682017</ele>
        <time>2021-01-01T13:55:54.997Z</time>
      </trkpt>
      <trkpt lat="51.009013" lon="8.481523">
        <ele>330.994318</ele>
        <time>2021-01-01T13:55:58.997Z</time>
      </trkpt>
      <trkpt lat="51.009110" lon="8.481445">
        <ele>333.236038</ele>
        <time>2021-01-01T13:56:02.997Z</time>
      </trkpt>
      <trkpt lat="51.009208" lon="8.481372">
        <ele>335.467880</ele>
        <time>2021-01-01T13:56:07.997Z</time>
      </trkpt>
      <trkpt lat="51.009306" lon="8.481295">
        <ele>337.722237</ele>
        <time>2021-01-01T13:56:12.997Z</time>
      </trkpt>
      <trkpt lat="51.009396" lon="8.481207">
        <ele>339.901253</ele>
        <time>2021-01-01T13:56:17.997Z</time>
      </trkpt>
      <trkpt lat="51.009485" lon="8.481118">
        <ele>342.069613</ele>
        <time>2021-01-01T13:56:23.997Z</time>
      </trkpt>
      <trkpt lat="51.009570" lon="8.481026">
        <ele>344.190278</ele>
        <time>2021-01-01T13:56:29.997Z</time>
      </trkpt>
      <trkpt lat="51.009631" lon="8.480909">
        <ele>346.161769</ele>
        <time>2021-01-01T13:56:35.997Z</time>
      </trkpt>
      <trkpt lat="51.009709" lon="8.480825">
        <ele>348.104702</ele>
        <time>2021-01-01T13:56:43.997Z</time>
      </trkpt>
      <trkpt lat="51.009792" lon="8.480768">
        <ele>349.969218</ele>
        <time>2021-01-01T13:56:49.997Z</time>
      </trkpt>
      <trkpt lat="51.009865" lon="8.480681">
        <ele>351.850783</ele>
        <time>2021-01-01T13:56:54.997Z</time>
      </trkpt>
      <trkpt lat="51.009945" lon="8.480585">
        <ele>353.917899</ele>
        <time>2021-01-01T13:56:59.996Z</time>
      </trkpt>
      <trkpt lat="51.010021" lon="8.480505">
        <ele>355.797677</ele>
        <time>2021-01-01T13:57:04.996Z</time>
      </trkpt>
      <trkpt lat="51.010094" lon="8.480396">
        <ele>357.863145</ele>
        <time>2021-01-01T13:57:11.996Z</time>
      </trkpt>
      <trkpt lat="51.010163" lon="8.480300">
        <ele>359.754173</ele>
        <time>2021-01-01T13:57:23.996Z</time>
      </trkpt>
      <trkpt lat="51.010201" lon="8.480164">
        <ele>361.684887</ele>
        <time>2021-01-01T13:57:30.996Z</time>
      </trkpt>
      <trkpt lat="51.010283" lon="8.480089">
        <ele>363.635840</ele>
        <time>2021-01-01T13:57:42.996Z</time>
      </trkpt>
      <trkpt lat="51.010355" lon="8.479983">
        <ele>365.659672</ele>
        <time>2021-01-01T13:57:50.996Z</time>
      </trkpt>
      <trkpt lat="51.010465" lon="8.479933">
        <ele>367.008014</ele>
        <time>2021-01-01T13:57:55.996Z</time>
      </trkpt>
      <trkpt lat="51.010536" lon="8.479833">
        <ele>366.661945</ele>
        <time>2021-01-01T13:58:02.996Z</time>
      </trkpt>
      <trkpt lat="51.010631" lon="8.479779">
        <ele>366.293893</ele>
        <time>2021-01-01T13:58:08.996Z</time>
      </trkpt>
      <trkpt lat="51.010707" lon="8.479691">
        <ele>365.950877</ele>
        <time>2021-01-01T13:58:16.996Z</time>
      </trkpt>
      <trkpt lat="51.010791" lon="8.479619">
        <ele>365.602729</ele>
        <time>2021-01-01T13:58:22.996Z</time>
      </trkpt>
      <trkpt lat="51.010878" lon="8.479544">
        <ele>365.241679</ele>
        <time>2021-01-01T13:58:27.996Z</time>
      </trkpt>
      <trkpt lat="51.010975" lon="8.479504">
        <ele>364.876111</ele>
        <time>2021-01-01T13:58:35.996Z</time>
      </trkpt>
      <trkpt lat="51.011061" lon="8.479462">
        <ele>364.547911</ele>
        <time>2021-01-01T13:58:41.996Z</time>
      </trkpt>
      <trkpt lat="51.011157" lon="8.479468">
        <ele>364.197437</ele>
        <time>2021-01-01T13:58:45.996Z</time>
      </trkpt>
      <trkpt lat="51.011247" lon="8.479417">
        <ele>363.848878</ele>
        <time>2021-01-01T13:58:53.996Z</time>
      </trkpt>
      <trkpt lat="51.011315" lon="8.479321">
        <ele>363.517091</ele>
        <time>2021-01-01T13:58:58.997Z</time>
      </trkpt>
      <trkpt lat="51.011392" lon="8.479244">
        <ele>363.185228</ele>
        <time>2021-01-01T13:59:04.997Z</time>
      </trkpt>
      <trkpt lat="51.011476" lon="8.479170">
        <ele>362.834878</ele>
        <time>2021-01-01T13:59:14.998Z</time>
      </trkpt>
      <trkpt lat="51.011565" lon="8.479099">
        <ele>362.471609</ele>
        <time>2021-01-01T13:59:24.998Z</time>
      </trkpt>
      <trkpt lat="51.011637" lon="8.479003">
        <ele>362.128777</ele>
        <time>2021-01-01T13:59:32.998Z</time>
      </trkpt>
      <trkpt lat="51.011730" lon="8.478967">
        <ele>361.779600</ele>
        <time>2021-01-01T13:59:46.999Z</time>
      </trkpt>
      <trkpt lat="51.011805" lon="8.478867">
        <ele>361.422484</ele>
        <time>2021-01-01T13:59:54.998Z</time>
      </trkpt>
      <trkpt lat="51.011896" lon="8.478791">
        <ele>361.047482</ele>
        <time>2021-01-01T13:59:59.998Z</time>
      </trkpt>
      <trkpt lat="51.011993" lon="8.478695">
        <ele>360.630639</ele>
        <time>2021-01-01T14:00:04.998Z</time>
      </trkpt>
      <trkpt lat="51.012097" lon="8.478631">
        <ele>361.413599</ele>
        <time>2021-01-01T14:00:11.998Z</time>
      </trkpt>
      <trkpt lat="51.012186" lon="8.478574">
        <ele>362.174761</ele>
        <time>2021-01-01T14:00:15.998Z</time>
      </trkpt>
      <trkpt lat="51.012278" lon="8.478545">
        <ele>362.918775</ele>
        <time>2021-01-01T14:00:22.998Z</time>
      </trkpt>
      <trkpt lat="51.012374" lon="8.478497">
        <ele>363.717098</ele>
        <time>2021-01-01T14:00:28.998Z</time>
      </trkpt>
      <trkpt lat="51.012473" lon="8.478391">
        <ele>364.663993</ele>
        <time>2021-01-01T14:00:33.998Z</time>
      </trkpt>
      <trkpt lat="51.012559" lon="8.478319">
        <ele>365.435049</ele>
        <time>2021-01-01T14:00:39.998Z</time>
      </trkpt>
      <trkpt lat="51.012646" lon="8.478273">
        <ele>366.162370</ele>
        <time>2021-01-01T14:00:44.998Z</time>
      </trkpt>
      <trkpt lat="51.012720" lon="8.478183">
        <ele>366.901518</ele>
        <time>2021-01-01T14:00:50.998Z</time>
      </trkpt>
      <trkpt lat="51.012803" lon="8.478116">
        <ele>367.639970</ele>
        <time>2021-01-01T14:00:57.998Z</time>
      </trkpt>
      <trkpt lat="51.012885" lon="8.478035">
        <ele>368.405827</ele>
        <time>2021-01-01T14:01:06.998Z</time>
      </trkpt>
      <trkpt lat="51.012944" lon="8.477918">
        <ele>369.154165</ele>
        <time>2021-01-01T14:01:17.998Z</time>
      </trkpt>
      <trkpt lat="51.013020" lon="8.477839">
        <ele>369.874520</ele>
        <time>2021-01-01T14:01:25.998Z</time>
      </trkpt>
      <trkpt lat="51.013109" lon="8.477812">
        <ele>370.593267</ele>
        <time>2021-01-01T14:01:32.998Z</time>
      </trkpt>
      <trkpt lat="51.013199" lon="8.477731">
        <ele>371.413707</ele>
        <time>2021-01-01T14:01:38.998Z</time>
      </trkpt>
      <trkpt lat="51.013271" lon="8.477643">
        <ele>372.134189</ele>
        <time>2021-01-01T14:01:42.998Z</time>
      </trkpt>
      <trkpt lat="51.013356" lon="8.477577">
        <ele>372.884615</ele>
        <time>2021-01-01T14:01:48.998Z</time>
      </trkpt>
      <trkpt lat="51.013437" lon="8.477516">
        <ele>373.595628</ele>
        <time>2021-01-01T14:01:53.998Z</time>
      </trkpt>
      <trkpt lat="51.013523" lon="8.477430">
        <ele>374.401616</ele>
        <time>2021-01-01T14:01:58.998Z</time>
      </trkpt>
      <trkpt lat="51.013616" lon="8.477393">
        <ele>374.629464</ele>
        <time>2021-01-01T14:02:06.997Z</time>
      </trkpt>
      <trkpt lat="51.013708" lon="8.477339">
        <ele>374.005426</ele>
        <time>2021-01-01T14:02:13.997Z</time>
      </trkpt>
      <trkpt lat="51.013792" lon="8.477285">
        <ele>373.428871</ele>
        <time>2021-01-01T14:02:18.997Z</time>
      </trkpt>
      <trkpt lat="51.013798" lon="8.477085">
        <ele>372.627321</ele>
        <time>2021-01-01T14:02:25.997Z</time>
      </trkpt>
      <trkpt lat="51.013799" lon="8.476929">
        <ele>372.002789</ele>
        <time>2021-01-01T14:02:34.997Z</time>
      </trkpt>
      <trkpt lat="51.013898" lon="8.476923">
        <ele>371.372391</ele>
        <time>2021-01-01T14:02:41.997Z</time>
      </trkpt>
      <trkpt lat="51.013988" lon="8.476858">
        <ele>370.743373</ele>
        <time>2021-01-01T14:02:47.997Z</time>
      </trkpt>
      <trkpt lat="51.014073" lon="8.476793">
        <ele>370.143177</ele>
        <time>2021-01-01T14:02:51.997Z</time>
      </trkpt>
      <trkpt lat="51.014157" lon="8.476721">
        <ele>369.535921</ele>
        <time>2021-01-01T14:02:56.997Z</time>
      </trkpt>
      <trkpt lat="51.014255" lon="8.476643">
        <ele>368.838534</ele>
        <time>2021-01-01T14:03:01.997Z</time>
      </trkpt>
      <trkpt lat="51.014337" lon="8.476549">
        <ele>368.195229</ele>
        <time>2021-01-01T14:03:07.997Z</time>
      </trkpt>
      <trkpt lat="51.014431" lon="8.476516">
        <ele>367.582688</ele>
        <time>2021-01-01T14:03:13.997Z</time>
      </trkpt>
      <trkpt lat="51.014514" lon="8.476459">
        <ele>367.007371</ele>
        <time>2021-01-01T14:03:17.997Z</time>
      </trkpt>
      <trkpt lat="51.014608" lon="8.476414">
        <ele>366.382707</ele>
        <time>2021-01-01T14:03:22.997Z</time>
      </trkpt>
      <trkpt lat="51.014692" lon="8.476320">
        <ele>365.729039</ele>
        <time>2021-01-01T14:03:30.997Z</time>
      </trkpt>
      <trkpt lat="51.014780" lon="8.476240">
        <ele>365.083980</ele>
        <time>2021-01-01T14:03:35.997Z</time>
      </trkpt>
      <trkpt lat="51.014860" lon="8.476145">
        <ele>364.448567</ele>
        <time>2021-01-01T14:03:41.997Z</time>
      </trkpt>
      <trkpt lat="51.014945" lon="8.476047">
        <ele>363.780413</ele>
        <time>2021-01-01T14:03:47.997Z</time>
      </trkpt>
      <trkpt lat="51.015022" lon="8.475946">
        <ele>362.940819</ele>
        <time>2021-01-01T14:03:53.997Z</time>
      </trkpt>
      <trkpt lat="51.015112" lon="8.475860">
        <ele>361.778836</ele>
        <time>2021-01-01T14:03:58.996Z</time>
      </trkpt>
      <trkpt lat="51.015189" lon="8.475784">
        <ele>360.775903</ele>
        <time>2021-01-01T14:04:03.996Z</time>
      </trkpt>
      <trkpt lat="51.015239" lon="8.475656">
        <ele>359.727051</ele>
        <time>2021-01-01T14:04:11.996Z</time>
      </trkpt>
      <trkpt lat="51.015290" lon="8.475524">
        <ele>358.648694</ele>
        <time>2021-01-01T14:04:24.996Z</time>
      </trkpt>
      <trkpt lat="51.015346" lon="8.475406">
        <ele>357.619740</ele>
        <time>2021-01-01T14:04:31.996Z</time>
      </trkpt>
      <trkpt lat="51.015384" lon="8.475260">
        <ele>356.519834</ele>
        <time>2021-01-01T14:04:43.996Z</time>
      </trkpt>
      <trkpt lat="51.015432" lon="8.475127">
        <ele>355.452442</ele>
        <time>2021-01-01T14:04:54.996Z</time>
      </trkpt>
      <trkpt lat="51.015493" lon="8.475011">
        <ele>354.399972</ele>
        <time>2021-01-01T14:05:04.996Z</time>
      </trkpt>
      <trkpt lat="51.015589" lon="8.474957">
        <ele>353.273144</ele>
        <time>2021-01-01T14:05:11.996Z</time>
      </trkpt>
      <trkpt lat="51.015667" lon="8.474878">
        <ele>352.249728</ele>
        <time>2021-01-01T14:05:17.996Z</time>
      </trkpt>
      <trkpt lat="51.015767" lon="8.474812">
        <ele>351.051597</ele>
        <time>2021-01-01T14:05:21.996Z</time>
      </trkpt>
      <trkpt lat="51.015867" lon="8.474725">
        <ele>349.790162</ele>
        <time>2021-01-01T14:05:26.996Z</time>
      </trkpt>
      <trkpt lat="51.015960" lon="8.474669">
        <ele>348.689718</ele>
        <time>2021-01-01T14:05:31.996Z</time>
      </trkpt>
      <trkpt lat="51.016044" lon="8.474610">
        <ele>347.673528</ele>
        <time>2021-01-01T14:05:35.996Z</time>
      </trkpt>
      <trkpt lat="51.016135" lon="8.474592">
        <ele>346.658812</ele>
        <time>2021-01-01T14:05:40.996Z</time>
      </trkpt>
      <trkpt lat="51.016231" lon="8.474581">
        <ele>345.593779</ele>
        <time>2021-01-01T14:05:45.996Z</time>
      </trkpt>
      <trkpt lat="51.016333" lon="8.474597">
        <ele>344.459628</ele>
        <time>2021-01-01T14:05:50.996Z</time>
      </trkpt>
      <trkpt lat="51.016417" lon="8.474666">
        <ele>343.640035</ele>
        <time>2021-01-01T14:05:55.995Z</time>
      </trkpt>
      <trkpt lat="51.016508" lon="8.474669">
        <ele>344.793358</ele>
        <time>2021-01-01T14:06:02.997Z</time>
      </trkpt>
      <trkpt lat="51.016623" lon="8.474704">
        <ele>346.277009</ele>
        <time>2021-01-01T14:06:09.998Z</time>
      </trkpt>
      <trkpt lat="51.016730" lon="8.474715">
        <ele>347.635655</ele>
        <time>2021-01-01T14:06:16.998Z</time>
      </trkpt>
      <trkpt lat="51.016826" lon="8.474758">
        <ele>348.899456</ele>
        <time>2021-01-01T14:06:22.999Z</time>
      </trkpt>
      <trkpt lat="51.016926" lon="8.474778">
        <ele>350.176561</ele>
        <time>2021-01-01T14:06:27.999Z</time>
      </trkpt>
      <trkpt lat="51.017039" lon="8.474795">
        <ele>351.614800</ele>
        <time>2021-01-01T14:06:33.999Z</time>
      </trkpt>
      <trkpt lat="51.017129" lon="8.474857">
        <ele>352.857689</ele>
        <time>2021-01-01T14:06:41.999Z</time>
      </trkpt>
      <trkpt lat="51.017229" lon="8.474889">
        <ele>354.150224</ele>
        <time>2021-01-01T14:06:49.999Z</time>
      </trkpt>
      <trkpt lat="51.017330" lon="8.474848">
        <ele>355.471082</ele>
        <time>2021-01-01T14:06:55.999Z</time>
      </trkpt>
      <trkpt lat="51.017432" lon="8.474827">
        <ele>356.774335</ele>
        <time>2021-01-01T14:07:05.999Z</time>
      </trkpt>
      <trkpt lat="51.017519" lon="8.474748">
        <ele>358.043909</ele>
        <time>2021-01-01T14:07:09.999Z</time>
      </trkpt>
      <trkpt lat="51.017601" lon="8.474676">
        <ele>359.230916</ele>
        <time>2021-01-01T14:07:11.999Z</time>
      </trkpt>
      <trkpt lat="51.017718" lon="8.474579">
        <ele>360.902958</ele>
        <time>2021-01-01T14:07:14.999Z</time>
      </trkpt>
      <trkpt lat="51.017815" lon="8.474541">
        <ele>362.168834</ele>
        <time>2021-01-01T14:07:18.999Z</time>
      </trkpt>
      <trkpt lat="51.017921" lon="8.474535">
        <ele>363.512828</ele>
        <time>2021-01-01T14:07:22.999Z</time>
      </trkpt>
      <trkpt lat="51.018021" lon="8.474547">
        <ele>364.783548</ele>
        <time>2021-01-01T14:07:26.999Z</time>
      </trkpt>
      <trkpt lat="51.018112" lon="8.474578">
        <ele>365.962803</ele>
        <time>2021-01-01T14:07:31.998Z</time>
      </trkpt>
      <trkpt lat="51.018204" lon="8.474592">
        <ele>366.282820</ele>
        <time>2021-01-01T14:07:37.998Z</time>
      </trkpt>
      <trkpt lat="51.018301" lon="8.474599">
        <ele>366.242358</ele>
        <time>2021-01-01T14:07:43.998Z</time>
      </trkpt>
      <trkpt lat="51.018404" lon="8.474601">
        <ele>366.199434</ele>
        <time>2021-01-01T14:07:50.998Z</time>
      </trkpt>
      <trkpt lat="51.018507" lon="8.474577">
        <ele>366.156054</ele>
        <time>2021-01-01T14:07:56.998Z</time>
      </trkpt>
      <trkpt lat="51.018607" lon="8.474531">
        <ele>366.112674</ele>
        <time>2021-01-01T14:08:03.998Z</time>
      </trkpt>
      <trkpt lat="51.018706" lon="8.474475">
        <ele>366.068886</ele>
        <time>2021-01-01T14:08:11.998Z</time>
      </trkpt>
      <trkpt lat="51.018795" lon="8.474446">
        <ele>366.031028</ele>
        <time>2021-01-01T14:08:17.998Z</time>
      </trkpt>
      <trkpt lat="51.018894" lon="8.474416">
        <ele>365.989031</ele>
        <time>2021-01-01T14:08:23.998Z</time>
      </trkpt>
      <trkpt lat="51.018984" lon="8.474350">
        <ele>365.947729</ele>
        <time>2021-01-01T14:08:30.998Z</time>
      </trkpt>
      <trkpt lat="51.019073" lon="8.474318">
        <ele>365.909705</ele>
        <time>2021-01-01T14:08:37.998Z</time>
      </trkpt>
      <trkpt lat="51.019163" lon="8.474284">
        <ele>365.871157</ele>
        <time>2021-01-01T14:08:43.998Z</time>
      </trkpt>
      <trkpt lat="51.019266" lon="8.474256">
        <ele>365.827613</ele>
        <time>2021-01-01T14:08:51.998Z</time>
      </trkpt>
      <trkpt lat="51.019358" lon="8.474206">
        <ele>365.787098</ele>
        <time>2021-01-01T14:08:58.998Z</time>
      </trkpt>
      <trkpt lat="51.019457" lon="8.474183">
        <ele>365.745406</ele>
        <time>2021-01-01T14:09:06.997Z</time>
      </trkpt>
      <trkpt lat="51.019553" lon="8.474200">
        <ele>365.705154</ele>
        <time>2021-01-01T14:09:12.997Z</time>
      </trkpt>
      <trkpt lat="51.019645" lon="8.474220">
        <ele>365.666461</ele>
        <time>2021-01-01T14:09:18.997Z</time>
      </trkpt>
      <trkpt lat="51.019739" lon="8.474230">
        <ele>365.627202</ele>
        <time>2021-01-01T14:09:24.997Z</time>
      </trkpt>
      <trkpt lat="51.019838" lon="8.474178">
        <ele>365.583755</ele>
        <time>2021-01-01T14:09:31.997Z</time>
      </trkpt>
      <trkpt lat="51.019937" lon="8.474159">
        <ele>365.538014</ele>
        <time>2021-01-01T14:09:39.997Z</time>
      </trkpt>
      <trkpt lat="51.020039" lon="8.474148">
        <ele>365.485614</ele>
        <time>2021-01-01T14:09:48.997Z</time>
      </trkpt>
      <trkpt lat="51.020130" lon="8.474144">
        <ele>365.438955</ele>
        <time>2021-01-01T14:09:53.997Z</time>
      </trkpt>
      <trkpt lat="51.020230" lon="8.474124">
        <ele>365.387297</ele>
        <time>2021-01-01T14:10:00.997Z</time>
      </trkpt>
      <trkpt lat="51.020321" lon="8.474116">
        <ele>365.340585</ele>
        <time>2021-01-01T14:10:07.997Z</time>
      </trkpt>
      <trkpt lat="51.020411" lon="8.474123">
        <ele>365.294401</ele>
        <time>2021-01-01T14:10:14.997Z</time>
      </trkpt>
      <trkpt lat="51.020502" lon="8.474103">
        <ele>365.247316</ele>
        <time>2021-01-01T14:10:20.997Z</time>
      </trkpt>
      <trkpt lat="51.020599" lon="8.474113">
        <ele>365.197495</ele>
        <time>2021-01-01T14:10:27.997Z</time>
      </trkpt>
      <trkpt lat="51.020701" lon="8.474113">
        <ele>365.145215</ele>
        <time>2021-01-01T14:10:34.997Z</time>
      </trkpt>
      <trkpt lat="51.020793" lon="8.474052">
        <ele>365.094125</ele>
        <time>2021-01-01T14:10:41.997Z</time>
      </trkpt>
      <trkpt lat="51.020868" lon="8.473972">
        <ele>365.047833</ele>
        <time>2021-01-01T14:10:47.996Z</time>
      </trkpt>
      <trkpt lat="51.020930" lon="8.473844">
        <ele>364.995747</ele>
        <time>2021-01-01T14:10:55.996Z</time>
      </trkpt>
      <trkpt lat="51.020996" lon="8.473731">
        <ele>364.946032</ele>
        <time>2021-01-01T14:11:02.996Z</time>
      </trkpt>
      <trkpt lat="51.021020" lon="8.473586">
        <ele>364.897692</ele>
        <time>2021-01-01T14:11:08.996Z</time>
      </trkpt>
      <trkpt lat="51.021048" lon="8.473430">
        <ele>364.845389</ele>
        <time>2021-01-01T14:11:14.996Z</time>
      </trkpt>
      <trkpt lat="51.021083" lon="8.473297">
        <ele>364.798908</ele>
        <time>2021-01-01T14:11:20.996Z</time>
      </trkpt>
      <trkpt lat="51.021123" lon="8.473143">
        <ele>364.745191</ele>
        <time>2021-01-01T14:11:28.996Z</time>
      </trkpt>
      <trkpt lat="51.021149" lon="8.472977">
        <ele>364.690037</ele>
        <time>2021-01-01T14:11:34.996Z</time>
      </trkpt>
      <trkpt lat="51.021187" lon="8.472828">
        <ele>364.638189</ele>
        <time>2021-01-01T14:11:43.996Z</time>
      </trkpt>
      <trkpt lat="51.021215" lon="8.472686">
        <ele>364.588506</ele>
        <time>2021-01-01T14:11:49.996Z</time>
      </trkpt>
      <trkpt lat="51.021226" lon="8.472523">
        <ele>364.533775</ele>
        <time>2021-01-01T14:11:56.996Z</time>
      </trkpt>
      <trkpt lat="51.021278" lon="8.472396">
        <ele>364.483184</ele>
        <time>2021-01-01T14:12:03.996Z</time>
      </trkpt>
      <trkpt lat="51.021329" lon="8.472274">
        <ele>364.434279</ele>
        <time>2021-01-01T14:12:10.996Z</time>
      </trkpt>
      <trkpt lat="51.021395" lon="8.472172">
        <ele>364.385425</ele>
        <time>2021-01-01T14:12:15.996Z</time>
      </trkpt>
      <trkpt lat="51.021472" lon="8.472053">
        <ele>364.328429</ele>
        <time>2021-01-01T14:12:22.995Z</time>
      </trkpt>
      <trkpt lat="51.021553" lon="8.471964">
        <ele>364.276169</ele>
        <time>2021-01-01T14:12:29.995Z</time>
      </trkpt>
      <trkpt lat="51.021630" lon="8.471863">
        <ele>364.223186</ele>
        <time>2021-01-01T14:12:36.995Z</time>
      </trkpt>
      <trkpt lat="51.021710" lon="8.471780">
        <ele>364.172484</ele>
        <time>2021-01-01T14:12:45.995Z</time>
      </trkpt>
      <trkpt lat="51.021791" lon="8.471703">
        <ele>364.122393</ele>
        <time>2021-01-01T14:12:51.995Z</time>
      </trkpt>
      <trkpt lat="51.021873" lon="8.471633">
        <ele>364.072994</ele>
        <time>2021-01-01T14:12:57.995Z</time>
      </trkpt>
      <trkpt lat="51.021947" lon="8.471547">
        <ele>364.024343</ele>
        <time>2021-01-01T14:13:04.996Z</time>
      </trkpt>
      <trkpt lat="51.022047" lon="8.471519">
        <ele>363.970451</ele>
        <time>2021-01-01T14:13:13.997Z</time>
      </trkpt>
      <trkpt lat="51.022146" lon="8.471614">
        <ele>363.909077</ele>
        <time>2021-01-01T14:13:35.999Z</time>
      </trkpt>
      <trkpt lat="51.022204" lon="8.471727">
        <ele>363.860385</ele>
        <time>2021-01-01T14:13:46.999Z</time>
      </trkpt>
      <trkpt lat="51.022261" lon="8.471843">
        <ele>363.811243</ele>
        <time>2021-01-01T14:13:58.999Z</time>
      </trkpt>
      <trkpt lat="51.022254" lon="8.472000">
        <ele>363.758697</ele>
        <time>2021-01-01T14:14:16.999Z</time>
      </trkpt>
      <trkpt lat="51.022308" lon="8.472119">
        <ele>363.709709</ele>
        <time>2021-01-01T14:14:20.999Z</time>
      </trkpt>
      <trkpt lat="51.022373" lon="8.472242">
        <ele>363.977033</ele>
        <time>2021-01-01T14:14:27.999Z</time>
      </trkpt>
      <trkpt lat="51.022466" lon="8.472291">
        <ele>364.524916</ele>
        <time>2021-01-01T14:14:34.999Z</time>
      </trkpt>
      <trkpt lat="51.022555" lon="8.472348">
        <ele>365.061481</ele>
        <time>2021-01-01T14:14:45.999Z</time>
      </trkpt>
      <trkpt lat="51.022636" lon="8.472449">
        <ele>365.637145</ele>
        <time>2021-01-01T14:15:03.999Z</time>
      </trkpt>
      <trkpt lat="51.022733" lon="8.472556">
        <ele>366.297365</ele>
        <time>2021-01-01T14:15:06.999Z</time>
      </trkpt>
      <trkpt lat="51.022791" lon="8.472671">
        <ele>366.815851</ele>
        <time>2021-01-01T14:15:09.999Z</time>
      </trkpt>
      <trkpt lat="51.022800" lon="8.472851">
        <ele>367.450997</ele>
        <time>2021-01-01T14:15:12.999Z</time>
      </trkpt>
      <trkpt lat="51.022990" lon="8.472832">
        <ele>368.515596</ele>
        <time>2021-01-01T14:16:48.998Z</time>
      </trkpt>
      <trkpt lat="51.023067" lon="8.472922">
        <ele>369.050038</ele>
        <time>2021-01-01T14:16:56.998Z</time>
      </trkpt>
      <trkpt lat="51.023142" lon="8.473008">
        <ele>369.567155</ele>
        <time>2021-01-01T14:17:02.998Z</time>
      </trkpt>
      <trkpt lat="51.023222" lon="8.473087">
        <ele>370.093801</ele>
        <time>2021-01-01T14:17:11.997Z</time>
      </trkpt>
      <trkpt lat="51.023311" lon="8.473141">
        <ele>370.626511</ele>
        <time>2021-01-01T14:17:19.997Z</time>
      </trkpt>
      <trkpt lat="51.023404" lon="8.473185">
        <ele>371.169117</ele>
        <time>2021-01-01T14:17:27.997Z</time>
      </trkpt>
      <trkpt lat="51.023486" lon="8.473263">
        <ele>371.703480</ele>
        <time>2021-01-01T14:17:35.997Z</time>
      </trkpt>
      <trkpt lat="51.023582" lon="8.473290">
        <ele>372.248658</ele>
        <time>2021-01-01T14:17:42.997Z</time>
      </trkpt>
      <trkpt lat="51.023679" lon="8.473274">
        <ele>372.794003</ele>
        <time>2021-01-01T14:17:50.997Z</time>
      </trkpt>
      <trkpt lat="51.023755" lon="8.473171">
        <ele>373.352467</ele>
        <time>2021-01-01T14:17:58.997Z</time>
      </trkpt>
      <trkpt lat="51.023783" lon="8.473021">
        <ele>374.137070</ele>
        <time>2021-01-01T14:18:07.997Z</time>
      </trkpt>
      <trkpt lat="51.023821" lon="8.472879">
        <ele>375.470931</ele>
        <time>2021-01-01T14:18:14.997Z</time>
      </trkpt>
      <trkpt lat="51.023896" lon="8.472771">
        <ele>376.861496</ele>
        <time>2021-01-01T14:18:22.997Z</time>
      </trkpt>
      <trkpt lat="51.023974" lon="8.472681">
        <ele>378.185910</ele>
        <time>2021-01-01T14:18:32.997Z</time>
      </trkpt>
      <trkpt lat="51.024075" lon="8.472647">
        <ele>379.604617</ele>
        <time>2021-01-01T14:18:41.997Z</time>
      </trkpt>
      <trkpt lat="51.024164" lon="8.472606">
        <ele>380.877957</ele>
        <time>2021-01-01T14:18:49.996Z</time>
      </trkpt>
      <trkpt lat="51.024248" lon="8.472675">
        <ele>382.177248</ele>
        <time>2021-01-01T14:18:55.996Z</time>
      </trkpt>
      <trkpt lat="51.024304" lon="8.472810">
        <ele>383.575036</ele>
        <time>2021-01-01T14:19:03.996Z</time>
      </trkpt>
      <trkpt lat="51.024287" lon="8.472952">
        <ele>384.824453</ele>
        <time>2021-01-01T14:19:10.996Z</time>
      </trkpt>
      <trkpt lat="51.024273" lon="8.473099">
        <ele>386.109537</ele>
        <time>2021-01-01T14:19:18.996Z</time>
      </trkpt>
      <trkpt lat="51.024331" lon="8.472967">
        <ele>387.501306</ele>
        <time>2021-01-01T14:19:32.996Z</time>
      </trkpt>
      <trkpt lat="51.024391" lon="8.472855">
        <ele>388.772917</ele>
        <time>2021-01-01T14:19:40.996Z</time>
      </trkpt>
      <trkpt lat="51.024484" lon="8.472815">
        <ele>390.096858</ele>
        <time>2021-01-01T14:19:48.996Z</time>
      </trkpt>
      <trkpt lat="51.024575" lon="8.472845">
        <ele>391.373974</ele>
        <time>2021-01-01T14:19:56.996Z</time>
      </trkpt>
      <trkpt lat="51.024657" lon="8.472926">
        <ele>392.700599</ele>
        <time>2021-01-01T14:20:03.996Z</time>
      </trkpt>
      <trkpt lat="51.024796" lon="8.472751">
        <ele>395.137106</ele>
        <time>2021-01-01T14:20:34.999Z</time>
      </trkpt>
      <trkpt lat="51.024872" lon="8.472669">
        <ele>396.399281</ele>
        <time>2021-01-01T14:20:43.999Z</time>
      </trkpt>
      <trkpt lat="51.025009" lon="8.472529">
        <ele>398.715701</ele>
        <time>2021-01-01T14:23:13.998Z</time>
      </trkpt>
      <trkpt lat="51.025050" lon="8.472385">
        <ele>400.682605</ele>
        <time>2021-01-01T14:23:27.998Z</time>
      </trkpt>
      <trkpt lat="51.025108" lon="8.472252">
        <ele>402.696462</ele>
        <time>2021-01-01T14:23:35.998Z</time>
      </trkpt>
      <trkpt lat="51.025308" lon="8.472202">
        <ele>406.701804</ele>
        <time>2021-01-01T14:24:15.997Z</time>
      </trkpt>
      <trkpt lat="51.025404" lon="8.472186">
        <ele>408.611439</ele>
        <time>2021-01-01T14:24:28.997Z</time>
      </trkpt>
      <trkpt lat="51.025497" lon="8.472222">
        <ele>410.505064</ele>
        <time>2021-01-01T14:24:35.997Z</time>
      </trkpt>
      <trkpt lat="51.025604" lon="8.472178">
        <ele>412.691570</ele>
        <time>2021-01-01T14:25:07.997Z</time>
      </trkpt>
      <trkpt lat="51.025705" lon="8.472211">
        <ele>414.731472</ele>
        <time>2021-01-01T14:25:17.997Z</time>
      </trkpt>
      <trkpt lat="51.025800" lon="8.472179">
        <ele>416.652634</ele>
        <time>2021-01-01T14:25:27.997Z</time>
      </trkpt>
      <trkpt lat="51.025895" lon="8.472186">
        <ele>418.534095</ele>
        <time>2021-01-01T14:25:41.996Z</time>
      </trkpt>
      <trkpt lat="51.025984" lon="8.472176">
        <ele>420.299228</ele>
        <time>2021-01-01T14:25:55.996Z</time>
      </trkpt>
      <trkpt lat="51.026078" lon="8.472194">
        <ele>422.172328</ele>
        <time>2021-01-01T14:26:07.996Z</time>
      </trkpt>
      <trkpt lat="51.026168" lon="8.472231">
        <ele>424.011415</ele>
        <time>2021-01-01T14:26:35.996Z</time>
      </trkpt>
      <trkpt lat="51.026256" lon="8.472302">
        <ele>425.963708</ele>
        <time>2021-01-01T14:26:45.996Z</time>
      </trkpt>
      <trkpt lat="51.026320" lon="8.472177">
        <ele>427.969301</ele>
        <time>2021-01-01T14:26:54.996Z</time>
      </trkpt>
      <trkpt lat="51.026345" lon="8.472039">
        <ele>429.756267</ele>
        <time>2021-01-01T14:27:01.996Z</time>
      </trkpt>
      <trkpt lat="51.026339" lon="8.472194">
        <ele>431.688607</ele>
        <time>2021-01-01T14:27:19.996Z</time>
      </trkpt>
      <trkpt lat="51.026304" lon="8.472330">
        <ele>433.517059</ele>
        <time>2021-01-01T14:27:26.997Z</time>
      </trkpt>
      <trkpt lat="51.026279" lon="8.472472">
        <ele>435.232640</ele>
        <time>2021-01-01T14:27:44.999Z</time>
      </trkpt>
      <trkpt lat="51.026327" lon="8.472601">
        <ele>436.927785</ele>
        <time>2021-01-01T14:27:53.999Z</time>
      </trkpt>
      <trkpt lat="51.026273" lon="8.472729">
        <ele>438.670921</ele>
        <time>2021-01-01T14:28:23.999Z</time>
      </trkpt>
      <trkpt lat="51.026337" lon="8.472599">
        <ele>440.538020</ele>
        <time>2021-01-01T14:29:38.998Z</time>
      </trkpt>
      <trkpt lat="51.026410" lon="8.472687">
        <ele>442.185317</ele>
        <time>2021-01-01T14:29:49.997Z</time>
      </trkpt>
      <trkpt lat="51.026491" lon="8.472609">
        <ele>443.888140</ele>
        <time>2021-01-01T14:30:07.997Z</time>
      </trkpt>
      <trkpt lat="51.026556" lon="8.472489">
        <ele>445.679223</ele>
        <time>2021-01-01T14:30:13.997Z</time>
      </trkpt>
      <trkpt lat="51.026616" lon="8.472379">
        <ele>447.325946</ele>
        <time>2021-01-01T14:30:26.997Z</time>
      </trkpt>
      <trkpt lat="51.026706" lon="8.472411">
        <ele>448.984258</ele>
        <time>2021-01-01T14:30:52.997Z</time>
      </trkpt>
      <trkpt lat="51.026801" lon="8.472372">
        <ele>450.748528</ele>
        <time>2021-01-01T14:30:59.997Z</time>
      </trkpt>
      <trkpt lat="51.026893" lon="8.472381">
        <ele>452.405957</ele>
        <time>2021-01-01T14:31:10.997Z</time>
      </trkpt>
      <trkpt lat="51.026985" lon="8.472396">
        <ele>454.068934</ele>
        <time>2021-01-01T14:31:23.997Z</time>
      </trkpt>
      <trkpt lat="51.027027" lon="8.472526">
        <ele>455.721803</ele>
        <time>2021-01-01T14:31:36.997Z</time>
      </trkpt>
      <trkpt lat="51.027120" lon="8.472502">
        <ele>457.415970</ele>
        <time>2021-01-01T14:31:59.997Z</time>
      </trkpt>
      <trkpt lat="51.027217" lon="8.472464">
        <ele>459.212344</ele>
        <time>2021-01-01T14:32:06.996Z</time>
      </trkpt>
      <trkpt lat="51.027310" lon="8.472493">
        <ele>460.916485</ele>
        <time>2021-01-01T14:32:27.996Z</time>
      </trkpt>
      <trkpt lat="51.027379" lon="8.472387">
        <ele>462.641748</ele>
        <time>2021-01-01T14:33:15.996Z</time>
      </trkpt>
      <trkpt lat="51.027480" lon="8.472111">
        <ele>466.253056</ele>
        <time>2021-01-01T14:34:21.994Z</time>
      </trkpt>
      <trkpt lat="51.027524" lon="8.471986">
        <ele>466.976743</ele>
        <time>2021-01-01T14:34:49.998Z</time>
      </trkpt>
      <trkpt lat="51.027513" lon="8.471837">
        <ele>467.651475</ele>
        <time>2021-01-01T14:34:58.998Z</time>
      </trkpt>
      <trkpt lat="51.027407" lon="8.471906">
        <ele>468.470534</ele>
        <time>2021-01-01T14:35:14.998Z</time>
      </trkpt>
      <trkpt lat="51.027516" lon="8.471899">
        <ele>469.250616</ele>
        <time>2021-01-01T14:35:18.998Z</time>
      </trkpt>
      <trkpt lat="51.027586" lon="8.471801">
        <ele>469.917570</ele>
        <time>2021-01-01T14:35:28.998Z</time>
      </trkpt>
      <trkpt lat="51.027637" lon="8.471656">
        <ele>470.664757</ele>
        <time>2021-01-01T14:35:39.998Z</time>
      </trkpt>
      <trkpt lat="51.027594" lon="8.471509">
        <ele>471.393899</ele>
        <time>2021-01-01T14:35:44.998Z</time>
      </trkpt>
      <trkpt lat="51.027566" lon="8.471355">
        <ele>472.114877</ele>
        <time>2021-01-01T14:35:53.998Z</time>
      </trkpt>
      <trkpt lat="51.027563" lon="8.471203">
        <ele>472.798837</ele>
        <time>2021-01-01T14:36:04.998Z</time>
      </trkpt>
      <trkpt lat="51.027559" lon="8.471036">
        <ele>473.550467</ele>
        <time>2021-01-01T14:36:10.998Z</time>
      </trkpt>
      <trkpt lat="51.027576" lon="8.470863">
        <ele>474.337977</ele>
        <time>2021-01-01T14:36:16.998Z</time>
      </trkpt>
      <trkpt lat="51.027568" lon="8.470703">
        <ele>475.059851</ele>
        <time>2021-01-01T14:36:23.998Z</time>
      </trkpt>
      <trkpt lat="51.027606" lon="8.470566">
        <ele>475.733269</ele>
        <time>2021-01-01T14:36:41.998Z</time>
      </trkpt>
      <trkpt lat="51.027584" lon="8.470416">
        <ele>476.425997</ele>
        <time>2021-01-01T14:36:53.998Z</time>
      </trkpt>
      <trkpt lat="51.027579" lon="8.470256">
        <ele>477.146487</ele>
        <time>2021-01-01T14:37:02.998Z</time>
      </trkpt>
      <trkpt lat="51.027560" lon="8.470095">
        <ele>477.883224</ele>
        <time>2021-01-01T14:37:09.998Z</time>
      </trkpt>
      <trkpt lat="51.027573" lon="8.469952">
        <ele>478.533053</ele>
        <time>2021-01-01T14:37:16.998Z</time>
      </trkpt>
      <trkpt lat="51.027581" lon="8.469795">
        <ele>479.241477</ele>
        <time>2021-01-01T14:37:20.998Z</time>
      </trkpt>
      <trkpt lat="51.027586" lon="8.469617">
        <ele>479.044857</ele>
        <time>2021-01-01T14:37:24.998Z</time>
      </trkpt>
      <trkpt lat="51.027563" lon="8.469467">
        <ele>478.868674</ele>
        <time>2021-01-01T14:37:28.998Z</time>
      </trkpt>
      <trkpt lat="51.027529" lon="8.469311">
        <ele>478.680272</ele>
        <time>2021-01-01T14:37:32.998Z</time>
      </trkpt>
      <trkpt lat="51.027530" lon="8.469158">
        <ele>478.505669</ele>
        <time>2021-01-01T14:37:36.998Z</time>
      </trkpt>
      <trkpt lat="51.027530" lon="8.468986">
        <ele>478.309395</ele>
        <time>2021-01-01T14:37:40.998Z</time>
      </trkpt>
      <trkpt lat="51.027527" lon="8.468821">
        <ele>478.121030</ele>
        <time>2021-01-01T14:37:44.998Z</time>
      </trkpt>
      <trkpt lat="51.027472" lon="8.468690">
        <ele>477.941295</ele>
        <time>2021-01-01T14:37:50.998Z</time>
      </trkpt>
      <trkpt lat="51.027423" lon="8.468558">
        <ele>477.766386</ele>
        <time>2021-01-01T14:37:57.998Z</time>
      </trkpt>
      <trkpt lat="51.027425" lon="8.468405">
        <ele>477.591755</ele>
        <time>2021-01-01T14:38:08.998Z</time>
      </trkpt>
      <trkpt lat="51.027407" lon="8.468263">
        <ele>477.426456</ele>
        <time>2021-01-01T14:38:25.998Z</time>
      </trkpt>
      <trkpt lat="51.027418" lon="8.468111">
        <ele>477.251859</ele>
        <time>2021-01-01T14:38:33.998Z</time>
      </trkpt>
      <trkpt lat="51.027462" lon="8.467976">
        <ele>477.078350</ele>
        <time>2021-01-01T14:38:45.998Z</time>
      </trkpt>
      <trkpt lat="51.027550" lon="8.467931">
        <ele>476.910632</ele>
        <time>2021-01-01T14:38:59.998Z</time>
      </trkpt>
      <trkpt lat="51.027629" lon="8.467819">
        <ele>476.718593</ele>
        <time>2021-01-01T14:39:08.998Z</time>
      </trkpt>
      <trkpt lat="51.027658" lon="8.467678">
        <ele>476.549309</ele>
        <time>2021-01-01T14:39:14.998Z</time>
      </trkpt>
      <trkpt lat="51.027723" lon="8.467576">
        <ele>476.383611</ele>
        <time>2021-01-01T14:39:23.998Z</time>
      </trkpt>
      <trkpt lat="51.027791" lon="8.467467">
        <ele>476.208418</ele>
        <time>2021-01-01T14:39:29.998Z</time>
      </trkpt>
      <trkpt lat="51.027869" lon="8.467386">
        <ele>476.039387</ele>
        <time>2021-01-01T14:39:40.998Z</time>
      </trkpt>
      <trkpt lat="51.027961" lon="8.467311">
        <ele>476.706081</ele>
        <time>2021-01-01T14:39:50.998Z</time>
      </trkpt>
      <trkpt lat="51.028028" lon="8.467193">
        <ele>477.701850</ele>
        <time>2021-01-01T14:39:54.998Z</time>
      </trkpt>
      <trkpt lat="51.028105" lon="8.467300">
        <ele>478.720317</ele>
        <time>2021-01-01T14:40:00.998Z</time>
      </trkpt>
      <trkpt lat="51.028172" lon="8.467398">
        <ele>479.626992</ele>
        <time>2021-01-01T14:40:05.998Z</time>
      </trkpt>
      <trkpt lat="51.028237" lon="8.467500">
        <ele>480.536530</ele>
        <time>2021-01-01T14:40:12.998Z</time>
      </trkpt>
      <trkpt lat="51.028326" lon="8.467553">
        <ele>481.483032</ele>
        <time>2021-01-01T14:40:20.998Z</time>
      </trkpt>
      <trkpt lat="51.028415" lon="8.467506">
        <ele>482.417016</ele>
        <time>2021-01-01T14:40:28.998Z</time>
      </trkpt>
      <trkpt lat="51.028502" lon="8.467455">
        <ele>483.340483</ele>
        <time>2021-01-01T14:40:35.998Z</time>
      </trkpt>
      <trkpt lat="51.028584" lon="8.467380">
        <ele>484.282620</ele>
        <time>2021-01-01T14:40:43.998Z</time>
      </trkpt>
      <trkpt lat="51.028666" lon="8.467291">
        <ele>485.271408</ele>
        <time>2021-01-01T14:40:53.998Z</time>
      </trkpt>
      <trkpt lat="51.028743" lon="8.467212">
        <ele>486.184061</ele>
        <time>2021-01-01T14:40:59.998Z</time>
      </trkpt>
      <trkpt lat="51.028832" lon="8.467181">
        <ele>487.091454</ele>
        <time>2021-01-01T14:41:25.996Z</time>
      </trkpt>
      <trkpt lat="51.028922" lon="8.467147">
        <ele>488.012738</ele>
        <time>2021-01-01T14:41:37.998Z</time>
      </trkpt>
      <trkpt lat="51.029013" lon="8.467111">
        <ele>488.946661</ele>
        <time>2021-01-01T14:41:50.998Z</time>
      </trkpt>
      <trkpt lat="51.029108" lon="8.467107">
        <ele>489.893121</ele>
        <time>2021-01-01T14:41:59.999Z</time>
      </trkpt>
      <trkpt lat="51.029199" lon="8.467128">
        <ele>490.808908</ele>
        <time>2021-01-01T14:42:07.999Z</time>
      </trkpt>
      <trkpt lat="51.029290" lon="8.467189">
        <ele>491.792448</ele>
        <time>2021-01-01T14:42:16.999Z</time>
      </trkpt>
      <trkpt lat="51.029380" lon="8.467233">
        <ele>492.730193</ele>
        <time>2021-01-01T14:42:23.999Z</time>
      </trkpt>
      <trkpt lat="51.029466" lon="8.467285">
        <ele>493.646528</ele>
        <time>2021-01-01T14:42:31.999Z</time>
      </trkpt>
      <trkpt lat="51.029654" lon="8.467056">
        <ele>495.360103</ele>
        <time>2021-01-01T14:43:45.999Z</time>
      </trkpt>
      <trkpt lat="51.029738" lon="8.467002">
        <ele>495.986423</ele>
        <time>2021-01-01T14:43:51.999Z</time>
      </trkpt>
      <trkpt lat="51.029828" lon="8.466954">
        <ele>496.642620</ele>
        <time>2021-01-01T14:43:58.999Z</time>
      </trkpt>
      <trkpt lat="51.029912" lon="8.466892">
        <ele>497.282788</ele>
        <time>2021-01-01T14:44:06.999Z</time>
      </trkpt>
      <trkpt lat="51.029982" lon="8.466801">
        <ele>497.907810</ele>
        <time>2021-01-01T14:44:14.999Z</time>
      </trkpt>
      <trkpt lat="51.030038" lon="8.466679">
        <ele>498.564436</ele>
        <time>2021-01-01T14:44:22.999Z</time>
      </trkpt>
      <trkpt lat="51.030123" lon="8.466617">
        <ele>499.210880</ele>
        <time>2021-01-01T14:44:36.999Z</time>
      </trkpt>
      <trkpt lat="51.030193" lon="8.466508">
        <ele>499.888147</ele>
        <time>2021-01-01T14:44:47.999Z</time>
      </trkpt>
      <trkpt lat="51.030253" lon="8.466390">
        <ele>500.547832</ele>
        <time>2021-01-01T14:44:55.999Z</time>
      </trkpt>
      <trkpt lat="51.030330" lon="8.466300">
        <ele>501.208437</ele>
        <time>2021-01-01T14:45:05.999Z</time>
      </trkpt>
      <trkpt lat="51.030353" lon="8.466151">
        <ele>501.875423</ele>
        <time>2021-01-01T14:45:12.999Z</time>
      </trkpt>
      <trkpt lat="51.030352" lon="8.465996">
        <ele>502.549304</ele>
        <time>2021-01-01T14:45:21.999Z</time>
      </trkpt>
      <trkpt lat="51.030379" lon="8.465849">
        <ele>503.215065</ele>
        <time>2021-01-01T14:45:27.999Z</time>
      </trkpt>
      <trkpt lat="51.030413" lon="8.465713">
        <ele>503.851310</ele>
        <time>2021-01-01T14:45:34.999Z</time>
      </trkpt>
      <trkpt lat="51.030410" lon="8.465570">
        <ele>504.473331</ele>
        <time>2021-01-01T14:45:41.999Z</time>
      </trkpt>
      <trkpt lat="51.030404" lon="8.465421">
        <ele>505.122417</ele>
        <time>2021-01-01T14:45:49.999Z</time>
      </trkpt>
      <trkpt lat="51.030404" lon="8.465259">
        <ele>505.826693</ele>
        <time>2021-01-01T14:45:56.998Z</time>
      </trkpt>
      <trkpt lat="51.030397" lon="8.465113">
        <ele>506.467209</ele>
        <time>2021-01-01T14:46:03.998Z</time>
      </trkpt>
      <trkpt lat="51.030381" lon="8.464971">
        <ele>507.112972</ele>
        <time>2021-01-01T14:46:09.998Z</time>
      </trkpt>
      <trkpt lat="51.030394" lon="8.464820">
        <ele>507.795205</ele>
        <time>2021-01-01T14:46:16.998Z</time>
      </trkpt>
      <trkpt lat="51.030383" lon="8.464676">
        <ele>508.444537</ele>
        <time>2021-01-01T14:46:24.998Z</time>
      </trkpt>
      <trkpt lat="51.030346" lon="8.464533">
        <ele>509.136713</ele>
        <time>2021-01-01T14:46:31.998Z</time>
      </trkpt>
      <trkpt lat="51.030360" lon="8.464391">
        <ele>509.780118</ele>
        <time>2021-01-01T14:46:38.998Z</time>
      </trkpt>
      <trkpt lat="51.030465" lon="8.464438">
        <ele>510.556521</ele>
        <time>2021-01-01T14:46:45.998Z</time>
      </trkpt>
      <trkpt lat="51.030587" lon="8.464651">
        <ele>511.846143</ele>
        <time>2021-01-01T14:48:12.998Z</time>
      </trkpt>
      <trkpt lat="51.030649" lon="8.464764">
        <ele>512.517411</ele>
        <time>2021-01-01T14:48:21.998Z</time>
      </trkpt>
      <trkpt lat="51.030678" lon="8.464903">
        <ele>513.172964</ele>
        <time>2021-01-01T14:48:31.997Z</time>
      </trkpt>
      <trkpt lat="51.030695" lon="8.465068">
        <ele>513.921403</ele>
        <time>2021-01-01T14:48:51.999Z</time>
      </trkpt>
      <trkpt lat="51.030729" lon="8.465210">
        <ele>514.601550</ele>
        <time>2021-01-01T14:48:57.999Z</time>
      </trkpt>
      <trkpt lat="51.030791" lon="8.465339">
        <ele>515.328312</ele>
        <time>2021-01-01T14:49:02.999Z</time>
      </trkpt>
      <trkpt lat="51.030847" lon="8.465491">
        <ele>516.116865</ele>
        <time>2021-01-01T14:49:08.999Z</time>
      </trkpt>
      <trkpt lat="51.030894" lon="8.465622">
        <ele>516.791973</ele>
        <time>2021-01-01T14:49:15.999Z</time>
      </trkpt>
      <trkpt lat="51.030935" lon="8.465773">
        <ele>517.528200</ele>
        <time>2021-01-01T14:49:22.999Z</time>
      </trkpt>
      <trkpt lat="51.030987" lon="8.465901">
        <ele>518.210313</ele>
        <time>2021-01-01T14:49:27.999Z</time>
      </trkpt>
      <trkpt lat="51.031021" lon="8.466039">
        <ele>518.873753</ele>
        <time>2021-01-01T14:49:35.999Z</time>
      </trkpt>
      <trkpt lat="51.031023" lon="8.465888">
        <ele>519.419188</ele>
        <time>2021-01-01T14:49:50.999Z</time>
      </trkpt>
      <trkpt lat="51.031087" lon="8.465996">
        <ele>519.875759</ele>
        <time>2021-01-01T14:50:15.999Z</time>
      </trkpt>
      <trkpt lat="51.031092" lon="8.466148">
        <ele>520.344070</ele>
        <time>2021-01-01T14:50:25.999Z</time>
      </trkpt>
      <trkpt lat="51.031117" lon="8.465999">
        <ele>520.818547</ele>
        <time>2021-01-01T14:50:49.999Z</time>
      </trkpt>
      <trkpt lat="51.031174" lon="8.465883">
        <ele>521.271479</ele>
        <time>2021-01-01T14:50:59.999Z</time>
      </trkpt>
      <trkpt lat="51.031195" lon="8.465742">
        <ele>521.717305</ele>
        <time>2021-01-01T14:51:13.999Z</time>
      </trkpt>
      <trkpt lat="51.031155" lon="8.465608">
        <ele>522.173680</ele>
        <time>2021-01-01T14:51:27.999Z</time>
      </trkpt>
      <trkpt lat="51.031139" lon="8.465458">
        <ele>522.641789</ele>
        <time>2021-01-01T14:51:41.999Z</time>
      </trkpt>
      <trkpt lat="51.031153" lon="8.465310">
        <ele>523.102276</ele>
        <time>2021-01-01T14:51:55.999Z</time>
      </trkpt>
      <trkpt lat="51.031135" lon="8.465158">
        <ele>523.578167</ele>
        <time>2021-01-01T14:52:10.999Z</time>
      </trkpt>
      <trkpt lat="51.031092" lon="8.465027">
        <ele>524.032823</ele>
        <time>2021-01-01T14:52:22.999Z</time>
      </trkpt>
      <trkpt lat="51.031033" lon="8.464906">
        <ele>524.503906</ele>
        <time>2021-01-01T14:52:32.999Z</time>
      </trkpt>
      <trkpt lat="51.031008" lon="8.464767">
        <ele>524.948726</ele>
        <time>2021-01-01T14:52:55.999Z</time>
      </trkpt>
      <trkpt lat="51.030962" lon="8.464638">
        <ele>525.404995</ele>
        <time>2021-01-01T14:53:05.999Z</time>
      </trkpt>
      <trkpt lat="51.030949" lon="8.464494">
        <ele>525.852596</ele>
        <time>2021-01-01T14:53:17.999Z</time>
      </trkpt>
      <trkpt lat="51.030950" lon="8.464344">
        <ele>526.314142</ele>
        <time>2021-01-01T14:53:28.999Z</time>
      </trkpt>
      <trkpt lat="51.030957" lon="8.464191">
        <ele>526.786136</ele>
        <time>2021-01-01T14:53:43.999Z</time>
      </trkpt>
      <trkpt lat="51.031012" lon="8.464062">
        <ele>527.265655</ele>
        <time>2021-01-01T14:54:06.999Z</time>
      </trkpt>
      <trkpt lat="51.031009" lon="8.463917">
        <ele>527.712032</ele>
        <time>2021-01-01T14:54:13.999Z</time>
      </trkpt>
      <trkpt lat="51.031016" lon="8.463768">
        <ele>528.171890</ele>
        <time>2021-01-01T14:54:27.999Z</time>
      </trkpt>
      <trkpt lat="51.031003" lon="8.463613">
        <ele>528.653292</ele>
        <time>2021-01-01T14:54:35.999Z</time>
      </trkpt>
      <trkpt lat="51.030962" lon="8.463485">
        <ele>529.095516</ele>
        <time>2021-01-01T14:54:43.999Z</time>
      </trkpt>
      <trkpt lat="51.030905" lon="8.463374">
        <ele>529.536683</ele>
        <time>2021-01-01T14:54:56.999Z</time>
      </trkpt>
      <trkpt lat="51.030873" lon="8.463226">
        <ele>530.018487</ele>
        <time>2021-01-01T14:55:13.998Z</time>
      </trkpt>
      <trkpt lat="51.030860" lon="8.463082">
        <ele>530.466346</ele>
        <time>2021-01-01T14:55:23.998Z</time>
      </trkpt>
      <trkpt lat="51.030891" lon="8.462936">
        <ele>530.940744</ele>
        <time>2021-01-01T14:55:39.998Z</time>
      </trkpt>
      <trkpt lat="51.030876" lon="8.462791">
        <ele>531.393136</ele>
        <time>2021-01-01T14:55:51.999Z</time>
      </trkpt>
      <trkpt lat="51.030874" lon="8.462637">
        <ele>531.867337</ele>
        <time>2021-01-01T14:56:14.000Z</time>
      </trkpt>
      <trkpt lat="51.030838" lon="8.462497">
        <ele>532.332973</ele>
        <time>2021-01-01T14:56:32.000Z</time>
      </trkpt>
      <trkpt lat="51.030845" lon="8.462345">
        <ele>532.802170</ele>
        <time>2021-01-01T14:56:42.000Z</time>
      </trkpt>
      <trkpt lat="51.030796" lon="8.462220">
        <ele>533.255626</ele>
        <time>2021-01-01T14:56:54.999Z</time>
      </trkpt>
      <trkpt lat="51.030716" lon="8.462138">
        <ele>533.721554</ele>
        <time>2021-01-01T14:57:06.999Z</time>
      </trkpt>
      <trkpt lat="51.030646" lon="8.462046">
        <ele>534.166116</ele>
        <time>2021-01-01T14:57:17.999Z</time>
      </trkpt>
      <trkpt lat="51.030610" lon="8.461908">
        <ele>534.626061</ele>
        <time>2021-01-01T14:57:30.999Z</time>
      </trkpt>
      <trkpt lat="51.030582" lon="8.461757">
        <ele>535.110714</ele>
        <time>2021-01-01T14:57:42.999Z</time>
      </trkpt>
      <trkpt lat="51.030590" lon="8.461599">
        <ele>535.598706</ele>
        <time>2021-01-01T14:57:55.999Z</time>
      </trkpt>
      <trkpt lat="51.030566" lon="8.461459">
        <ele>536.045434</ele>
        <time>2021-01-01T14:58:05.999Z</time>
      </trkpt>
      <trkpt lat="51.030518" lon="8.461325">
        <ele>536.520189</ele>
        <time>2021-01-01T14:58:17.999Z</time>
      </trkpt>
      <trkpt lat="51.030477" lon="8.461194">
        <ele>536.975397</ele>
        <time>2021-01-01T14:58:28.999Z</time>
      </trkpt>
      <trkpt lat="51.030460" lon="8.461052">
        <ele>537.429389</ele>
        <time>2021-01-01T14:58:40.999Z</time>
      </trkpt>
      <trkpt lat="51.030565" lon="8.460766">
        <ele>538.469487</ele>
        <time>2021-01-01T14:59:28.998Z</time>
      </trkpt>
      <trkpt lat="51.030651" lon="8.460702">
        <ele>538.943677</ele>
        <time>2021-01-01T15:00:02.998Z</time>
      </trkpt>
      <trkpt lat="51.030692" lon="8.460830">
        <ele>539.394827</ele>
        <time>2021-01-01T15:00:14.998Z</time>
      </trkpt>
      <trkpt lat="51.030783" lon="8.460855">
        <ele>539.856009</ele>
        <time>2021-01-01T15:00:27.998Z</time>
      </trkpt>
      <trkpt lat="51.030856" lon="8.460771">
        <ele>540.306012</ele>
        <time>2021-01-01T15:00:36.998Z</time>
      </trkpt>
      <trkpt lat="51.030926" lon="8.460669">
        <ele>540.780173</ele>
        <time>2021-01-01T15:00:43.998Z</time>
      </trkpt>
      <trkpt lat="51.031016" lon="8.460599">
        <ele>541.280516</ele>
        <time>2021-01-01T15:00:51.998Z</time>
      </trkpt>
      <trkpt lat="51.031108" lon="8.460562">
        <ele>541.754426</ele>
        <time>2021-01-01T15:00:58.998Z</time>
      </trkpt>
      <trkpt lat="51.031187" lon="8.460473">
        <ele>542.237933</ele>
        <time>2021-01-01T15:01:06.998Z</time>
      </trkpt>
      <trkpt lat="51.031278" lon="8.460500">
        <ele>542.700226</ele>
        <time>2021-01-01T15:01:18.998Z</time>
      </trkpt>
      <trkpt lat="51.031427" lon="8.460489">
        <ele>543.445125</ele>
        <time>2021-01-01T15:02:25.997Z</time>
      </trkpt>
      <trkpt lat="51.031524" lon="8.460507">
        <ele>543.932825</ele>
        <time>2021-01-01T15:02:33.997Z</time>
      </trkpt>
      <trkpt lat="51.031620" lon="8.460562">
        <ele>544.442413</ele>
        <time>2021-01-01T15:02:39.997Z</time>
      </trkpt>
      <trkpt lat="51.031718" lon="8.460596">
        <ele>544.943334</ele>
        <time>2021-01-01T15:02:46.999Z</time>
      </trkpt>
      <trkpt lat="51.031813" lon="8.460576">
        <ele>545.421898</ele>
        <time>2021-01-01T15:02:54.002Z</time>
      </trkpt>
      <trkpt lat="51.031919" lon="8.460550">
        <ele>546.020546</ele>
        <time>2021-01-01T15:03:01.002Z</time>
      </trkpt>
      <trkpt lat="51.032025" lon="8.460544">
        <ele>546.689946</ele>
        <time>2021-01-01T15:03:09.002Z</time>
      </trkpt>
      <trkpt lat="51.032125" lon="8.460595">
        <ele>547.352722</ele>
        <time>2021-01-01T15:03:17.002Z</time>
      </trkpt>
      <trkpt lat="51.032222" lon="8.460645">
        <ele>547.996261</ele>
        <time>2021-01-01T15:03:24.002Z</time>
      </trkpt>
      <trkpt lat="51.032291" lon="8.460739">
        <ele>548.569689</ele>
        <time>2021-01-01T15:03:32.002Z</time>
      </trkpt>
      <trkpt lat="51.032390" lon="8.460760">
        <ele>549.200022</ele>
        <time>2021-01-01T15:03:39.002Z</time>
      </trkpt>
      <trkpt lat="51.032488" lon="8.460777">
        <ele>549.822179</ele>
        <time>2021-01-01T15:03:46.002Z</time>
      </trkpt>
      <trkpt lat="51.032596" lon="8.460805">
        <ele>550.512778</ele>
        <time>2021-01-01T15:03:53.002Z</time>
      </trkpt>
      <trkpt lat="51.032688" lon="8.460827">
        <ele>551.099928</ele>
        <time>2021-01-01T15:04:00.002Z</time>
      </trkpt>
      <trkpt lat="51.032780" lon="8.460775">
        <ele>551.716138</ele>
        <time>2021-01-01T15:04:07.002Z</time>
      </trkpt>
      <trkpt lat="51.032854" lon="8.460677">
        <ele>552.323914</ele>
        <time>2021-01-01T15:04:13.002Z</time>
      </trkpt>
      <trkpt lat="51.032933" lon="8.460602">
        <ele>552.904590</ele>
        <time>2021-01-01T15:04:19.002Z</time>
      </trkpt>
      <trkpt lat="51.032999" lon="8.460483">
        <ele>553.534323</ele>
        <time>2021-01-01T15:04:26.002Z</time>
      </trkpt>
      <trkpt lat="51.033052" lon="8.460354">
        <ele>554.145887</ele>
        <time>2021-01-01T15:04:32.002Z</time>
      </trkpt>
      <trkpt lat="51.033121" lon="8.460259">
        <ele>554.721901</ele>
        <time>2021-01-01T15:04:38.002Z</time>
      </trkpt>
      <trkpt lat="51.033170" lon="8.460127">
        <ele>555.330253</ele>
        <time>2021-01-01T15:04:47.002Z</time>
      </trkpt>
      <trkpt lat="51.033187" lon="8.459977">
        <ele>555.935173</ele>
        <time>2021-01-01T15:04:57.002Z</time>
      </trkpt>
      <trkpt lat="51.033231" lon="8.459850">
        <ele>556.510649</ele>
        <time>2021-01-01T15:05:05.002Z</time>
      </trkpt>
      <trkpt lat="51.033219" lon="8.459704">
        <ele>557.077299</ele>
        <time>2021-01-01T15:05:12.002Z</time>
      </trkpt>
      <trkpt lat="51.033223" lon="8.459557">
        <ele>557.248254</ele>
        <time>2021-01-01T15:05:19.002Z</time>
      </trkpt>
      <trkpt lat="51.033240" lon="8.459416">
        <ele>557.415061</ele>
        <time>2021-01-01T15:05:32.002Z</time>
      </trkpt>
      <trkpt lat="51.033262" lon="8.459275">
        <ele>557.583852</ele>
        <time>2021-01-01T15:05:40.001Z</time>
      </trkpt>
      <trkpt lat="51.033306" lon="8.459130">
        <ele>557.770910</ele>
        <time>2021-01-01T15:05:50.001Z</time>
      </trkpt>
      <trkpt lat="51.033374" lon="8.459019">
        <ele>557.950956</ele>
        <time>2021-01-01T15:05:58.001Z</time>
      </trkpt>
      <trkpt lat="51.033436" lon="8.458913">
        <ele>558.119149</ele>
        <time>2021-01-01T15:06:11.001Z</time>
      </trkpt>
      <trkpt lat="51.033446" lon="8.458767">
        <ele>558.289784</ele>
        <time>2021-01-01T15:06:24.001Z</time>
      </trkpt>
      <trkpt lat="51.033465" lon="8.458614">
        <ele>558.470982</ele>
        <time>2021-01-01T15:06:41.001Z</time>
      </trkpt>
      <trkpt lat="51.033527" lon="8.458500">
        <ele>558.646096</ele>
        <time>2021-01-01T15:06:55.001Z</time>
      </trkpt>
      <trkpt lat="51.033613" lon="8.458401">
        <ele>558.842250</ele>
        <time>2021-01-01T15:07:01.001Z</time>
      </trkpt>
      <trkpt lat="51.033693" lon="8.458293">
        <ele>559.036136</ele>
        <time>2021-01-01T15:07:06.001Z</time>
      </trkpt>
      <trkpt lat="51.033762" lon="8.458165">
        <ele>559.232014</ele>
        <time>2021-01-01T15:07:11.001Z</time>
      </trkpt>
      <trkpt lat="51.033838" lon="8.458046">
        <ele>559.429073</ele>
        <time>2021-01-01T15:07:15.001Z</time>
      </trkpt>
      <trkpt lat="51.033909" lon="8.457928">
        <ele>559.618818</ele>
        <time>2021-01-01T15:07:20.001Z</time>
      </trkpt>
      <trkpt lat="51.033961" lon="8.457807">
        <ele>559.789094</ele>
        <time>2021-01-01T15:07:24.001Z</time>
      </trkpt>
      <trkpt lat="51.034019" lon="8.457655">
        <ele>559.995663</ele>
        <time>2021-01-01T15:07:29.001Z</time>
      </trkpt>
      <trkpt lat="51.034057" lon="8.457500">
        <ele>560.188951</ele>
        <time>2021-01-01T15:07:34.000Z</time>
      </trkpt>
      <trkpt lat="51.034095" lon="8.457348">
        <ele>560.378995</ele>
        <time>2021-01-01T15:07:42.000Z</time>
      </trkpt>
      <trkpt lat="51.034124" lon="8.457197">
        <ele>559.797313</ele>
        <time>2021-01-01T15:07:50.000Z</time>
      </trkpt>
      <trkpt lat="51.034144" lon="8.457043">
        <ele>559.154753</ele>
        <time>2021-01-01T15:07:56.000Z</time>
      </trkpt>
      <trkpt lat="51.034238" lon="8.456891">
        <ele>558.283633</ele>
        <time>2021-01-01T15:08:01.000Z</time>
      </trkpt>
      <trkpt lat="51.034300" lon="8.456738">
        <ele>557.539880</ele>
        <time>2021-01-01T15:08:05.000Z</time>
      </trkpt>
      <trkpt lat="51.034339" lon="8.456589">
        <ele>556.880399</ele>
        <time>2021-01-01T15:08:10.000Z</time>
      </trkpt>
      <trkpt lat="51.034397" lon="8.456464">
        <ele>556.245632</ele>
        <time>2021-01-01T15:08:16.000Z</time>
      </trkpt>
      <trkpt lat="51.034451" lon="8.456329">
        <ele>555.591854</ele>
        <time>2021-01-01T15:08:21.000Z</time>
      </trkpt>
      <trkpt lat="51.034474" lon="8.456177">
        <ele>554.953023</ele>
        <time>2021-01-01T15:08:28.000Z</time>
      </trkpt>
      <trkpt lat="51.034482" lon="8.456034">
        <ele>554.366388</ele>
        <time>2021-01-01T15:08:36.000Z</time>
      </trkpt>
      <trkpt lat="51.034532" lon="8.455909">
        <ele>553.761039</ele>
        <time>2021-01-01T15:08:47.000Z</time>
      </trkpt>
      <trkpt lat="51.034594" lon="8.455790">
        <ele>553.129573</ele>
        <time>2021-01-01T15:08:54.000Z</time>
      </trkpt>
      <trkpt lat="51.034670" lon="8.455683">
        <ele>552.469998</ele>
        <time>2021-01-01T15:09:01.000Z</time>
      </trkpt>
      <trkpt lat="51.034780" lon="8.455734">
        <ele>551.725471</ele>
        <time>2021-01-01T15:09:05.000Z</time>
      </trkpt>
      <trkpt lat="51.034763" lon="8.455586">
        <ele>551.110711</ele>
        <time>2021-01-01T15:09:22.000Z</time>
      </trkpt>
      <trkpt lat="51.034757" lon="8.455441">
        <ele>550.516934</ele>
        <time>2021-01-01T15:09:33.000Z</time>
      </trkpt>
      <trkpt lat="51.034721" lon="8.455296">
        <ele>549.879931</ele>
        <time>2021-01-01T15:09:41.000Z</time>
      </trkpt>
      <trkpt lat="51.034681" lon="8.455153">
        <ele>549.240407</ele>
        <time>2021-01-01T15:09:47.999Z</time>
      </trkpt>
      <trkpt lat="51.034657" lon="8.455014">
        <ele>548.607214</ele>
        <time>2021-01-01T15:10:03.999Z</time>
      </trkpt>
      <trkpt lat="51.034608" lon="8.454872">
        <ele>547.406533</ele>
        <time>2021-01-01T15:10:16.999Z</time>
      </trkpt>
      <trkpt lat="51.034563" lon="8.454730">
        <ele>546.227809</ele>
        <time>2021-01-01T15:10:22.999Z</time>
      </trkpt>
      <trkpt lat="51.034535" lon="8.454592">
        <ele>545.152911</ele>
        <time>2021-01-01T15:10:27.999Z</time>
      </trkpt>
      <trkpt lat="51.034487" lon="8.454454">
        <ele>543.983887</ele>
        <time>2021-01-01T15:10:32.999Z</time>
      </trkpt>
      <trkpt lat="51.034429" lon="8.454314">
        <ele>542.741122</ele>
        <time>2021-01-01T15:10:37.999Z</time>
      </trkpt>
      <trkpt lat="51.034356" lon="8.454228">
        <ele>541.670189</ele>
        <time>2021-01-01T15:10:45.999Z</time>
      </trkpt>
      <trkpt lat="51.034283" lon="8.454125">
        <ele>540.519774</ele>
        <time>2021-01-01T15:10:52.999Z</time>
      </trkpt>
      <trkpt lat="51.034204" lon="8.454009">
        <ele>539.252246</ele>
        <time>2021-01-01T15:10:59.999Z</time>
      </trkpt>
      <trkpt lat="51.034104" lon="8.453986">
        <ele>538.061192</ele>
        <time>2021-01-01T15:11:06.999Z</time>
      </trkpt>
      <trkpt lat="51.034007" lon="8.453988">
        <ele>536.917673</ele>
        <time>2021-01-01T15:11:14.999Z</time>
      </trkpt>
      <trkpt lat="51.033917" lon="8.453932">
        <ele>535.778439</ele>
        <time>2021-01-01T15:11:23.999Z</time>
      </trkpt>
      <trkpt lat="51.033846" lon="8.453832">
        <ele>534.660413</ele>
        <time>2021-01-01T15:11:30.998Z</time>
      </trkpt>
      <trkpt lat="51.033810" lon="8.453681">
        <ele>533.463318</ele>
        <time>2021-01-01T15:11:40.998Z</time>
      </trkpt>
      <trkpt lat="51.033775" lon="8.453544">
        <ele>532.367139</ele>
        <time>2021-01-01T15:11:50.998Z</time>
      </trkpt>
      <trkpt lat="51.033740" lon="8.453387">
        <ele>531.132341</ele>
        <time>2021-01-01T15:11:58.998Z</time>
      </trkpt>
      <trkpt lat="51.033714" lon="8.453226">
        <ele>529.900132</ele>
        <time>2021-01-01T15:12:08.998Z</time>
      </trkpt>
      <trkpt lat="51.033698" lon="8.453078">
        <ele>528.786920</ele>
        <time>2021-01-01T15:12:19.998Z</time>
      </trkpt>
      <trkpt lat="51.033641" lon="8.452966">
        <ele>527.718848</ele>
        <time>2021-01-01T15:12:30.998Z</time>
      </trkpt>
      <trkpt lat="51.033579" lon="8.452845">
        <ele>526.994054</ele>
        <time>2021-01-01T15:12:41.998Z</time>
      </trkpt>
      <trkpt lat="51.033516" lon="8.452737">
        <ele>526.403271</ele>
        <time>2021-01-01T15:12:50.997Z</time>
      </trkpt>
      <trkpt lat="51.033454" lon="8.452603">
        <ele>525.736081</ele>
        <time>2021-01-01T15:13:00.997Z</time>
      </trkpt>
      <trkpt lat="51.033394" lon="8.452486">
        <ele>525.130616</ele>
        <time>2021-01-01T15:13:10.997Z</time>
      </trkpt>
      <trkpt lat="51.033315" lon="8.452383">
        <ele>524.479109</ele>
        <time>2021-01-01T15:13:20.997Z</time>
      </trkpt>
      <trkpt lat="51.033226" lon="8.452301">
        <ele>523.823136</ele>
        <time>2021-01-01T15:13:27.997Z</time>
      </trkpt>
      <trkpt lat="51.033140" lon="8.452237">
        <ele>523.217595</ele>
        <time>2021-01-01T15:13:35.997Z</time>
      </trkpt>
      <trkpt lat="51.033049" lon="8.452218">
        <ele>522.632276</ele>
        <time>2021-01-01T15:13:43.997Z</time>
      </trkpt>
      <trkpt lat="51.032956" lon="8.452190">
        <ele>522.028646</ele>
        <time>2021-01-01T15:13:59.997Z</time>
      </trkpt>
      <trkpt lat="51.032857" lon="8.452181">
        <ele>521.396259</ele>
        <time>2021-01-01T15:14:06.997Z</time>
      </trkpt>
      <trkpt lat="51.032767" lon="8.452165">
        <ele>520.818722</ele>
        <time>2021-01-01T15:14:14.996Z</time>
      </trkpt>
      <trkpt lat="51.032659" lon="8.452156">
        <ele>520.129025</ele>
        <time>2021-01-01T15:14:22.996Z</time>
      </trkpt>
      <trkpt lat="51.032761" lon="8.452017">
        <ele>519.272342</ele>
        <time>2021-01-01T15:14:25.996Z</time>
      </trkpt>
      <trkpt lat="51.032798" lon="8.452153">
        <ele>518.678054</ele>
        <time>2021-01-01T15:14:26.996Z</time>
      </trkpt>
      <trkpt lat="51.032918" lon="8.452247">
        <ele>517.824956</ele>
        <time>2021-01-01T15:14:28.996Z</time>
      </trkpt>
      <trkpt lat="51.033034" lon="8.452232">
        <ele>517.082743</ele>
        <time>2021-01-01T15:14:29.996Z</time>
      </trkpt>
      <trkpt lat="51.032960" lon="8.452141">
        <ele>516.486164</ele>
        <time>2021-01-01T15:14:39.996Z</time>
      </trkpt>
      <trkpt lat="51.032874" lon="8.452187">
        <ele>516.022974</ele>
        <time>2021-01-01T15:14:42.996Z</time>
      </trkpt>
      <trkpt lat="51.032761" lon="8.452255">
        <ele>515.961650</ele>
        <time>2021-01-01T15:14:44.996Z</time>
      </trkpt>
      <trkpt lat="51.032639" lon="8.452239">
        <ele>515.899517</ele>
        <time>2021-01-01T15:14:47.997Z</time>
      </trkpt>
      <trkpt lat="51.032549" lon="8.452277">
        <ele>515.852254</ele>
        <time>2021-01-01T15:14:49.997Z</time>
      </trkpt>
      <trkpt lat="51.032420" lon="8.452272">
        <ele>515.786759</ele>
        <time>2021-01-01T15:14:56.998Z</time>
      </trkpt>
      <trkpt lat="51.032505" lon="8.452184">
        <ele>515.735278</ele>
        <time>2021-01-01T15:15:16.998Z</time>
      </trkpt>
      <trkpt lat="51.032591" lon="8.452142">
        <ele>515.689615</ele>
        <time>2021-01-01T15:15:23.998Z</time>
      </trkpt>
      <trkpt lat="51.032521" lon="8.452035">
        <ele>515.640332</ele>
        <time>2021-01-01T15:15:34.998Z</time>
      </trkpt>
      <trkpt lat="51.032330" lon="8.451942">
        <ele>515.538944</ele>
        <time>2021-01-01T15:15:36.998Z</time>
      </trkpt>
      <trkpt lat="51.032234" lon="8.451967">
        <ele>515.489569</ele>
        <time>2021-01-01T15:15:37.998Z</time>
      </trkpt>
      <trkpt lat="51.032117" lon="8.452131">
        <ele>515.410405</ele>
        <time>2021-01-01T15:15:39.998Z</time>
      </trkpt>
      <trkpt lat="51.032025" lon="8.452254">
        <ele>515.349397</ele>
        <time>2021-01-01T15:15:41.998Z</time>
      </trkpt>
      <trkpt lat="51.032103" lon="8.452175">
        <ele>515.302459</ele>
        <time>2021-01-01T15:15:46.998Z</time>
      </trkpt>
      <trkpt lat="51.032182" lon="8.452075">
        <ele>515.251207</ele>
        <time>2021-01-01T15:15:49.998Z</time>
      </trkpt>
      <trkpt lat="51.032248" lon="8.451957">
        <ele>515.200800</ele>
        <time>2021-01-01T15:15:53.998Z</time>
      </trkpt>
      <trkpt lat="51.032303" lon="8.451813">
        <ele>515.147023</ele>
        <time>2021-01-01T15:15:57.998Z</time>
      </trkpt>
      <trkpt lat="51.032413" lon="8.451747">
        <ele>514.858405</ele>
        <time>2021-01-01T15:16:00.998Z</time>
      </trkpt>
      <trkpt lat="51.032534" lon="8.451623">
        <ele>514.273563</ele>
        <time>2021-01-01T15:16:02.998Z</time>
      </trkpt>
      <trkpt lat="51.032627" lon="8.451593">
        <ele>513.888029</ele>
        <time>2021-01-01T15:16:04.998Z</time>
      </trkpt>
      <trkpt lat="51.032688" lon="8.451715">
        <ele>513.489807</ele>
        <time>2021-01-01T15:16:09.998Z</time>
      </trkpt>
      <trkpt lat="51.032745" lon="8.451828">
        <ele>513.119694</ele>
        <time>2021-01-01T15:16:11.998Z</time>
      </trkpt>
      <trkpt lat="51.032842" lon="8.451859">
        <ele>512.717726</ele>
        <time>2021-01-01T15:16:16.998Z</time>
      </trkpt>
      <trkpt lat="51.032915" lon="8.451764">
        <ele>512.334483</ele>
        <time>2021-01-01T15:16:21.998Z</time>
      </trkpt>
      <trkpt lat="51.032948" lon="8.451580">
        <ele>511.845625</ele>
        <time>2021-01-01T15:16:25.998Z</time>
      </trkpt>
      <trkpt lat="51.032969" lon="8.451358">
        <ele>511.272041</ele>
        <time>2021-01-01T15:16:28.998Z</time>
      </trkpt>
      <trkpt lat="51.033062" lon="8.451313">
        <ele>510.877098</ele>
        <time>2021-01-01T15:16:29.998Z</time>
      </trkpt>
      <trkpt lat="51.033074" lon="8.451507">
        <ele>510.379044</ele>
        <time>2021-01-01T15:16:31.998Z</time>
      </trkpt>
      <trkpt lat="51.033068" lon="8.451352">
        <ele>509.982276</ele>
        <time>2021-01-01T15:16:42.998Z</time>
      </trkpt>
      <trkpt lat="51.033108" lon="8.451201">
        <ele>509.563647</ele>
        <time>2021-01-01T15:16:47.998Z</time>
      </trkpt>
      <trkpt lat="51.033130" lon="8.451045">
        <ele>509.155175</ele>
        <time>2021-01-01T15:16:52.998Z</time>
      </trkpt>
      <trkpt lat="51.033170" lon="8.450900">
        <ele>508.750630</ele>
        <time>2021-01-01T15:16:57.997Z</time>
      </trkpt>
      <trkpt lat="51.033213" lon="8.450750">
        <ele>508.329447</ele>
        <time>2021-01-01T15:17:03.998Z</time>
      </trkpt>
      <trkpt lat="51.033266" lon="8.450595">
        <ele>507.878675</ele>
        <time>2021-01-01T15:17:08.998Z</time>
      </trkpt>
      <trkpt lat="51.033304" lon="8.450434">
        <ele>506.646905</ele>
        <time>2021-01-01T15:17:14.998Z</time>
      </trkpt>
      <trkpt lat="51.033344" lon="8.450306">
        <ele>505.506443</ele>
        <time>2021-01-01T15:17:20.998Z</time>
      </trkpt>
      <trkpt lat="51.033390" lon="8.450173">
        <ele>504.295328</ele>
        <time>2021-01-01T15:17:27.998Z</time>
      </trkpt>
      <trkpt lat="51.033452" lon="8.450059">
        <ele>503.092748</ele>
        <time>2021-01-01T15:17:33.998Z</time>
      </trkpt>
      <trkpt lat="51.033515" lon="8.449949">
        <ele>501.905619</ele>
        <time>2021-01-01T15:17:39.998Z</time>
      </trkpt>
      <trkpt lat="51.033550" lon="8.449815">
        <ele>500.747882</ele>
        <time>2021-01-01T15:17:47.998Z</time>
      </trkpt>
      <trkpt lat="51.033597" lon="8.449674">
        <ele>499.474574</ele>
        <time>2021-01-01T15:17:57.998Z</time>
      </trkpt>
      <trkpt lat="51.033668" lon="8.449572">
        <ele>498.260543</ele>
        <time>2021-01-01T15:18:06.998Z</time>
      </trkpt>
      <trkpt lat="51.033725" lon="8.449458">
        <ele>497.098474</ele>
        <time>2021-01-01T15:18:15.998Z</time>
      </trkpt>
      <trkpt lat="51.033811" lon="8.449390">
        <ele>495.879866</ele>
        <time>2021-01-01T15:18:24.998Z</time>
      </trkpt>
      <trkpt lat="51.033886" lon="8.449311">
        <ele>494.738442</ele>
        <time>2021-01-01T15:18:32.998Z</time>
      </trkpt>
      <trkpt lat="51.033936" lon="8.449180">
        <ele>493.515749</ele>
        <time>2021-01-01T15:18:41.998Z</time>
      </trkpt>
      <trkpt lat="51.034006" lon="8.449075">
        <ele>492.294808</ele>
        <time>2021-01-01T15:18:48.998Z</time>
      </trkpt>
      <trkpt lat="51.034052" lon="8.448952">
        <ele>491.152971</ele>
        <time>2021-01-01T15:18:55.998Z</time>
      </trkpt>
      <trkpt lat="51.034096" lon="8.448827">
        <ele>490.009997</ele>
        <time>2021-01-01T15:19:02.998Z</time>
      </trkpt>
      <trkpt lat="51.034157" lon="8.448697">
        <ele>488.715814</ele>
        <time>2021-01-01T15:19:11.998Z</time>
      </trkpt>
      <trkpt lat="51.034209" lon="8.448546">
        <ele>487.342184</ele>
        <time>2021-01-01T15:19:17.998Z</time>
      </trkpt>
      <trkpt lat="51.034288" lon="8.448237">
        <ele>484.830697</ele>
        <time>2021-01-01T15:21:39.996Z</time>
      </trkpt>
      <trkpt lat="51.034300" lon="8.448095">
        <ele>484.238988</ele>
        <time>2021-01-01T15:21:47.996Z</time>
      </trkpt>
      <trkpt lat="51.034310" lon="8.447941">
        <ele>483.599611</ele>
        <time>2021-01-01T15:21:57.996Z</time>
      </trkpt>
      <trkpt lat="51.034327" lon="8.447797">
        <ele>482.994526</ele>
        <time>2021-01-01T15:22:08.996Z</time>
      </trkpt>
      <trkpt lat="51.034328" lon="8.447639">
        <ele>482.341979</ele>
        <time>2021-01-01T15:22:17.996Z</time>
      </trkpt>
      <trkpt lat="51.034341" lon="8.447489">
        <ele>481.716648</ele>
        <time>2021-01-01T15:22:24.996Z</time>
      </trkpt>
      <trkpt lat="51.034355" lon="8.447316">
        <ele>480.996295</ele>
        <time>2021-01-01T15:22:32.995Z</time>
      </trkpt>
      <trkpt lat="51.034342" lon="8.447145">
        <ele>480.284951</ele>
        <time>2021-01-01T15:22:37.995Z</time>
      </trkpt>
      <trkpt lat="51.034335" lon="8.447001">
        <ele>479.688481</ele>
        <time>2021-01-01T15:22:42.995Z</time>
      </trkpt>
      <trkpt lat="51.034350" lon="8.446843">
        <ele>479.028573</ele>
        <time>2021-01-01T15:22:51.995Z</time>
      </trkpt>
      <trkpt lat="51.034377" lon="8.446696">
        <ele>478.396122</ele>
        <time>2021-01-01T15:22:59.995Z</time>
      </trkpt>
      <trkpt lat="51.034375" lon="8.446542">
        <ele>477.759992</ele>
        <time>2021-01-01T15:23:06.995Z</time>
      </trkpt>
      <trkpt lat="51.034424" lon="8.446404">
        <ele>477.105503</ele>
        <time>2021-01-01T15:23:13.995Z</time>
      </trkpt>
      <trkpt lat="51.034469" lon="8.446268">
        <ele>476.470843</ele>
        <time>2021-01-01T15:23:20.995Z</time>
      </trkpt>
      <trkpt lat="51.034520" lon="8.446144">
        <ele>475.858943</ele>
        <time>2021-01-01T15:23:27.995Z</time>
      </trkpt>
      <trkpt lat="51.034579" lon="8.446010">
        <ele>475.183386</ele>
        <time>2021-01-01T15:23:35.995Z</time>
      </trkpt>
      <trkpt lat="51.034635" lon="8.445886">
        <ele>474.552914</ele>
        <time>2021-01-01T15:23:42.995Z</time>
      </trkpt>
      <trkpt lat="51.034656" lon="8.445740">
        <ele>473.934391</ele>
        <time>2021-01-01T15:23:49.995Z</time>
      </trkpt>
      <trkpt lat="51.034635" lon="8.445597">
        <ele>473.327939</ele>
        <time>2021-01-01T15:23:56.995Z</time>
      </trkpt>
      <trkpt lat="51.034619" lon="8.445456">
        <ele>473.215484</ele>
        <time>2021-01-01T15:24:03.995Z</time>
      </trkpt>
      <trkpt lat="51.034581" lon="8.445311">
        <ele>473.268203</ele>
        <time>2021-01-01T15:24:09.996Z</time>
      </trkpt>
      <trkpt lat="51.034541" lon="8.445167">
        <ele>473.321034</ele>
        <time>2021-01-01T15:24:18.997Z</time>
      </trkpt>
      <trkpt lat="51.034523" lon="8.445027">
        <ele>473.368990</ele>
        <time>2021-01-01T15:24:25.998Z</time>
      </trkpt>
      <trkpt lat="51.034511" lon="8.444864">
        <ele>473.424066</ele>
        <time>2021-01-01T15:24:33.998Z</time>
      </trkpt>
      <trkpt lat="51.034497" lon="8.444722">
        <ele>473.472303</ele>
        <time>2021-01-01T15:24:40.999Z</time>
      </trkpt>
      <trkpt lat="51.034459" lon="8.444590">
        <ele>473.521024</ele>
        <time>2021-01-01T15:24:48.999Z</time>
      </trkpt>
      <trkpt lat="51.034430" lon="8.444445">
        <ele>473.572088</ele>
        <time>2021-01-01T15:24:55.999Z</time>
      </trkpt>
      <trkpt lat="51.034374" lon="8.444304">
        <ele>473.628055</ele>
        <time>2021-01-01T15:25:03.999Z</time>
      </trkpt>
      <trkpt lat="51.034312" lon="8.444196">
        <ele>473.677131</ele>
        <time>2021-01-01T15:25:08.999Z</time>
      </trkpt>
      <trkpt lat="51.034267" lon="8.444069">
        <ele>473.726052</ele>
        <time>2021-01-01T15:25:15.999Z</time>
      </trkpt>
      <trkpt lat="51.034211" lon="8.443923">
        <ele>473.783445</ele>
        <time>2021-01-01T15:25:21.999Z</time>
      </trkpt>
      <trkpt lat="51.034148" lon="8.443800">
        <ele>473.836684</ele>
        <time>2021-01-01T15:25:27.999Z</time>
      </trkpt>
      <trkpt lat="51.034076" lon="8.443687">
        <ele>473.890671</ele>
        <time>2021-01-01T15:25:33.998Z</time>
      </trkpt>
      <trkpt lat="51.034008" lon="8.443575">
        <ele>473.942918</ele>
        <time>2021-01-01T15:25:39.998Z</time>
      </trkpt>
      <trkpt lat="51.033956" lon="8.443455">
        <ele>473.991826</ele>
        <time>2021-01-01T15:25:46.998Z</time>
      </trkpt>
      <trkpt lat="51.034065" lon="8.443537">
        <ele>474.056177</ele>
        <time>2021-01-01T15:26:14.998Z</time>
      </trkpt>
      <trkpt lat="51.034139" lon="8.443626">
        <ele>474.105692</ele>
        <time>2021-01-01T15:26:22.998Z</time>
      </trkpt>
      <trkpt lat="51.034199" lon="8.443750">
        <ele>474.477109</ele>
        <time>2021-01-01T15:26:29.998Z</time>
      </trkpt>
      <trkpt lat="51.034286" lon="8.443826">
        <ele>475.426264</ele>
        <time>2021-01-01T15:26:36.998Z</time>
      </trkpt>
      <trkpt lat="51.034357" lon="8.443939">
        <ele>476.386787</ele>
        <time>2021-01-01T15:26:42.998Z</time>
      </trkpt>
      <trkpt lat="51.034420" lon="8.444066">
        <ele>477.359452</ele>
        <time>2021-01-01T15:26:50.998Z</time>
      </trkpt>
      <trkpt lat="51.034502" lon="8.444160">
        <ele>478.326031</ele>
        <time>2021-01-01T15:26:58.998Z</time>
      </trkpt>
      <trkpt lat="51.034597" lon="8.444177">
        <ele>479.240155</ele>
        <time>2021-01-01T15:27:08.998Z</time>
      </trkpt>
      <trkpt lat="51.034689" lon="8.444193">
        <ele>480.125105</ele>
        <time>2021-01-01T15:27:19.997Z</time>
      </trkpt>
      <trkpt lat="51.034785" lon="8.444132">
        <ele>481.113627</ele>
        <time>2021-01-01T15:27:26.997Z</time>
      </trkpt>
      <trkpt lat="51.034848" lon="8.444007">
        <ele>482.076873</ele>
        <time>2021-01-01T15:27:34.997Z</time>
      </trkpt>
      <trkpt lat="51.034921" lon="8.443907">
        <ele>482.998181</ele>
        <time>2021-01-01T15:27:42.997Z</time>
      </trkpt>
      <trkpt lat="51.034905" lon="8.443752">
        <ele>483.942675</ele>
        <time>2021-01-01T15:27:57.997Z</time>
      </trkpt>
      <trkpt lat="51.034886" lon="8.443611">
        <ele>484.809761</ele>
        <time>2021-01-01T15:28:10.997Z</time>
      </trkpt>
      <trkpt lat="51.034834" lon="8.443493">
        <ele>485.676177</ele>
        <time>2021-01-01T15:28:21.997Z</time>
      </trkpt>
      <trkpt lat="51.034768" lon="8.443375">
        <ele>486.625769</ele>
        <time>2021-01-01T15:28:34.997Z</time>
      </trkpt>
      <trkpt lat="51.034705" lon="8.443245">
        <ele>487.612656</ele>
        <time>2021-01-01T15:28:41.997Z</time>
      </trkpt>
      <trkpt lat="51.034636" lon="8.443141">
        <ele>488.521711</ele>
        <time>2021-01-01T15:28:52.997Z</time>
      </trkpt>
      <trkpt lat="51.034571" lon="8.443039">
        <ele>489.394911</ele>
        <time>2021-01-01T15:29:03.997Z</time>
      </trkpt>
      <trkpt lat="51.034530" lon="8.442909">
        <ele>490.269413</ele>
        <time>2021-01-01T15:29:13.996Z</time>
      </trkpt>
      <trkpt lat="51.034479" lon="8.442786">
        <ele>491.155324</ele>
        <time>2021-01-01T15:29:20.996Z</time>
      </trkpt>
      <trkpt lat="51.034416" lon="8.442649">
        <ele>491.775719</ele>
        <time>2021-01-01T15:29:30.996Z</time>
      </trkpt>
      <trkpt lat="51.034377" lon="8.442499">
        <ele>492.285611</ele>
        <time>2021-01-01T15:29:38.996Z</time>
      </trkpt>
      <trkpt lat="51.034360" lon="8.442357">
        <ele>492.739698</ele>
        <time>2021-01-01T15:29:46.996Z</time>
      </trkpt>
      <trkpt lat="51.034303" lon="8.442228">
        <ele>493.234969</ele>
        <time>2021-01-01T15:29:59.996Z</time>
      </trkpt>
      <trkpt lat="51.034257" lon="8.442092">
        <ele>493.720073</ele>
        <time>2021-01-01T15:30:13.996Z</time>
      </trkpt>
      <trkpt lat="51.034210" lon="8.441936">
        <ele>494.263468</ele>
        <time>2021-01-01T15:30:23.996Z</time>
      </trkpt>
      <trkpt lat="51.034117" lon="8.441846">
        <ele>494.807306</ele>
        <time>2021-01-01T15:30:28.996Z</time>
      </trkpt>
      <trkpt lat="51.034044" lon="8.441732">
        <ele>495.318412</ele>
        <time>2021-01-01T15:30:34.996Z</time>
      </trkpt>
      <trkpt lat="51.034007" lon="8.441557">
        <ele>495.898395</ele>
        <time>2021-01-01T15:30:40.996Z</time>
      </trkpt>
      <trkpt lat="51.033960" lon="8.441426">
        <ele>496.372183</ele>
        <time>2021-01-01T15:30:45.996Z</time>
      </trkpt>
      <trkpt lat="51.033901" lon="8.441291">
        <ele>496.888629</ele>
        <time>2021-01-01T15:30:51.996Z</time>
      </trkpt>
      <trkpt lat="51.033855" lon="8.441137">
        <ele>497.424206</ele>
        <time>2021-01-01T15:30:58.995Z</time>
      </trkpt>
      <trkpt lat="51.033803" lon="8.441005">
        <ele>497.913515</ele>
        <time>2021-01-01T15:31:05.995Z</time>
      </trkpt>
      <trkpt lat="51.033760" lon="8.440865">
        <ele>498.402966</ele>
        <time>2021-01-01T15:31:12.996Z</time>
      </trkpt>
      <trkpt lat="51.033733" lon="8.440714">
        <ele>498.896123</ele>
        <time>2021-01-01T15:31:20.997Z</time>
      </trkpt>
      <trkpt lat="51.033770" lon="8.440568">
        <ele>499.390611</ele>
        <time>2021-01-01T15:31:26.996Z</time>
      </trkpt>
      <trkpt lat="51.033815" lon="8.440423">
        <ele>499.898564</ele>
        <time>2021-01-01T15:31:33.997Z</time>
      </trkpt>
      <trkpt lat="51.033868" lon="8.440296">
        <ele>500.372396</ele>
        <time>2021-01-01T15:31:41.998Z</time>
      </trkpt>
      <trkpt lat="51.033941" lon="8.440182">
        <ele>500.836736</ele>
        <time>2021-01-01T15:31:48.998Z</time>
      </trkpt>
      <trkpt lat="51.034023" lon="8.440120">
        <ele>501.248802</ele>
        <time>2021-01-01T15:31:56.999Z</time>
      </trkpt>
      <trkpt lat="51.034079" lon="8.439972">
        <ele>501.741751</ele>
        <time>2021-01-01T15:32:06.999Z</time>
      </trkpt>
      <trkpt lat="51.034126" lon="8.439834">
        <ele>502.189647</ele>
        <time>2021-01-01T15:32:17.999Z</time>
      </trkpt>
      <trkpt lat="51.034193" lon="8.439713">
        <ele>502.649764</ele>
        <time>2021-01-01T15:32:29.999Z</time>
      </trkpt>
      <trkpt lat="51.034221" lon="8.439575">
        <ele>503.063600</ele>
        <time>2021-01-01T15:32:37.999Z</time>
      </trkpt>
      <trkpt lat="51.034268" lon="8.439444">
        <ele>503.494034</ele>
        <time>2021-01-01T15:32:46.999Z</time>
      </trkpt>
      <trkpt lat="51.034335" lon="8.439321">
        <ele>503.958449</ele>
        <time>2021-01-01T15:32:53.999Z</time>
      </trkpt>
      <trkpt lat="51.034373" lon="8.439171">
        <ele>504.419970</ele>
        <time>2021-01-01T15:33:01.999Z</time>
      </trkpt>
      <trkpt lat="51.034439" lon="8.439051">
        <ele>504.874947</ele>
        <time>2021-01-01T15:33:09.999Z</time>
      </trkpt>
      <trkpt lat="51.034490" lon="8.438892">
        <ele>505.384341</ele>
        <time>2021-01-01T15:33:16.999Z</time>
      </trkpt>
      <trkpt lat="51.034554" lon="8.438788">
        <ele>505.799620</ele>
        <time>2021-01-01T15:33:21.998Z</time>
      </trkpt>
      <trkpt lat="51.034601" lon="8.438661">
        <ele>506.220174</ele>
        <time>2021-01-01T15:33:25.998Z</time>
      </trkpt>
      <trkpt lat="51.034631" lon="8.438523">
        <ele>506.636884</ele>
        <time>2021-01-01T15:33:30.998Z</time>
      </trkpt>
      <trkpt lat="51.034660" lon="8.438380">
        <ele>507.065690</ele>
        <time>2021-01-01T15:33:36.998Z</time>
      </trkpt>
      <trkpt lat="51.034701" lon="8.438228">
        <ele>507.537707</ele>
        <time>2021-01-01T15:33:42.998Z</time>
      </trkpt>
      <trkpt lat="51.034747" lon="8.438100">
        <ele>507.958452</ele>
        <time>2021-01-01T15:33:48.998Z</time>
      </trkpt>
      <trkpt lat="51.034778" lon="8.437947">
        <ele>508.417205</ele>
        <time>2021-01-01T15:33:54.998Z</time>
      </trkpt>
      <trkpt lat="51.034798" lon="8.437778">
        <ele>509.086445</ele>
        <time>2021-01-01T15:34:02.998Z</time>
      </trkpt>
      <trkpt lat="51.034832" lon="8.437645">
        <ele>509.669345</ele>
        <time>2021-01-01T15:34:11.998Z</time>
      </trkpt>
      <trkpt lat="51.034865" lon="8.437484">
        <ele>510.356859</ele>
        <time>2021-01-01T15:34:17.998Z</time>
      </trkpt>
      <trkpt lat="51.034896" lon="8.437324">
        <ele>511.036599</ele>
        <time>2021-01-01T15:34:22.998Z</time>
      </trkpt>
      <trkpt lat="51.034900" lon="8.437180">
        <ele>511.621816</ele>
        <time>2021-01-01T15:34:27.998Z</time>
      </trkpt>
      <trkpt lat="51.034938" lon="8.437009">
        <ele>512.358157</ele>
        <time>2021-01-01T15:34:33.998Z</time>
      </trkpt>
      <trkpt lat="51.034985" lon="8.436861">
        <ele>513.031316</ele>
        <time>2021-01-01T15:34:41.998Z</time>
      </trkpt>
      <trkpt lat="51.034981" lon="8.436695">
        <ele>513.705776</ele>
        <time>2021-01-01T15:34:48.998Z</time>
      </trkpt>
      <trkpt lat="51.035001" lon="8.436543">
        <ele>514.336266</ele>
        <time>2021-01-01T15:34:54.998Z</time>
      </trkpt>
      <trkpt lat="51.035010" lon="8.436389">
        <ele>514.964205</ele>
        <time>2021-01-01T15:34:59.998Z</time>
      </trkpt>
      <trkpt lat="51.035038" lon="8.436247">
        <ele>515.568408</ele>
        <time>2021-01-01T15:35:05.998Z</time>
      </trkpt>
      <trkpt lat="51.035059" lon="8.436108">
        <ele>516.148810</ele>
        <time>2021-01-01T15:35:12.997Z</time>
      </trkpt>
      <trkpt lat="51.035118" lon="8.435960">
        <ele>516.860262</ele>
        <time>2021-01-01T15:35:19.997Z</time>
      </trkpt>
      <trkpt lat="51.035171" lon="8.435815">
        <ele>517.541189</ele>
        <time>2021-01-01T15:35:25.997Z</time>
      </trkpt>
      <trkpt lat="51.035208" lon="8.435681">
        <ele>518.135367</ele>
        <time>2021-01-01T15:35:33.997Z</time>
      </trkpt>
      <trkpt lat="51.035228" lon="8.435532">
        <ele>518.753937</ele>
        <time>2021-01-01T15:35:41.997Z</time>
      </trkpt>
      <trkpt lat="51.035237" lon="8.435377">
        <ele>519.385916</ele>
        <time>2021-01-01T15:35:50.997Z</time>
      </trkpt>
      <trkpt lat="51.035260" lon="8.435223">
        <ele>520.028550</ele>
        <time>2021-01-01T15:35:58.997Z</time>
      </trkpt>
      <trkpt lat="51.035300" lon="8.435091">
        <ele>520.786294</ele>
        <time>2021-01-01T15:36:07.997Z</time>
      </trkpt>
      <trkpt lat="51.035326" lon="8.434949">
        <ele>521.572970</ele>
        <time>2021-01-01T15:36:16.997Z</time>
      </trkpt>
      <trkpt lat="51.035340" lon="8.434797">
        <ele>522.390096</ele>
        <time>2021-01-01T15:36:23.997Z</time>
      </trkpt>
      <trkpt lat="51.035351" lon="8.434645">
        <ele>523.203932</ele>
        <time>2021-01-01T15:36:31.997Z</time>
      </trkpt>
      <trkpt lat="51.035353" lon="8.434502">
        <ele>523.964748</ele>
        <time>2021-01-01T15:36:38.997Z</time>
      </trkpt>
      <trkpt lat="51.035394" lon="8.434357">
        <ele>524.810396</ele>
        <time>2021-01-01T15:36:49.997Z</time>
      </trkpt>
      <trkpt lat="51.035432" lon="8.434218">
        <ele>525.616593</ele>
        <time>2021-01-01T15:36:57.996Z</time>
      </trkpt>
      <trkpt lat="51.035432" lon="8.434059">
        <ele>526.462325</ele>
        <time>2021-01-01T15:37:07.996Z</time>
      </trkpt>
      <trkpt lat="51.035507" lon="8.433938">
        <ele>527.366029</ele>
        <time>2021-01-01T15:37:18.996Z</time>
      </trkpt>
      <trkpt lat="51.035556" lon="8.433812">
        <ele>528.154035</ele>
        <time>2021-01-01T15:37:31.996Z</time>
      </trkpt>
      <trkpt lat="51.035616" lon="8.433692">
        <ele>528.969497</ele>
        <time>2021-01-01T15:37:38.996Z</time>
      </trkpt>
      <trkpt lat="51.035617" lon="8.433548">
        <ele>529.735486</ele>
        <time>2021-01-01T15:37:45.996Z</time>
      </trkpt>
      <trkpt lat="51.035642" lon="8.433410">
        <ele>530.499367</ele>
        <time>2021-01-01T15:37:52.996Z</time>
      </trkpt>
      <trkpt lat="51.035652" lon="8.433254">
        <ele>531.333438</ele>
        <time>2021-01-01T15:38:00.996Z</time>
      </trkpt>
      <trkpt lat="51.035642" lon="8.433098">
        <ele>532.167509</ele>
        <time>2021-01-01T15:38:06.996Z</time>
      </trkpt>
      <trkpt lat="51.035621" lon="8.432938">
        <ele>533.036896</ele>
        <time>2021-01-01T15:38:14.996Z</time>
      </trkpt>
      <trkpt lat="51.035596" lon="8.432799">
        <ele>533.805890</ele>
        <time>2021-01-01T15:38:21.997Z</time>
      </trkpt>
      <trkpt lat="51.035570" lon="8.432643">
        <ele>534.664311</ele>
        <time>2021-01-01T15:38:27.997Z</time>
      </trkpt>
      <trkpt lat="51.035551" lon="8.432484">
        <ele>535.471714</ele>
        <time>2021-01-01T15:38:34.998Z</time>
      </trkpt>
      <trkpt lat="51.035532" lon="8.432334">
        <ele>536.081256</ele>
        <time>2021-01-01T15:38:43.999Z</time>
      </trkpt>
      <trkpt lat="51.035525" lon="8.432179">
        <ele>536.700305</ele>
        <time>2021-01-01T15:38:52.999Z</time>
      </trkpt>
      <trkpt lat="51.035493" lon="8.432032">
        <ele>537.319989</ele>
        <time>2021-01-01T15:39:02.999Z</time>
      </trkpt>
      <trkpt lat="51.035442" lon="8.431900">
        <ele>537.937146</ele>
        <time>2021-01-01T15:39:10.999Z</time>
      </trkpt>
      <trkpt lat="51.035358" lon="8.431807">
        <ele>538.585539</ele>
        <time>2021-01-01T15:39:14.999Z</time>
      </trkpt>
      <trkpt lat="51.035349" lon="8.431660">
        <ele>539.173900</ele>
        <time>2021-01-01T15:39:26.999Z</time>
      </trkpt>
      <trkpt lat="51.035250" lon="8.431609">
        <ele>539.833137</ele>
        <time>2021-01-01T15:39:32.999Z</time>
      </trkpt>
      <trkpt lat="51.035141" lon="8.431518">
        <ele>540.613011</ele>
        <time>2021-01-01T15:39:36.999Z</time>
      </trkpt>
      <trkpt lat="51.035038" lon="8.431550">
        <ele>541.277837</ele>
        <time>2021-01-01T15:39:37.999Z</time>
      </trkpt>
      <trkpt lat="51.035052" lon="8.431751">
        <ele>542.083446</ele>
        <time>2021-01-01T15:39:38.999Z</time>
      </trkpt>
      <trkpt lat="51.035149" lon="8.431669">
        <ele>542.779358</ele>
        <time>2021-01-01T15:39:41.999Z</time>
      </trkpt>
      <trkpt lat="51.035082" lon="8.431516">
        <ele>543.522077</ele>
        <time>2021-01-01T15:39:48.999Z</time>
      </trkpt>
      <trkpt lat="51.035135" lon="8.431357">
        <ele>544.238959</ele>
        <time>2021-01-01T15:39:53.999Z</time>
      </trkpt>
      <trkpt lat="51.035233" lon="8.431195">
        <ele>545.134441</ele>
        <time>2021-01-01T15:39:56.999Z</time>
      </trkpt>
      <trkpt lat="51.035252" lon="8.431046">
        <ele>545.740082</ele>
        <time>2021-01-01T15:40:00.999Z</time>
      </trkpt>
      <trkpt lat="51.035286" lon="8.430903">
        <ele>546.349098</ele>
        <time>2021-01-01T15:40:24.999Z</time>
      </trkpt>
      <trkpt lat="51.035274" lon="8.430761">
        <ele>546.344410</ele>
        <time>2021-01-01T15:40:36.999Z</time>
      </trkpt>
      <trkpt lat="51.035248" lon="8.430612">
        <ele>545.299838</ele>
        <time>2021-01-01T15:40:43.999Z</time>
      </trkpt>
      <trkpt lat="51.035207" lon="8.430464">
        <ele>544.207338</ele>
        <time>2021-01-01T15:40:48.999Z</time>
      </trkpt>
      <trkpt lat="51.034997" lon="8.430355">
        <ele>541.834297</ele>
        <time>2021-01-01T15:40:52.999Z</time>
      </trkpt>
      <trkpt lat="51.034934" lon="8.430153">
        <ele>540.311111</ele>
        <time>2021-01-01T15:40:54.999Z</time>
      </trkpt>
      <trkpt lat="51.034747" lon="8.430151">
        <ele>538.302229</ele>
        <time>2021-01-01T15:40:56.999Z</time>
      </trkpt>
      <trkpt lat="51.034658" lon="8.430229">
        <ele>537.210567</ele>
        <time>2021-01-01T15:40:59.999Z</time>
      </trkpt>
      <trkpt lat="51.034683" lon="8.430080">
        <ele>536.168803</ele>
        <time>2021-01-01T15:41:07.999Z</time>
      </trkpt>
      <trkpt lat="51.034741" lon="8.429938">
        <ele>535.024953</ele>
        <time>2021-01-01T15:41:11.998Z</time>
      </trkpt>
      <trkpt lat="51.034737" lon="8.429635">
        <ele>532.977625</ele>
        <time>2021-01-01T15:41:14.998Z</time>
      </trkpt>
      <trkpt lat="51.034870" lon="8.429614">
        <ele>531.541855</ele>
        <time>2021-01-01T15:41:16.998Z</time>
      </trkpt>
      <trkpt lat="51.036530" lon="8.435613">
        <ele>556.036236</ele>
        <time>2021-01-01T15:41:35.998Z</time>
      </trkpt>
      <trkpt lat="51.036716" lon="8.435574">
        <ele>555.345761</ele>
        <time>2021-01-01T15:41:37.998Z</time>
      </trkpt>
      <trkpt lat="51.036753" lon="8.435414">
        <ele>554.951227</ele>
        <time>2021-01-01T15:41:39.998Z</time>
      </trkpt>
      <trkpt lat="51.036709" lon="8.435284">
        <ele>554.609555</ele>
        <time>2021-01-01T15:41:41.998Z</time>
      </trkpt>
      <trkpt lat="51.036662" lon="8.435060">
        <ele>554.063053</ele>
        <time>2021-01-01T15:41:46.998Z</time>
      </trkpt>
      <trkpt lat="51.036691" lon="8.434915">
        <ele>553.710915</ele>
        <time>2021-01-01T15:41:52.998Z</time>
      </trkpt>
      <trkpt lat="51.036784" lon="8.435075">
        <ele>553.206667</ele>
        <time>2021-01-01T15:41:53.998Z</time>
      </trkpt>
      <trkpt lat="51.036680" lon="8.434926">
        <ele>552.691484</ele>
        <time>2021-01-01T15:41:57.998Z</time>
      </trkpt>
      <trkpt lat="51.036806" lon="8.434942">
        <ele>552.226280</ele>
        <time>2021-01-01T15:41:58.998Z</time>
      </trkpt>
      <trkpt lat="51.037179" lon="8.434785">
        <ele>550.806229</ele>
        <time>2021-01-01T15:42:03.998Z</time>
      </trkpt>
      <trkpt lat="51.037260" lon="8.434884">
        <ele>550.430246</ele>
        <time>2021-01-01T15:42:06.997Z</time>
      </trkpt>
      <trkpt lat="51.037367" lon="8.434764">
        <ele>549.948372</ele>
        <time>2021-01-01T15:42:08.997Z</time>
      </trkpt>
      <trkpt lat="51.037414" lon="8.434639">
        <ele>538.899230</ele>
        <time>2021-01-01T15:42:11.997Z</time>
      </trkpt>
      <trkpt lat="51.037446" lon="8.434786">
        <ele>526.104532</ele>
        <time>2021-01-01T15:42:12.997Z</time>
      </trkpt>
      <trkpt lat="51.037489" lon="8.434988">
        <ele>508.563929</ele>
        <time>2021-01-01T15:42:17.997Z</time>
      </trkpt>
      <trkpt lat="51.037563" lon="8.435141">
        <ele>492.687850</ele>
        <time>2021-01-01T15:42:20.997Z</time>
      </trkpt>
      <trkpt lat="51.037505" lon="8.435304">
        <ele>477.283536</ele>
        <time>2021-01-01T15:42:28.997Z</time>
      </trkpt>
      <trkpt lat="51.037429" lon="8.435457">
        <ele>461.246610</ele>
        <time>2021-01-01T15:42:31.997Z</time>
      </trkpt>
      <trkpt lat="51.037255" lon="8.435227">
        <ele>431.651652</ele>
        <time>2021-01-01T15:42:33.997Z</time>
      </trkpt>
      <trkpt lat="51.037326" lon="8.434961">
        <ele>407.883754</ele>
        <time>2021-01-01T15:42:35.997Z</time>
      </trkpt>
      <trkpt lat="51.037429" lon="8.434648">
        <ele>378.827425</ele>
        <time>2021-01-01T15:42:36.997Z</time>
      </trkpt>
      <trkpt lat="51.037471" lon="8.434369">
        <ele>355.231379</ele>
        <time>2021-01-01T15:42:39.997Z</time>
      </trkpt>
      <trkpt lat="51.037378" lon="8.434326">
        <ele>342.563141</ele>
        <time>2021-01-01T15:42:40.997Z</time>
      </trkpt>
      <trkpt lat="51.037326" lon="8.434195">
        <ele>329.821198</ele>
        <time>2021-01-01T15:42:42.997Z</time>
      </trkpt>
      <trkpt lat="51.037260" lon="8.434095">
        <ele>317.897393</ele>
        <time>2021-01-01T15:42:45.997Z</time>
      </trkpt>
      <trkpt lat="51.037167" lon="8.433992">
        <ele>313.975590</ele>
        <time>2021-01-01T15:42:47.997Z</time>
      </trkpt>
      <trkpt lat="51.036768" lon="8.433768">
        <ele>310.722395</ele>
        <time>2021-01-01T15:42:52.997Z</time>
      </trkpt>
      <trkpt lat="51.036772" lon="8.433613">
        <ele>309.972400</ele>
        <time>2021-01-01T15:42:56.997Z</time>
      </trkpt>
      <trkpt lat="51.036711" lon="8.433465">
        <ele>309.116876</ele>
        <time>2021-01-01T15:43:00.997Z</time>
      </trkpt>
      <trkpt lat="51.036625" lon="8.433368">
        <ele>308.306255</ele>
        <time>2021-01-01T15:43:02.997Z</time>
      </trkpt>
      <trkpt lat="51.036536" lon="8.433150">
        <ele>307.049664</ele>
        <time>2021-01-01T15:43:04.997Z</time>
      </trkpt>
      <trkpt lat="51.036473" lon="8.432968">
        <ele>306.045253</ele>
        <time>2021-01-01T15:43:06.997Z</time>
      </trkpt>
      <trkpt lat="51.036392" lon="8.432788">
        <ele>304.975143</ele>
        <time>2021-01-01T15:43:08.997Z</time>
      </trkpt>
      <trkpt lat="51.036289" lon="8.432355">
        <ele>302.736965</ele>
        <time>2021-01-01T15:43:14.997Z</time>
      </trkpt>
      <trkpt lat="51.036341" lon="8.431995">
        <ele>300.951163</ele>
        <time>2021-01-01T15:43:15.997Z</time>
      </trkpt>
      <trkpt lat="51.036356" lon="8.431674">
        <ele>321.501686</ele>
        <time>2021-01-01T15:43:17.997Z</time>
      </trkpt>
      <trkpt lat="51.036312" lon="8.431423">
        <ele>339.678307</ele>
        <time>2021-01-01T15:43:18.997Z</time>
      </trkpt>
      <trkpt lat="51.036299" lon="8.431268">
        <ele>350.586398</ele>
        <time>2021-01-01T15:43:19.997Z</time>
      </trkpt>
      <trkpt lat="51.036248" lon="8.431069">
        <ele>365.576666</ele>
        <time>2021-01-01T15:43:20.997Z</time>
      </trkpt>
      <trkpt lat="51.036053" lon="8.430362">
        <ele>419.430500</ele>
        <time>2021-01-01T15:43:26.997Z</time>
      </trkpt>
      <trkpt lat="51.035974" lon="8.430156">
        <ele>436.261992</ele>
        <time>2021-01-01T15:43:28.997Z</time>
      </trkpt>
      <trkpt lat="51.035885" lon="8.429910">
        <ele>456.059802</ele>
        <time>2021-01-01T15:43:30.997Z</time>
      </trkpt>
      <trkpt lat="51.035827" lon="8.429765">
        <ele>468.047612</ele>
        <time>2021-01-01T15:43:31.997Z</time>
      </trkpt>
      <trkpt lat="51.035683" lon="8.429572">
        <ele>488.938624</ele>
        <time>2021-01-01T15:43:33.997Z</time>
      </trkpt>
      <trkpt lat="51.035583" lon="8.429448">
        <ele>501.224753</ele>
        <time>2021-01-01T15:43:34.997Z</time>
      </trkpt>
      <trkpt lat="51.035511" lon="8.429313">
        <ele>505.277620</ele>
        <time>2021-01-01T15:43:35.997Z</time>
      </trkpt>
      <trkpt lat="51.035457" lon="8.429193">
        <ele>508.656100</ele>
        <time>2021-01-01T15:43:36.997Z</time>
      </trkpt>
      <trkpt lat="51.035437" lon="8.429033">
        <ele>512.391065</ele>
        <time>2021-01-01T15:43:47.997Z</time>
      </trkpt>
      <trkpt lat="51.035364" lon="8.428944">
        <ele>515.740178</ele>
        <time>2021-01-01T15:43:49.996Z</time>
      </trkpt>
      <trkpt lat="51.035276" lon="8.428879">
        <ele>519.272953</ele>
        <time>2021-01-01T15:43:52.996Z</time>
      </trkpt>
      <trkpt lat="51.035177" lon="8.428756">
        <ele>523.847158</ele>
        <time>2021-01-01T15:43:55.996Z</time>
      </trkpt>
      <trkpt lat="51.035152" lon="8.428601">
        <ele>527.510867</ele>
        <time>2021-01-01T15:43:58.996Z</time>
      </trkpt>
      <trkpt lat="51.035145" lon="8.428445">
        <ele>531.091682</ele>
        <time>2021-01-01T15:44:01.996Z</time>
      </trkpt>
      <trkpt lat="51.035074" lon="8.428305">
        <ele>535.209587</ele>
        <time>2021-01-01T15:44:06.996Z</time>
      </trkpt>
      <trkpt lat="51.035012" lon="8.428191">
        <ele>538.660450</ele>
        <time>2021-01-01T15:44:11.996Z</time>
      </trkpt>
      <trkpt lat="51.034986" lon="8.428052">
        <ele>541.980772</ele>
        <time>2021-01-01T15:44:15.996Z</time>
      </trkpt>
      <trkpt lat="51.034972" lon="8.427901">
        <ele>545.475414</ele>
        <time>2021-01-01T15:44:22.996Z</time>
      </trkpt>
      <trkpt lat="51.034955" lon="8.427759">
        <ele>548.785014</ele>
        <time>2021-01-01T15:44:26.996Z</time>
      </trkpt>
      <trkpt lat="51.034940" lon="8.427616">
        <ele>552.104354</ele>
        <time>2021-01-01T15:44:30.996Z</time>
      </trkpt>
      <trkpt lat="51.034954" lon="8.427465">
        <ele>555.598998</ele>
        <time>2021-01-01T15:44:36.996Z</time>
      </trkpt>
      <trkpt lat="51.034976" lon="8.427318">
        <ele>559.058686</ele>
        <time>2021-01-01T15:44:43.996Z</time>
      </trkpt>
      <trkpt lat="51.034991" lon="8.427166">
        <ele>562.581441</ele>
        <time>2021-01-01T15:44:51.996Z</time>
      </trkpt>
      <trkpt lat="51.035017" lon="8.427010">
        <ele>565.742541</ele>
        <time>2021-01-01T15:44:58.996Z</time>
      </trkpt>
      <trkpt lat="51.035022" lon="8.426865">
        <ele>564.982117</ele>
        <time>2021-01-01T15:45:07.996Z</time>
      </trkpt>
      <trkpt lat="51.035060" lon="8.426731">
        <ele>564.212386</ele>
        <time>2021-01-01T15:45:15.996Z</time>
      </trkpt>
      <trkpt lat="51.035071" lon="8.426564">
        <ele>563.333118</ele>
        <time>2021-01-01T15:45:25.996Z</time>
      </trkpt>
      <trkpt lat="51.035103" lon="8.426401">
        <ele>562.438953</ele>
        <time>2021-01-01T15:45:32.997Z</time>
      </trkpt>
      <trkpt lat="51.035137" lon="8.426257">
        <ele>561.633508</ele>
        <time>2021-01-01T15:45:41.998Z</time>
      </trkpt>
      <trkpt lat="51.035177" lon="8.426122">
        <ele>560.852051</ele>
        <time>2021-01-01T15:45:49.998Z</time>
      </trkpt>
      <trkpt lat="51.035223" lon="8.425988">
        <ele>560.052628</ele>
        <time>2021-01-01T15:45:56.998Z</time>
      </trkpt>
      <trkpt lat="51.035233" lon="8.425839">
        <ele>559.267971</ele>
        <time>2021-01-01T15:46:07.998Z</time>
      </trkpt>
      <trkpt lat="51.035238" lon="8.425664">
        <ele>558.350654</ele>
        <time>2021-01-01T15:46:16.998Z</time>
      </trkpt>
      <trkpt lat="51.035259" lon="8.425495">
        <ele>557.448588</ele>
        <time>2021-01-01T15:46:24.998Z</time>
      </trkpt>
      <trkpt lat="51.035292" lon="8.425351">
        <ele>556.646035</ele>
        <time>2021-01-01T15:46:31.998Z</time>
      </trkpt>
      <trkpt lat="51.035308" lon="8.425196">
        <ele>555.823530</ele>
        <time>2021-01-01T15:46:41.998Z</time>
      </trkpt>
      <trkpt lat="51.035341" lon="8.425048">
        <ele>555.001266</ele>
        <time>2021-01-01T15:46:51.998Z</time>
      </trkpt>
      <trkpt lat="51.035388" lon="8.424907">
        <ele>554.165619</ele>
        <time>2021-01-01T15:46:56.998Z</time>
      </trkpt>
      <trkpt lat="51.035462" lon="8.424764">
        <ele>553.195870</ele>
        <time>2021-01-01T15:47:04.998Z</time>
      </trkpt>
      <trkpt lat="51.035504" lon="8.424630">
        <ele>552.411865</ele>
        <time>2021-01-01T15:47:12.998Z</time>
      </trkpt>
      <trkpt lat="51.035542" lon="8.424494">
        <ele>551.632582</ele>
        <time>2021-01-01T15:47:19.998Z</time>
      </trkpt>
      <trkpt lat="51.035602" lon="8.424378">
        <ele>550.839927</ele>
        <time>2021-01-01T15:47:24.998Z</time>
      </trkpt>
      <trkpt lat="51.035664" lon="8.424256">
        <ele>549.744168</ele>
        <time>2021-01-01T15:47:33.998Z</time>
      </trkpt>
      <trkpt lat="51.035697" lon="8.424114">
        <ele>548.686642</ele>
        <time>2021-01-01T15:47:40.998Z</time>
      </trkpt>
      <trkpt lat="51.035609" lon="8.424040">
        <ele>547.580809</ele>
        <time>2021-01-01T15:47:44.998Z</time>
      </trkpt>
      <trkpt lat="51.035697" lon="8.424099">
        <ele>546.519907</ele>
        <time>2021-01-01T15:47:57.998Z</time>
      </trkpt>
      <trkpt lat="51.035677" lon="8.424463">
        <ele>543.967463</ele>
        <time>2021-01-01T15:47:58.998Z</time>
      </trkpt>
      <trkpt lat="51.035740" lon="8.424589">
        <ele>542.842956</ele>
        <time>2021-01-01T15:47:59.998Z</time>
      </trkpt>
      <trkpt lat="51.035750" lon="8.424442">
        <ele>541.810083</ele>
        <time>2021-01-01T15:48:43.997Z</time>
      </trkpt>
      <trkpt lat="51.035739" lon="8.424299">
        <ele>540.803699</ele>
        <time>2021-01-01T15:49:03.997Z</time>
      </trkpt>
      <trkpt lat="51.035775" lon="8.424165">
        <ele>539.785781</ele>
        <time>2021-01-01T15:49:15.997Z</time>
      </trkpt>
      <trkpt lat="51.035815" lon="8.424021">
        <ele>538.686086</ele>
        <time>2021-01-01T15:49:33.997Z</time>
      </trkpt>
      <trkpt lat="51.035836" lon="8.423875">
        <ele>537.639853</ele>
        <time>2021-01-01T15:49:41.997Z</time>
      </trkpt>
      <trkpt lat="51.035880" lon="8.423733">
        <ele>536.534015</ele>
        <time>2021-01-01T15:49:46.997Z</time>
      </trkpt>
      <trkpt lat="51.035912" lon="8.423587">
        <ele>535.453947</ele>
        <time>2021-01-01T15:49:53.997Z</time>
      </trkpt>
      <trkpt lat="51.035973" lon="8.423472">
        <ele>534.402976</ele>
        <time>2021-01-01T15:50:02.997Z</time>
      </trkpt>
      <trkpt lat="51.036044" lon="8.423358">
        <ele>533.282146</ele>
        <time>2021-01-01T15:50:09.996Z</time>
      </trkpt>
      <trkpt lat="51.036080" lon="8.423202">
        <ele>532.121338</ele>
        <time>2021-01-01T15:50:18.996Z</time>
      </trkpt>
      <trkpt lat="51.035998" lon="8.423347">
        <ele>530.401415</ele>
        <time>2021-01-01T15:50:21.996Z</time>
      </trkpt>
      <trkpt lat="51.035974" lon="8.423486">
        <ele>526.506984</ele>
        <time>2021-01-01T15:50:23.996Z</time>
      </trkpt>
      <trkpt lat="51.036068" lon="8.423514">
        <ele>522.398069</ele>
        <time>2021-01-01T15:50:35.996Z</time>
      </trkpt>
      <trkpt lat="51.036150" lon="8.423404">
        <ele>517.788887</ele>
        <time>2021-01-01T15:50:42.996Z</time>
      </trkpt>
      <trkpt lat="51.036190" lon="8.423247">
        <ele>513.212221</ele>
        <time>2021-01-01T15:50:46.996Z</time>
      </trkpt>
      <trkpt lat="51.036225" lon="8.423115">
        <ele>509.341847</ele>
        <time>2021-01-01T15:50:49.996Z</time>
      </trkpt>
      <trkpt lat="51.036267" lon="8.422980">
        <ele>505.272520</ele>
        <time>2021-01-01T15:50:53.996Z</time>
      </trkpt>
      <trkpt lat="51.036350" lon="8.423068">
        <ele>500.986560</ele>
        <time>2021-01-01T15:51:01.996Z</time>
      </trkpt>
      <trkpt lat="51.036329" lon="8.423220">
        <ele>496.781976</ele>
        <time>2021-01-01T15:51:13.996Z</time>
      </trkpt>
      <trkpt lat="51.036355" lon="8.423403">
        <ele>491.713177</ele>
        <time>2021-01-01T15:51:16.996Z</time>
      </trkpt>
      <trkpt lat="51.036437" lon="8.423507">
        <ele>487.206825</ele>
        <time>2021-01-01T15:51:24.996Z</time>
      </trkpt>
      <trkpt lat="51.036536" lon="8.423487">
        <ele>482.919142</ele>
        <time>2021-01-01T15:51:30.996Z</time>
      </trkpt>
      <trkpt lat="51.036626" lon="8.423459">
        <ele>478.979022</ele>
        <time>2021-01-01T15:51:35.996Z</time>
      </trkpt>
      <trkpt lat="51.036640" lon="8.423302">
        <ele>474.694890</ele>
        <time>2021-01-01T15:51:40.996Z</time>
      </trkpt>
      <trkpt lat="51.036707" lon="8.423184">
        <ele>470.399543</ele>
        <time>2021-01-01T15:51:45.996Z</time>
      </trkpt>
      <trkpt lat="51.036790" lon="8.423115">
        <ele>466.375616</ele>
        <time>2021-01-01T15:51:50.996Z</time>
      </trkpt>
      <trkpt lat="51.036878" lon="8.423027">
        <ele>461.909339</ele>
        <time>2021-01-01T15:51:55.996Z</time>
      </trkpt>
      <trkpt lat="51.036907" lon="8.422888">
        <ele>457.952671</ele>
        <time>2021-01-01T15:52:03.995Z</time>
      </trkpt>
      <trkpt lat="51.036977" lon="8.422784">
        <ele>453.836849</ele>
        <time>2021-01-01T15:52:11.995Z</time>
      </trkpt>
      <trkpt lat="51.037061" lon="8.422664">
        <ele>458.643430</ele>
        <time>2021-01-01T15:52:16.995Z</time>
      </trkpt>
      <trkpt lat="51.037155" lon="8.422545">
        <ele>464.271871</ele>
        <time>2021-01-01T15:52:20.995Z</time>
      </trkpt>
      <trkpt lat="51.037219" lon="8.422442">
        <ele>468.537414</ele>
        <time>2021-01-01T15:52:24.995Z</time>
      </trkpt>
      <trkpt lat="51.037296" lon="8.422341">
        <ele>473.213246</ele>
        <time>2021-01-01T15:52:31.997Z</time>
      </trkpt>
      <trkpt lat="51.037386" lon="8.422250">
        <ele>478.209415</ele>
        <time>2021-01-01T15:52:36.997Z</time>
      </trkpt>
      <trkpt lat="51.037489" lon="8.422188">
        <ele>483.368645</ele>
        <time>2021-01-01T15:52:40.998Z</time>
      </trkpt>
      <trkpt lat="51.037581" lon="8.422149">
        <ele>487.828977</ele>
        <time>2021-01-01T15:52:43.998Z</time>
      </trkpt>
      <trkpt lat="51.037663" lon="8.422083">
        <ele>492.134328</ele>
        <time>2021-01-01T15:52:48.998Z</time>
      </trkpt>
      <trkpt lat="51.037726" lon="8.421939">
        <ele>497.301865</ele>
        <time>2021-01-01T15:52:52.998Z</time>
      </trkpt>
      <trkpt lat="51.037829" lon="8.421882">
        <ele>502.410809</ele>
        <time>2021-01-01T15:52:59.999Z</time>
      </trkpt>
      <trkpt lat="51.037909" lon="8.421814">
        <ele>506.660224</ele>
        <time>2021-01-01T15:53:04.999Z</time>
      </trkpt>
      <trkpt lat="51.037982" lon="8.421729">
        <ele>510.898629</ele>
        <time>2021-01-01T15:53:09.999Z</time>
      </trkpt>
      <trkpt lat="51.038081" lon="8.421666">
        <ele>515.893909</ele>
        <time>2021-01-01T15:53:15.999Z</time>
      </trkpt>
      <trkpt lat="51.038167" lon="8.421621">
        <ele>520.135144</ele>
        <time>2021-01-01T15:53:20.999Z</time>
      </trkpt>
      <trkpt lat="51.038263" lon="8.421570">
        <ele>524.876658</ele>
        <time>2021-01-01T15:53:26.999Z</time>
      </trkpt>
      <trkpt lat="51.038362" lon="8.421525">
        <ele>529.700139</ele>
        <time>2021-01-01T15:53:34.999Z</time>
      </trkpt>
      <trkpt lat="51.038461" lon="8.421488">
        <ele>534.464249</ele>
        <time>2021-01-01T15:53:42.999Z</time>
      </trkpt>
      <trkpt lat="51.038652" lon="8.421363">
        <ele>538.233916</ele>
        <time>2021-01-01T15:54:06.998Z</time>
      </trkpt>
      <trkpt lat="51.038750" lon="8.421283">
        <ele>538.537169</ele>
        <time>2021-01-01T15:54:12.998Z</time>
      </trkpt>
      <trkpt lat="51.038840" lon="8.421214">
        <ele>538.812220</ele>
        <time>2021-01-01T15:54:17.998Z</time>
      </trkpt>
      <trkpt lat="51.038937" lon="8.421185">
        <ele>539.083931</ele>
        <time>2021-01-01T15:54:27.998Z</time>
      </trkpt>
      <trkpt lat="51.039019" lon="8.421121">
        <ele>539.335391</ele>
        <time>2021-01-01T15:54:35.998Z</time>
      </trkpt>
      <trkpt lat="51.039102" lon="8.421044">
        <ele>539.599918</ele>
        <time>2021-01-01T15:54:40.998Z</time>
      </trkpt>
      <trkpt lat="51.039190" lon="8.420937">
        <ele>539.904868</ele>
        <time>2021-01-01T15:54:45.998Z</time>
      </trkpt>
      <trkpt lat="51.039265" lon="8.420844">
        <ele>540.166680</ele>
        <time>2021-01-01T15:54:50.998Z</time>
      </trkpt>
      <trkpt lat="51.039338" lon="8.420745">
        <ele>540.430790</ele>
        <time>2021-01-01T15:54:57.998Z</time>
      </trkpt>
      <trkpt lat="51.039425" lon="8.420648">
        <ele>540.723289</ele>
        <time>2021-01-01T15:55:03.998Z</time>
      </trkpt>
      <trkpt lat="51.039518" lon="8.420596">
        <ele>540.994673</ele>
        <time>2021-01-01T15:55:09.998Z</time>
      </trkpt>
      <trkpt lat="51.039610" lon="8.420504">
        <ele>541.293849</ele>
        <time>2021-01-01T15:55:17.998Z</time>
      </trkpt>
      <trkpt lat="51.039681" lon="8.420418">
        <ele>541.539542</ele>
        <time>2021-01-01T15:55:23.998Z</time>
      </trkpt>
      <trkpt lat="51.039762" lon="8.420353">
        <ele>541.789307</ele>
        <time>2021-01-01T15:55:30.998Z</time>
      </trkpt>
      <trkpt lat="51.039854" lon="8.420281">
        <ele>542.071580</ele>
        <time>2021-01-01T15:55:37.997Z</time>
      </trkpt>
      <trkpt lat="51.039940" lon="8.420232">
        <ele>542.323067</ele>
        <time>2021-01-01T15:55:45.997Z</time>
      </trkpt>
      <trkpt lat="51.040027" lon="8.420183">
        <ele>542.577147</ele>
        <time>2021-01-01T15:55:52.997Z</time>
      </trkpt>
      <trkpt lat="51.040112" lon="8.420089">
        <ele>542.734364</ele>
        <time>2021-01-01T15:56:00.997Z</time>
      </trkpt>
      <trkpt lat="51.040199" lon="8.419989">
        <ele>542.198790</ele>
        <time>2021-01-01T15:56:08.997Z</time>
      </trkpt>
      <trkpt lat="51.040269" lon="8.419896">
        <ele>541.743705</ele>
        <time>2021-01-01T15:56:15.997Z</time>
      </trkpt>
      <trkpt lat="51.040361" lon="8.419824">
        <ele>541.232118</ele>
        <time>2021-01-01T15:56:22.997Z</time>
      </trkpt>
      <trkpt lat="51.040450" lon="8.419749">
        <ele>540.729581</ele>
        <time>2021-01-01T15:56:29.997Z</time>
      </trkpt>
      <trkpt lat="51.040545" lon="8.419708">
        <ele>540.238449</ele>
        <time>2021-01-01T15:56:37.997Z</time>
      </trkpt>
      <trkpt lat="51.040616" lon="8.419585">
        <ele>539.714631</ele>
        <time>2021-01-01T15:56:45.997Z</time>
      </trkpt>
      <trkpt lat="51.040629" lon="8.419430">
        <ele>539.224064</ele>
        <time>2021-01-01T15:56:55.997Z</time>
      </trkpt>
      <trkpt lat="51.040598" lon="8.419278">
        <ele>538.722759</ele>
        <time>2021-01-01T15:57:01.997Z</time>
      </trkpt>
      <trkpt lat="51.040586" lon="8.419118">
        <ele>538.217255</ele>
        <time>2021-01-01T15:57:08.997Z</time>
      </trkpt>
      <trkpt lat="51.040612" lon="8.418971">
        <ele>537.738195</ele>
        <time>2021-01-01T15:57:15.996Z</time>
      </trkpt>
      <trkpt lat="51.040563" lon="8.419107">
        <ele>537.246460</ele>
        <time>2021-01-01T15:57:25.996Z</time>
      </trkpt>
      <trkpt lat="51.040593" lon="8.419259">
        <ele>536.746671</ele>
        <time>2021-01-01T15:57:33.996Z</time>
      </trkpt>
      <trkpt lat="51.040685" lon="8.419286">
        <ele>536.279900</ele>
        <time>2021-01-01T15:57:42.996Z</time>
      </trkpt>
      <trkpt lat="51.040761" lon="8.419205">
        <ele>535.823437</ele>
        <time>2021-01-01T15:57:53.996Z</time>
      </trkpt>
      <trkpt lat="51.040817" lon="8.419080">
        <ele>535.341936</ele>
        <time>2021-01-01T15:58:03.996Z</time>
      </trkpt>
      <trkpt lat="51.040865" lon="8.418943">
        <ele>534.849927</ele>
        <time>2021-01-01T15:58:12.996Z</time>
      </trkpt>
      <trkpt lat="51.040903" lon="8.418799">
        <ele>534.360005</ele>
        <time>2021-01-01T15:58:20.996Z</time>
      </trkpt>
      <trkpt lat="51.040926" lon="8.418650">
        <ele>533.878691</ele>
        <time>2021-01-01T15:58:29.996Z</time>
      </trkpt>
      <trkpt lat="51.040968" lon="8.418510">
        <ele>532.733428</ele>
        <time>2021-01-01T15:58:38.996Z</time>
      </trkpt>
      <trkpt lat="51.041007" lon="8.418371">
        <ele>531.557914</ele>
        <time>2021-01-01T15:58:46.996Z</time>
      </trkpt>
      <trkpt lat="51.041063" lon="8.418227">
        <ele>530.250292</ele>
        <time>2021-01-01T15:58:54.995Z</time>
      </trkpt>
      <trkpt lat="51.041117" lon="8.418096">
        <ele>529.040558</ele>
        <time>2021-01-01T15:59:03.995Z</time>
      </trkpt>
      <trkpt lat="51.041142" lon="8.417957">
        <ele>527.924022</ele>
        <time>2021-01-01T15:59:11.995Z</time>
      </trkpt>
      <trkpt lat="51.041173" lon="8.417802">
        <ele>526.667876</ele>
        <time>2021-01-01T15:59:19.995Z</time>
      </trkpt>
      <trkpt lat="51.041201" lon="8.417644">
        <ele>525.400121</ele>
        <time>2021-01-01T15:59:27.995Z</time>
      </trkpt>
      <trkpt lat="51.041249" lon="8.417518">
        <ele>524.262369</ele>
        <time>2021-01-01T15:59:36.996Z</time>
      </trkpt>
      <trkpt lat="51.041283" lon="8.417369">
        <ele>523.038226</ele>
        <time>2021-01-01T15:59:43.997Z</time>
      </trkpt>
      <trkpt lat="51.041321" lon="8.417235">
        <ele>521.902977</ele>
        <time>2021-01-01T15:59:51.998Z</time>
      </trkpt>
      <trkpt lat="51.041360" lon="8.417099">
        <ele>520.748588</ele>
        <time>2021-01-01T15:59:59.999Z</time>
      </trkpt>
      <trkpt lat="51.041401" lon="8.416965">
        <ele>519.597701</ele>
        <time>2021-01-01T16:00:11.999Z</time>
      </trkpt>
      <trkpt lat="51.041436" lon="8.416828">
        <ele>518.455670</ele>
        <time>2021-01-01T16:00:22.999Z</time>
      </trkpt>
      <trkpt lat="51.041464" lon="8.416676">
        <ele>517.232457</ele>
        <time>2021-01-01T16:00:33.998Z</time>
      </trkpt>
      <trkpt lat="51.041518" lon="8.416553">
        <ele>516.073903</ele>
        <time>2021-01-01T16:00:40.998Z</time>
      </trkpt>
      <trkpt lat="51.041561" lon="8.416406">
        <ele>514.821804</ele>
        <time>2021-01-01T16:00:46.998Z</time>
      </trkpt>
      <trkpt lat="51.041588" lon="8.416267">
        <ele>513.698274</ele>
        <time>2021-01-01T16:00:54.998Z</time>
      </trkpt>
      <trkpt lat="51.041626" lon="8.416118">
        <ele>512.456519</ele>
        <time>2021-01-01T16:01:02.998Z</time>
      </trkpt>
      <trkpt lat="51.041668" lon="8.415977">
        <ele>511.174736</ele>
        <time>2021-01-01T16:01:09.998Z</time>
      </trkpt>
      <trkpt lat="51.041710" lon="8.415839">
        <ele>509.808305</ele>
        <time>2021-01-01T16:01:17.998Z</time>
      </trkpt>
      <trkpt lat="51.041749" lon="8.415700">
        <ele>508.451725</ele>
        <time>2021-01-01T16:01:26.998Z</time>
      </trkpt>
      <trkpt lat="51.041775" lon="8.415549">
        <ele>507.056394</ele>
        <time>2021-01-01T16:01:35.998Z</time>
      </trkpt>
      <trkpt lat="51.041815" lon="8.415419">
        <ele>505.766481</ele>
        <time>2021-01-01T16:01:43.998Z</time>
      </trkpt>
      <trkpt lat="51.041851" lon="8.415284">
        <ele>504.459562</ele>
        <time>2021-01-01T16:01:50.998Z</time>
      </trkpt>
      <trkpt lat="51.041888" lon="8.415146">
        <ele>503.122492</ele>
        <time>2021-01-01T16:01:59.998Z</time>
      </trkpt>
      <trkpt lat="51.041939" lon="8.415013">
        <ele>501.734088</ele>
        <time>2021-01-01T16:02:06.998Z</time>
      </trkpt>
      <trkpt lat="51.041990" lon="8.414873">
        <ele>500.292057</ele>
        <time>2021-01-01T16:02:14.998Z</time>
      </trkpt>
      <trkpt lat="51.042027" lon="8.414715">
        <ele>498.789400</ele>
        <time>2021-01-01T16:02:22.998Z</time>
      </trkpt>
      <trkpt lat="51.042044" lon="8.414560">
        <ele>497.387118</ele>
        <time>2021-01-01T16:02:28.998Z</time>
      </trkpt>
      <trkpt lat="51.042082" lon="8.414425">
        <ele>496.068877</ele>
        <time>2021-01-01T16:02:36.998Z</time>
      </trkpt>
      <trkpt lat="51.042115" lon="8.414279">
        <ele>494.686144</ele>
        <time>2021-01-01T16:02:46.998Z</time>
      </trkpt>
      <trkpt lat="51.042154" lon="8.414140">
        <ele>493.329574</ele>
        <time>2021-01-01T16:02:54.998Z</time>
      </trkpt>
      <trkpt lat="51.042190" lon="8.413996">
        <ele>491.948463</ele>
        <time>2021-01-01T16:03:01.998Z</time>
      </trkpt>
      <trkpt lat="51.042237" lon="8.413859">
        <ele>490.557540</ele>
        <time>2021-01-01T16:03:09.996Z</time>
      </trkpt>
      <trkpt lat="51.042263" lon="8.413710">
        <ele>489.179406</ele>
        <time>2021-01-01T16:03:17.996Z</time>
      </trkpt>
      <trkpt lat="51.042295" lon="8.413563">
        <ele>487.792990</ele>
        <time>2021-01-01T16:03:25.996Z</time>
      </trkpt>
      <trkpt lat="51.042341" lon="8.413426">
        <ele>486.408802</ele>
        <time>2021-01-01T16:03:32.996Z</time>
      </trkpt>
      <trkpt lat="51.042355" lon="8.413280">
        <ele>485.556593</ele>
        <time>2021-01-01T16:03:39.996Z</time>
      </trkpt>
      <trkpt lat="51.042370" lon="8.413131">
        <ele>484.748557</ele>
        <time>2021-01-01T16:03:47.996Z</time>
      </trkpt>
      <trkpt lat="51.042373" lon="8.412979">
        <ele>483.934217</ele>
        <time>2021-01-01T16:03:55.996Z</time>
      </trkpt>
      <trkpt lat="51.042399" lon="8.412842">
        <ele>483.167911</ele>
        <time>2021-01-01T16:04:02.996Z</time>
      </trkpt>
      <trkpt lat="51.042417" lon="8.412682">
        <ele>482.297528</ele>
        <time>2021-01-01T16:04:09.996Z</time>
      </trkpt>
      <trkpt lat="51.042433" lon="8.412541">
        <ele>481.530295</ele>
        <time>2021-01-01T16:04:16.996Z</time>
      </trkpt>
      <trkpt lat="51.042443" lon="8.412390">
        <ele>480.717240</ele>
        <time>2021-01-01T16:04:23.996Z</time>
      </trkpt>
      <trkpt lat="51.042456" lon="8.412216">
        <ele>479.778941</ele>
        <time>2021-01-01T16:04:30.996Z</time>
      </trkpt>
      <trkpt lat="51.042471" lon="8.412068">
        <ele>478.976193</ele>
        <time>2021-01-01T16:04:38.996Z</time>
      </trkpt>
      <trkpt lat="51.042470" lon="8.411901">
        <ele>478.081893</ele>
        <time>2021-01-01T16:04:45.996Z</time>
      </trkpt>
      <trkpt lat="51.042485" lon="8.411751">
        <ele>477.268570</ele>
        <time>2021-01-01T16:04:52.996Z</time>
      </trkpt>
      <trkpt lat="51.042479" lon="8.411605">
        <ele>476.485095</ele>
        <time>2021-01-01T16:05:00.996Z</time>
      </trkpt>
      <trkpt lat="51.042507" lon="8.411445">
        <ele>475.595752</ele>
        <time>2021-01-01T16:05:09.996Z</time>
      </trkpt>
      <trkpt lat="51.042489" lon="8.411302">
        <ele>474.814815</ele>
        <time>2021-01-01T16:05:16.996Z</time>
      </trkpt>
      <trkpt lat="51.042516" lon="8.411146">
        <ele>473.948387</ele>
        <time>2021-01-01T16:05:24.996Z</time>
      </trkpt>
      <trkpt lat="51.042526" lon="8.410989">
        <ele>473.103374</ele>
        <time>2021-01-01T16:05:31.996Z</time>
      </trkpt>
      <trkpt lat="51.042528" lon="8.410824">
        <ele>472.219661</ele>
        <time>2021-01-01T16:05:38.996Z</time>
      </trkpt>
      <trkpt lat="51.042534" lon="8.410677">
        <ele>471.430843</ele>
        <time>2021-01-01T16:05:45.996Z</time>
      </trkpt>
      <trkpt lat="51.042539" lon="8.410519">
        <ele>470.872850</ele>
        <time>2021-01-01T16:05:52.996Z</time>
      </trkpt>
      <trkpt lat="51.042539" lon="8.410363">
        <ele>470.722106</ele>
        <time>2021-01-01T16:05:59.996Z</time>
      </trkpt>
      <trkpt lat="51.042531" lon="8.410217">
        <ele>470.580489</ele>
        <time>2021-01-01T16:06:06.996Z</time>
      </trkpt>
      <trkpt lat="51.042527" lon="8.410062">
        <ele>470.430585</ele>
        <time>2021-01-01T16:06:13.996Z</time>
      </trkpt>
      <trkpt lat="51.042543" lon="8.409911">
        <ele>470.282615</ele>
        <time>2021-01-01T16:06:19.995Z</time>
      </trkpt>
      <trkpt lat="51.042560" lon="8.409768">
        <ele>470.141984</ele>
        <time>2021-01-01T16:06:26.995Z</time>
      </trkpt>
      <trkpt lat="51.042550" lon="8.409614">
        <ele>469.992381</ele>
        <time>2021-01-01T16:06:33.995Z</time>
      </trkpt>
      <trkpt lat="51.042540" lon="8.409450">
        <ele>469.833162</ele>
        <time>2021-01-01T16:06:41.996Z</time>
      </trkpt>
      <trkpt lat="51.042583" lon="8.409320">
        <ele>469.691219</ele>
        <time>2021-01-01T16:06:55.998Z</time>
      </trkpt>
      <trkpt lat="51.042634" lon="8.409183">
        <ele>469.537371</ele>
        <time>2021-01-01T16:07:00.998Z</time>
      </trkpt>
      <trkpt lat="51.042664" lon="8.409042">
        <ele>469.393532</ele>
        <time>2021-01-01T16:07:08.998Z</time>
      </trkpt>
      <trkpt lat="51.042728" lon="8.408912">
        <ele>469.233984</ele>
        <time>2021-01-01T16:07:15.998Z</time>
      </trkpt>
      <trkpt lat="51.042747" lon="8.408747">
        <ele>469.071892</ele>
        <time>2021-01-01T16:07:22.998Z</time>
      </trkpt>
      <trkpt lat="51.042771" lon="8.408608">
        <ele>468.932603</ele>
        <time>2021-01-01T16:07:27.998Z</time>
      </trkpt>
      <trkpt lat="51.042782" lon="8.408453">
        <ele>468.781874</ele>
        <time>2021-01-01T16:07:33.998Z</time>
      </trkpt>
      <trkpt lat="51.042796" lon="8.408310">
        <ele>468.642027</ele>
        <time>2021-01-01T16:07:39.998Z</time>
      </trkpt>
      <trkpt lat="51.042811" lon="8.408149">
        <ele>468.484754</ele>
        <time>2021-01-01T16:07:46.998Z</time>
      </trkpt>
      <trkpt lat="51.042811" lon="8.407993">
        <ele>468.334010</ele>
        <time>2021-01-01T16:07:54.998Z</time>
      </trkpt>
      <trkpt lat="51.042822" lon="8.407846">
        <ele>468.190961</ele>
        <time>2021-01-01T16:08:03.998Z</time>
      </trkpt>
      <trkpt lat="51.042823" lon="8.407699">
        <ele>468.744216</ele>
        <time>2021-01-01T16:08:09.998Z</time>
      </trkpt>
      <trkpt lat="51.042855" lon="8.407548">
        <ele>469.458614</ele>
        <time>2021-01-01T16:08:16.998Z</time>
      </trkpt>
      <trkpt lat="51.042841" lon="8.407403">
        <ele>470.116313</ele>
        <time>2021-01-01T16:08:23.998Z</time>
      </trkpt>
      <trkpt lat="51.042850" lon="8.407254">
        <ele>470.787400</ele>
        <time>2021-01-01T16:08:30.998Z</time>
      </trkpt>
      <trkpt lat="51.042823" lon="8.407100">
        <ele>471.504168</ele>
        <time>2021-01-01T16:08:38.998Z</time>
      </trkpt>
      <trkpt lat="51.042796" lon="8.406951">
        <ele>472.199371</ele>
        <time>2021-01-01T16:08:47.998Z</time>
      </trkpt>
      <trkpt lat="51.042742" lon="8.406827">
        <ele>472.875628</ele>
        <time>2021-01-01T16:08:57.998Z</time>
      </trkpt>
      <trkpt lat="51.042722" lon="8.406686">
        <ele>473.523661</ele>
        <time>2021-01-01T16:09:05.998Z</time>
      </trkpt>
      <trkpt lat="51.042664" lon="8.406549">
        <ele>474.264137</ele>
        <time>2021-01-01T16:09:15.998Z</time>
      </trkpt>
      <trkpt lat="51.042622" lon="8.406416">
        <ele>474.931402</ele>
        <time>2021-01-01T16:09:22.998Z</time>
      </trkpt>
      <trkpt lat="51.042579" lon="8.406281">
        <ele>475.609885</ele>
        <time>2021-01-01T16:09:31.998Z</time>
      </trkpt>
      <trkpt lat="51.042540" lon="8.406140">
        <ele>476.300499</ele>
        <time>2021-01-01T16:09:39.998Z</time>
      </trkpt>
      <trkpt lat="51.042499" lon="8.405993">
        <ele>477.021483</ele>
        <time>2021-01-01T16:09:47.998Z</time>
      </trkpt>
      <trkpt lat="51.042439" lon="8.405841">
        <ele>477.826121</ele>
        <time>2021-01-01T16:09:55.998Z</time>
      </trkpt>
      <trkpt lat="51.042399" lon="8.405698">
        <ele>478.527822</ele>
        <time>2021-01-01T16:10:03.996Z</time>
      </trkpt>
      <trkpt lat="51.042350" lon="8.405575">
        <ele>479.180646</ele>
        <time>2021-01-01T16:10:10.996Z</time>
      </trkpt>
      <trkpt lat="51.042301" lon="8.405455">
        <ele>479.822149</ele>
        <time>2021-01-01T16:10:18.996Z</time>
      </trkpt>
      <trkpt lat="51.042249" lon="8.405336">
        <ele>480.471863</ele>
        <time>2021-01-01T16:10:25.996Z</time>
      </trkpt>
      <trkpt lat="51.042192" lon="8.405219">
        <ele>481.038248</ele>
        <time>2021-01-01T16:10:33.996Z</time>
      </trkpt>
      <trkpt lat="51.042154" lon="8.405077">
        <ele>481.242158</ele>
        <time>2021-01-01T16:10:41.996Z</time>
      </trkpt>
      <trkpt lat="51.042122" lon="8.404927">
        <ele>481.451448</ele>
        <time>2021-01-01T16:10:52.996Z</time>
      </trkpt>
      <trkpt lat="51.042089" lon="8.404765">
        <ele>481.676450</ele>
        <time>2021-01-01T16:11:00.996Z</time>
      </trkpt>
      <trkpt lat="51.042097" lon="8.404615">
        <ele>481.875354</ele>
        <time>2021-01-01T16:11:08.996Z</time>
      </trkpt>
      <trkpt lat="51.042180" lon="8.404545">
        <ele>482.072780</ele>
        <time>2021-01-01T16:11:16.996Z</time>
      </trkpt>
      <trkpt lat="51.042267" lon="8.404498">
        <ele>482.265865</ele>
        <time>2021-01-01T16:11:22.996Z</time>
      </trkpt>
      <trkpt lat="51.042370" lon="8.404517">
        <ele>482.483766</ele>
        <time>2021-01-01T16:11:30.996Z</time>
      </trkpt>
      <trkpt lat="51.042462" lon="8.404499">
        <ele>482.678556</ele>
        <time>2021-01-01T16:11:38.996Z</time>
      </trkpt>
      <trkpt lat="51.042490" lon="8.404343">
        <ele>482.892910</ele>
        <time>2021-01-01T16:11:48.996Z</time>
      </trkpt>
      <trkpt lat="51.042495" lon="8.404186">
        <ele>483.100616</ele>
        <time>2021-01-01T16:11:56.996Z</time>
      </trkpt>
      <trkpt lat="51.042557" lon="8.404054">
        <ele>483.318316</ele>
        <time>2021-01-01T16:12:04.996Z</time>
      </trkpt>
      <trkpt lat="51.042635" lon="8.403975">
        <ele>483.512643</ele>
        <time>2021-01-01T16:12:11.996Z</time>
      </trkpt>
      <trkpt lat="51.042706" lon="8.403866">
        <ele>483.720014</ele>
        <time>2021-01-01T16:12:18.996Z</time>
      </trkpt>
      <trkpt lat="51.042777" lon="8.403773">
        <ele>483.913303</ele>
        <time>2021-01-01T16:12:25.996Z</time>
      </trkpt>
      <trkpt lat="51.042840" lon="8.403646">
        <ele>484.127042</ele>
        <time>2021-01-01T16:12:34.996Z</time>
      </trkpt>
      <trkpt lat="51.042894" lon="8.403506">
        <ele>484.344054</ele>
        <time>2021-01-01T16:12:44.996Z</time>
      </trkpt>
      <trkpt lat="51.042905" lon="8.403363">
        <ele>484.534403</ele>
        <time>2021-01-01T16:12:50.996Z</time>
      </trkpt>
      <trkpt lat="51.042937" lon="8.403212">
        <ele>484.744942</ele>
        <time>2021-01-01T16:12:58.995Z</time>
      </trkpt>
      <trkpt lat="51.042955" lon="8.403059">
        <ele>483.941652</ele>
        <time>2021-01-01T16:13:05.995Z</time>
      </trkpt>
      <trkpt lat="51.042979" lon="8.402905">
        <ele>482.930188</ele>
        <time>2021-01-01T16:13:13.995Z</time>
      </trkpt>
      <trkpt lat="51.043011" lon="8.402763">
        <ele>481.968544</ele>
        <time>2021-01-01T16:13:21.995Z</time>
      </trkpt>
      <trkpt lat="51.043055" lon="8.402630">
        <ele>481.010455</ele>
        <time>2021-01-01T16:13:29.995Z</time>
      </trkpt>
      <trkpt lat="51.043087" lon="8.402366">
        <ele>479.296460</ele>
        <time>2021-01-01T16:14:14.999Z</time>
      </trkpt>
      <trkpt lat="51.043140" lon="8.402217">
        <ele>478.205107</ele>
        <time>2021-01-01T16:14:22.999Z</time>
      </trkpt>
      <trkpt lat="51.043191" lon="8.401918">
        <ele>476.230082</ele>
        <time>2021-01-01T16:15:08.999Z</time>
      </trkpt>
      <trkpt lat="51.043232" lon="8.401790">
        <ele>475.314290</ele>
        <time>2021-01-01T16:15:16.998Z</time>
      </trkpt>
      <trkpt lat="51.043253" lon="8.401630">
        <ele>474.272303</ele>
        <time>2021-01-01T16:15:26.998Z</time>
      </trkpt>
      <trkpt lat="51.043275" lon="8.401482">
        <ele>473.302794</ele>
        <time>2021-01-01T16:15:34.998Z</time>
      </trkpt>
      <trkpt lat="51.043316" lon="8.401327">
        <ele>472.230783</ele>
        <time>2021-01-01T16:15:42.998Z</time>
      </trkpt>
      <trkpt lat="51.043346" lon="8.401177">
        <ele>471.227322</ele>
        <time>2021-01-01T16:15:51.998Z</time>
      </trkpt>
      <trkpt lat="51.043379" lon="8.401040">
        <ele>470.292048</ele>
        <time>2021-01-01T16:15:57.997Z</time>
      </trkpt>
      <trkpt lat="51.043404" lon="8.400884">
        <ele>469.265756</ele>
        <time>2021-01-01T16:16:05.997Z</time>
      </trkpt>
      <trkpt lat="51.043438" lon="8.400740">
        <ele>468.285163</ele>
        <time>2021-01-01T16:16:12.997Z</time>
      </trkpt>
      <trkpt lat="51.043480" lon="8.400602">
        <ele>467.307766</ele>
        <time>2021-01-01T16:16:21.997Z</time>
      </trkpt>
      <trkpt lat="51.043518" lon="8.400459">
        <ele>466.331602</ele>
        <time>2021-01-01T16:16:27.997Z</time>
      </trkpt>
      <trkpt lat="51.043536" lon="8.400315">
        <ele>465.452673</ele>
        <time>2021-01-01T16:16:34.997Z</time>
      </trkpt>
      <trkpt lat="51.043549" lon="8.400155">
        <ele>464.486867</ele>
        <time>2021-01-01T16:16:41.997Z</time>
      </trkpt>
      <trkpt lat="51.043580" lon="8.400021">
        <ele>463.632094</ele>
        <time>2021-01-01T16:16:47.996Z</time>
      </trkpt>
      <trkpt lat="51.043599" lon="8.399879">
        <ele>462.762973</ele>
        <time>2021-01-01T16:16:54.996Z</time>
      </trkpt>
      <trkpt lat="51.043626" lon="8.399718">
        <ele>461.765450</ele>
        <time>2021-01-01T16:17:06.996Z</time>
      </trkpt>
      <trkpt lat="51.043675" lon="8.399583">
        <ele>460.832269</ele>
        <time>2021-01-01T16:17:12.996Z</time>
      </trkpt>
      <trkpt lat="51.043717" lon="8.399456">
        <ele>459.973224</ele>
        <time>2021-01-01T16:17:18.996Z</time>
      </trkpt>
      <trkpt lat="51.043716" lon="8.399302">
        <ele>459.051256</ele>
        <time>2021-01-01T16:17:25.996Z</time>
      </trkpt>
      <trkpt lat="51.043720" lon="8.399138">
        <ele>458.068734</ele>
        <time>2021-01-01T16:17:33.996Z</time>
      </trkpt>
      <trkpt lat="51.043742" lon="8.398984">
        <ele>457.123317</ele>
        <time>2021-01-01T16:17:39.996Z</time>
      </trkpt>
      <trkpt lat="51.043779" lon="8.398846">
        <ele>456.225201</ele>
        <time>2021-01-01T16:17:45.996Z</time>
      </trkpt>
      <trkpt lat="51.043816" lon="8.398696">
        <ele>455.260594</ele>
        <time>2021-01-01T16:17:52.996Z</time>
      </trkpt>
      <trkpt lat="51.043832" lon="8.398539">
        <ele>454.308451</ele>
        <time>2021-01-01T16:18:01.996Z</time>
      </trkpt>
      <trkpt lat="51.043876" lon="8.398392">
        <ele>453.333803</ele>
        <time>2021-01-01T16:18:07.996Z</time>
      </trkpt>
      <trkpt lat="51.043891" lon="8.398227">
        <ele>452.335764</ele>
        <time>2021-01-01T16:18:14.995Z</time>
      </trkpt>
      <trkpt lat="51.043922" lon="8.398088">
        <ele>451.452845</ele>
        <time>2021-01-01T16:18:21.995Z</time>
      </trkpt>
      <trkpt lat="51.043972" lon="8.397938">
        <ele>450.436479</ele>
        <time>2021-01-01T16:18:30.995Z</time>
      </trkpt>
      <trkpt lat="51.044009" lon="8.397795">
        <ele>449.510759</ele>
        <time>2021-01-01T16:18:38.995Z</time>
      </trkpt>
      <trkpt lat="51.044047" lon="8.397654">
        <ele>448.479832</ele>
        <time>2021-01-01T16:18:46.995Z</time>
      </trkpt>
      <trkpt lat="51.044072" lon="8.397512">
        <ele>447.476156</ele>
        <time>2021-01-01T16:18:54.995Z</time>
      </trkpt>
      <trkpt lat="51.044144" lon="8.397409">
        <ele>446.427819</ele>
        <time>2021-01-01T16:19:02.995Z</time>
      </trkpt>
      <trkpt lat="51.044187" lon="8.397262">
        <ele>445.324302</ele>
        <time>2021-01-01T16:19:09.995Z</time>
      </trkpt>
      <trkpt lat="51.044229" lon="8.397122">
        <ele>444.268500</ele>
        <time>2021-01-01T16:19:17.995Z</time>
      </trkpt>
      <trkpt lat="51.044301" lon="8.397004">
        <ele>443.149315</ele>
        <time>2021-01-01T16:19:24.995Z</time>
      </trkpt>
      <trkpt lat="51.044359" lon="8.396884">
        <ele>442.119106</ele>
        <time>2021-01-01T16:19:31.995Z</time>
      </trkpt>
      <trkpt lat="51.044406" lon="8.396754">
        <ele>441.098428</ele>
        <time>2021-01-01T16:19:38.995Z</time>
      </trkpt>
      <trkpt lat="51.044455" lon="8.396633">
        <ele>440.118819</ele>
        <time>2021-01-01T16:19:45.994Z</time>
      </trkpt>
      <trkpt lat="51.044512" lon="8.396503">
        <ele>439.040087</ele>
        <time>2021-01-01T16:19:52.994Z</time>
      </trkpt>
      <trkpt lat="51.044557" lon="8.396369">
        <ele>438.006098</ele>
        <time>2021-01-01T16:19:59.994Z</time>
      </trkpt>
      <trkpt lat="51.044619" lon="8.396250">
        <ele>436.954192</ele>
        <time>2021-01-01T16:20:06.994Z</time>
      </trkpt>
      <trkpt lat="51.044676" lon="8.396128">
        <ele>435.919655</ele>
        <time>2021-01-01T16:20:13.994Z</time>
      </trkpt>
      <trkpt lat="51.044730" lon="8.396003">
        <ele>434.887393</ele>
        <time>2021-01-01T16:20:21.994Z</time>
      </trkpt>
      <trkpt lat="51.044776" lon="8.395874">
        <ele>433.878001</ele>
        <time>2021-01-01T16:20:27.994Z</time>
      </trkpt>
      <trkpt lat="51.044806" lon="8.395736">
        <ele>432.884179</ele>
        <time>2021-01-01T16:20:35.994Z</time>
      </trkpt>
      <trkpt lat="51.044849" lon="8.395609">
        <ele>431.902414</ele>
        <time>2021-01-01T16:20:42.994Z</time>
      </trkpt>
      <trkpt lat="51.044895" lon="8.395457">
        <ele>430.754257</ele>
        <time>2021-01-01T16:20:50.995Z</time>
      </trkpt>
      <trkpt lat="51.044957" lon="8.395331">
        <ele>429.727935</ele>
        <time>2021-01-01T16:20:57.996Z</time>
      </trkpt>
      <trkpt lat="51.045004" lon="8.395195">
        <ele>428.910264</ele>
        <time>2021-01-01T16:21:05.997Z</time>
      </trkpt>
      <trkpt lat="51.045047" lon="8.395050">
        <ele>428.065570</ele>
        <time>2021-01-01T16:21:13.998Z</time>
      </trkpt>
      <trkpt lat="51.045112" lon="8.394932">
        <ele>427.238982</ele>
        <time>2021-01-01T16:21:22.998Z</time>
      </trkpt>
      <trkpt lat="51.045186" lon="8.394812">
        <ele>426.353365</ele>
        <time>2021-01-01T16:21:31.998Z</time>
      </trkpt>
      <trkpt lat="51.045254" lon="8.394714">
        <ele>425.584375</ele>
        <time>2021-01-01T16:21:37.998Z</time>
      </trkpt>
      <trkpt lat="51.045314" lon="8.394603">
        <ele>424.813109</ele>
        <time>2021-01-01T16:21:46.998Z</time>
      </trkpt>
      <trkpt lat="51.045397" lon="8.394535">
        <ele>424.030696</ele>
        <time>2021-01-01T16:21:54.998Z</time>
      </trkpt>
      <trkpt lat="51.045452" lon="8.394420">
        <ele>423.269405</ele>
        <time>2021-01-01T16:21:59.998Z</time>
      </trkpt>
      <trkpt lat="51.045496" lon="8.394293">
        <ele>422.505405</ele>
        <time>2021-01-01T16:22:03.998Z</time>
      </trkpt>
      <trkpt lat="51.045541" lon="8.394164">
        <ele>421.728129</ele>
        <time>2021-01-01T16:22:08.998Z</time>
      </trkpt>
      <trkpt lat="51.045607" lon="8.394043">
        <ele>420.884125</ele>
        <time>2021-01-01T16:22:15.998Z</time>
      </trkpt>
      <trkpt lat="51.045634" lon="8.393900">
        <ele>420.097457</ele>
        <time>2021-01-01T16:22:21.998Z</time>
      </trkpt>
      <trkpt lat="51.045687" lon="8.393779">
        <ele>419.320478</ele>
        <time>2021-01-01T16:22:28.998Z</time>
      </trkpt>
      <trkpt lat="51.045772" lon="8.393715">
        <ele>418.532374</ele>
        <time>2021-01-01T16:22:36.998Z</time>
      </trkpt>
      <trkpt lat="51.045838" lon="8.393606">
        <ele>417.735051</ele>
        <time>2021-01-01T16:22:43.998Z</time>
      </trkpt>
      <trkpt lat="51.045893" lon="8.393488">
        <ele>416.961126</ele>
        <time>2021-01-01T16:22:49.998Z</time>
      </trkpt>
      <trkpt lat="51.045946" lon="8.393345">
        <ele>416.086531</ele>
        <time>2021-01-01T16:22:56.998Z</time>
      </trkpt>
      <trkpt lat="51.045987" lon="8.393205">
        <ele>415.272819</ele>
        <time>2021-01-01T16:23:02.998Z</time>
      </trkpt>
      <trkpt lat="51.046044" lon="8.393078">
        <ele>414.824456</ele>
        <time>2021-01-01T16:23:09.998Z</time>
      </trkpt>
      <trkpt lat="51.046086" lon="8.392950">
        <ele>414.742474</ele>
        <time>2021-01-01T16:23:15.998Z</time>
      </trkpt>
      <trkpt lat="51.046124" lon="8.392817">
        <ele>414.659523</ele>
        <time>2021-01-01T16:23:21.997Z</time>
      </trkpt>
      <trkpt lat="51.046169" lon="8.392673">
        <ele>414.568215</ele>
        <time>2021-01-01T16:23:28.997Z</time>
      </trkpt>
      <trkpt lat="51.046220" lon="8.392538">
        <ele>414.478786</ele>
        <time>2021-01-01T16:23:35.997Z</time>
      </trkpt>
      <trkpt lat="51.046251" lon="8.392397">
        <ele>414.393971</ele>
        <time>2021-01-01T16:23:41.997Z</time>
      </trkpt>
      <trkpt lat="51.046307" lon="8.392259">
        <ele>414.300709</ele>
        <time>2021-01-01T16:23:48.997Z</time>
      </trkpt>
      <trkpt lat="51.046362" lon="8.392132">
        <ele>414.213145</ele>
        <time>2021-01-01T16:23:55.997Z</time>
      </trkpt>
      <trkpt lat="51.046419" lon="8.392006">
        <ele>414.125006</ele>
        <time>2021-01-01T16:24:01.997Z</time>
      </trkpt>
      <trkpt lat="51.046465" lon="8.391879">
        <ele>414.041783</ele>
        <time>2021-01-01T16:24:10.997Z</time>
      </trkpt>
      <trkpt lat="51.046549" lon="8.391794">
        <ele>413.951867</ele>
        <time>2021-01-01T16:24:20.997Z</time>
      </trkpt>
      <trkpt lat="51.046642" lon="8.391829">
        <ele>413.865555</ele>
        <time>2021-01-01T16:24:26.997Z</time>
      </trkpt>
      <trkpt lat="51.046737" lon="8.391877">
        <ele>413.775531</ele>
        <time>2021-01-01T16:24:33.997Z</time>
      </trkpt>
      <trkpt lat="51.046835" lon="8.391905">
        <ele>413.685606</ele>
        <time>2021-01-01T16:24:40.997Z</time>
      </trkpt>
      <trkpt lat="51.046923" lon="8.391959">
        <ele>413.600419</ele>
        <time>2021-01-01T16:24:47.997Z</time>
      </trkpt>
      <trkpt lat="51.047011" lon="8.392004">
        <ele>413.516935</ele>
        <time>2021-01-01T16:24:57.996Z</time>
      </trkpt>
      <trkpt lat="51.047090" lon="8.392094">
        <ele>413.429174</ele>
        <time>2021-01-01T16:25:05.996Z</time>
      </trkpt>
      <trkpt lat="51.047191" lon="8.392101">
        <ele>413.337869</ele>
        <time>2021-01-01T16:25:13.996Z</time>
      </trkpt>
      <trkpt lat="51.047290" lon="8.392156">
        <ele>413.247365</ele>
        <time>2021-01-01T16:25:17.996Z</time>
      </trkpt>
      <trkpt lat="51.047385" lon="8.392152">
        <ele>413.342589</ele>
        <time>2021-01-01T16:25:21.996Z</time>
      </trkpt>
      <trkpt lat="51.047484" lon="8.392145">
        <ele>413.441886</ele>
        <time>2021-01-01T16:25:27.996Z</time>
      </trkpt>
      <trkpt lat="51.047575" lon="8.392171">
        <ele>413.534528</ele>
        <time>2021-01-01T16:25:32.996Z</time>
      </trkpt>
      <trkpt lat="51.047662" lon="8.392203">
        <ele>413.624003</ele>
        <time>2021-01-01T16:25:39.996Z</time>
      </trkpt>
      <trkpt lat="51.047756" lon="8.392241">
        <ele>413.721186</ele>
        <time>2021-01-01T16:25:50.996Z</time>
      </trkpt>
      <trkpt lat="51.047845" lon="8.392266">
        <ele>413.811745</ele>
        <time>2021-01-01T16:25:55.996Z</time>
      </trkpt>
      <trkpt lat="51.047947" lon="8.392293">
        <ele>413.915355</ele>
        <time>2021-01-01T16:26:00.996Z</time>
      </trkpt>
      <trkpt lat="51.048040" lon="8.392301">
        <ele>414.008678</ele>
        <time>2021-01-01T16:26:06.996Z</time>
      </trkpt>
      <trkpt lat="51.048139" lon="8.392341">
        <ele>414.111027</ele>
        <time>2021-01-01T16:26:16.996Z</time>
      </trkpt>
      <trkpt lat="51.048223" lon="8.392407">
        <ele>414.204904</ele>
        <time>2021-01-01T16:26:25.995Z</time>
      </trkpt>
      <trkpt lat="51.048302" lon="8.392481">
        <ele>414.296768</ele>
        <time>2021-01-01T16:26:34.995Z</time>
      </trkpt>
      <trkpt lat="51.048399" lon="8.392567">
        <ele>414.408041</ele>
        <time>2021-01-01T16:26:42.995Z</time>
      </trkpt>
      <trkpt lat="51.048474" lon="8.392645">
        <ele>414.497828</ele>
        <time>2021-01-01T16:26:56.995Z</time>
      </trkpt>
      <trkpt lat="51.048552" lon="8.392717">
        <ele>414.588191</ele>
        <time>2021-01-01T16:27:08.995Z</time>
      </trkpt>
      <trkpt lat="51.048643" lon="8.392762">
        <ele>414.683679</ele>
        <time>2021-01-01T16:27:14.995Z</time>
      </trkpt>
      <trkpt lat="51.048733" lon="8.392794">
        <ele>414.776085</ele>
        <time>2021-01-01T16:27:23.995Z</time>
      </trkpt>
      <trkpt lat="51.048816" lon="8.392859">
        <ele>414.868784</ele>
        <time>2021-01-01T16:27:31.995Z</time>
      </trkpt>
      <trkpt lat="51.048903" lon="8.392916">
        <ele>414.963064</ele>
        <time>2021-01-01T16:27:41.995Z</time>
      </trkpt>
      <trkpt lat="51.048990" lon="8.392964">
        <ele>415.053108</ele>
        <time>2021-01-01T16:27:45.995Z</time>
      </trkpt>
      <trkpt lat="51.049083" lon="8.393027">
        <ele>415.125957</ele>
        <time>2021-01-01T16:27:49.994Z</time>
      </trkpt>
      <trkpt lat="51.049148" lon="8.393140">
        <ele>415.195351</ele>
        <time>2021-01-01T16:27:54.995Z</time>
      </trkpt>
      <trkpt lat="51.049236" lon="8.393190">
        <ele>415.262696</ele>
        <time>2021-01-01T16:28:01.996Z</time>
      </trkpt>
      <trkpt lat="51.049340" lon="8.393214">
        <ele>415.338433</ele>
        <time>2021-01-01T16:28:07.997Z</time>
      </trkpt>
      <trkpt lat="51.049429" lon="8.393286">
        <ele>415.410393</ele>
        <time>2021-01-01T16:28:12.998Z</time>
      </trkpt>
      <trkpt lat="51.049540" lon="8.393310">
        <ele>415.491125</ele>
        <time>2021-01-01T16:28:15.998Z</time>
      </trkpt>
      <trkpt lat="51.049616" lon="8.393417">
        <ele>415.564269</ele>
        <time>2021-01-01T16:28:21.998Z</time>
      </trkpt>
      <trkpt lat="51.049711" lon="8.393434">
        <ele>415.633167</ele>
        <time>2021-01-01T16:28:29.998Z</time>
      </trkpt>
      <trkpt lat="51.049802" lon="8.393402">
        <ele>415.700333</ele>
        <time>2021-01-01T16:28:34.999Z</time>
      </trkpt>
      <trkpt lat="51.049903" lon="8.393452">
        <ele>415.776567</ele>
        <time>2021-01-01T16:28:40.999Z</time>
      </trkpt>
      <trkpt lat="51.049993" lon="8.393475">
        <ele>415.842260</ele>
        <time>2021-01-01T16:28:48.999Z</time>
      </trkpt>
      <trkpt lat="51.050077" lon="8.393575">
        <ele>415.917874</ele>
        <time>2021-01-01T16:28:54.999Z</time>
      </trkpt>
      <trkpt lat="51.050173" lon="8.393555">
        <ele>415.987651</ele>
        <time>2021-01-01T16:28:58.999Z</time>
      </trkpt>
      <trkpt lat="51.050268" lon="8.393540">
        <ele>416.056454</ele>
        <time>2021-01-01T16:29:03.999Z</time>
      </trkpt>
      <trkpt lat="51.050384" lon="8.393533">
        <ele>416.140114</ele>
        <time>2021-01-01T16:29:08.998Z</time>
      </trkpt>
      <trkpt lat="51.050496" lon="8.393569">
        <ele>416.222463</ele>
        <time>2021-01-01T16:29:14.998Z</time>
      </trkpt>
      <trkpt lat="51.050571" lon="8.393655">
        <ele>416.289093</ele>
        <time>2021-01-01T16:29:20.998Z</time>
      </trkpt>
      <trkpt lat="51.050666" lon="8.393666">
        <ele>416.358050</ele>
        <time>2021-01-01T16:29:31.998Z</time>
      </trkpt>
      <trkpt lat="51.050764" lon="8.393640">
        <ele>416.431231</ele>
        <time>2021-01-01T16:29:36.998Z</time>
      </trkpt>
      <trkpt lat="51.050857" lon="8.393577">
        <ele>416.505685</ele>
        <time>2021-01-01T16:29:41.998Z</time>
      </trkpt>
      <trkpt lat="51.050963" lon="8.393602">
        <ele>416.584615</ele>
        <time>2021-01-01T16:29:46.998Z</time>
      </trkpt>
      <trkpt lat="51.051054" lon="8.393627">
        <ele>416.652635</ele>
        <time>2021-01-01T16:29:51.998Z</time>
      </trkpt>
      <trkpt lat="51.051148" lon="8.393649">
        <ele>416.722618</ele>
        <time>2021-01-01T16:29:57.998Z</time>
      </trkpt>
      <trkpt lat="51.051250" lon="8.393641">
        <ele>416.797839</ele>
        <time>2021-01-01T16:30:05.998Z</time>
      </trkpt>
      <trkpt lat="51.051350" lon="8.393630">
        <ele>416.871672</ele>
        <time>2021-01-01T16:30:11.998Z</time>
      </trkpt>
      <trkpt lat="51.051439" lon="8.393641">
        <ele>416.937425</ele>
        <time>2021-01-01T16:30:19.998Z</time>
      </trkpt>
      <trkpt lat="51.051533" lon="8.393691">
        <ele>417.010430</ele>
        <time>2021-01-01T16:30:27.998Z</time>
      </trkpt>
      <trkpt lat="51.051624" lon="8.393741">
        <ele>417.081344</ele>
        <time>2021-01-01T16:30:34.998Z</time>
      </trkpt>
      <trkpt lat="51.051722" lon="8.393718">
        <ele>417.154309</ele>
        <time>2021-01-01T16:30:41.997Z</time>
      </trkpt>
      <trkpt lat="51.051819" lon="8.393727">
        <ele>417.225878</ele>
        <time>2021-01-01T16:30:47.997Z</time>
      </trkpt>
      <trkpt lat="51.051910" lon="8.393748">
        <ele>417.293607</ele>
        <time>2021-01-01T16:30:52.997Z</time>
      </trkpt>
      <trkpt lat="51.052000" lon="8.393759">
        <ele>417.360094</ele>
        <time>2021-01-01T16:30:59.997Z</time>
      </trkpt>
      <trkpt lat="51.052092" lon="8.393791">
        <ele>417.429460</ele>
        <time>2021-01-01T16:31:05.997Z</time>
      </trkpt>
      <trkpt lat="51.052191" lon="8.393819">
        <ele>417.503524</ele>
        <time>2021-01-01T16:31:12.997Z</time>
      </trkpt>
      <trkpt lat="51.052283" lon="8.393805">
        <ele>417.571597</ele>
        <time>2021-01-01T16:31:18.997Z</time>
      </trkpt>
      <trkpt lat="51.052391" lon="8.393809">
        <ele>417.651169</ele>
        <time>2021-01-01T16:31:26.997Z</time>
      </trkpt>
      <trkpt lat="51.052485" lon="8.393786">
        <ele>417.697904</ele>
        <time>2021-01-01T16:31:32.997Z</time>
      </trkpt>
      <trkpt lat="51.052590" lon="8.393791">
        <ele>417.741058</ele>
        <time>2021-01-01T16:31:38.997Z</time>
      </trkpt>
      <trkpt lat="51.052684" lon="8.393802">
        <ele>417.779777</ele>
        <time>2021-01-01T16:31:43.997Z</time>
      </trkpt>
      <trkpt lat="51.052790" lon="8.393809">
        <ele>417.823360</ele>
        <time>2021-01-01T16:31:50.997Z</time>
      </trkpt>
      <trkpt lat="51.052891" lon="8.393820">
        <ele>417.864948</ele>
        <time>2021-01-01T16:31:58.997Z</time>
      </trkpt>
      <trkpt lat="51.052996" lon="8.393832">
        <ele>417.908193</ele>
        <time>2021-01-01T16:32:05.996Z</time>
      </trkpt>
      <trkpt lat="51.053086" lon="8.393825">
        <ele>417.945209</ele>
        <time>2021-01-01T16:32:11.996Z</time>
      </trkpt>
      <trkpt lat="51.053176" lon="8.393845">
        <ele>417.982540</ele>
        <time>2021-01-01T16:32:17.996Z</time>
      </trkpt>
      <trkpt lat="51.053276" lon="8.393872">
        <ele>418.024207</ele>
        <time>2021-01-01T16:32:25.996Z</time>
      </trkpt>
      <trkpt lat="51.053377" lon="8.393914">
        <ele>418.067092</ele>
        <time>2021-01-01T16:32:31.996Z</time>
      </trkpt>
      <trkpt lat="51.053476" lon="8.393958">
        <ele>418.109319</ele>
        <time>2021-01-01T16:32:37.996Z</time>
      </trkpt>
      <trkpt lat="51.053571" lon="8.393996">
        <ele>418.149559</ele>
        <time>2021-01-01T16:32:43.996Z</time>
      </trkpt>
      <trkpt lat="51.053668" lon="8.393991">
        <ele>418.189428</ele>
        <time>2021-01-01T16:32:49.996Z</time>
      </trkpt>
      <trkpt lat="51.053761" lon="8.393992">
        <ele>418.227633</ele>
        <time>2021-01-01T16:32:56.996Z</time>
      </trkpt>
      <trkpt lat="51.053813" lon="8.393869">
        <ele>418.265910</ele>
        <time>2021-01-01T16:33:06.996Z</time>
      </trkpt>
      <trkpt lat="51.053904" lon="8.393808">
        <ele>418.306476</ele>
        <time>2021-01-01T16:33:16.996Z</time>
      </trkpt>
      <trkpt lat="51.054000" lon="8.393808">
        <ele>418.345913</ele>
        <time>2021-01-01T16:33:22.996Z</time>
      </trkpt>
      <trkpt lat="51.054092" lon="8.393836">
        <ele>418.384392</ele>
        <time>2021-01-01T16:33:28.996Z</time>
      </trkpt>
      <trkpt lat="51.054183" lon="8.393866">
        <ele>418.392990</ele>
        <time>2021-01-01T16:33:33.995Z</time>
      </trkpt>
      <trkpt lat="51.054264" lon="8.393929">
        <ele>418.357872</ele>
        <time>2021-01-01T16:33:37.995Z</time>
      </trkpt>
      <trkpt lat="51.054355" lon="8.393987">
        <ele>418.319690</ele>
        <time>2021-01-01T16:33:43.995Z</time>
      </trkpt>
      <trkpt lat="51.054456" lon="8.394007">
        <ele>418.280047</ele>
        <time>2021-01-01T16:33:52.995Z</time>
      </trkpt>
      <trkpt lat="51.054548" lon="8.394020">
        <ele>418.244073</ele>
        <time>2021-01-01T16:33:58.995Z</time>
      </trkpt>
      <trkpt lat="51.054642" lon="8.394044">
        <ele>418.206992</ele>
        <time>2021-01-01T16:34:04.995Z</time>
      </trkpt>
      <trkpt lat="51.054735" lon="8.394068">
        <ele>418.170296</ele>
        <time>2021-01-01T16:34:10.995Z</time>
      </trkpt>
      <trkpt lat="51.054814" lon="8.394142">
        <ele>418.134588</ele>
        <time>2021-01-01T16:34:16.995Z</time>
      </trkpt>
      <trkpt lat="51.054921" lon="8.394171">
        <ele>418.092312</ele>
        <time>2021-01-01T16:34:23.995Z</time>
      </trkpt>
      <trkpt lat="51.055024" lon="8.394162">
        <ele>418.052134</ele>
        <time>2021-01-01T16:34:29.995Z</time>
      </trkpt>
      <trkpt lat="51.055115" lon="8.394208">
        <ele>418.014944</ele>
        <time>2021-01-01T16:34:36.995Z</time>
      </trkpt>
      <trkpt lat="51.055205" lon="8.394245">
        <ele>417.978738</ele>
        <time>2021-01-01T16:34:41.995Z</time>
      </trkpt>
      <trkpt lat="51.055305" lon="8.394281">
        <ele>417.938804</ele>
        <time>2021-01-01T16:34:48.995Z</time>
      </trkpt>
      <trkpt lat="51.055399" lon="8.394297">
        <ele>417.901983</ele>
        <time>2021-01-01T16:34:54.995Z</time>
      </trkpt>
      <trkpt lat="51.055496" lon="8.394307">
        <ele>417.864123</ele>
        <time>2021-01-01T16:35:00.995Z</time>
      </trkpt>
      <trkpt lat="51.055596" lon="8.394344">
        <ele>417.824134</ele>
        <time>2021-01-01T16:35:06.996Z</time>
      </trkpt>
      <trkpt lat="51.055688" lon="8.394337">
        <ele>417.788260</ele>
        <time>2021-01-01T16:35:12.997Z</time>
      </trkpt>
      <trkpt lat="51.055781" lon="8.394313">
        <ele>417.751563</ele>
        <time>2021-01-01T16:35:18.998Z</time>
      </trkpt>
      <trkpt lat="51.055878" lon="8.394311">
        <ele>417.713779</ele>
        <time>2021-01-01T16:35:25.998Z</time>
      </trkpt>
      <trkpt lat="51.055972" lon="8.394374">
        <ele>417.731682</ele>
        <time>2021-01-01T16:35:32.998Z</time>
      </trkpt>
      <trkpt lat="51.056063" lon="8.394424">
        <ele>417.760119</ele>
        <time>2021-01-01T16:35:39.999Z</time>
      </trkpt>
      <trkpt lat="51.056161" lon="8.394453">
        <ele>417.789561</ele>
        <time>2021-01-01T16:35:47.999Z</time>
      </trkpt>
      <trkpt lat="51.056261" lon="8.394506">
        <ele>417.820694</ele>
        <time>2021-01-01T16:35:56.999Z</time>
      </trkpt>
      <trkpt lat="51.056358" lon="8.394539">
        <ele>417.849992</ele>
        <time>2021-01-01T16:36:04.999Z</time>
      </trkpt>
      <trkpt lat="51.056448" lon="8.394583">
        <ele>417.877802</ele>
        <time>2021-01-01T16:36:11.999Z</time>
      </trkpt>
      <trkpt lat="51.056542" lon="8.394619">
        <ele>417.906360</ele>
        <time>2021-01-01T16:36:17.998Z</time>
      </trkpt>
      <trkpt lat="51.056637" lon="8.394640">
        <ele>417.934690</ele>
        <time>2021-01-01T16:36:21.998Z</time>
      </trkpt>
      <trkpt lat="51.056729" lon="8.394675">
        <ele>417.962630</ele>
        <time>2021-01-01T16:36:27.998Z</time>
      </trkpt>
      <trkpt lat="51.056823" lon="8.394720">
        <ele>417.991624</ele>
        <time>2021-01-01T16:36:46.998Z</time>
      </trkpt>
      <trkpt lat="51.056919" lon="8.394768">
        <ele>418.021347</ele>
        <time>2021-01-01T16:36:54.998Z</time>
      </trkpt>
      <trkpt lat="51.057010" lon="8.394767">
        <ele>418.048226</ele>
        <time>2021-01-01T16:36:59.998Z</time>
      </trkpt>
      <trkpt lat="51.057094" lon="8.394825">
        <ele>418.075272</ele>
        <time>2021-01-01T16:37:05.998Z</time>
      </trkpt>
      <trkpt lat="51.057167" lon="8.394927">
        <ele>418.103969</ele>
        <time>2021-01-01T16:37:15.998Z</time>
      </trkpt>
      <trkpt lat="51.057231" lon="8.395061">
        <ele>418.135214</ele>
        <time>2021-01-01T16:37:22.998Z</time>
      </trkpt>
      <trkpt lat="51.057285" lon="8.395177">
        <ele>418.162013</ele>
        <time>2021-01-01T16:37:29.998Z</time>
      </trkpt>
      <trkpt lat="51.057315" lon="8.395317">
        <ele>418.189473</ele>
        <time>2021-01-01T16:37:35.998Z</time>
      </trkpt>
      <trkpt lat="51.057359" lon="8.395466">
        <ele>418.220036</ele>
        <time>2021-01-01T16:37:43.998Z</time>
      </trkpt>
      <trkpt lat="51.057411" lon="8.395604">
        <ele>418.238089</ele>
        <time>2021-01-01T16:37:50.997Z</time>
      </trkpt>
      <trkpt lat="51.057466" lon="8.395720">
        <ele>418.238089</ele>
        <time>2021-01-01T16:37:55.997Z</time>
      </trkpt>
      <trkpt lat="51.057516" lon="8.395842">
        <ele>418.238089</ele>
        <time>2021-01-01T16:38:00.997Z</time>
      </trkpt>
      <trkpt lat="51.057577" lon="8.395967">
        <ele>418.238089</ele>
        <time>2021-01-01T16:38:07.997Z</time>
      </trkpt>
      <trkpt lat="51.057630" lon="8.396097">
        <ele>418.238089</ele>
        <time>2021-01-01T16:38:13.997Z</time>
      </trkpt>
      <trkpt lat="51.057654" lon="8.396238">
        <ele>418.238089</ele>
        <time>2021-01-01T16:38:20.997Z</time>
      </trkpt>
      <trkpt lat="51.057717" lon="8.396373">
        <ele>418.238089</ele>
        <time>2021-01-01T16:38:27.997Z</time>
      </trkpt>
      <trkpt lat="51.057764" lon="8.396504">
        <ele>418.238089</ele>
        <time>2021-01-01T16:38:34.997Z</time>
      </trkpt>
      <trkpt lat="51.057820" lon="8.396636">
        <ele>418.238089</ele>
        <time>2021-01-01T16:38:41.997Z</time>
      </trkpt>
      <trkpt lat="51.057881" lon="8.396747">
        <ele>418.238089</ele>
        <time>2021-01-01T16:38:47.997Z</time>
      </trkpt>
      <trkpt lat="51.057938" lon="8.396859">
        <ele>418.238089</ele>
        <time>2021-01-01T16:38:54.997Z</time>
      </trkpt>
      <trkpt lat="51.057997" lon="8.396983">
        <ele>418.238089</ele>
        <time>2021-01-01T16:39:01.997Z</time>
      </trkpt>
      <trkpt lat="51.058070" lon="8.397079">
        <ele>418.238089</ele>
        <time>2021-01-01T16:39:08.997Z</time>
      </trkpt>
      <trkpt lat="51.058145" lon="8.397178">
        <ele>418.238089</ele>
        <time>2021-01-01T16:39:15.997Z</time>
      </trkpt>
      <trkpt lat="51.058228" lon="8.397272">
        <ele>418.238089</ele>
        <time>2021-01-01T16:39:22.996Z</time>
      </trkpt>
      <trkpt lat="51.058315" lon="8.397361">
        <ele>418.238089</ele>
        <time>2021-01-01T16:39:28.996Z</time>
      </trkpt>
      <trkpt lat="51.058398" lon="8.397468">
        <ele>418.238089</ele>
        <time>2021-01-01T16:39:35.996Z</time>
      </trkpt>
      <trkpt lat="51.058465" lon="8.397565">
        <ele>418.238089</ele>
        <time>2021-01-01T16:39:44.996Z</time>
      </trkpt>
      <trkpt lat="51.058491" lon="8.397704">
        <ele>418.238089</ele>
        <time>2021-01-01T16:40:11.996Z</time>
      </trkpt>
      <trkpt lat="51.058574" lon="8.397769">
        <ele>418.238089</ele>
        <time>2021-01-01T16:40:20.996Z</time>
      </trkpt>
    </trkseg>
  </trk>
</gpx>